<?xml version='1.0' encoding='UTF-8'?><gpx version="1.1" creator="JPX - https://github.com/jenetics/jpx" xmlns="http://www.topografix.com/GPX/1/1"><trk><trkseg><trkpt lat="45.6796338" lon="9.9543833"><ele>292.0</ele><time>2026-05-04T07:11:05.159Z</time></trkpt><trkpt lat="45.6796588" lon="9.9545735"><ele>292.0</ele><time>2026-05-04T07:11:07.659Z</time></trkpt><trkpt lat="45.6796588" lon="9.9545735"><ele>292.0</ele><time>2026-05-04T07:11:07.659Z</time></trkpt><trkpt lat="45.6795784" lon="9.9546087"><ele>292.0</ele><time>2026-05-04T07:12:50.705Z</time></trkpt><trkpt lat="45.6795566" lon="9.9547828"><ele>292.0</ele><time>2026-05-04T07:12:54.705Z</time></trkpt><trkpt lat="45.6795839" lon="9.9548757"><ele>292.0</ele><time>2026-05-04T07:12:56.705Z</time></trkpt><trkpt lat="45.6796921" lon="9.9549321"><ele>292.0</ele><time>2026-05-04T07:12:59.705Z</time></trkpt><trkpt lat="45.6798345" lon="9.9549817"><ele>292.0</ele><time>2026-05-04T07:13:02.704Z</time></trkpt><trkpt lat="45.6799281" lon="9.9550126"><ele>292.0</ele><time>2026-05-04T07:13:04.705Z</time></trkpt><trkpt lat="45.6800541" lon="9.9549934"><ele>292.0</ele><time>2026-05-04T07:13:07.705Z</time></trkpt><trkpt lat="45.6801374" lon="9.95486"><ele>292.0</ele><time>2026-05-04T07:13:10.705Z</time></trkpt><trkpt lat="45.6801808" lon="9.9547261"><ele>292.0</ele><time>2026-05-04T07:13:12.705Z</time></trkpt><trkpt lat="45.6802529" lon="9.9545149"><ele>292.0</ele><time>2026-05-04T07:13:15.705Z</time></trkpt><trkpt lat="45.6802979" lon="9.9543604"><ele>292.0</ele><time>2026-05-04T07:13:17.704Z</time></trkpt><trkpt lat="45.6803534" lon="9.954224"><ele>289.25</ele><time>2026-05-04T07:13:19.705Z</time></trkpt><trkpt lat="45.6804226" lon="9.9541271"><ele>286.5</ele><time>2026-05-04T07:13:21.705Z</time></trkpt><trkpt lat="45.6805098" lon="9.9541897"><ele>283.75</ele><time>2026-05-04T07:13:24.705Z</time></trkpt><trkpt lat="45.680445" lon="9.9544117"><ele>281.0</ele><time>2026-05-04T07:13:27.705Z</time></trkpt><trkpt lat="45.6804233" lon="9.9546233"><ele>281.0</ele><time>2026-05-04T07:13:29.705Z</time></trkpt><trkpt lat="45.6804033" lon="9.9547167"><ele>281.0</ele><time>2026-05-04T07:13:30.705Z</time></trkpt><trkpt lat="45.68039" lon="9.9548717"><ele>281.0</ele><time>2026-05-04T07:13:32.705Z</time></trkpt><trkpt lat="45.6804583" lon="9.9549967"><ele>281.0</ele><time>2026-05-04T07:13:34.705Z</time></trkpt><trkpt lat="45.6805217" lon="9.9550283"><ele>281.0</ele><time>2026-05-04T07:13:35.704Z</time></trkpt><trkpt lat="45.6805933" lon="9.95505"><ele>281.0</ele><time>2026-05-04T07:13:36.705Z</time></trkpt><trkpt lat="45.68067" lon="9.955075"><ele>281.0</ele><time>2026-05-04T07:13:37.705Z</time></trkpt><trkpt lat="45.68075" lon="9.9551067"><ele>281.0</ele><time>2026-05-04T07:13:38.705Z</time></trkpt><trkpt lat="45.6810183" lon="9.95521"><ele>281.0</ele><time>2026-05-04T07:13:41.705Z</time></trkpt><trkpt lat="45.681205" lon="9.9552717"><ele>281.6666666666667</ele><time>2026-05-04T07:13:43.704Z</time></trkpt><trkpt lat="45.681295" lon="9.9553"><ele>282.3333333333333</ele><time>2026-05-04T07:13:44.705Z</time></trkpt><trkpt lat="45.6814733" lon="9.95536"><ele>283.0</ele><time>2026-05-04T07:13:46.705Z</time></trkpt><trkpt lat="45.6816467" lon="9.9554167"><ele>283.0</ele><time>2026-05-04T07:13:48.705Z</time></trkpt><trkpt lat="45.68187" lon="9.9555083"><ele>283.0</ele><time>2026-05-04T07:13:51.705Z</time></trkpt><trkpt lat="45.6819767" lon="9.955535"><ele>283.0</ele><time>2026-05-04T07:13:54.705Z</time></trkpt><trkpt lat="45.681985" lon="9.9553417"><ele>282.25</ele><time>2026-05-04T07:14:01.705Z</time></trkpt><trkpt lat="45.68198" lon="9.9552383"><ele>281.5</ele><time>2026-05-04T07:14:02.705Z</time></trkpt><trkpt lat="45.6819817" lon="9.9551217"><ele>280.75</ele><time>2026-05-04T07:14:03.705Z</time></trkpt><trkpt lat="45.681995" lon="9.95488"><ele>280.0</ele><time>2026-05-04T07:14:05.705Z</time></trkpt><trkpt lat="45.6820333" lon="9.9546317"><ele>279.25</ele><time>2026-05-04T07:14:07.705Z</time></trkpt><trkpt lat="45.682055" lon="9.9545083"><ele>278.5</ele><time>2026-05-04T07:14:08.705Z</time></trkpt><trkpt lat="45.6820217" lon="9.9542767"><ele>277.75</ele><time>2026-05-04T07:14:10.705Z</time></trkpt><trkpt lat="45.6819833" lon="9.954165"><ele>277.0</ele><time>2026-05-04T07:14:11.705Z</time></trkpt><trkpt lat="45.6819317" lon="9.9539483"><ele>274.5</ele><time>2026-05-04T07:14:13.705Z</time></trkpt><trkpt lat="45.68197" lon="9.95371"><ele>272.0</ele><time>2026-05-04T07:14:15.705Z</time></trkpt><trkpt lat="45.6820233" lon="9.9536083"><ele>269.5</ele><time>2026-05-04T07:14:16.704Z</time></trkpt><trkpt lat="45.6820917" lon="9.9535067"><ele>267.0</ele><time>2026-05-04T07:14:17.705Z</time></trkpt><trkpt lat="45.6821967" lon="9.953305"><ele>265.5</ele><time>2026-05-04T07:14:19.705Z</time></trkpt><trkpt lat="45.6822417" lon="9.9531983"><ele>264.0</ele><time>2026-05-04T07:14:20.705Z</time></trkpt><trkpt lat="45.682305" lon="9.953"><ele>262.5</ele><time>2026-05-04T07:14:22.705Z</time></trkpt><trkpt lat="45.6823667" lon="9.9527933"><ele>261.0</ele><time>2026-05-04T07:14:24.705Z</time></trkpt><trkpt lat="45.6823917" lon="9.95269"><ele>260.5</ele><time>2026-05-04T07:14:25.705Z</time></trkpt><trkpt lat="45.68242" lon="9.9525117"><ele>260.0</ele><time>2026-05-04T07:14:27.704Z</time></trkpt><trkpt lat="45.68242" lon="9.9523717"><ele>259.5</ele><time>2026-05-04T07:14:29.705Z</time></trkpt><trkpt lat="45.6824133" lon="9.952255"><ele>259.0</ele><time>2026-05-04T07:14:34.705Z</time></trkpt><trkpt lat="45.6823367" lon="9.9520067"><ele>259.0</ele><time>2026-05-04T07:14:37.705Z</time></trkpt><trkpt lat="45.68229" lon="9.951895"><ele>259.0</ele><time>2026-05-04T07:14:38.705Z</time></trkpt><trkpt lat="45.6822467" lon="9.95177"><ele>259.0</ele><time>2026-05-04T07:14:39.704Z</time></trkpt><trkpt lat="45.6821983" lon="9.9516417"><ele>259.0</ele><time>2026-05-04T07:14:40.705Z</time></trkpt><trkpt lat="45.6821383" lon="9.9513367"><ele>251.0</ele><time>2026-05-04T07:14:42.705Z</time></trkpt><trkpt lat="45.6820683" lon="9.95086"><ele>243.0</ele><time>2026-05-04T07:14:45.705Z</time></trkpt><trkpt lat="45.682" lon="9.9505683"><ele>243.0</ele><time>2026-05-04T07:14:47.705Z</time></trkpt><trkpt lat="45.6819433" lon="9.950425"><ele>243.0</ele><time>2026-05-04T07:14:48.705Z</time></trkpt><trkpt lat="45.6818783" lon="9.950285"><ele>243.0</ele><time>2026-05-04T07:14:49.705Z</time></trkpt><trkpt lat="45.681775" lon="9.9499867"><ele>243.66666666666669</ele><time>2026-05-04T07:14:51.705Z</time></trkpt><trkpt lat="45.6817467" lon="9.9498283"><ele>244.33333333333334</ele><time>2026-05-04T07:14:52.705Z</time></trkpt><trkpt lat="45.6817183" lon="9.9496783"><ele>245.0</ele><time>2026-05-04T07:14:53.705Z</time></trkpt><trkpt lat="45.6815617" lon="9.949255"><ele>242.0</ele><time>2026-05-04T07:14:56.705Z</time></trkpt><trkpt lat="45.6814417" lon="9.9490233"><ele>239.0</ele><time>2026-05-04T07:14:58.704Z</time></trkpt><trkpt lat="45.6814083" lon="9.9488967"><ele>236.0</ele><time>2026-05-04T07:14:59.705Z</time></trkpt><trkpt lat="45.6814183" lon="9.948675"><ele>236.0</ele><time>2026-05-04T07:15:01.705Z</time></trkpt><trkpt lat="45.6814733" lon="9.9485383"><ele>236.0</ele><time>2026-05-04T07:15:04.705Z</time></trkpt><trkpt lat="45.6815183" lon="9.9484433"><ele>236.0</ele><time>2026-05-04T07:15:07.705Z</time></trkpt><trkpt lat="45.6815983" lon="9.948325"><ele>236.0</ele><time>2026-05-04T07:15:09.705Z</time></trkpt><trkpt lat="45.6816417" lon="9.9480567"><ele>234.66666666666669</ele><time>2026-05-04T07:15:12.705Z</time></trkpt><trkpt lat="45.68153" lon="9.94788"><ele>233.33333333333331</ele><time>2026-05-04T07:15:14.705Z</time></trkpt><trkpt lat="45.6814233" lon="9.9477833"><ele>232.0</ele><time>2026-05-04T07:15:15.704Z</time></trkpt><trkpt lat="45.6812167" lon="9.9476133"><ele>232.39999999999998</ele><time>2026-05-04T07:15:17.704Z</time></trkpt><trkpt lat="45.68113" lon="9.947525"><ele>232.79999999999998</ele><time>2026-05-04T07:15:18.705Z</time></trkpt><trkpt lat="45.681055" lon="9.9474417"><ele>233.2</ele><time>2026-05-04T07:15:19.705Z</time></trkpt><trkpt lat="45.6809517" lon="9.947305"><ele>233.6</ele><time>2026-05-04T07:15:21.704Z</time></trkpt><trkpt lat="45.6808967" lon="9.9472017"><ele>234.0</ele><time>2026-05-04T07:15:23.705Z</time></trkpt><trkpt lat="45.6808133" lon="9.9470483"><ele>232.0</ele><time>2026-05-04T07:15:38.705Z</time></trkpt><trkpt lat="45.6806433" lon="9.9469633"><ele>230.0</ele><time>2026-05-04T07:15:40.705Z</time></trkpt><trkpt lat="45.6805433" lon="9.946915"><ele>228.0</ele><time>2026-05-04T07:15:41.705Z</time></trkpt><trkpt lat="45.6803317" lon="9.9467683"><ele>227.66666666666669</ele><time>2026-05-04T07:15:43.705Z</time></trkpt><trkpt lat="45.680115" lon="9.9465983"><ele>227.33333333333334</ele><time>2026-05-04T07:15:45.705Z</time></trkpt><trkpt lat="45.6800033" lon="9.9465017"><ele>227.0</ele><time>2026-05-04T07:15:46.705Z</time></trkpt><trkpt lat="45.679805" lon="9.94628"><ele>227.0</ele><time>2026-05-04T07:15:48.705Z</time></trkpt><trkpt lat="45.6795017" lon="9.9459417"><ele>227.0</ele><time>2026-05-04T07:15:51.704Z</time></trkpt><trkpt lat="45.6792983" lon="9.945705"><ele>226.66666666666669</ele><time>2026-05-04T07:15:53.705Z</time></trkpt><trkpt lat="45.679075" lon="9.9454533"><ele>226.33333333333331</ele><time>2026-05-04T07:15:55.705Z</time></trkpt><trkpt lat="45.67895" lon="9.945315"><ele>226.0</ele><time>2026-05-04T07:15:56.705Z</time></trkpt><trkpt lat="45.6786917" lon="9.9450317"><ele>225.5</ele><time>2026-05-04T07:15:58.705Z</time></trkpt><trkpt lat="45.6785667" lon="9.944885"><ele>225.0</ele><time>2026-05-04T07:15:59.704Z</time></trkpt><trkpt lat="45.6783117" lon="9.944575"><ele>225.0</ele><time>2026-05-04T07:16:01.705Z</time></trkpt><trkpt lat="45.6781933" lon="9.94441"><ele>225.0</ele><time>2026-05-04T07:16:02.704Z</time></trkpt><trkpt lat="45.6780833" lon="9.9442233"><ele>225.0</ele><time>2026-05-04T07:16:03.705Z</time></trkpt><trkpt lat="45.67798" lon="9.94403"><ele>227.0</ele><time>2026-05-04T07:16:04.705Z</time></trkpt><trkpt lat="45.6777883" lon="9.943645"><ele>229.0</ele><time>2026-05-04T07:16:06.705Z</time></trkpt><trkpt lat="45.6776883" lon="9.9434533"><ele>229.5</ele><time>2026-05-04T07:16:07.705Z</time></trkpt><trkpt lat="45.6774833" lon="9.943105"><ele>230.0</ele><time>2026-05-04T07:16:09.705Z</time></trkpt><trkpt lat="45.67736" lon="9.9429533"><ele>230.0</ele><time>2026-05-04T07:16:10.705Z</time></trkpt><trkpt lat="45.6772333" lon="9.942815"><ele>230.0</ele><time>2026-05-04T07:16:11.705Z</time></trkpt><trkpt lat="45.6771017" lon="9.9426933"><ele>230.0</ele><time>2026-05-04T07:16:12.705Z</time></trkpt><trkpt lat="45.6768567" lon="9.9424583"><ele>228.33333333333334</ele><time>2026-05-04T07:16:14.705Z</time></trkpt><trkpt lat="45.6767367" lon="9.9423383"><ele>226.66666666666669</ele><time>2026-05-04T07:16:15.705Z</time></trkpt><trkpt lat="45.676495" lon="9.9421"><ele>225.0</ele><time>2026-05-04T07:16:17.705Z</time></trkpt><trkpt lat="45.6762583" lon="9.9418617"><ele>225.0</ele><time>2026-05-04T07:16:19.705Z</time></trkpt><trkpt lat="45.67615" lon="9.9417367"><ele>225.0</ele><time>2026-05-04T07:16:20.705Z</time></trkpt><trkpt lat="45.67592" lon="9.9415267"><ele>225.0</ele><time>2026-05-04T07:16:22.704Z</time></trkpt><trkpt lat="45.6757983" lon="9.9414567"><ele>225.5</ele><time>2026-05-04T07:16:23.704Z</time></trkpt><trkpt lat="45.67554" lon="9.9413783"><ele>226.0</ele><time>2026-05-04T07:16:25.705Z</time></trkpt><trkpt lat="45.6752867" lon="9.9413283"><ele>226.66666666666666</ele><time>2026-05-04T07:16:27.705Z</time></trkpt><trkpt lat="45.6751667" lon="9.9413067"><ele>227.33333333333331</ele><time>2026-05-04T07:16:28.705Z</time></trkpt><trkpt lat="45.6749333" lon="9.94127"><ele>228.0</ele><time>2026-05-04T07:16:30.705Z</time></trkpt><trkpt lat="45.6748217" lon="9.9412517"><ele>228.0</ele><time>2026-05-04T07:16:31.705Z</time></trkpt><trkpt lat="45.6746083" lon="9.94121"><ele>228.0</ele><time>2026-05-04T07:16:33.705Z</time></trkpt><trkpt lat="45.6742967" lon="9.94114"><ele>229.66666666666669</ele><time>2026-05-04T07:16:36.705Z</time></trkpt><trkpt lat="45.6740767" lon="9.9410683"><ele>231.33333333333334</ele><time>2026-05-04T07:16:38.705Z</time></trkpt><trkpt lat="45.6739667" lon="9.9410067"><ele>233.0</ele><time>2026-05-04T07:16:39.705Z</time></trkpt><trkpt lat="45.6737467" lon="9.94089"><ele>234.0</ele><time>2026-05-04T07:16:41.705Z</time></trkpt><trkpt lat="45.6734083" lon="9.94071"><ele>235.0</ele><time>2026-05-04T07:16:44.705Z</time></trkpt><trkpt lat="45.6731833" lon="9.9405883"><ele>235.0</ele><time>2026-05-04T07:16:46.705Z</time></trkpt><trkpt lat="45.6730683" lon="9.9405317"><ele>235.0</ele><time>2026-05-04T07:16:47.705Z</time></trkpt><trkpt lat="45.6728333" lon="9.9404167"><ele>235.0</ele><time>2026-05-04T07:16:49.704Z</time></trkpt><trkpt lat="45.672715" lon="9.9403617"><ele>232.5</ele><time>2026-05-04T07:16:50.705Z</time></trkpt><trkpt lat="45.6724717" lon="9.9402717"><ele>230.0</ele><time>2026-05-04T07:16:52.705Z</time></trkpt><trkpt lat="45.6720983" lon="9.940225"><ele>229.66666666666669</ele><time>2026-05-04T07:16:55.705Z</time></trkpt><trkpt lat="45.6718617" lon="9.940215"><ele>229.33333333333331</ele><time>2026-05-04T07:16:57.705Z</time></trkpt><trkpt lat="45.6717517" lon="9.9402133"><ele>229.0</ele><time>2026-05-04T07:16:58.705Z</time></trkpt><trkpt lat="45.671535" lon="9.9402117"><ele>229.0</ele><time>2026-05-04T07:17:00.705Z</time></trkpt><trkpt lat="45.67131" lon="9.9402033"><ele>229.0</ele><time>2026-05-04T07:17:02.704Z</time></trkpt><trkpt lat="45.6710817" lon="9.940205"><ele>229.5</ele><time>2026-05-04T07:17:04.705Z</time></trkpt><trkpt lat="45.6709683" lon="9.9402033"><ele>230.0</ele><time>2026-05-04T07:17:05.705Z</time></trkpt><trkpt lat="45.6708583" lon="9.9402017"><ele>230.5</ele><time>2026-05-04T07:17:06.705Z</time></trkpt><trkpt lat="45.6706367" lon="9.94019"><ele>231.0</ele><time>2026-05-04T07:17:08.705Z</time></trkpt><trkpt lat="45.6703217" lon="9.9401917"><ele>231.75</ele><time>2026-05-04T07:17:11.705Z</time></trkpt><trkpt lat="45.6702183" lon="9.940185"><ele>232.5</ele><time>2026-05-04T07:17:12.705Z</time></trkpt><trkpt lat="45.670125" lon="9.9401733"><ele>233.25</ele><time>2026-05-04T07:17:13.705Z</time></trkpt><trkpt lat="45.6699533" lon="9.940145"><ele>234.0</ele><time>2026-05-04T07:17:15.705Z</time></trkpt><trkpt lat="45.669875" lon="9.940125"><ele>234.0</ele><time>2026-05-04T07:17:16.705Z</time></trkpt><trkpt lat="45.6697283" lon="9.9400733"><ele>234.0</ele><time>2026-05-04T07:17:18.705Z</time></trkpt><trkpt lat="45.66955" lon="9.9399967"><ele>234.0</ele><time>2026-05-04T07:17:21.705Z</time></trkpt><trkpt lat="45.66948" lon="9.9399567"><ele>234.0</ele><time>2026-05-04T07:17:24.705Z</time></trkpt><trkpt lat="45.6694117" lon="9.9399233"><ele>233.5</ele><time>2026-05-04T07:17:28.705Z</time></trkpt><trkpt lat="45.6693233" lon="9.9398867"><ele>233.0</ele><time>2026-05-04T07:17:31.705Z</time></trkpt><trkpt lat="45.6692083" lon="9.9398383"><ele>232.5</ele><time>2026-05-04T07:17:34.705Z</time></trkpt><trkpt lat="45.6691133" lon="9.9398117"><ele>232.0</ele><time>2026-05-04T07:17:37.705Z</time></trkpt><trkpt lat="45.6689567" lon="9.9396433"><ele>232.0</ele><time>2026-05-04T07:17:40.705Z</time></trkpt><trkpt lat="45.668815" lon="9.9392933"><ele>232.0</ele><time>2026-05-04T07:17:43.705Z</time></trkpt><trkpt lat="45.668685" lon="9.938895"><ele>232.33333333333331</ele><time>2026-05-04T07:17:46.705Z</time></trkpt><trkpt lat="45.6685933" lon="9.9386083"><ele>232.66666666666669</ele><time>2026-05-04T07:17:48.705Z</time></trkpt><trkpt lat="45.66855" lon="9.9384667"><ele>233.0</ele><time>2026-05-04T07:17:49.705Z</time></trkpt><trkpt lat="45.668455" lon="9.9381883"><ele>233.0</ele><time>2026-05-04T07:17:51.704Z</time></trkpt><trkpt lat="45.6684117" lon="9.9380417"><ele>233.0</ele><time>2026-05-04T07:17:52.705Z</time></trkpt><trkpt lat="45.668325" lon="9.93777"><ele>233.0</ele><time>2026-05-04T07:17:54.705Z</time></trkpt><trkpt lat="45.668195" lon="9.9373717"><ele>233.25</ele><time>2026-05-04T07:17:57.705Z</time></trkpt><trkpt lat="45.6681483" lon="9.9372367"><ele>233.5</ele><time>2026-05-04T07:17:58.705Z</time></trkpt><trkpt lat="45.668105" lon="9.9371017"><ele>233.75</ele><time>2026-05-04T07:17:59.705Z</time></trkpt><trkpt lat="45.668025" lon="9.93685"><ele>234.0</ele><time>2026-05-04T07:18:01.705Z</time></trkpt><trkpt lat="45.667985" lon="9.9367433"><ele>233.66666666666669</ele><time>2026-05-04T07:18:02.705Z</time></trkpt><trkpt lat="45.6679233" lon="9.9365517"><ele>233.33333333333334</ele><time>2026-05-04T07:18:04.705Z</time></trkpt><trkpt lat="45.6678567" lon="9.9362867"><ele>233.0</ele><time>2026-05-04T07:18:07.705Z</time></trkpt><trkpt lat="45.66785" lon="9.9361167"><ele>232.75</ele><time>2026-05-04T07:18:09.705Z</time></trkpt><trkpt lat="45.6677783" lon="9.9358783"><ele>232.5</ele><time>2026-05-04T07:18:12.705Z</time></trkpt><trkpt lat="45.6677367" lon="9.9357867"><ele>232.25</ele><time>2026-05-04T07:18:13.705Z</time></trkpt><trkpt lat="45.667625" lon="9.9356033"><ele>232.0</ele><time>2026-05-04T07:18:15.705Z</time></trkpt><trkpt lat="45.667555" lon="9.93552"><ele>232.0</ele><time>2026-05-04T07:18:16.705Z</time></trkpt><trkpt lat="45.6674117" lon="9.9353183"><ele>232.0</ele><time>2026-05-04T07:18:18.705Z</time></trkpt><trkpt lat="45.6673417" lon="9.9352083"><ele>232.0</ele><time>2026-05-04T07:18:19.705Z</time></trkpt><trkpt lat="45.6672717" lon="9.9350983"><ele>232.0</ele><time>2026-05-04T07:18:20.704Z</time></trkpt><trkpt lat="45.667135" lon="9.9348867"><ele>232.0</ele><time>2026-05-04T07:18:22.704Z</time></trkpt><trkpt lat="45.666965" lon="9.9346133"><ele>232.0</ele><time>2026-05-04T07:18:25.705Z</time></trkpt><trkpt lat="45.6668467" lon="9.934435"><ele>232.0</ele><time>2026-05-04T07:18:28.705Z</time></trkpt><trkpt lat="45.66673" lon="9.9342367"><ele>231.75</ele><time>2026-05-04T07:18:31.704Z</time></trkpt><trkpt lat="45.6666267" lon="9.9340667"><ele>231.5</ele><time>2026-05-04T07:18:33.705Z</time></trkpt><trkpt lat="45.6665667" lon="9.93397"><ele>231.25</ele><time>2026-05-04T07:18:34.704Z</time></trkpt><trkpt lat="45.6664317" lon="9.93376"><ele>231.0</ele><time>2026-05-04T07:18:36.705Z</time></trkpt><trkpt lat="45.6663583" lon="9.933655"><ele>231.0</ele><time>2026-05-04T07:18:37.705Z</time></trkpt><trkpt lat="45.6662067" lon="9.9334283"><ele>231.0</ele><time>2026-05-04T07:18:39.705Z</time></trkpt><trkpt lat="45.6660617" lon="9.9332017"><ele>231.0</ele><time>2026-05-04T07:18:41.704Z</time></trkpt><trkpt lat="45.66598" lon="9.933085"><ele>230.33333333333331</ele><time>2026-05-04T07:18:42.705Z</time></trkpt><trkpt lat="45.665765" lon="9.9327283"><ele>229.66666666666666</ele><time>2026-05-04T07:18:45.705Z</time></trkpt><trkpt lat="45.6657017" lon="9.9326233"><ele>229.0</ele><time>2026-05-04T07:18:46.705Z</time></trkpt><trkpt lat="45.6655783" lon="9.9324217"><ele>229.0</ele><time>2026-05-04T07:18:48.705Z</time></trkpt><trkpt lat="45.6654083" lon="9.9321467"><ele>229.0</ele><time>2026-05-04T07:18:51.705Z</time></trkpt><trkpt lat="45.66531" lon="9.9319983"><ele>229.0</ele><time>2026-05-04T07:18:53.705Z</time></trkpt><trkpt lat="45.6652617" lon="9.9319233"><ele>229.0</ele><time>2026-05-04T07:18:54.705Z</time></trkpt><trkpt lat="45.6651783" lon="9.93179"><ele>228.99999999999997</ele><time>2026-05-04T07:18:56.704Z</time></trkpt><trkpt lat="45.6651283" lon="9.9316833"><ele>228.99999999999997</ele><time>2026-05-04T07:18:59.704Z</time></trkpt><trkpt lat="45.6651133" lon="9.93152"><ele>229.0</ele><time>2026-05-04T07:19:02.705Z</time></trkpt><trkpt lat="45.6651167" lon="9.9313617"><ele>229.0</ele><time>2026-05-04T07:19:04.705Z</time></trkpt><trkpt lat="45.66505" lon="9.9311167"><ele>229.25</ele><time>2026-05-04T07:19:07.704Z</time></trkpt><trkpt lat="45.66493" lon="9.931045"><ele>229.5</ele><time>2026-05-04T07:19:09.705Z</time></trkpt><trkpt lat="45.6648583" lon="9.931055"><ele>229.75</ele><time>2026-05-04T07:19:10.705Z</time></trkpt><trkpt lat="45.6646367" lon="9.9310867"><ele>230.0</ele><time>2026-05-04T07:19:13.705Z</time></trkpt><trkpt lat="45.6644667" lon="9.93102"><ele>230.0</ele><time>2026-05-04T07:19:15.705Z</time></trkpt><trkpt lat="45.6643733" lon="9.93099"><ele>230.0</ele><time>2026-05-04T07:19:16.705Z</time></trkpt><trkpt lat="45.6641767" lon="9.9309333"><ele>230.0</ele><time>2026-05-04T07:19:18.705Z</time></trkpt><trkpt lat="45.663925" lon="9.93075"><ele>230.0</ele><time>2026-05-04T07:19:21.705Z</time></trkpt><trkpt lat="45.663865" lon="9.930375"><ele>230.0</ele><time>2026-05-04T07:19:24.705Z</time></trkpt><trkpt lat="45.6638883" lon="9.930065"><ele>229.25</ele><time>2026-05-04T07:19:26.705Z</time></trkpt><trkpt lat="45.6638933" lon="9.9299083"><ele>228.5</ele><time>2026-05-04T07:19:27.705Z</time></trkpt><trkpt lat="45.663905" lon="9.9297433"><ele>227.75</ele><time>2026-05-04T07:19:28.705Z</time></trkpt><trkpt lat="45.6639117" lon="9.9295733"><ele>227.0</ele><time>2026-05-04T07:19:29.705Z</time></trkpt><trkpt lat="45.6639017" lon="9.9290217"><ele>226.33333333333334</ele><time>2026-05-04T07:19:32.705Z</time></trkpt><trkpt lat="45.6638967" lon="9.92867"><ele>225.66666666666669</ele><time>2026-05-04T07:19:34.705Z</time></trkpt><trkpt lat="45.6638933" lon="9.9284883"><ele>225.0</ele><time>2026-05-04T07:19:35.705Z</time></trkpt><trkpt lat="45.6638867" lon="9.928125"><ele>224.66666666666669</ele><time>2026-05-04T07:19:37.705Z</time></trkpt><trkpt lat="45.663885" lon="9.92794"><ele>224.33333333333334</ele><time>2026-05-04T07:19:38.705Z</time></trkpt><trkpt lat="45.6638783" lon="9.9275767"><ele>224.0</ele><time>2026-05-04T07:19:40.705Z</time></trkpt><trkpt lat="45.6638883" lon="9.9273967"><ele>224.0</ele><time>2026-05-04T07:19:41.705Z</time></trkpt><trkpt lat="45.6639" lon="9.9270517"><ele>224.0</ele><time>2026-05-04T07:19:43.705Z</time></trkpt><trkpt lat="45.6638983" lon="9.9267033"><ele>223.75</ele><time>2026-05-04T07:19:45.705Z</time></trkpt><trkpt lat="45.6639" lon="9.9265417"><ele>223.5</ele><time>2026-05-04T07:19:46.705Z</time></trkpt><trkpt lat="45.6639" lon="9.9263933"><ele>223.25</ele><time>2026-05-04T07:19:47.704Z</time></trkpt><trkpt lat="45.6639" lon="9.9262567"><ele>223.0</ele><time>2026-05-04T07:19:48.705Z</time></trkpt><trkpt lat="45.6639283" lon="9.9259733"><ele>223.33333333333331</ele><time>2026-05-04T07:19:50.705Z</time></trkpt><trkpt lat="45.664115" lon="9.9256533"><ele>223.66666666666669</ele><time>2026-05-04T07:19:53.705Z</time></trkpt><trkpt lat="45.66421" lon="9.9255583"><ele>224.0</ele><time>2026-05-04T07:19:54.705Z</time></trkpt><trkpt lat="45.6643783" lon="9.9253417"><ele>224.0</ele><time>2026-05-04T07:19:56.704Z</time></trkpt><trkpt lat="45.66447" lon="9.9252317"><ele>224.0</ele><time>2026-05-04T07:19:57.705Z</time></trkpt><trkpt lat="45.6645667" lon="9.9251217"><ele>224.0</ele><time>2026-05-04T07:19:58.705Z</time></trkpt><trkpt lat="45.6647933" lon="9.9249183"><ele>223.33333333333334</ele><time>2026-05-04T07:20:00.704Z</time></trkpt><trkpt lat="45.6649233" lon="9.9248467"><ele>222.66666666666669</ele><time>2026-05-04T07:20:01.705Z</time></trkpt><trkpt lat="45.6651817" lon="9.9247233"><ele>222.0</ele><time>2026-05-04T07:20:03.705Z</time></trkpt><trkpt lat="45.66531" lon="9.92465"><ele>222.0</ele><time>2026-05-04T07:20:04.705Z</time></trkpt><trkpt lat="45.6655617" lon="9.92449"><ele>222.0</ele><time>2026-05-04T07:20:06.705Z</time></trkpt><trkpt lat="45.6656833" lon="9.9244017"><ele>222.0</ele><time>2026-05-04T07:20:07.705Z</time></trkpt><trkpt lat="45.6659183" lon="9.9242167"><ele>221.66666666666669</ele><time>2026-05-04T07:20:09.705Z</time></trkpt><trkpt lat="45.6660267" lon="9.9241233"><ele>221.33333333333334</ele><time>2026-05-04T07:20:10.705Z</time></trkpt><trkpt lat="45.66623" lon="9.9239367"><ele>221.0</ele><time>2026-05-04T07:20:12.705Z</time></trkpt><trkpt lat="45.6664883" lon="9.9238217"><ele>221.75</ele><time>2026-05-04T07:20:15.705Z</time></trkpt><trkpt lat="45.6665567" lon="9.9237983"><ele>222.5</ele><time>2026-05-04T07:20:16.705Z</time></trkpt><trkpt lat="45.666625" lon="9.9236333"><ele>223.25</ele><time>2026-05-04T07:20:18.705Z</time></trkpt><trkpt lat="45.6666817" lon="9.9233617"><ele>224.0</ele><time>2026-05-04T07:20:20.705Z</time></trkpt><trkpt lat="45.666725" lon="9.9232267"><ele>224.0</ele><time>2026-05-04T07:20:21.705Z</time></trkpt><trkpt lat="45.6668083" lon="9.9229033"><ele>224.0</ele><time>2026-05-04T07:20:23.705Z</time></trkpt><trkpt lat="45.6668417" lon="9.9227267"><ele>224.0</ele><time>2026-05-04T07:20:24.705Z</time></trkpt><trkpt lat="45.66689" lon="9.9223217"><ele>226.0</ele><time>2026-05-04T07:20:26.705Z</time></trkpt><trkpt lat="45.6668583" lon="9.92166"><ele>226.0</ele><time>2026-05-04T07:20:29.705Z</time></trkpt><trkpt lat="45.6668317" lon="9.9210067"><ele>227.33333333333331</ele><time>2026-05-04T07:20:32.705Z</time></trkpt><trkpt lat="45.6668267" lon="9.9207817"><ele>228.66666666666669</ele><time>2026-05-04T07:20:33.705Z</time></trkpt><trkpt lat="45.6668233" lon="9.9205533"><ele>230.0</ele><time>2026-05-04T07:20:34.705Z</time></trkpt><trkpt lat="45.6668167" lon="9.9200767"><ele>229.66666666666669</ele><time>2026-05-04T07:20:36.705Z</time></trkpt><trkpt lat="45.6668183" lon="9.9198333"><ele>229.33333333333331</ele><time>2026-05-04T07:20:37.705Z</time></trkpt><trkpt lat="45.66683" lon="9.9196033"><ele>229.0</ele><time>2026-05-04T07:20:38.705Z</time></trkpt><trkpt lat="45.66686" lon="9.9193633"><ele>231.0</ele><time>2026-05-04T07:20:39.705Z</time></trkpt><trkpt lat="45.6669517" lon="9.91891"><ele>233.0</ele><time>2026-05-04T07:20:41.705Z</time></trkpt><trkpt lat="45.6670083" lon="9.9187133"><ele>233.66666666666669</ele><time>2026-05-04T07:20:42.705Z</time></trkpt><trkpt lat="45.6671133" lon="9.9183417"><ele>234.33333333333331</ele><time>2026-05-04T07:20:44.705Z</time></trkpt><trkpt lat="45.6671533" lon="9.9181433"><ele>235.0</ele><time>2026-05-04T07:20:45.705Z</time></trkpt><trkpt lat="45.6671467" lon="9.917725"><ele>236.0</ele><time>2026-05-04T07:20:47.705Z</time></trkpt><trkpt lat="45.6671183" lon="9.9175167"><ele>237.0</ele><time>2026-05-04T07:20:48.705Z</time></trkpt><trkpt lat="45.6670283" lon="9.9170783"><ele>237.0</ele><time>2026-05-04T07:20:50.704Z</time></trkpt><trkpt lat="45.6669833" lon="9.9168667"><ele>237.0</ele><time>2026-05-04T07:20:51.705Z</time></trkpt><trkpt lat="45.6669" lon="9.9164317"><ele>237.66666666666669</ele><time>2026-05-04T07:20:53.705Z</time></trkpt><trkpt lat="45.6668683" lon="9.9162183"><ele>238.33333333333334</ele><time>2026-05-04T07:20:54.705Z</time></trkpt><trkpt lat="45.666885" lon="9.9158167"><ele>239.0</ele><time>2026-05-04T07:20:56.705Z</time></trkpt><trkpt lat="45.66705" lon="9.9153017"><ele>239.66666666666669</ele><time>2026-05-04T07:20:59.704Z</time></trkpt><trkpt lat="45.6670833" lon="9.91513"><ele>240.33333333333331</ele><time>2026-05-04T07:21:00.704Z</time></trkpt><trkpt lat="45.6670833" lon="9.9147517"><ele>241.0</ele><time>2026-05-04T07:21:02.705Z</time></trkpt><trkpt lat="45.667055" lon="9.914555"><ele>242.66666666666666</ele><time>2026-05-04T07:21:03.705Z</time></trkpt><trkpt lat="45.6670383" lon="9.9143467"><ele>244.33333333333331</ele><time>2026-05-04T07:21:04.705Z</time></trkpt><trkpt lat="45.6670033" lon="9.9139533"><ele>246.0</ele><time>2026-05-04T07:21:06.705Z</time></trkpt><trkpt lat="45.66699" lon="9.9137583"><ele>249.5</ele><time>2026-05-04T07:21:07.704Z</time></trkpt><trkpt lat="45.6669667" lon="9.9133583"><ele>253.0</ele><time>2026-05-04T07:21:09.705Z</time></trkpt><trkpt lat="45.666955" lon="9.9127667"><ele>253.0</ele><time>2026-05-04T07:21:12.705Z</time></trkpt><trkpt lat="45.6669517" lon="9.9122067"><ele>253.0</ele><time>2026-05-04T07:21:15.705Z</time></trkpt><trkpt lat="45.6668583" lon="9.911525"><ele>249.0</ele><time>2026-05-04T07:21:18.704Z</time></trkpt><trkpt lat="45.6667133" lon="9.9108983"><ele>249.0</ele><time>2026-05-04T07:21:21.705Z</time></trkpt><trkpt lat="45.66646" lon="9.9102733"><ele>248.0</ele><time>2026-05-04T07:21:24.705Z</time></trkpt><trkpt lat="45.6663683" lon="9.91007"><ele>247.0</ele><time>2026-05-04T07:21:25.705Z</time></trkpt><trkpt lat="45.6661717" lon="9.90968"><ele>245.0</ele><time>2026-05-04T07:21:27.705Z</time></trkpt><trkpt lat="45.666055" lon="9.9094967"><ele>243.0</ele><time>2026-05-04T07:21:28.705Z</time></trkpt><trkpt lat="45.6658417" lon="9.9091233"><ele>243.0</ele><time>2026-05-04T07:21:30.705Z</time></trkpt><trkpt lat="45.66554" lon="9.9086033"><ele>243.75</ele><time>2026-05-04T07:21:33.705Z</time></trkpt><trkpt lat="45.6653833" lon="9.9083017"><ele>244.5</ele><time>2026-05-04T07:21:36.705Z</time></trkpt><trkpt lat="45.66535" lon="9.9082083"><ele>245.25</ele><time>2026-05-04T07:21:39.705Z</time></trkpt><trkpt lat="45.6653183" lon="9.908125"><ele>246.0</ele><time>2026-05-04T07:21:48.704Z</time></trkpt><trkpt lat="45.6652967" lon="9.9080283"><ele>246.5</ele><time>2026-05-04T07:21:49.705Z</time></trkpt><trkpt lat="45.6652483" lon="9.9077817"><ele>247.0</ele><time>2026-05-04T07:21:51.705Z</time></trkpt><trkpt lat="45.665125" lon="9.90732"><ele>247.0</ele><time>2026-05-04T07:21:54.705Z</time></trkpt><trkpt lat="45.665035" lon="9.906945"><ele>247.0</ele><time>2026-05-04T07:21:56.705Z</time></trkpt><trkpt lat="45.6650017" lon="9.9067517"><ele>247.0</ele><time>2026-05-04T07:21:57.705Z</time></trkpt><trkpt lat="45.6649367" lon="9.9063717"><ele>247.0</ele><time>2026-05-04T07:21:59.705Z</time></trkpt><trkpt lat="45.6649067" lon="9.9061783"><ele>247.0</ele><time>2026-05-04T07:22:00.705Z</time></trkpt><trkpt lat="45.66483" lon="9.90581"><ele>247.0</ele><time>2026-05-04T07:22:02.705Z</time></trkpt><trkpt lat="45.6648217" lon="9.905265"><ele>247.66666666666666</ele><time>2026-05-04T07:22:05.705Z</time></trkpt><trkpt lat="45.6648533" lon="9.904865"><ele>248.33333333333331</ele><time>2026-05-04T07:22:07.705Z</time></trkpt><trkpt lat="45.6648717" lon="9.904665"><ele>249.0</ele><time>2026-05-04T07:22:08.704Z</time></trkpt><trkpt lat="45.6648833" lon="9.9042233"><ele>249.0</ele><time>2026-05-04T07:22:10.705Z</time></trkpt><trkpt lat="45.6648633" lon="9.903485"><ele>249.25</ele><time>2026-05-04T07:22:13.705Z</time></trkpt><trkpt lat="45.664845" lon="9.9032633"><ele>249.5</ele><time>2026-05-04T07:22:14.704Z</time></trkpt><trkpt lat="45.6648167" lon="9.903065"><ele>249.75</ele><time>2026-05-04T07:22:15.704Z</time></trkpt><trkpt lat="45.6647783" lon="9.9028933"><ele>250.0</ele><time>2026-05-04T07:22:16.705Z</time></trkpt><trkpt lat="45.664725" lon="9.9025567"><ele>250.75</ele><time>2026-05-04T07:22:18.705Z</time></trkpt><trkpt lat="45.66471" lon="9.90238"><ele>251.5</ele><time>2026-05-04T07:22:19.705Z</time></trkpt><trkpt lat="45.6646883" lon="9.9022017"><ele>252.25</ele><time>2026-05-04T07:22:20.705Z</time></trkpt><trkpt lat="45.6646767" lon="9.9020317"><ele>253.0</ele><time>2026-05-04T07:22:21.705Z</time></trkpt><trkpt lat="45.6646567" lon="9.9017167"><ele>254.25</ele><time>2026-05-04T07:22:23.705Z</time></trkpt><trkpt lat="45.66465" lon="9.90156"><ele>255.5</ele><time>2026-05-04T07:22:24.705Z</time></trkpt><trkpt lat="45.6646417" lon="9.901255"><ele>256.75</ele><time>2026-05-04T07:22:26.705Z</time></trkpt><trkpt lat="45.6646333" lon="9.9010983"><ele>258.0</ele><time>2026-05-04T07:22:27.705Z</time></trkpt><trkpt lat="45.664605" lon="9.9007867"><ele>258.3333333333333</ele><time>2026-05-04T07:22:29.705Z</time></trkpt><trkpt lat="45.664585" lon="9.9006167"><ele>258.66666666666663</ele><time>2026-05-04T07:22:30.705Z</time></trkpt><trkpt lat="45.664575" lon="9.9002783"><ele>259.0</ele><time>2026-05-04T07:22:32.705Z</time></trkpt><trkpt lat="45.6645583" lon="9.8997683"><ele>260.0</ele><time>2026-05-04T07:22:35.703Z</time></trkpt><trkpt lat="45.6645433" lon="9.8992683"><ele>261.0</ele><time>2026-05-04T07:22:38.704Z</time></trkpt><trkpt lat="45.6645233" lon="9.89893"><ele>263.3333333333333</ele><time>2026-05-04T07:22:40.705Z</time></trkpt><trkpt lat="45.6644967" lon="9.8987633"><ele>265.66666666666663</ele><time>2026-05-04T07:22:41.705Z</time></trkpt><trkpt lat="45.6644617" lon="9.89844"><ele>268.0</ele><time>2026-05-04T07:22:43.705Z</time></trkpt><trkpt lat="45.6645133" lon="9.8981817"><ele>270.3333333333333</ele><time>2026-05-04T07:22:45.705Z</time></trkpt><trkpt lat="45.664565" lon="9.8980767"><ele>272.6666666666667</ele><time>2026-05-04T07:22:46.705Z</time></trkpt><trkpt lat="45.66465" lon="9.8978567"><ele>275.0</ele><time>2026-05-04T07:22:48.705Z</time></trkpt><trkpt lat="45.6647317" lon="9.8974183"><ele>277.25</ele><time>2026-05-04T07:22:51.705Z</time></trkpt><trkpt lat="45.664735" lon="9.8972733"><ele>279.5</ele><time>2026-05-04T07:22:52.705Z</time></trkpt><trkpt lat="45.66473" lon="9.89712"><ele>281.75</ele><time>2026-05-04T07:22:53.704Z</time></trkpt><trkpt lat="45.664725" lon="9.89696"><ele>284.0</ele><time>2026-05-04T07:22:54.705Z</time></trkpt><trkpt lat="45.6646933" lon="9.8966433"><ele>289.0</ele><time>2026-05-04T07:22:56.705Z</time></trkpt><trkpt lat="45.66463" lon="9.8961883"><ele>294.0</ele><time>2026-05-04T07:22:59.704Z</time></trkpt><trkpt lat="45.6646433" lon="9.8957083"><ele>296.6666666666667</ele><time>2026-05-04T07:23:02.705Z</time></trkpt><trkpt lat="45.6646517" lon="9.895375"><ele>299.33333333333337</ele><time>2026-05-04T07:23:04.705Z</time></trkpt><trkpt lat="45.6646417" lon="9.8951883"><ele>302.0</ele><time>2026-05-04T07:23:05.705Z</time></trkpt><trkpt lat="45.6646133" lon="9.8948133"><ele>307.5</ele><time>2026-05-04T07:23:07.705Z</time></trkpt><trkpt lat="45.6646033" lon="9.8942483"><ele>313.0</ele><time>2026-05-04T07:23:10.705Z</time></trkpt><trkpt lat="45.6646467" lon="9.8938883"><ele>313.0</ele><time>2026-05-04T07:23:12.705Z</time></trkpt><trkpt lat="45.6646733" lon="9.893705"><ele>313.0</ele><time>2026-05-04T07:23:13.705Z</time></trkpt><trkpt lat="45.6647367" lon="9.893335"><ele>313.0</ele><time>2026-05-04T07:23:15.705Z</time></trkpt><trkpt lat="45.6647667" lon="9.8931583"><ele>316.66666666666663</ele><time>2026-05-04T07:23:16.704Z</time></trkpt><trkpt lat="45.6648367" lon="9.8928167"><ele>320.3333333333333</ele><time>2026-05-04T07:23:18.705Z</time></trkpt><trkpt lat="45.6648583" lon="9.8926617"><ele>324.0</ele><time>2026-05-04T07:23:19.705Z</time></trkpt><trkpt lat="45.6648367" lon="9.8923467"><ele>326.75</ele><time>2026-05-04T07:23:21.705Z</time></trkpt><trkpt lat="45.6648033" lon="9.8921917"><ele>329.5</ele><time>2026-05-04T07:23:22.705Z</time></trkpt><trkpt lat="45.6647517" lon="9.892045"><ele>332.25</ele><time>2026-05-04T07:23:23.704Z</time></trkpt><trkpt lat="45.6646883" lon="9.891915"><ele>335.0</ele><time>2026-05-04T07:23:24.705Z</time></trkpt><trkpt lat="45.6645917" lon="9.8916367"><ele>335.75</ele><time>2026-05-04T07:23:26.705Z</time></trkpt><trkpt lat="45.6645433" lon="9.8914933"><ele>336.5</ele><time>2026-05-04T07:23:27.705Z</time></trkpt><trkpt lat="45.6644283" lon="9.89122"><ele>337.25</ele><time>2026-05-04T07:23:29.705Z</time></trkpt><trkpt lat="45.6643583" lon="9.8911017"><ele>338.0</ele><time>2026-05-04T07:23:30.705Z</time></trkpt><trkpt lat="45.6642167" lon="9.8908633"><ele>345.0</ele><time>2026-05-04T07:23:32.705Z</time></trkpt><trkpt lat="45.6641333" lon="9.8907567"><ele>352.0</ele><time>2026-05-04T07:23:33.704Z</time></trkpt><trkpt lat="45.6640333" lon="9.89068"><ele>359.0</ele><time>2026-05-04T07:23:34.705Z</time></trkpt><trkpt lat="45.6638317" lon="9.8905317"><ele>360.33333333333337</ele><time>2026-05-04T07:23:36.705Z</time></trkpt><trkpt lat="45.6635417" lon="9.8902967"><ele>361.6666666666667</ele><time>2026-05-04T07:23:39.705Z</time></trkpt><trkpt lat="45.6634333" lon="9.8902533"><ele>363.0</ele><time>2026-05-04T07:23:40.705Z</time></trkpt><trkpt lat="45.663195" lon="9.8902333"><ele>363.0</ele><time>2026-05-04T07:23:42.705Z</time></trkpt><trkpt lat="45.6630683" lon="9.89024"><ele>363.0</ele><time>2026-05-04T07:23:43.704Z</time></trkpt><trkpt lat="45.662955" lon="9.89026"><ele>363.0</ele><time>2026-05-04T07:23:44.705Z</time></trkpt><trkpt lat="45.6627517" lon="9.890205"><ele>363.0</ele><time>2026-05-04T07:23:46.704Z</time></trkpt><trkpt lat="45.6624467" lon="9.8902967"><ele>366.3333333333333</ele><time>2026-05-04T07:23:49.705Z</time></trkpt><trkpt lat="45.6622783" lon="9.890455"><ele>369.66666666666663</ele><time>2026-05-04T07:23:51.705Z</time></trkpt><trkpt lat="45.6622117" lon="9.890565"><ele>373.0</ele><time>2026-05-04T07:23:52.705Z</time></trkpt><trkpt lat="45.6620817" lon="9.8907867"><ele>374.0</ele><time>2026-05-04T07:23:54.705Z</time></trkpt><trkpt lat="45.6618167" lon="9.891025"><ele>375.0</ele><time>2026-05-04T07:23:57.705Z</time></trkpt><trkpt lat="45.6617183" lon="9.8911033"><ele>376.0</ele><time>2026-05-04T07:23:58.705Z</time></trkpt><trkpt lat="45.6615017" lon="9.89121"><ele>376.0</ele><time>2026-05-04T07:24:00.705Z</time></trkpt><trkpt lat="45.6611767" lon="9.8914"><ele>376.0</ele><time>2026-05-04T07:24:03.705Z</time></trkpt><trkpt lat="45.6609233" lon="9.8915683"><ele>379.66666666666663</ele><time>2026-05-04T07:24:06.705Z</time></trkpt><trkpt lat="45.6607217" lon="9.8915017"><ele>383.3333333333333</ele><time>2026-05-04T07:24:08.705Z</time></trkpt><trkpt lat="45.6606317" lon="9.8914567"><ele>387.0</ele><time>2026-05-04T07:24:09.705Z</time></trkpt><trkpt lat="45.6604283" lon="9.8914917"><ele>387.0</ele><time>2026-05-04T07:24:11.704Z</time></trkpt><trkpt lat="45.6603117" lon="9.8915367"><ele>387.0</ele><time>2026-05-04T07:24:12.705Z</time></trkpt><trkpt lat="45.660085" lon="9.891605"><ele>387.0</ele><time>2026-05-04T07:24:14.705Z</time></trkpt><trkpt lat="45.65997" lon="9.891665"><ele>386.33333333333337</ele><time>2026-05-04T07:24:15.705Z</time></trkpt><trkpt lat="45.65981" lon="9.8918967"><ele>385.6666666666667</ele><time>2026-05-04T07:24:17.705Z</time></trkpt><trkpt lat="45.6597633" lon="9.8920317"><ele>385.0</ele><time>2026-05-04T07:24:18.705Z</time></trkpt><trkpt lat="45.6596183" lon="9.8922433"><ele>388.5</ele><time>2026-05-04T07:24:20.705Z</time></trkpt><trkpt lat="45.6593017" lon="9.8923683"><ele>392.0</ele><time>2026-05-04T07:24:23.705Z</time></trkpt><trkpt lat="45.6590783" lon="9.8926933"><ele>392.0</ele><time>2026-05-04T07:24:26.705Z</time></trkpt><trkpt lat="45.658825" lon="9.8930083"><ele>392.0</ele><time>2026-05-04T07:24:29.704Z</time></trkpt><trkpt lat="45.658605" lon="9.893135"><ele>398.3333333333333</ele><time>2026-05-04T07:24:31.705Z</time></trkpt><trkpt lat="45.658485" lon="9.8931717"><ele>404.66666666666663</ele><time>2026-05-04T07:24:32.705Z</time></trkpt><trkpt lat="45.6582467" lon="9.8932517"><ele>411.0</ele><time>2026-05-04T07:24:34.705Z</time></trkpt><trkpt lat="45.65803" lon="9.8933817"><ele>412.0</ele><time>2026-05-04T07:24:36.705Z</time></trkpt><trkpt lat="45.6579267" lon="9.8934983"><ele>413.0</ele><time>2026-05-04T07:24:37.705Z</time></trkpt><trkpt lat="45.6577267" lon="9.8937533"><ele>414.0</ele><time>2026-05-04T07:24:39.705Z</time></trkpt><trkpt lat="45.6576233" lon="9.893845"><ele>414.0</ele><time>2026-05-04T07:24:40.704Z</time></trkpt><trkpt lat="45.6574033" lon="9.893905"><ele>414.0</ele><time>2026-05-04T07:24:42.705Z</time></trkpt><trkpt lat="45.6570717" lon="9.8937267"><ele>419.0</ele><time>2026-05-04T07:24:45.705Z</time></trkpt><trkpt lat="45.6567317" lon="9.8936983"><ele>424.0</ele><time>2026-05-04T07:24:48.705Z</time></trkpt><trkpt lat="45.656505" lon="9.8939267"><ele>424.0</ele><time>2026-05-04T07:24:50.705Z</time></trkpt><trkpt lat="45.6563917" lon="9.8940283"><ele>424.0</ele><time>2026-05-04T07:24:51.705Z</time></trkpt><trkpt lat="45.6561467" lon="9.8941633"><ele>424.0</ele><time>2026-05-04T07:24:53.704Z</time></trkpt><trkpt lat="45.6560217" lon="9.894215"><ele>430.33333333333337</ele><time>2026-05-04T07:24:54.705Z</time></trkpt><trkpt lat="45.655765" lon="9.8942417"><ele>436.66666666666663</ele><time>2026-05-04T07:24:56.704Z</time></trkpt><trkpt lat="45.6556283" lon="9.894245"><ele>443.0</ele><time>2026-05-04T07:24:57.704Z</time></trkpt><trkpt lat="45.6553517" lon="9.8942517"><ele>443.3333333333333</ele><time>2026-05-04T07:24:59.705Z</time></trkpt><trkpt lat="45.6552117" lon="9.89425"><ele>443.66666666666663</ele><time>2026-05-04T07:25:00.705Z</time></trkpt><trkpt lat="45.65507" lon="9.89425"><ele>444.0</ele><time>2026-05-04T07:25:01.705Z</time></trkpt><trkpt lat="45.6548117" lon="9.8942733"><ele>444.0</ele><time>2026-05-04T07:25:03.705Z</time></trkpt><trkpt lat="45.65468" lon="9.8943117"><ele>444.0</ele><time>2026-05-04T07:25:04.705Z</time></trkpt><trkpt lat="45.6544283" lon="9.8944583"><ele>444.0</ele><time>2026-05-04T07:25:06.705Z</time></trkpt><trkpt lat="45.6541467" lon="9.89484"><ele>454.5</ele><time>2026-05-04T07:25:09.705Z</time></trkpt><trkpt lat="45.65402" lon="9.8953317"><ele>465.0</ele><time>2026-05-04T07:25:12.705Z</time></trkpt><trkpt lat="45.654" lon="9.895585"><ele>465.0</ele><time>2026-05-04T07:25:14.705Z</time></trkpt><trkpt lat="45.65399" lon="9.8956833"><ele>465.0</ele><time>2026-05-04T07:25:15.704Z</time></trkpt><trkpt lat="45.653925" lon="9.8957817"><ele>465.0</ele><time>2026-05-04T07:25:17.705Z</time></trkpt><trkpt lat="45.6538633" lon="9.8957267"><ele>465.0</ele><time>2026-05-04T07:25:19.705Z</time></trkpt><trkpt lat="45.6537767" lon="9.8952183"><ele>464.75</ele><time>2026-05-04T07:25:23.705Z</time></trkpt><trkpt lat="45.65374" lon="9.8949267"><ele>464.5</ele><time>2026-05-04T07:25:25.704Z</time></trkpt><trkpt lat="45.6537367" lon="9.8947967"><ele>464.25</ele><time>2026-05-04T07:25:26.705Z</time></trkpt><trkpt lat="45.6537267" lon="9.8945917"><ele>464.0</ele><time>2026-05-04T07:25:28.704Z</time></trkpt><trkpt lat="45.6537133" lon="9.894495"><ele>464.0</ele><time>2026-05-04T07:25:29.705Z</time></trkpt><trkpt lat="45.6536883" lon="9.8943617"><ele>464.0</ele><time>2026-05-04T07:25:31.705Z</time></trkpt><trkpt lat="45.6535633" lon="9.8942117"><ele>464.0</ele><time>2026-05-04T07:25:34.705Z</time></trkpt><trkpt lat="45.65334" lon="9.8939617"><ele>465.5</ele><time>2026-05-04T07:25:37.705Z</time></trkpt><trkpt lat="45.6532083" lon="9.8936817"><ele>467.0</ele><time>2026-05-04T07:25:39.705Z</time></trkpt><trkpt lat="45.6531033" lon="9.8933633"><ele>470.66666666666663</ele><time>2026-05-04T07:25:41.704Z</time></trkpt><trkpt lat="45.65305" lon="9.8931933"><ele>474.33333333333337</ele><time>2026-05-04T07:25:42.705Z</time></trkpt><trkpt lat="45.6529333" lon="9.8928383"><ele>478.0</ele><time>2026-05-04T07:25:44.704Z</time></trkpt><trkpt lat="45.6528733" lon="9.8926617"><ele>471.0</ele><time>2026-05-04T07:25:45.705Z</time></trkpt><trkpt lat="45.652755" lon="9.8922883"><ele>464.0</ele><time>2026-05-04T07:25:47.705Z</time></trkpt><trkpt lat="45.652695" lon="9.8921067"><ele>457.0</ele><time>2026-05-04T07:25:48.705Z</time></trkpt><trkpt lat="45.6525783" lon="9.891765"><ele>458.0</ele><time>2026-05-04T07:25:50.704Z</time></trkpt><trkpt lat="45.6525267" lon="9.8916017"><ele>459.0</ele><time>2026-05-04T07:25:51.705Z</time></trkpt><trkpt lat="45.6524767" lon="9.891445"><ele>460.0</ele><time>2026-05-04T07:25:52.704Z</time></trkpt><trkpt lat="45.652335" lon="9.89102"><ele>461.0</ele><time>2026-05-04T07:25:55.705Z</time></trkpt><trkpt lat="45.6521383" lon="9.89065"><ele>462.0</ele><time>2026-05-04T07:25:58.705Z</time></trkpt><trkpt lat="45.6520567" lon="9.8905267"><ele>463.0</ele><time>2026-05-04T07:25:59.705Z</time></trkpt><trkpt lat="45.65197" lon="9.890395"><ele>460.25</ele><time>2026-05-04T07:26:00.705Z</time></trkpt><trkpt lat="45.6518783" lon="9.8902617"><ele>457.5</ele><time>2026-05-04T07:26:01.705Z</time></trkpt><trkpt lat="45.6517917" lon="9.8901217"><ele>454.75</ele><time>2026-05-04T07:26:02.704Z</time></trkpt><trkpt lat="45.6517017" lon="9.8899933"><ele>452.0</ele><time>2026-05-04T07:26:03.704Z</time></trkpt><trkpt lat="45.651615" lon="9.889865"><ele>452.0</ele><time>2026-05-04T07:26:04.705Z</time></trkpt><trkpt lat="45.65153" lon="9.8897483"><ele>452.0</ele><time>2026-05-04T07:26:05.705Z</time></trkpt><trkpt lat="45.6514433" lon="9.889625"><ele>452.0</ele><time>2026-05-04T07:26:06.705Z</time></trkpt><trkpt lat="45.6513533" lon="9.8895"><ele>452.0</ele><time>2026-05-04T07:26:07.705Z</time></trkpt><trkpt lat="45.65127" lon="9.8893817"><ele>452.0</ele><time>2026-05-04T07:26:08.704Z</time></trkpt><trkpt lat="45.651195" lon="9.889265"><ele>452.00000000000006</ele><time>2026-05-04T07:26:09.705Z</time></trkpt><trkpt lat="45.651115" lon="9.8891633"><ele>452.00000000000006</ele><time>2026-05-04T07:26:10.705Z</time></trkpt><trkpt lat="45.6510367" lon="9.8890767"><ele>452.0</ele><time>2026-05-04T07:26:11.705Z</time></trkpt><trkpt lat="45.650955" lon="9.88899"><ele>452.0</ele><time>2026-05-04T07:26:12.705Z</time></trkpt><trkpt lat="45.65087" lon="9.88893"><ele>448.16666666666663</ele><time>2026-05-04T07:26:13.705Z</time></trkpt><trkpt lat="45.65079" lon="9.8888783"><ele>444.3333333333333</ele><time>2026-05-04T07:26:14.705Z</time></trkpt><trkpt lat="45.6507233" lon="9.8888133"><ele>440.5</ele><time>2026-05-04T07:26:15.705Z</time></trkpt><trkpt lat="45.6506917" lon="9.8887217"><ele>436.66666666666663</ele><time>2026-05-04T07:26:16.705Z</time></trkpt><trkpt lat="45.650685" lon="9.8886117"><ele>432.8333333333333</ele><time>2026-05-04T07:26:17.705Z</time></trkpt><trkpt lat="45.6507267" lon="9.8885133"><ele>429.0</ele><time>2026-05-04T07:26:18.704Z</time></trkpt><trkpt lat="45.6507917" lon="9.888435"><ele>429.0</ele><time>2026-05-04T07:26:19.705Z</time></trkpt><trkpt lat="45.6508783" lon="9.88837"><ele>429.0</ele><time>2026-05-04T07:26:20.705Z</time></trkpt><trkpt lat="45.6509883" lon="9.88834"><ele>429.0</ele><time>2026-05-04T07:26:21.705Z</time></trkpt><trkpt lat="45.6511183" lon="9.8883367"><ele>429.0</ele><time>2026-05-04T07:26:22.705Z</time></trkpt><trkpt lat="45.6512533" lon="9.8883517"><ele>429.0</ele><time>2026-05-04T07:26:23.705Z</time></trkpt><trkpt lat="45.651395" lon="9.8883667"><ele>429.0</ele><time>2026-05-04T07:26:24.704Z</time></trkpt><trkpt lat="45.6515233" lon="9.8883417"><ele>429.0</ele><time>2026-05-04T07:26:25.705Z</time></trkpt><trkpt lat="45.6516383" lon="9.888295"><ele>429.0</ele><time>2026-05-04T07:26:26.705Z</time></trkpt><trkpt lat="45.6517583" lon="9.8882483"><ele>429.0</ele><time>2026-05-04T07:26:27.705Z</time></trkpt><trkpt lat="45.6518667" lon="9.8881667"><ele>429.0</ele><time>2026-05-04T07:26:28.705Z</time></trkpt><trkpt lat="45.65197" lon="9.8880783"><ele>429.0</ele><time>2026-05-04T07:26:29.705Z</time></trkpt><trkpt lat="45.652075" lon="9.88801"><ele>429.0</ele><time>2026-05-04T07:26:30.705Z</time></trkpt><trkpt lat="45.652175" lon="9.8879283"><ele>429.6</ele><time>2026-05-04T07:26:31.704Z</time></trkpt><trkpt lat="45.6522583" lon="9.8878233"><ele>430.2</ele><time>2026-05-04T07:26:32.705Z</time></trkpt><trkpt lat="45.652315" lon="9.8877033"><ele>430.80000000000007</ele><time>2026-05-04T07:26:33.705Z</time></trkpt><trkpt lat="45.6523467" lon="9.8875433"><ele>431.40000000000003</ele><time>2026-05-04T07:26:34.705Z</time></trkpt><trkpt lat="45.652355" lon="9.88738"><ele>432.0</ele><time>2026-05-04T07:26:35.705Z</time></trkpt><trkpt lat="45.6523633" lon="9.8872167"><ele>432.0</ele><time>2026-05-04T07:26:36.705Z</time></trkpt><trkpt lat="45.652365" lon="9.8870533"><ele>432.0</ele><time>2026-05-04T07:26:37.705Z</time></trkpt><trkpt lat="45.6523683" lon="9.88688"><ele>432.0</ele><time>2026-05-04T07:26:38.705Z</time></trkpt><trkpt lat="45.65237" lon="9.8867067"><ele>432.0</ele><time>2026-05-04T07:26:39.705Z</time></trkpt><trkpt lat="45.652385" lon="9.8865333"><ele>428.5</ele><time>2026-05-04T07:26:40.705Z</time></trkpt><trkpt lat="45.6523883" lon="9.886365"><ele>425.0</ele><time>2026-05-04T07:26:41.705Z</time></trkpt><trkpt lat="45.6523883" lon="9.8861967"><ele>421.5</ele><time>2026-05-04T07:26:42.705Z</time></trkpt><trkpt lat="45.6523717" lon="9.8860417"><ele>418.0</ele><time>2026-05-04T07:26:43.705Z</time></trkpt><trkpt lat="45.6523317" lon="9.8859017"><ele>417.0</ele><time>2026-05-04T07:26:44.705Z</time></trkpt><trkpt lat="45.65227" lon="9.8857717"><ele>416.0</ele><time>2026-05-04T07:26:45.705Z</time></trkpt><trkpt lat="45.6522067" lon="9.8856633"><ele>415.0</ele><time>2026-05-04T07:26:46.704Z</time></trkpt><trkpt lat="45.6521517" lon="9.8855367"><ele>414.0</ele><time>2026-05-04T07:26:47.705Z</time></trkpt><trkpt lat="45.6521233" lon="9.8853883"><ele>413.0</ele><time>2026-05-04T07:26:48.704Z</time></trkpt><trkpt lat="45.6521267" lon="9.8852167"><ele>412.0</ele><time>2026-05-04T07:26:49.704Z</time></trkpt><trkpt lat="45.6521483" lon="9.8850367"><ele>411.0</ele><time>2026-05-04T07:26:50.705Z</time></trkpt><trkpt lat="45.6521733" lon="9.8848567"><ele>410.0</ele><time>2026-05-04T07:26:51.705Z</time></trkpt><trkpt lat="45.652205" lon="9.8846667"><ele>409.0</ele><time>2026-05-04T07:26:52.705Z</time></trkpt><trkpt lat="45.6522383" lon="9.8844917"><ele>409.0</ele><time>2026-05-04T07:26:53.705Z</time></trkpt><trkpt lat="45.652265" lon="9.8843133"><ele>409.0</ele><time>2026-05-04T07:26:54.705Z</time></trkpt><trkpt lat="45.6522933" lon="9.8841367"><ele>409.0</ele><time>2026-05-04T07:26:55.705Z</time></trkpt><trkpt lat="45.6523183" lon="9.8839617"><ele>409.0</ele><time>2026-05-04T07:26:56.705Z</time></trkpt><trkpt lat="45.652355" lon="9.8837567"><ele>406.25</ele><time>2026-05-04T07:26:57.705Z</time></trkpt><trkpt lat="45.6523667" lon="9.8835983"><ele>403.5</ele><time>2026-05-04T07:26:58.705Z</time></trkpt><trkpt lat="45.6523717" lon="9.8834283"><ele>400.75</ele><time>2026-05-04T07:26:59.705Z</time></trkpt><trkpt lat="45.6523583" lon="9.8832483"><ele>398.0</ele><time>2026-05-04T07:27:00.705Z</time></trkpt><trkpt lat="45.6523383" lon="9.8830583"><ele>396.5</ele><time>2026-05-04T07:27:01.705Z</time></trkpt><trkpt lat="45.6523267" lon="9.8828817"><ele>395.0</ele><time>2026-05-04T07:27:02.705Z</time></trkpt><trkpt lat="45.6523167" lon="9.8827067"><ele>393.5</ele><time>2026-05-04T07:27:03.705Z</time></trkpt><trkpt lat="45.6523133" lon="9.8825417"><ele>392.0</ele><time>2026-05-04T07:27:04.704Z</time></trkpt><trkpt lat="45.6523317" lon="9.88237"><ele>390.8</ele><time>2026-05-04T07:27:05.705Z</time></trkpt><trkpt lat="45.6523733" lon="9.882225"><ele>389.6</ele><time>2026-05-04T07:27:06.705Z</time></trkpt><trkpt lat="45.652425" lon="9.882095"><ele>388.40000000000003</ele><time>2026-05-04T07:27:07.705Z</time></trkpt><trkpt lat="45.6524717" lon="9.8819283"><ele>387.20000000000005</ele><time>2026-05-04T07:27:08.705Z</time></trkpt><trkpt lat="45.6524883" lon="9.881795"><ele>386.0</ele><time>2026-05-04T07:27:09.705Z</time></trkpt><trkpt lat="45.6524617" lon="9.8816633"><ele>384.0</ele><time>2026-05-04T07:27:10.705Z</time></trkpt><trkpt lat="45.6523917" lon="9.8815283"><ele>382.0</ele><time>2026-05-04T07:27:11.705Z</time></trkpt><trkpt lat="45.6523017" lon="9.8814017"><ele>380.0</ele><time>2026-05-04T07:27:12.705Z</time></trkpt><trkpt lat="45.6522283" lon="9.88126"><ele>378.0</ele><time>2026-05-04T07:27:13.705Z</time></trkpt><trkpt lat="45.6521767" lon="9.8810783"><ele>377.75</ele><time>2026-05-04T07:27:14.705Z</time></trkpt><trkpt lat="45.6521367" lon="9.8808783"><ele>377.5</ele><time>2026-05-04T07:27:15.705Z</time></trkpt><trkpt lat="45.652105" lon="9.8806983"><ele>377.25</ele><time>2026-05-04T07:27:16.705Z</time></trkpt><trkpt lat="45.6520917" lon="9.8805033"><ele>377.0</ele><time>2026-05-04T07:27:17.705Z</time></trkpt><trkpt lat="45.6520967" lon="9.8802983"><ele>377.0</ele><time>2026-05-04T07:27:18.705Z</time></trkpt><trkpt lat="45.6521133" lon="9.880105"><ele>377.0</ele><time>2026-05-04T07:27:19.705Z</time></trkpt><trkpt lat="45.6521283" lon="9.879905"><ele>377.0</ele><time>2026-05-04T07:27:20.705Z</time></trkpt><trkpt lat="45.652135" lon="9.8797133"><ele>377.0</ele><time>2026-05-04T07:27:21.705Z</time></trkpt><trkpt lat="45.65212" lon="9.8795167"><ele>376.0</ele><time>2026-05-04T07:27:22.705Z</time></trkpt><trkpt lat="45.6520667" lon="9.8793133"><ele>375.0</ele><time>2026-05-04T07:27:23.704Z</time></trkpt><trkpt lat="45.6519917" lon="9.8791283"><ele>374.0</ele><time>2026-05-04T07:27:24.704Z</time></trkpt><trkpt lat="45.65191" lon="9.878945"><ele>369.0</ele><time>2026-05-04T07:27:25.705Z</time></trkpt><trkpt lat="45.6518283" lon="9.8787617"><ele>364.0</ele><time>2026-05-04T07:27:26.704Z</time></trkpt><trkpt lat="45.6517517" lon="9.878585"><ele>359.0</ele><time>2026-05-04T07:27:27.705Z</time></trkpt><trkpt lat="45.6516817" lon="9.8784267"><ele>354.0</ele><time>2026-05-04T07:27:28.705Z</time></trkpt><trkpt lat="45.6516167" lon="9.878265"><ele>354.0</ele><time>2026-05-04T07:27:29.705Z</time></trkpt><trkpt lat="45.6515533" lon="9.878115"><ele>354.0</ele><time>2026-05-04T07:27:30.705Z</time></trkpt><trkpt lat="45.651495" lon="9.8779583"><ele>354.0</ele><time>2026-05-04T07:27:31.705Z</time></trkpt><trkpt lat="45.6514317" lon="9.87781"><ele>354.0</ele><time>2026-05-04T07:27:32.705Z</time></trkpt><trkpt lat="45.6513833" lon="9.877655"><ele>355.25</ele><time>2026-05-04T07:27:33.705Z</time></trkpt><trkpt lat="45.6513683" lon="9.8774983"><ele>356.5</ele><time>2026-05-04T07:27:34.704Z</time></trkpt><trkpt lat="45.6513767" lon="9.8773133"><ele>357.75</ele><time>2026-05-04T07:27:35.705Z</time></trkpt><trkpt lat="45.6514017" lon="9.877115"><ele>359.0</ele><time>2026-05-04T07:27:36.704Z</time></trkpt><trkpt lat="45.6514283" lon="9.876925"><ele>358.75</ele><time>2026-05-04T07:27:37.705Z</time></trkpt><trkpt lat="45.6514533" lon="9.8767367"><ele>358.5</ele><time>2026-05-04T07:27:38.704Z</time></trkpt><trkpt lat="45.6514817" lon="9.8765583"><ele>358.25</ele><time>2026-05-04T07:27:39.705Z</time></trkpt><trkpt lat="45.6515" lon="9.8763833"><ele>358.0</ele><time>2026-05-04T07:27:40.705Z</time></trkpt><trkpt lat="45.6515267" lon="9.8762167"><ele>358.0</ele><time>2026-05-04T07:27:41.705Z</time></trkpt><trkpt lat="45.6515483" lon="9.8760333"><ele>358.0</ele><time>2026-05-04T07:27:42.705Z</time></trkpt><trkpt lat="45.6515633" lon="9.875875"><ele>358.0</ele><time>2026-05-04T07:27:43.705Z</time></trkpt><trkpt lat="45.65156" lon="9.8757067"><ele>358.0</ele><time>2026-05-04T07:27:44.704Z</time></trkpt><trkpt lat="45.6515417" lon="9.87556"><ele>356.79999999999995</ele><time>2026-05-04T07:27:45.705Z</time></trkpt><trkpt lat="45.6515167" lon="9.8754317"><ele>355.6</ele><time>2026-05-04T07:27:46.705Z</time></trkpt><trkpt lat="45.6514583" lon="9.87531"><ele>354.4</ele><time>2026-05-04T07:27:47.705Z</time></trkpt><trkpt lat="45.6514" lon="9.87518"><ele>353.20000000000005</ele><time>2026-05-04T07:27:48.705Z</time></trkpt><trkpt lat="45.651335" lon="9.8750467"><ele>352.0</ele><time>2026-05-04T07:27:49.705Z</time></trkpt><trkpt lat="45.6512767" lon="9.8749033"><ele>351.6</ele><time>2026-05-04T07:27:50.705Z</time></trkpt><trkpt lat="45.6512317" lon="9.87476"><ele>351.20000000000005</ele><time>2026-05-04T07:27:51.705Z</time></trkpt><trkpt lat="45.6511983" lon="9.87461"><ele>350.8</ele><time>2026-05-04T07:27:52.705Z</time></trkpt><trkpt lat="45.651175" lon="9.8744583"><ele>350.4</ele><time>2026-05-04T07:27:53.705Z</time></trkpt><trkpt lat="45.65116" lon="9.8743017"><ele>350.0</ele><time>2026-05-04T07:27:54.705Z</time></trkpt><trkpt lat="45.6511433" lon="9.8741333"><ele>349.0</ele><time>2026-05-04T07:27:55.704Z</time></trkpt><trkpt lat="45.65113" lon="9.8739517"><ele>348.0</ele><time>2026-05-04T07:27:56.705Z</time></trkpt><trkpt lat="45.6511" lon="9.8737717"><ele>347.0</ele><time>2026-05-04T07:27:57.704Z</time></trkpt><trkpt lat="45.651065" lon="9.873615"><ele>346.0</ele><time>2026-05-04T07:27:58.705Z</time></trkpt><trkpt lat="45.6510083" lon="9.873465"><ele>341.20000000000005</ele><time>2026-05-04T07:27:59.705Z</time></trkpt><trkpt lat="45.650945" lon="9.8733217"><ele>336.40000000000003</ele><time>2026-05-04T07:28:00.704Z</time></trkpt><trkpt lat="45.6508817" lon="9.8732033"><ele>331.6</ele><time>2026-05-04T07:28:01.705Z</time></trkpt><trkpt lat="45.6508233" lon="9.8731117"><ele>326.8</ele><time>2026-05-04T07:28:02.705Z</time></trkpt><trkpt lat="45.6507717" lon="9.8730333"><ele>322.0</ele><time>2026-05-04T07:28:03.705Z</time></trkpt><trkpt lat="45.6506983" lon="9.8729117"><ele>322.0</ele><time>2026-05-04T07:28:05.705Z</time></trkpt><trkpt lat="45.65065" lon="9.8728267"><ele>322.0</ele><time>2026-05-04T07:28:09.705Z</time></trkpt><trkpt lat="45.6505683" lon="9.87273"><ele>322.0</ele><time>2026-05-04T07:28:12.705Z</time></trkpt><trkpt lat="45.6504867" lon="9.8726517"><ele>322.0</ele><time>2026-05-04T07:28:14.705Z</time></trkpt><trkpt lat="45.65041" lon="9.872545"><ele>322.0</ele><time>2026-05-04T07:28:16.705Z</time></trkpt><trkpt lat="45.6503367" lon="9.8724467"><ele>321.0</ele><time>2026-05-04T07:28:18.705Z</time></trkpt><trkpt lat="45.6502917" lon="9.8723683"><ele>320.0</ele><time>2026-05-04T07:28:19.705Z</time></trkpt><trkpt lat="45.6502417" lon="9.8723133"><ele>319.0</ele><time>2026-05-04T07:28:20.705Z</time></trkpt><trkpt lat="45.6501933" lon="9.8722533"><ele>318.0</ele><time>2026-05-04T07:28:21.705Z</time></trkpt><trkpt lat="45.650145" lon="9.8721867"><ele>317.0</ele><time>2026-05-04T07:28:22.705Z</time></trkpt><trkpt lat="45.6500917" lon="9.8721067"><ele>316.0</ele><time>2026-05-04T07:28:23.705Z</time></trkpt><trkpt lat="45.6500333" lon="9.8720217"><ele>315.0</ele><time>2026-05-04T07:28:24.705Z</time></trkpt><trkpt lat="45.6499717" lon="9.8719217"><ele>314.5</ele><time>2026-05-04T07:28:25.704Z</time></trkpt><trkpt lat="45.6499117" lon="9.87183"><ele>314.0</ele><time>2026-05-04T07:28:26.704Z</time></trkpt><trkpt lat="45.6498517" lon="9.8717383"><ele>313.5</ele><time>2026-05-04T07:28:27.705Z</time></trkpt><trkpt lat="45.649805" lon="9.8716317"><ele>313.0</ele><time>2026-05-04T07:28:28.705Z</time></trkpt><trkpt lat="45.64975" lon="9.8715333"><ele>312.5</ele><time>2026-05-04T07:28:29.705Z</time></trkpt><trkpt lat="45.6496833" lon="9.87145"><ele>312.0</ele><time>2026-05-04T07:28:30.705Z</time></trkpt><trkpt lat="45.6496083" lon="9.8713767"><ele>312.0</ele><time>2026-05-04T07:28:31.704Z</time></trkpt><trkpt lat="45.6495267" lon="9.8713167"><ele>312.0</ele><time>2026-05-04T07:28:32.705Z</time></trkpt><trkpt lat="45.6494433" lon="9.87126"><ele>312.0</ele><time>2026-05-04T07:28:33.705Z</time></trkpt><trkpt lat="45.6493767" lon="9.87121"><ele>312.0</ele><time>2026-05-04T07:28:34.705Z</time></trkpt><trkpt lat="45.6493133" lon="9.8711633"><ele>312.0</ele><time>2026-05-04T07:28:35.705Z</time></trkpt><trkpt lat="45.6492517" lon="9.8711183"><ele>312.0</ele><time>2026-05-04T07:28:36.704Z</time></trkpt><trkpt lat="45.6491567" lon="9.8710533"><ele>312.0</ele><time>2026-05-04T07:28:38.705Z</time></trkpt><trkpt lat="45.6490633" lon="9.8709717"><ele>312.0</ele><time>2026-05-04T07:28:40.704Z</time></trkpt><trkpt lat="45.649005" lon="9.87092"><ele>312.0</ele><time>2026-05-04T07:28:41.705Z</time></trkpt><trkpt lat="45.6489383" lon="9.87087"><ele>312.0</ele><time>2026-05-04T07:28:42.705Z</time></trkpt><trkpt lat="45.6488717" lon="9.8708117"><ele>312.0</ele><time>2026-05-04T07:28:43.705Z</time></trkpt><trkpt lat="45.6488" lon="9.8707467"><ele>312.0</ele><time>2026-05-04T07:28:44.704Z</time></trkpt><trkpt lat="45.648725" lon="9.87069"><ele>312.4</ele><time>2026-05-04T07:28:45.705Z</time></trkpt><trkpt lat="45.6486567" lon="9.8706267"><ele>312.79999999999995</ele><time>2026-05-04T07:28:46.705Z</time></trkpt><trkpt lat="45.6485983" lon="9.8705733"><ele>313.2</ele><time>2026-05-04T07:28:47.705Z</time></trkpt><trkpt lat="45.6484867" lon="9.8704567"><ele>313.59999999999997</ele><time>2026-05-04T07:28:49.705Z</time></trkpt><trkpt lat="45.6484217" lon="9.8703533"><ele>314.0</ele><time>2026-05-04T07:28:50.705Z</time></trkpt><trkpt lat="45.6483583" lon="9.8702383"><ele>314.0</ele><time>2026-05-04T07:28:51.705Z</time></trkpt><trkpt lat="45.6483033" lon="9.8701217"><ele>314.0</ele><time>2026-05-04T07:28:52.705Z</time></trkpt><trkpt lat="45.6482567" lon="9.87001"><ele>314.0</ele><time>2026-05-04T07:28:53.705Z</time></trkpt><trkpt lat="45.648215" lon="9.8698967"><ele>314.0</ele><time>2026-05-04T07:28:54.705Z</time></trkpt><trkpt lat="45.6481833" lon="9.8697917"><ele>314.0</ele><time>2026-05-04T07:28:55.705Z</time></trkpt><trkpt lat="45.6481517" lon="9.8696883"><ele>314.0</ele><time>2026-05-04T07:28:56.705Z</time></trkpt><trkpt lat="45.6481067" lon="9.8696017"><ele>314.33333333333337</ele><time>2026-05-04T07:28:57.705Z</time></trkpt><trkpt lat="45.6480483" lon="9.86952"><ele>314.6666666666667</ele><time>2026-05-04T07:28:58.705Z</time></trkpt><trkpt lat="45.6479833" lon="9.8694233"><ele>315.0</ele><time>2026-05-04T07:28:59.705Z</time></trkpt><trkpt lat="45.6479167" lon="9.8693283"><ele>315.3333333333333</ele><time>2026-05-04T07:29:00.705Z</time></trkpt><trkpt lat="45.6478583" lon="9.869235"><ele>315.66666666666663</ele><time>2026-05-04T07:29:01.705Z</time></trkpt><trkpt lat="45.6477983" lon="9.86914"><ele>316.0</ele><time>2026-05-04T07:29:02.705Z</time></trkpt><trkpt lat="45.647745" lon="9.8690633"><ele>316.0</ele><time>2026-05-04T07:29:03.705Z</time></trkpt><trkpt lat="45.6477033" lon="9.868975"><ele>316.0</ele><time>2026-05-04T07:29:04.705Z</time></trkpt><trkpt lat="45.6476583" lon="9.868895"><ele>316.0</ele><time>2026-05-04T07:29:05.704Z</time></trkpt><trkpt lat="45.6476067" lon="9.86882"><ele>316.0</ele><time>2026-05-04T07:29:06.705Z</time></trkpt><trkpt lat="45.6475667" lon="9.86875"><ele>316.0</ele><time>2026-05-04T07:29:07.705Z</time></trkpt><trkpt lat="45.6475033" lon="9.868615"><ele>316.0</ele><time>2026-05-04T07:29:09.704Z</time></trkpt><trkpt lat="45.6474317" lon="9.8684817"><ele>317.5</ele><time>2026-05-04T07:29:11.705Z</time></trkpt><trkpt lat="45.64739" lon="9.8684083"><ele>319.0</ele><time>2026-05-04T07:29:12.705Z</time></trkpt><trkpt lat="45.6473333" lon="9.8683333"><ele>320.5</ele><time>2026-05-04T07:29:13.705Z</time></trkpt><trkpt lat="45.64726" lon="9.8682583"><ele>322.0</ele><time>2026-05-04T07:29:14.705Z</time></trkpt><trkpt lat="45.6471933" lon="9.8681917"><ele>323.5</ele><time>2026-05-04T07:29:15.705Z</time></trkpt><trkpt lat="45.6471217" lon="9.8681267"><ele>325.0</ele><time>2026-05-04T07:29:16.705Z</time></trkpt><trkpt lat="45.6470633" lon="9.86807"><ele>325.0</ele><time>2026-05-04T07:29:17.705Z</time></trkpt><trkpt lat="45.6470017" lon="9.8680133"><ele>325.0</ele><time>2026-05-04T07:29:18.705Z</time></trkpt><trkpt lat="45.646945" lon="9.8679567"><ele>325.0</ele><time>2026-05-04T07:29:19.705Z</time></trkpt><trkpt lat="45.646835" lon="9.8678917"><ele>325.0</ele><time>2026-05-04T07:29:21.704Z</time></trkpt><trkpt lat="45.6467717" lon="9.867905"><ele>325.0</ele><time>2026-05-04T07:29:22.705Z</time></trkpt><trkpt lat="45.6467033" lon="9.8679533"><ele>325.0</ele><time>2026-05-04T07:29:23.705Z</time></trkpt><trkpt lat="45.646635" lon="9.8680133"><ele>323.16666666666663</ele><time>2026-05-04T07:29:24.705Z</time></trkpt><trkpt lat="45.6465667" lon="9.8680833"><ele>321.3333333333333</ele><time>2026-05-04T07:29:25.705Z</time></trkpt><trkpt lat="45.6465067" lon="9.868155"><ele>319.5</ele><time>2026-05-04T07:29:26.705Z</time></trkpt><trkpt lat="45.6464417" lon="9.86821"><ele>317.6666666666667</ele><time>2026-05-04T07:29:27.705Z</time></trkpt><trkpt lat="45.64638" lon="9.8682633"><ele>315.83333333333337</ele><time>2026-05-04T07:29:28.705Z</time></trkpt><trkpt lat="45.646335" lon="9.868335"><ele>314.0</ele><time>2026-05-04T07:29:29.704Z</time></trkpt><trkpt lat="45.6463533" lon="9.868485"><ele>311.8</ele><time>2026-05-04T07:29:31.705Z</time></trkpt><trkpt lat="45.6464083" lon="9.8685383"><ele>309.59999999999997</ele><time>2026-05-04T07:29:32.704Z</time></trkpt><trkpt lat="45.6465117" lon="9.868615"><ele>307.4</ele><time>2026-05-04T07:29:34.705Z</time></trkpt><trkpt lat="45.6465917" lon="9.8687183"><ele>305.2</ele><time>2026-05-04T07:29:36.705Z</time></trkpt><trkpt lat="45.6465917" lon="9.8688667"><ele>303.0</ele><time>2026-05-04T07:29:38.705Z</time></trkpt><trkpt lat="45.64648" lon="9.8689267"><ele>303.0</ele><time>2026-05-04T07:29:40.705Z</time></trkpt><trkpt lat="45.6464033" lon="9.868905"><ele>303.0</ele><time>2026-05-04T07:29:41.705Z</time></trkpt><trkpt lat="45.6463233" lon="9.8688883"><ele>303.0</ele><time>2026-05-04T07:29:42.705Z</time></trkpt><trkpt lat="45.6462433" lon="9.868875"><ele>303.0</ele><time>2026-05-04T07:29:43.705Z</time></trkpt><trkpt lat="45.6461583" lon="9.8688683"><ele>303.0</ele><time>2026-05-04T07:29:44.705Z</time></trkpt><trkpt lat="45.6460783" lon="9.8688517"><ele>303.0</ele><time>2026-05-04T07:29:45.705Z</time></trkpt><trkpt lat="45.646" lon="9.868825"><ele>301.8</ele><time>2026-05-04T07:29:46.704Z</time></trkpt><trkpt lat="45.645925" lon="9.8687583"><ele>300.6</ele><time>2026-05-04T07:29:47.705Z</time></trkpt><trkpt lat="45.6458617" lon="9.8686567"><ele>299.4</ele><time>2026-05-04T07:29:48.705Z</time></trkpt><trkpt lat="45.6458" lon="9.8685467"><ele>298.2</ele><time>2026-05-04T07:29:49.705Z</time></trkpt><trkpt lat="45.64574" lon="9.8684233"><ele>297.0</ele><time>2026-05-04T07:29:50.705Z</time></trkpt><trkpt lat="45.6456733" lon="9.8682933"><ele>297.0</ele><time>2026-05-04T07:29:51.705Z</time></trkpt><trkpt lat="45.6456" lon="9.8681817"><ele>297.0</ele><time>2026-05-04T07:29:52.705Z</time></trkpt><trkpt lat="45.6455283" lon="9.8680817"><ele>297.0</ele><time>2026-05-04T07:29:53.705Z</time></trkpt><trkpt lat="45.6454583" lon="9.868005"><ele>297.0</ele><time>2026-05-04T07:29:54.705Z</time></trkpt><trkpt lat="45.6453617" lon="9.8679517"><ele>297.0</ele><time>2026-05-04T07:29:55.705Z</time></trkpt><trkpt lat="45.645255" lon="9.8679133"><ele>293.6</ele><time>2026-05-04T07:29:56.705Z</time></trkpt><trkpt lat="45.64516" lon="9.8678767"><ele>290.2</ele><time>2026-05-04T07:29:57.705Z</time></trkpt><trkpt lat="45.6450583" lon="9.8678233"><ele>286.8</ele><time>2026-05-04T07:29:58.705Z</time></trkpt><trkpt lat="45.6449583" lon="9.8677767"><ele>283.4</ele><time>2026-05-04T07:29:59.705Z</time></trkpt><trkpt lat="45.6448667" lon="9.867735"><ele>280.0</ele><time>2026-05-04T07:30:00.705Z</time></trkpt><trkpt lat="45.644775" lon="9.867685"><ele>280.0</ele><time>2026-05-04T07:30:01.704Z</time></trkpt><trkpt lat="45.644695" lon="9.8676417"><ele>280.0</ele><time>2026-05-04T07:30:02.705Z</time></trkpt><trkpt lat="45.644625" lon="9.867605"><ele>280.0</ele><time>2026-05-04T07:30:03.705Z</time></trkpt><trkpt lat="45.6445567" lon="9.867565"><ele>280.0</ele><time>2026-05-04T07:30:04.705Z</time></trkpt><trkpt lat="45.644435" lon="9.8674983"><ele>280.0</ele><time>2026-05-04T07:30:06.705Z</time></trkpt><trkpt lat="45.6443633" lon="9.867455"><ele>280.0</ele><time>2026-05-04T07:30:07.704Z</time></trkpt><trkpt lat="45.6442883" lon="9.867405"><ele>280.0</ele><time>2026-05-04T07:30:08.705Z</time></trkpt><trkpt lat="45.6442183" lon="9.8673433"><ele>280.0</ele><time>2026-05-04T07:30:09.705Z</time></trkpt><trkpt lat="45.6441383" lon="9.867285"><ele>280.0</ele><time>2026-05-04T07:30:10.705Z</time></trkpt><trkpt lat="45.6440467" lon="9.8672383"><ele>280.0</ele><time>2026-05-04T07:30:11.705Z</time></trkpt><trkpt lat="45.6439417" lon="9.86722"><ele>280.0</ele><time>2026-05-04T07:30:12.705Z</time></trkpt><trkpt lat="45.6438383" lon="9.8672217"><ele>280.0</ele><time>2026-05-04T07:30:13.705Z</time></trkpt><trkpt lat="45.643735" lon="9.8672317"><ele>280.0</ele><time>2026-05-04T07:30:14.704Z</time></trkpt><trkpt lat="45.6436383" lon="9.86725"><ele>280.0</ele><time>2026-05-04T07:30:15.705Z</time></trkpt><trkpt lat="45.6435417" lon="9.867275"><ele>280.0</ele><time>2026-05-04T07:30:16.705Z</time></trkpt><trkpt lat="45.6434417" lon="9.8673283"><ele>280.0</ele><time>2026-05-04T07:30:17.705Z</time></trkpt><trkpt lat="45.6433567" lon="9.8673983"><ele>277.6</ele><time>2026-05-04T07:30:18.705Z</time></trkpt><trkpt lat="45.6432783" lon="9.8674967"><ele>275.2</ele><time>2026-05-04T07:30:19.705Z</time></trkpt><trkpt lat="45.643205" lon="9.8676117"><ele>272.8</ele><time>2026-05-04T07:30:20.705Z</time></trkpt><trkpt lat="45.64315" lon="9.8677367"><ele>270.4</ele><time>2026-05-04T07:30:21.705Z</time></trkpt><trkpt lat="45.6430917" lon="9.867855"><ele>268.0</ele><time>2026-05-04T07:30:22.705Z</time></trkpt><trkpt lat="45.643025" lon="9.8679717"><ele>266.4</ele><time>2026-05-04T07:30:23.705Z</time></trkpt><trkpt lat="45.6429467" lon="9.86807"><ele>264.8</ele><time>2026-05-04T07:30:24.705Z</time></trkpt><trkpt lat="45.6428583" lon="9.8681517"><ele>263.2</ele><time>2026-05-04T07:30:25.705Z</time></trkpt><trkpt lat="45.642765" lon="9.86823"><ele>261.6</ele><time>2026-05-04T07:30:26.705Z</time></trkpt><trkpt lat="45.6426733" lon="9.8683083"><ele>260.0</ele><time>2026-05-04T07:30:27.705Z</time></trkpt><trkpt lat="45.6425783" lon="9.868385"><ele>256.2</ele><time>2026-05-04T07:30:28.705Z</time></trkpt><trkpt lat="45.6424817" lon="9.868455"><ele>252.4</ele><time>2026-05-04T07:30:29.704Z</time></trkpt><trkpt lat="45.6423833" lon="9.8685233"><ele>248.60000000000002</ele><time>2026-05-04T07:30:30.705Z</time></trkpt><trkpt lat="45.6422817" lon="9.8685867"><ele>244.8</ele><time>2026-05-04T07:30:31.705Z</time></trkpt><trkpt lat="45.6421733" lon="9.8686233"><ele>241.0</ele><time>2026-05-04T07:30:32.705Z</time></trkpt><trkpt lat="45.642065" lon="9.868645"><ele>241.0</ele><time>2026-05-04T07:30:33.705Z</time></trkpt><trkpt lat="45.6419667" lon="9.8686683"><ele>241.00000000000003</ele><time>2026-05-04T07:30:34.705Z</time></trkpt><trkpt lat="45.6418617" lon="9.8686883"><ele>241.00000000000003</ele><time>2026-05-04T07:30:35.704Z</time></trkpt><trkpt lat="45.641765" lon="9.8686967"><ele>241.0</ele><time>2026-05-04T07:30:36.705Z</time></trkpt><trkpt lat="45.6416767" lon="9.8687083"><ele>241.0</ele><time>2026-05-04T07:30:37.705Z</time></trkpt><trkpt lat="45.6415833" lon="9.8687217"><ele>240.0</ele><time>2026-05-04T07:30:38.705Z</time></trkpt><trkpt lat="45.6414867" lon="9.8687483"><ele>239.00000000000003</ele><time>2026-05-04T07:30:39.705Z</time></trkpt><trkpt lat="45.6413983" lon="9.8687967"><ele>238.00000000000003</ele><time>2026-05-04T07:30:40.704Z</time></trkpt><trkpt lat="45.6413183" lon="9.868845"><ele>237.0</ele><time>2026-05-04T07:30:41.704Z</time></trkpt><trkpt lat="45.6412467" lon="9.8689033"><ele>236.0</ele><time>2026-05-04T07:30:42.705Z</time></trkpt><trkpt lat="45.6411633" lon="9.8689617"><ele>236.20000000000002</ele><time>2026-05-04T07:30:43.705Z</time></trkpt><trkpt lat="45.6410783" lon="9.8690083"><ele>236.40000000000003</ele><time>2026-05-04T07:30:44.705Z</time></trkpt><trkpt lat="45.6409933" lon="9.86905"><ele>236.6</ele><time>2026-05-04T07:30:45.705Z</time></trkpt><trkpt lat="45.6409033" lon="9.8691"><ele>236.8</ele><time>2026-05-04T07:30:46.705Z</time></trkpt><trkpt lat="45.6408117" lon="9.8691517"><ele>237.0</ele><time>2026-05-04T07:30:47.705Z</time></trkpt><trkpt lat="45.6407133" lon="9.86921"><ele>237.0</ele><time>2026-05-04T07:30:48.704Z</time></trkpt><trkpt lat="45.6406083" lon="9.869265"><ele>237.0</ele><time>2026-05-04T07:30:49.705Z</time></trkpt><trkpt lat="45.6405017" lon="9.869325"><ele>237.0</ele><time>2026-05-04T07:30:50.705Z</time></trkpt><trkpt lat="45.6404017" lon="9.869375"><ele>237.0</ele><time>2026-05-04T07:30:51.705Z</time></trkpt><trkpt lat="45.6402867" lon="9.869425"><ele>234.5</ele><time>2026-05-04T07:30:52.704Z</time></trkpt><trkpt lat="45.6401717" lon="9.869465"><ele>232.0</ele><time>2026-05-04T07:30:53.705Z</time></trkpt><trkpt lat="45.640055" lon="9.86949"><ele>229.5</ele><time>2026-05-04T07:30:54.705Z</time></trkpt><trkpt lat="45.6399333" lon="9.869505"><ele>227.0</ele><time>2026-05-04T07:30:55.705Z</time></trkpt><trkpt lat="45.6398017" lon="9.8695167"><ele>227.0</ele><time>2026-05-04T07:30:56.705Z</time></trkpt><trkpt lat="45.6396633" lon="9.8695217"><ele>227.0</ele><time>2026-05-04T07:30:57.705Z</time></trkpt><trkpt lat="45.639525" lon="9.8695033"><ele>227.0</ele><time>2026-05-04T07:30:58.705Z</time></trkpt><trkpt lat="45.63939" lon="9.8694833"><ele>227.0</ele><time>2026-05-04T07:30:59.705Z</time></trkpt><trkpt lat="45.639275" lon="9.86947"><ele>226.2</ele><time>2026-05-04T07:31:00.705Z</time></trkpt><trkpt lat="45.6391683" lon="9.8694533"><ele>225.39999999999998</ele><time>2026-05-04T07:31:01.705Z</time></trkpt><trkpt lat="45.6390583" lon="9.8694417"><ele>224.60000000000002</ele><time>2026-05-04T07:31:02.705Z</time></trkpt><trkpt lat="45.6389467" lon="9.8694317"><ele>223.8</ele><time>2026-05-04T07:31:03.705Z</time></trkpt><trkpt lat="45.6388417" lon="9.8694233"><ele>223.0</ele><time>2026-05-04T07:31:04.705Z</time></trkpt><trkpt lat="45.6387383" lon="9.8694233"><ele>223.0</ele><time>2026-05-04T07:31:05.705Z</time></trkpt><trkpt lat="45.63864" lon="9.86943"><ele>223.0</ele><time>2026-05-04T07:31:06.705Z</time></trkpt><trkpt lat="45.638555" lon="9.8694483"><ele>223.0</ele><time>2026-05-04T07:31:07.705Z</time></trkpt><trkpt lat="45.6384817" lon="9.8694617"><ele>223.0</ele><time>2026-05-04T07:31:08.705Z</time></trkpt><trkpt lat="45.6383617" lon="9.869495"><ele>223.0</ele><time>2026-05-04T07:31:10.705Z</time></trkpt><trkpt lat="45.63827" lon="9.8695267"><ele>223.4</ele><time>2026-05-04T07:31:12.705Z</time></trkpt><trkpt lat="45.638145" lon="9.8695633"><ele>223.8</ele><time>2026-05-04T07:31:14.705Z</time></trkpt><trkpt lat="45.63807" lon="9.869585"><ele>224.2</ele><time>2026-05-04T07:31:15.705Z</time></trkpt><trkpt lat="45.6379833" lon="9.8696083"><ele>224.6</ele><time>2026-05-04T07:31:16.705Z</time></trkpt><trkpt lat="45.6378933" lon="9.8696267"><ele>225.0</ele><time>2026-05-04T07:31:17.705Z</time></trkpt><trkpt lat="45.637795" lon="9.869645"><ele>225.2</ele><time>2026-05-04T07:31:18.704Z</time></trkpt><trkpt lat="45.63769" lon="9.8696533"><ele>225.4</ele><time>2026-05-04T07:31:19.705Z</time></trkpt><trkpt lat="45.63759" lon="9.8696533"><ele>225.60000000000002</ele><time>2026-05-04T07:31:20.705Z</time></trkpt><trkpt lat="45.6374983" lon="9.8696467"><ele>225.8</ele><time>2026-05-04T07:31:21.704Z</time></trkpt><trkpt lat="45.637405" lon="9.8696417"><ele>226.0</ele><time>2026-05-04T07:31:22.705Z</time></trkpt><trkpt lat="45.6373083" lon="9.8696367"><ele>225.99999999999997</ele><time>2026-05-04T07:31:23.705Z</time></trkpt><trkpt lat="45.6372117" lon="9.8696333"><ele>226.0</ele><time>2026-05-04T07:31:24.705Z</time></trkpt><trkpt lat="45.637115" lon="9.8696133"><ele>226.0</ele><time>2026-05-04T07:31:25.705Z</time></trkpt><trkpt lat="45.63703" lon="9.8696117"><ele>226.0</ele><time>2026-05-04T07:31:26.705Z</time></trkpt><trkpt lat="45.6369433" lon="9.869605"><ele>225.99999999999997</ele><time>2026-05-04T07:31:27.705Z</time></trkpt><trkpt lat="45.6368633" lon="9.8695817"><ele>226.0</ele><time>2026-05-04T07:31:28.705Z</time></trkpt><trkpt lat="45.6367867" lon="9.8695433"><ele>224.66666666666666</ele><time>2026-05-04T07:31:29.705Z</time></trkpt><trkpt lat="45.636715" lon="9.869495"><ele>223.33333333333331</ele><time>2026-05-04T07:31:30.705Z</time></trkpt><trkpt lat="45.6366433" lon="9.8694383"><ele>222.0</ele><time>2026-05-04T07:31:31.705Z</time></trkpt><trkpt lat="45.63658" lon="9.8693917"><ele>220.66666666666669</ele><time>2026-05-04T07:31:32.705Z</time></trkpt><trkpt lat="45.6365133" lon="9.8693367"><ele>219.33333333333334</ele><time>2026-05-04T07:31:33.705Z</time></trkpt><trkpt lat="45.636415" lon="9.8692617"><ele>218.0</ele><time>2026-05-04T07:31:35.705Z</time></trkpt><trkpt lat="45.6363267" lon="9.8691683"><ele>217.66666666666669</ele><time>2026-05-04T07:31:37.705Z</time></trkpt><trkpt lat="45.6362817" lon="9.8691017"><ele>217.33333333333334</ele><time>2026-05-04T07:31:38.704Z</time></trkpt><trkpt lat="45.6362317" lon="9.8690217"><ele>217.0</ele><time>2026-05-04T07:31:39.705Z</time></trkpt><trkpt lat="45.63617" lon="9.868965"><ele>216.66666666666669</ele><time>2026-05-04T07:31:40.704Z</time></trkpt><trkpt lat="45.6360883" lon="9.8689317"><ele>216.33333333333334</ele><time>2026-05-04T07:31:41.705Z</time></trkpt><trkpt lat="45.635995" lon="9.8688817"><ele>216.0</ele><time>2026-05-04T07:31:42.705Z</time></trkpt><trkpt lat="45.63591" lon="9.8688"><ele>214.0</ele><time>2026-05-04T07:31:43.705Z</time></trkpt><trkpt lat="45.6358283" lon="9.8686917"><ele>212.0</ele><time>2026-05-04T07:31:44.704Z</time></trkpt><trkpt lat="45.6357583" lon="9.8685483"><ele>210.0</ele><time>2026-05-04T07:31:45.704Z</time></trkpt><trkpt lat="45.6356917" lon="9.8684"><ele>208.0</ele><time>2026-05-04T07:31:46.705Z</time></trkpt><trkpt lat="45.6356217" lon="9.8682383"><ele>207.75</ele><time>2026-05-04T07:31:47.704Z</time></trkpt><trkpt lat="45.6355567" lon="9.868075"><ele>207.5</ele><time>2026-05-04T07:31:48.705Z</time></trkpt><trkpt lat="45.6354917" lon="9.8679233"><ele>207.25</ele><time>2026-05-04T07:31:49.705Z</time></trkpt><trkpt lat="45.63543" lon="9.8677733"><ele>207.0</ele><time>2026-05-04T07:31:50.705Z</time></trkpt><trkpt lat="45.63537" lon="9.8676317"><ele>206.75</ele><time>2026-05-04T07:31:51.705Z</time></trkpt><trkpt lat="45.6353033" lon="9.8674867"><ele>206.5</ele><time>2026-05-04T07:31:52.705Z</time></trkpt><trkpt lat="45.6352417" lon="9.8673433"><ele>206.25</ele><time>2026-05-04T07:31:53.705Z</time></trkpt><trkpt lat="45.6351783" lon="9.867215"><ele>206.0</ele><time>2026-05-04T07:31:54.705Z</time></trkpt><trkpt lat="45.6351267" lon="9.86709"><ele>206.0</ele><time>2026-05-04T07:31:55.704Z</time></trkpt><trkpt lat="45.6350733" lon="9.8669733"><ele>206.0</ele><time>2026-05-04T07:31:56.705Z</time></trkpt><trkpt lat="45.63502" lon="9.8668583"><ele>206.0</ele><time>2026-05-04T07:31:57.705Z</time></trkpt><trkpt lat="45.6349717" lon="9.8667517"><ele>206.0</ele><time>2026-05-04T07:31:58.705Z</time></trkpt><trkpt lat="45.6349267" lon="9.8666417"><ele>206.0</ele><time>2026-05-04T07:31:59.705Z</time></trkpt><trkpt lat="45.634875" lon="9.86653"><ele>206.00000000000003</ele><time>2026-05-04T07:32:00.704Z</time></trkpt><trkpt lat="45.6348317" lon="9.8664233"><ele>206.0</ele><time>2026-05-04T07:32:01.705Z</time></trkpt><trkpt lat="45.6347817" lon="9.8663133"><ele>206.0</ele><time>2026-05-04T07:32:02.704Z</time></trkpt><trkpt lat="45.6347317" lon="9.8662033"><ele>206.0</ele><time>2026-05-04T07:32:03.705Z</time></trkpt><trkpt lat="45.634685" lon="9.8660983"><ele>206.00000000000003</ele><time>2026-05-04T07:32:04.705Z</time></trkpt><trkpt lat="45.6346383" lon="9.8659933"><ele>206.0</ele><time>2026-05-04T07:32:05.704Z</time></trkpt><trkpt lat="45.6345933" lon="9.8658883"><ele>206.00000000000003</ele><time>2026-05-04T07:32:06.705Z</time></trkpt><trkpt lat="45.6345467" lon="9.86579"><ele>206.0</ele><time>2026-05-04T07:32:07.705Z</time></trkpt><trkpt lat="45.6345033" lon="9.8656933"><ele>206.0</ele><time>2026-05-04T07:32:08.705Z</time></trkpt><trkpt lat="45.6344617" lon="9.865605"><ele>206.0</ele><time>2026-05-04T07:32:09.705Z</time></trkpt><trkpt lat="45.634415" lon="9.86552"><ele>206.00000000000003</ele><time>2026-05-04T07:32:10.705Z</time></trkpt><trkpt lat="45.6343733" lon="9.8654433"><ele>206.0</ele><time>2026-05-04T07:32:11.705Z</time></trkpt><trkpt lat="45.634335" lon="9.865355"><ele>205.83333333333334</ele><time>2026-05-04T07:32:12.705Z</time></trkpt><trkpt lat="45.6343" lon="9.8652717"><ele>205.66666666666669</ele><time>2026-05-04T07:32:13.705Z</time></trkpt><trkpt lat="45.6342683" lon="9.8651917"><ele>205.5</ele><time>2026-05-04T07:32:14.705Z</time></trkpt><trkpt lat="45.63423" lon="9.86511"><ele>205.33333333333331</ele><time>2026-05-04T07:32:15.705Z</time></trkpt><trkpt lat="45.6341967" lon="9.8650283"><ele>205.16666666666666</ele><time>2026-05-04T07:32:16.704Z</time></trkpt><trkpt lat="45.634135" lon="9.8648817"><ele>205.0</ele><time>2026-05-04T07:32:18.705Z</time></trkpt><trkpt lat="45.6340783" lon="9.8647483"><ele>204.99999999999997</ele><time>2026-05-04T07:32:20.704Z</time></trkpt><trkpt lat="45.634025" lon="9.86462"><ele>205.0</ele><time>2026-05-04T07:32:22.705Z</time></trkpt><trkpt lat="45.6339767" lon="9.8645133"><ele>205.0</ele><time>2026-05-04T07:32:24.704Z</time></trkpt><trkpt lat="45.6339367" lon="9.8644083"><ele>205.0</ele><time>2026-05-04T07:32:26.704Z</time></trkpt><trkpt lat="45.6338933" lon="9.86431"><ele>204.99999999999997</ele><time>2026-05-04T07:32:28.704Z</time></trkpt><trkpt lat="45.6338483" lon="9.864235"><ele>205.0</ele><time>2026-05-04T07:32:30.705Z</time></trkpt><trkpt lat="45.633805" lon="9.8641517"><ele>204.8</ele><time>2026-05-04T07:32:32.705Z</time></trkpt><trkpt lat="45.633755" lon="9.8640433"><ele>204.6</ele><time>2026-05-04T07:32:34.705Z</time></trkpt><trkpt lat="45.6337167" lon="9.8639083"><ele>204.39999999999998</ele><time>2026-05-04T07:32:36.705Z</time></trkpt><trkpt lat="45.6337117" lon="9.8637383"><ele>204.2</ele><time>2026-05-04T07:32:38.705Z</time></trkpt><trkpt lat="45.63372" lon="9.863585"><ele>204.0</ele><time>2026-05-04T07:32:40.705Z</time></trkpt><trkpt lat="45.6337217" lon="9.8634467"><ele>203.83333333333334</ele><time>2026-05-04T07:32:42.704Z</time></trkpt><trkpt lat="45.6337417" lon="9.8633583"><ele>203.66666666666669</ele><time>2026-05-04T07:35:30.705Z</time></trkpt><trkpt lat="45.6337467" lon="9.8632233"><ele>203.5</ele><time>2026-05-04T07:35:32.705Z</time></trkpt><trkpt lat="45.6337517" lon="9.863095"><ele>203.33333333333334</ele><time>2026-05-04T07:35:34.705Z</time></trkpt><trkpt lat="45.63375" lon="9.8629383"><ele>203.16666666666669</ele><time>2026-05-04T07:35:36.705Z</time></trkpt><trkpt lat="45.633745" lon="9.862845"><ele>203.0</ele><time>2026-05-04T07:35:37.705Z</time></trkpt><trkpt lat="45.6337383" lon="9.862745"><ele>202.75</ele><time>2026-05-04T07:35:38.705Z</time></trkpt><trkpt lat="45.6337317" lon="9.862585"><ele>202.5</ele><time>2026-05-04T07:35:40.704Z</time></trkpt><trkpt lat="45.6337433" lon="9.8624267"><ele>202.25</ele><time>2026-05-04T07:35:42.705Z</time></trkpt><trkpt lat="45.6337217" lon="9.862265"><ele>202.0</ele><time>2026-05-04T07:35:44.705Z</time></trkpt><trkpt lat="45.633615" lon="9.862215"><ele>201.33333333333331</ele><time>2026-05-04T07:35:46.705Z</time></trkpt><trkpt lat="45.6335467" lon="9.8622567"><ele>200.66666666666666</ele><time>2026-05-04T07:35:47.705Z</time></trkpt><trkpt lat="45.6334767" lon="9.8622917"><ele>200.0</ele><time>2026-05-04T07:35:48.705Z</time></trkpt><trkpt lat="45.6333967" lon="9.862295"><ele>199.33333333333331</ele><time>2026-05-04T07:35:49.705Z</time></trkpt><trkpt lat="45.6333167" lon="9.8622733"><ele>198.66666666666666</ele><time>2026-05-04T07:35:50.704Z</time></trkpt><trkpt lat="45.6332383" lon="9.8622467"><ele>198.0</ele><time>2026-05-04T07:35:51.705Z</time></trkpt><trkpt lat="45.633165" lon="9.8622117"><ele>198.0</ele><time>2026-05-04T07:35:52.705Z</time></trkpt><trkpt lat="45.6330933" lon="9.862185"><ele>198.0</ele><time>2026-05-04T07:35:53.705Z</time></trkpt><trkpt lat="45.6330283" lon="9.8621533"><ele>198.0</ele><time>2026-05-04T07:35:54.704Z</time></trkpt><trkpt lat="45.6329167" lon="9.8621067"><ele>198.0</ele><time>2026-05-04T07:35:56.705Z</time></trkpt><trkpt lat="45.6328433" lon="9.862055"><ele>198.0</ele><time>2026-05-04T07:35:58.705Z</time></trkpt><trkpt lat="45.63278" lon="9.8619883"><ele>198.0</ele><time>2026-05-04T07:36:01.704Z</time></trkpt><trkpt lat="45.6327217" lon="9.8618817"><ele>197.66666666666666</ele><time>2026-05-04T07:36:03.705Z</time></trkpt><trkpt lat="45.632655" lon="9.861745"><ele>197.33333333333331</ele><time>2026-05-04T07:36:05.705Z</time></trkpt><trkpt lat="45.6326" lon="9.8616833"><ele>197.0</ele><time>2026-05-04T07:36:06.704Z</time></trkpt><trkpt lat="45.6325283" lon="9.861645"><ele>196.66666666666666</ele><time>2026-05-04T07:36:07.704Z</time></trkpt><trkpt lat="45.63245" lon="9.8616383"><ele>196.33333333333331</ele><time>2026-05-04T07:36:08.705Z</time></trkpt><trkpt lat="45.6323767" lon="9.8616583"><ele>196.0</ele><time>2026-05-04T07:36:09.705Z</time></trkpt><trkpt lat="45.6323133" lon="9.86169"><ele>196.0</ele><time>2026-05-04T07:36:10.705Z</time></trkpt><trkpt lat="45.6322483" lon="9.8617033"><ele>196.0</ele><time>2026-05-04T07:36:11.705Z</time></trkpt><trkpt lat="45.632185" lon="9.861715"><ele>196.0</ele><time>2026-05-04T07:36:12.705Z</time></trkpt><trkpt lat="45.6321133" lon="9.861715"><ele>196.0</ele><time>2026-05-04T07:36:13.704Z</time></trkpt><trkpt lat="45.63205" lon="9.8617117"><ele>196.0</ele><time>2026-05-04T07:36:14.705Z</time></trkpt><trkpt lat="45.631985" lon="9.8617033"><ele>196.0</ele><time>2026-05-04T07:36:15.705Z</time></trkpt><trkpt lat="45.63192" lon="9.86169"><ele>196.0</ele><time>2026-05-04T07:36:16.704Z</time></trkpt><trkpt lat="45.631855" lon="9.8616683"><ele>196.33333333333331</ele><time>2026-05-04T07:36:17.705Z</time></trkpt><trkpt lat="45.6317917" lon="9.8616433"><ele>196.66666666666666</ele><time>2026-05-04T07:36:18.705Z</time></trkpt><trkpt lat="45.6317217" lon="9.8616217"><ele>197.0</ele><time>2026-05-04T07:36:19.705Z</time></trkpt><trkpt lat="45.631645" lon="9.861595"><ele>197.33333333333331</ele><time>2026-05-04T07:36:20.705Z</time></trkpt><trkpt lat="45.6315567" lon="9.8615033"><ele>197.66666666666666</ele><time>2026-05-04T07:36:21.705Z</time></trkpt><trkpt lat="45.63145" lon="9.8614467"><ele>198.0</ele><time>2026-05-04T07:36:22.705Z</time></trkpt><trkpt lat="45.631355" lon="9.861385"><ele>198.0</ele><time>2026-05-04T07:36:23.705Z</time></trkpt><trkpt lat="45.6312867" lon="9.8613067"><ele>198.0</ele><time>2026-05-04T07:36:24.705Z</time></trkpt><trkpt lat="45.6312267" lon="9.8612167"><ele>198.0</ele><time>2026-05-04T07:36:25.705Z</time></trkpt><trkpt lat="45.631175" lon="9.8611183"><ele>198.0</ele><time>2026-05-04T07:36:26.705Z</time></trkpt><trkpt lat="45.631135" lon="9.861015"><ele>198.0</ele><time>2026-05-04T07:36:27.705Z</time></trkpt><trkpt lat="45.6310967" lon="9.8609033"><ele>198.0</ele><time>2026-05-04T07:36:28.705Z</time></trkpt><trkpt lat="45.63107" lon="9.860785"><ele>197.83333333333334</ele><time>2026-05-04T07:36:29.705Z</time></trkpt><trkpt lat="45.6310483" lon="9.8606717"><ele>197.66666666666669</ele><time>2026-05-04T07:36:30.705Z</time></trkpt><trkpt lat="45.6310283" lon="9.8605483"><ele>197.5</ele><time>2026-05-04T07:36:31.705Z</time></trkpt><trkpt lat="45.6310033" lon="9.86042"><ele>197.33333333333334</ele><time>2026-05-04T07:36:32.705Z</time></trkpt><trkpt lat="45.630985" lon="9.8602933"><ele>197.16666666666669</ele><time>2026-05-04T07:36:33.705Z</time></trkpt><trkpt lat="45.63096" lon="9.8601683"><ele>197.0</ele><time>2026-05-04T07:36:34.705Z</time></trkpt><trkpt lat="45.63094" lon="9.8600383"><ele>197.00000000000003</ele><time>2026-05-04T07:36:35.705Z</time></trkpt><trkpt lat="45.6309167" lon="9.8599117"><ele>197.0</ele><time>2026-05-04T07:36:36.705Z</time></trkpt><trkpt lat="45.6308967" lon="9.8597883"><ele>197.0</ele><time>2026-05-04T07:36:37.705Z</time></trkpt><trkpt lat="45.6308833" lon="9.8596617"><ele>197.0</ele><time>2026-05-04T07:36:38.705Z</time></trkpt><trkpt lat="45.6308767" lon="9.8595367"><ele>197.00000000000003</ele><time>2026-05-04T07:36:39.705Z</time></trkpt><trkpt lat="45.6308667" lon="9.8594167"><ele>197.0</ele><time>2026-05-04T07:36:40.705Z</time></trkpt><trkpt lat="45.6308633" lon="9.8593183"><ele>196.83333333333334</ele><time>2026-05-04T07:36:41.705Z</time></trkpt><trkpt lat="45.6308667" lon="9.8592183"><ele>196.66666666666669</ele><time>2026-05-04T07:36:42.705Z</time></trkpt><trkpt lat="45.6308683" lon="9.859125"><ele>196.5</ele><time>2026-05-04T07:36:43.705Z</time></trkpt><trkpt lat="45.630875" lon="9.8589517"><ele>196.33333333333331</ele><time>2026-05-04T07:36:45.705Z</time></trkpt><trkpt lat="45.6308883" lon="9.8588633"><ele>196.16666666666666</ele><time>2026-05-04T07:36:46.705Z</time></trkpt><trkpt lat="45.630915" lon="9.8587767"><ele>196.0</ele><time>2026-05-04T07:36:47.705Z</time></trkpt><trkpt lat="45.63095" lon="9.85869"><ele>195.99999999999997</ele><time>2026-05-04T07:36:48.705Z</time></trkpt><trkpt lat="45.6309933" lon="9.858595"><ele>196.0</ele><time>2026-05-04T07:36:49.705Z</time></trkpt><trkpt lat="45.6310267" lon="9.8584867"><ele>196.0</ele><time>2026-05-04T07:36:50.705Z</time></trkpt><trkpt lat="45.631035" lon="9.8583717"><ele>196.0</ele><time>2026-05-04T07:36:51.705Z</time></trkpt><trkpt lat="45.6310183" lon="9.85826"><ele>195.99999999999997</ele><time>2026-05-04T07:36:52.705Z</time></trkpt><trkpt lat="45.6309767" lon="9.858165"><ele>196.0</ele><time>2026-05-04T07:36:53.705Z</time></trkpt><trkpt lat="45.6309183" lon="9.85809"><ele>195.66666666666666</ele><time>2026-05-04T07:36:54.705Z</time></trkpt><trkpt lat="45.630865" lon="9.8580117"><ele>195.33333333333331</ele><time>2026-05-04T07:36:55.705Z</time></trkpt><trkpt lat="45.6308283" lon="9.8579317"><ele>195.0</ele><time>2026-05-04T07:36:56.705Z</time></trkpt><trkpt lat="45.6308067" lon="9.857835"><ele>194.66666666666669</ele><time>2026-05-04T07:36:57.704Z</time></trkpt><trkpt lat="45.6308083" lon="9.8577217"><ele>194.33333333333334</ele><time>2026-05-04T07:36:58.705Z</time></trkpt><trkpt lat="45.6308283" lon="9.857595"><ele>194.0</ele><time>2026-05-04T07:36:59.705Z</time></trkpt><trkpt lat="45.6308633" lon="9.8574517"><ele>194.0</ele><time>2026-05-04T07:37:00.704Z</time></trkpt><trkpt lat="45.6309033" lon="9.8573033"><ele>194.0</ele><time>2026-05-04T07:37:01.704Z</time></trkpt><trkpt lat="45.6309433" lon="9.8571417"><ele>194.0</ele><time>2026-05-04T07:37:02.705Z</time></trkpt><trkpt lat="45.63098" lon="9.856965"><ele>194.0</ele><time>2026-05-04T07:37:03.705Z</time></trkpt><trkpt lat="45.6310183" lon="9.8567867"><ele>193.75</ele><time>2026-05-04T07:37:04.705Z</time></trkpt><trkpt lat="45.6310517" lon="9.8566017"><ele>193.5</ele><time>2026-05-04T07:37:05.705Z</time></trkpt><trkpt lat="45.6311033" lon="9.8564067"><ele>193.25</ele><time>2026-05-04T07:37:06.705Z</time></trkpt><trkpt lat="45.6311517" lon="9.8562083"><ele>193.0</ele><time>2026-05-04T07:37:07.705Z</time></trkpt><trkpt lat="45.6311917" lon="9.85601"><ele>193.66666666666666</ele><time>2026-05-04T07:37:08.705Z</time></trkpt><trkpt lat="45.6312467" lon="9.8558067"><ele>194.33333333333331</ele><time>2026-05-04T07:37:09.704Z</time></trkpt><trkpt lat="45.6313017" lon="9.8555967"><ele>195.0</ele><time>2026-05-04T07:37:10.705Z</time></trkpt><trkpt lat="45.6313583" lon="9.8553933"><ele>195.0</ele><time>2026-05-04T07:37:11.705Z</time></trkpt><trkpt lat="45.6314333" lon="9.8551783"><ele>195.0</ele><time>2026-05-04T07:37:12.705Z</time></trkpt><trkpt lat="45.6315033" lon="9.8549667"><ele>195.0</ele><time>2026-05-04T07:37:13.705Z</time></trkpt><trkpt lat="45.6315717" lon="9.8547667"><ele>194.66666666666669</ele><time>2026-05-04T07:37:14.705Z</time></trkpt><trkpt lat="45.6316483" lon="9.8545517"><ele>194.33333333333334</ele><time>2026-05-04T07:37:15.705Z</time></trkpt><trkpt lat="45.6317233" lon="9.8543333"><ele>194.0</ele><time>2026-05-04T07:37:16.705Z</time></trkpt><trkpt lat="45.6317933" lon="9.8541233"><ele>193.66666666666669</ele><time>2026-05-04T07:37:17.705Z</time></trkpt><trkpt lat="45.6318667" lon="9.853905"><ele>193.33333333333331</ele><time>2026-05-04T07:37:18.705Z</time></trkpt><trkpt lat="45.6319383" lon="9.8536867"><ele>193.0</ele><time>2026-05-04T07:37:19.705Z</time></trkpt><trkpt lat="45.6320117" lon="9.85347"><ele>192.33333333333331</ele><time>2026-05-04T07:37:20.705Z</time></trkpt><trkpt lat="45.6320817" lon="9.853255"><ele>191.66666666666666</ele><time>2026-05-04T07:37:21.705Z</time></trkpt><trkpt lat="45.63215" lon="9.8530517"><ele>191.0</ele><time>2026-05-04T07:37:22.705Z</time></trkpt><trkpt lat="45.63222" lon="9.8528417"><ele>191.0</ele><time>2026-05-04T07:37:23.705Z</time></trkpt><trkpt lat="45.6322883" lon="9.852635"><ele>191.0</ele><time>2026-05-04T07:37:24.705Z</time></trkpt><trkpt lat="45.632355" lon="9.85243"><ele>191.0</ele><time>2026-05-04T07:37:25.705Z</time></trkpt><trkpt lat="45.6324217" lon="9.8522183"><ele>191.25</ele><time>2026-05-04T07:37:26.705Z</time></trkpt><trkpt lat="45.6324683" lon="9.85201"><ele>191.5</ele><time>2026-05-04T07:37:27.705Z</time></trkpt><trkpt lat="45.6325017" lon="9.8518033"><ele>191.75</ele><time>2026-05-04T07:37:28.705Z</time></trkpt><trkpt lat="45.6325233" lon="9.8515983"><ele>192.0</ele><time>2026-05-04T07:37:29.705Z</time></trkpt><trkpt lat="45.632545" lon="9.85139"><ele>191.5</ele><time>2026-05-04T07:37:30.705Z</time></trkpt><trkpt lat="45.63256" lon="9.8511983"><ele>191.0</ele><time>2026-05-04T07:37:31.705Z</time></trkpt><trkpt lat="45.6325667" lon="9.8510117"><ele>190.5</ele><time>2026-05-04T07:37:32.705Z</time></trkpt><trkpt lat="45.632575" lon="9.8508433"><ele>190.0</ele><time>2026-05-04T07:37:33.705Z</time></trkpt><trkpt lat="45.632575" lon="9.850675"><ele>190.0</ele><time>2026-05-04T07:37:34.705Z</time></trkpt><trkpt lat="45.6325683" lon="9.8505067"><ele>190.0</ele><time>2026-05-04T07:37:35.705Z</time></trkpt><trkpt lat="45.6325583" lon="9.85034"><ele>190.0</ele><time>2026-05-04T07:37:36.705Z</time></trkpt><trkpt lat="45.6325417" lon="9.8501767"><ele>190.0</ele><time>2026-05-04T07:37:37.705Z</time></trkpt><trkpt lat="45.6325283" lon="9.8500217"><ele>190.4</ele><time>2026-05-04T07:37:38.705Z</time></trkpt><trkpt lat="45.6325117" lon="9.8498767"><ele>190.8</ele><time>2026-05-04T07:37:39.705Z</time></trkpt><trkpt lat="45.63249" lon="9.8497333"><ele>191.2</ele><time>2026-05-04T07:37:40.705Z</time></trkpt><trkpt lat="45.63247" lon="9.8496033"><ele>191.6</ele><time>2026-05-04T07:37:41.705Z</time></trkpt><trkpt lat="45.6324517" lon="9.84948"><ele>192.0</ele><time>2026-05-04T07:37:42.705Z</time></trkpt><trkpt lat="45.6324333" lon="9.8493567"><ele>192.33333333333334</ele><time>2026-05-04T07:37:43.705Z</time></trkpt><trkpt lat="45.6324267" lon="9.84924"><ele>192.66666666666669</ele><time>2026-05-04T07:37:44.705Z</time></trkpt><trkpt lat="45.632425" lon="9.8491383"><ele>193.0</ele><time>2026-05-04T07:37:45.704Z</time></trkpt><trkpt lat="45.632415" lon="9.8490267"><ele>193.33333333333334</ele><time>2026-05-04T07:37:47.705Z</time></trkpt><trkpt lat="45.6324167" lon="9.8488967"><ele>193.66666666666669</ele><time>2026-05-04T07:37:50.704Z</time></trkpt><trkpt lat="45.6324333" lon="9.8488067"><ele>194.0</ele><time>2026-05-04T07:37:51.704Z</time></trkpt><trkpt lat="45.63245" lon="9.8486867"><ele>194.0</ele><time>2026-05-04T07:37:52.705Z</time></trkpt><trkpt lat="45.6324533" lon="9.8485483"><ele>194.0</ele><time>2026-05-04T07:37:53.705Z</time></trkpt><trkpt lat="45.6324517" lon="9.8483783"><ele>194.0</ele><time>2026-05-04T07:37:54.705Z</time></trkpt><trkpt lat="45.6324517" lon="9.8481817"><ele>194.0</ele><time>2026-05-04T07:37:55.705Z</time></trkpt><trkpt lat="45.6324583" lon="9.847965"><ele>192.66666666666669</ele><time>2026-05-04T07:37:56.705Z</time></trkpt><trkpt lat="45.6324717" lon="9.847755"><ele>191.33333333333334</ele><time>2026-05-04T07:37:57.705Z</time></trkpt><trkpt lat="45.6324883" lon="9.8475317"><ele>190.0</ele><time>2026-05-04T07:37:58.704Z</time></trkpt><trkpt lat="45.6325083" lon="9.847305"><ele>189.66666666666669</ele><time>2026-05-04T07:37:59.704Z</time></trkpt><trkpt lat="45.6325317" lon="9.8470783"><ele>189.33333333333334</ele><time>2026-05-04T07:38:00.705Z</time></trkpt><trkpt lat="45.632555" lon="9.8468467"><ele>189.0</ele><time>2026-05-04T07:38:01.705Z</time></trkpt><trkpt lat="45.6325817" lon="9.8466117"><ele>189.0</ele><time>2026-05-04T07:38:02.705Z</time></trkpt><trkpt lat="45.6326067" lon="9.8463767"><ele>189.0</ele><time>2026-05-04T07:38:03.705Z</time></trkpt><trkpt lat="45.6326283" lon="9.8461317"><ele>189.0</ele><time>2026-05-04T07:38:04.705Z</time></trkpt><trkpt lat="45.6326567" lon="9.8458883"><ele>189.66666666666666</ele><time>2026-05-04T07:38:05.705Z</time></trkpt><trkpt lat="45.632685" lon="9.8456483"><ele>190.33333333333331</ele><time>2026-05-04T07:38:06.705Z</time></trkpt><trkpt lat="45.632715" lon="9.845405"><ele>191.0</ele><time>2026-05-04T07:38:07.705Z</time></trkpt><trkpt lat="45.63274" lon="9.845165"><ele>191.33333333333331</ele><time>2026-05-04T07:38:08.705Z</time></trkpt><trkpt lat="45.63276" lon="9.844935"><ele>191.66666666666666</ele><time>2026-05-04T07:38:09.705Z</time></trkpt><trkpt lat="45.6327917" lon="9.844705"><ele>192.0</ele><time>2026-05-04T07:38:10.704Z</time></trkpt><trkpt lat="45.6328183" lon="9.8444917"><ele>193.0</ele><time>2026-05-04T07:38:11.705Z</time></trkpt><trkpt lat="45.6328433" lon="9.8442733"><ele>194.0</ele><time>2026-05-04T07:38:12.705Z</time></trkpt><trkpt lat="45.63287" lon="9.8440717"><ele>195.0</ele><time>2026-05-04T07:38:13.705Z</time></trkpt><trkpt lat="45.6328917" lon="9.843865"><ele>196.0</ele><time>2026-05-04T07:38:14.705Z</time></trkpt><trkpt lat="45.632925" lon="9.8436483"><ele>195.66666666666666</ele><time>2026-05-04T07:38:15.705Z</time></trkpt><trkpt lat="45.632955" lon="9.8434367"><ele>195.33333333333331</ele><time>2026-05-04T07:38:16.704Z</time></trkpt><trkpt lat="45.6329783" lon="9.8432183"><ele>195.0</ele><time>2026-05-04T07:38:17.705Z</time></trkpt><trkpt lat="45.6330017" lon="9.8430033"><ele>195.0</ele><time>2026-05-04T07:38:18.705Z</time></trkpt><trkpt lat="45.6330267" lon="9.8427933"><ele>195.0</ele><time>2026-05-04T07:38:19.705Z</time></trkpt><trkpt lat="45.6330517" lon="9.8425867"><ele>195.0</ele><time>2026-05-04T07:38:20.705Z</time></trkpt><trkpt lat="45.6330717" lon="9.8423683"><ele>195.5</ele><time>2026-05-04T07:38:21.705Z</time></trkpt><trkpt lat="45.6330967" lon="9.8421583"><ele>196.0</ele><time>2026-05-04T07:38:22.705Z</time></trkpt><trkpt lat="45.6331183" lon="9.84195"><ele>196.5</ele><time>2026-05-04T07:38:23.704Z</time></trkpt><trkpt lat="45.6331433" lon="9.8417367"><ele>197.0</ele><time>2026-05-04T07:38:24.705Z</time></trkpt><trkpt lat="45.6331717" lon="9.8415283"><ele>196.0</ele><time>2026-05-04T07:38:25.705Z</time></trkpt><trkpt lat="45.6331967" lon="9.8413067"><ele>195.0</ele><time>2026-05-04T07:38:26.704Z</time></trkpt><trkpt lat="45.6332233" lon="9.8410867"><ele>194.0</ele><time>2026-05-04T07:38:27.705Z</time></trkpt><trkpt lat="45.633245" lon="9.840865"><ele>194.0</ele><time>2026-05-04T07:38:28.705Z</time></trkpt><trkpt lat="45.6332783" lon="9.8406483"><ele>194.0</ele><time>2026-05-04T07:38:29.705Z</time></trkpt><trkpt lat="45.6333017" lon="9.8404217"><ele>194.0</ele><time>2026-05-04T07:38:30.705Z</time></trkpt><trkpt lat="45.6333283" lon="9.8402017"><ele>194.0</ele><time>2026-05-04T07:38:31.705Z</time></trkpt><trkpt lat="45.63335" lon="9.83997"><ele>194.0</ele><time>2026-05-04T07:38:32.704Z</time></trkpt><trkpt lat="45.6333717" lon="9.8397433"><ele>194.0</ele><time>2026-05-04T07:38:33.705Z</time></trkpt><trkpt lat="45.6333983" lon="9.8395117"><ele>193.66666666666669</ele><time>2026-05-04T07:38:34.705Z</time></trkpt><trkpt lat="45.6334167" lon="9.839285"><ele>193.33333333333331</ele><time>2026-05-04T07:38:35.705Z</time></trkpt><trkpt lat="45.633435" lon="9.8390617"><ele>193.0</ele><time>2026-05-04T07:38:36.705Z</time></trkpt><trkpt lat="45.6334517" lon="9.83883"><ele>193.0</ele><time>2026-05-04T07:38:37.705Z</time></trkpt><trkpt lat="45.63347" lon="9.83861"><ele>193.0</ele><time>2026-05-04T07:38:38.705Z</time></trkpt><trkpt lat="45.633485" lon="9.8383833"><ele>193.0</ele><time>2026-05-04T07:38:39.705Z</time></trkpt><trkpt lat="45.6335" lon="9.8381617"><ele>193.33333333333331</ele><time>2026-05-04T07:38:40.704Z</time></trkpt><trkpt lat="45.6335167" lon="9.837935"><ele>193.66666666666669</ele><time>2026-05-04T07:38:41.705Z</time></trkpt><trkpt lat="45.6335317" lon="9.837715"><ele>194.0</ele><time>2026-05-04T07:38:42.705Z</time></trkpt><trkpt lat="45.6335467" lon="9.8374883"><ele>194.0</ele><time>2026-05-04T07:38:43.705Z</time></trkpt><trkpt lat="45.6335617" lon="9.8372617"><ele>194.0</ele><time>2026-05-04T07:38:44.705Z</time></trkpt><trkpt lat="45.6335767" lon="9.8370433"><ele>194.0</ele><time>2026-05-04T07:38:45.704Z</time></trkpt><trkpt lat="45.63359" lon="9.836825"><ele>193.66666666666669</ele><time>2026-05-04T07:38:46.705Z</time></trkpt><trkpt lat="45.63361" lon="9.8366067"><ele>193.33333333333331</ele><time>2026-05-04T07:38:47.705Z</time></trkpt><trkpt lat="45.6336333" lon="9.83638"><ele>193.0</ele><time>2026-05-04T07:38:48.705Z</time></trkpt><trkpt lat="45.6336567" lon="9.8361683"><ele>193.0</ele><time>2026-05-04T07:38:49.705Z</time></trkpt><trkpt lat="45.6336817" lon="9.8359517"><ele>193.0</ele><time>2026-05-04T07:38:50.705Z</time></trkpt><trkpt lat="45.63371" lon="9.8357417"><ele>193.0</ele><time>2026-05-04T07:38:51.705Z</time></trkpt><trkpt lat="45.6337383" lon="9.8355283"><ele>193.0</ele><time>2026-05-04T07:38:52.705Z</time></trkpt><trkpt lat="45.6337667" lon="9.8353183"><ele>193.0</ele><time>2026-05-04T07:38:53.705Z</time></trkpt><trkpt lat="45.6338033" lon="9.8351133"><ele>193.0</ele><time>2026-05-04T07:38:54.705Z</time></trkpt><trkpt lat="45.6338383" lon="9.8349083"><ele>193.0</ele><time>2026-05-04T07:38:55.705Z</time></trkpt><trkpt lat="45.633875" lon="9.8346983"><ele>193.66666666666666</ele><time>2026-05-04T07:38:56.705Z</time></trkpt><trkpt lat="45.63391" lon="9.83448"><ele>194.33333333333331</ele><time>2026-05-04T07:38:57.705Z</time></trkpt><trkpt lat="45.6339383" lon="9.834255"><ele>195.0</ele><time>2026-05-04T07:38:58.705Z</time></trkpt><trkpt lat="45.6339633" lon="9.8340433"><ele>195.0</ele><time>2026-05-04T07:38:59.704Z</time></trkpt><trkpt lat="45.6339817" lon="9.833815"><ele>195.0</ele><time>2026-05-04T07:39:00.705Z</time></trkpt><trkpt lat="45.63398" lon="9.8335917"><ele>195.0</ele><time>2026-05-04T07:39:01.705Z</time></trkpt><trkpt lat="45.6339717" lon="9.8333667"><ele>194.66666666666669</ele><time>2026-05-04T07:39:02.705Z</time></trkpt><trkpt lat="45.63395" lon="9.8331367"><ele>194.33333333333334</ele><time>2026-05-04T07:39:03.705Z</time></trkpt><trkpt lat="45.63392" lon="9.8329067"><ele>194.0</ele><time>2026-05-04T07:39:04.705Z</time></trkpt><trkpt lat="45.633875" lon="9.8326883"><ele>195.0</ele><time>2026-05-04T07:39:05.704Z</time></trkpt><trkpt lat="45.633825" lon="9.83247"><ele>196.0</ele><time>2026-05-04T07:39:06.705Z</time></trkpt><trkpt lat="45.633765" lon="9.8322667"><ele>197.0</ele><time>2026-05-04T07:39:07.705Z</time></trkpt><trkpt lat="45.6337017" lon="9.8320717"><ele>196.5</ele><time>2026-05-04T07:39:08.705Z</time></trkpt><trkpt lat="45.63363" lon="9.8318933"><ele>196.0</ele><time>2026-05-04T07:39:09.705Z</time></trkpt><trkpt lat="45.63356" lon="9.8317283"><ele>195.5</ele><time>2026-05-04T07:39:10.705Z</time></trkpt><trkpt lat="45.63348" lon="9.831575"><ele>195.0</ele><time>2026-05-04T07:39:11.705Z</time></trkpt><trkpt lat="45.6333983" lon="9.8314333"><ele>195.0</ele><time>2026-05-04T07:39:12.705Z</time></trkpt><trkpt lat="45.6333083" lon="9.831305"><ele>195.0</ele><time>2026-05-04T07:39:13.705Z</time></trkpt><trkpt lat="45.6332283" lon="9.8311983"><ele>195.0</ele><time>2026-05-04T07:39:14.705Z</time></trkpt><trkpt lat="45.633155" lon="9.8311"><ele>195.0</ele><time>2026-05-04T07:39:15.704Z</time></trkpt><trkpt lat="45.6330817" lon="9.8310133"><ele>195.0</ele><time>2026-05-04T07:39:16.704Z</time></trkpt><trkpt lat="45.6330083" lon="9.8309267"><ele>194.6</ele><time>2026-05-04T07:39:17.704Z</time></trkpt><trkpt lat="45.6329483" lon="9.8308417"><ele>194.2</ele><time>2026-05-04T07:39:18.705Z</time></trkpt><trkpt lat="45.6329067" lon="9.8307333"><ele>193.8</ele><time>2026-05-04T07:39:19.705Z</time></trkpt><trkpt lat="45.632875" lon="9.830605"><ele>193.4</ele><time>2026-05-04T07:39:20.705Z</time></trkpt><trkpt lat="45.6328467" lon="9.8304617"><ele>193.0</ele><time>2026-05-04T07:39:21.705Z</time></trkpt><trkpt lat="45.6327783" lon="9.830355"><ele>193.0</ele><time>2026-05-04T07:39:22.705Z</time></trkpt><trkpt lat="45.6326967" lon="9.8302883"><ele>193.0</ele><time>2026-05-04T07:39:23.705Z</time></trkpt><trkpt lat="45.632595" lon="9.830295"><ele>193.0</ele><time>2026-05-04T07:39:24.705Z</time></trkpt><trkpt lat="45.632495" lon="9.830345"><ele>193.0</ele><time>2026-05-04T07:39:25.705Z</time></trkpt><trkpt lat="45.6324183" lon="9.83044"><ele>193.0</ele><time>2026-05-04T07:39:26.705Z</time></trkpt><trkpt lat="45.6323633" lon="9.830565"><ele>193.0</ele><time>2026-05-04T07:39:27.704Z</time></trkpt><trkpt lat="45.6322967" lon="9.83067"><ele>193.0</ele><time>2026-05-04T07:39:28.705Z</time></trkpt><trkpt lat="45.632215" lon="9.830735"><ele>193.0</ele><time>2026-05-04T07:39:29.705Z</time></trkpt><trkpt lat="45.6321117" lon="9.830765"><ele>193.0</ele><time>2026-05-04T07:39:30.705Z</time></trkpt><trkpt lat="45.6319933" lon="9.83077"><ele>193.0</ele><time>2026-05-04T07:39:31.705Z</time></trkpt><trkpt lat="45.63187" lon="9.8307583"><ele>193.5</ele><time>2026-05-04T07:39:32.705Z</time></trkpt><trkpt lat="45.6317467" lon="9.8307433"><ele>194.0</ele><time>2026-05-04T07:39:33.704Z</time></trkpt><trkpt lat="45.6316233" lon="9.830725"><ele>194.5</ele><time>2026-05-04T07:39:34.705Z</time></trkpt><trkpt lat="45.6315017" lon="9.83071"><ele>195.0</ele><time>2026-05-04T07:39:35.705Z</time></trkpt><trkpt lat="45.6313767" lon="9.8306967"><ele>195.0</ele><time>2026-05-04T07:39:36.705Z</time></trkpt><trkpt lat="45.63125" lon="9.8306883"><ele>195.0</ele><time>2026-05-04T07:39:37.705Z</time></trkpt><trkpt lat="45.6311267" lon="9.8306767"><ele>195.0</ele><time>2026-05-04T07:39:38.704Z</time></trkpt><trkpt lat="45.6310033" lon="9.8306667"><ele>195.0</ele><time>2026-05-04T07:39:39.705Z</time></trkpt><trkpt lat="45.63088" lon="9.830665"><ele>194.5</ele><time>2026-05-04T07:39:40.705Z</time></trkpt><trkpt lat="45.630755" lon="9.8306733"><ele>194.0</ele><time>2026-05-04T07:39:41.704Z</time></trkpt><trkpt lat="45.6306317" lon="9.8307033"><ele>193.5</ele><time>2026-05-04T07:39:42.704Z</time></trkpt><trkpt lat="45.6305033" lon="9.83076"><ele>193.0</ele><time>2026-05-04T07:39:43.705Z</time></trkpt><trkpt lat="45.6303733" lon="9.8308333"><ele>192.25</ele><time>2026-05-04T07:39:44.705Z</time></trkpt><trkpt lat="45.630245" lon="9.8309133"><ele>191.5</ele><time>2026-05-04T07:39:45.705Z</time></trkpt><trkpt lat="45.6301233" lon="9.830995"><ele>190.75</ele><time>2026-05-04T07:39:46.705Z</time></trkpt><trkpt lat="45.63" lon="9.8310717"><ele>190.0</ele><time>2026-05-04T07:39:47.705Z</time></trkpt><trkpt lat="45.6298817" lon="9.83115"><ele>189.75</ele><time>2026-05-04T07:39:48.705Z</time></trkpt><trkpt lat="45.62977" lon="9.831225"><ele>189.5</ele><time>2026-05-04T07:39:49.705Z</time></trkpt><trkpt lat="45.62966" lon="9.8312983"><ele>189.25</ele><time>2026-05-04T07:39:50.704Z</time></trkpt><trkpt lat="45.6295483" lon="9.831365"><ele>189.0</ele><time>2026-05-04T07:39:51.705Z</time></trkpt><trkpt lat="45.6294433" lon="9.8314333"><ele>189.75</ele><time>2026-05-04T07:39:52.704Z</time></trkpt><trkpt lat="45.629335" lon="9.8314967"><ele>190.5</ele><time>2026-05-04T07:39:53.705Z</time></trkpt><trkpt lat="45.6292283" lon="9.8315567"><ele>191.25</ele><time>2026-05-04T07:39:54.704Z</time></trkpt><trkpt lat="45.629115" lon="9.8316083"><ele>192.0</ele><time>2026-05-04T07:39:55.704Z</time></trkpt><trkpt lat="45.629005" lon="9.8316617"><ele>192.0</ele><time>2026-05-04T07:39:56.705Z</time></trkpt><trkpt lat="45.6288917" lon="9.83171"><ele>192.0</ele><time>2026-05-04T07:39:57.705Z</time></trkpt><trkpt lat="45.6287767" lon="9.83176"><ele>192.0</ele><time>2026-05-04T07:39:58.705Z</time></trkpt><trkpt lat="45.628655" lon="9.831805"><ele>192.0</ele><time>2026-05-04T07:39:59.705Z</time></trkpt><trkpt lat="45.628535" lon="9.8318467"><ele>191.25</ele><time>2026-05-04T07:40:00.705Z</time></trkpt><trkpt lat="45.6284133" lon="9.831885"><ele>190.5</ele><time>2026-05-04T07:40:01.705Z</time></trkpt><trkpt lat="45.6282833" lon="9.8319117"><ele>189.75</ele><time>2026-05-04T07:40:02.705Z</time></trkpt><trkpt lat="45.6281583" lon="9.831935"><ele>189.0</ele><time>2026-05-04T07:40:03.705Z</time></trkpt><trkpt lat="45.6280317" lon="9.8319683"><ele>189.0</ele><time>2026-05-04T07:40:04.705Z</time></trkpt><trkpt lat="45.6279017" lon="9.83199"><ele>189.0</ele><time>2026-05-04T07:40:05.705Z</time></trkpt><trkpt lat="45.627775" lon="9.832"><ele>189.0</ele><time>2026-05-04T07:40:06.705Z</time></trkpt><trkpt lat="45.6276383" lon="9.83201"><ele>189.0</ele><time>2026-05-04T07:40:07.705Z</time></trkpt><trkpt lat="45.6275083" lon="9.8320133"><ele>188.75</ele><time>2026-05-04T07:40:08.705Z</time></trkpt><trkpt lat="45.6273783" lon="9.83201"><ele>188.5</ele><time>2026-05-04T07:40:09.705Z</time></trkpt><trkpt lat="45.62724" lon="9.8320083"><ele>188.25</ele><time>2026-05-04T07:40:10.705Z</time></trkpt><trkpt lat="45.6271" lon="9.83201"><ele>188.0</ele><time>2026-05-04T07:40:11.705Z</time></trkpt><trkpt lat="45.6269617" lon="9.8320183"><ele>188.0</ele><time>2026-05-04T07:40:12.705Z</time></trkpt><trkpt lat="45.62682" lon="9.832015"><ele>188.0</ele><time>2026-05-04T07:40:13.704Z</time></trkpt><trkpt lat="45.62668" lon="9.8320133"><ele>188.0</ele><time>2026-05-04T07:40:14.705Z</time></trkpt><trkpt lat="45.6265433" lon="9.83201"><ele>188.0</ele><time>2026-05-04T07:40:15.705Z</time></trkpt><trkpt lat="45.62641" lon="9.8320067"><ele>188.0</ele><time>2026-05-04T07:40:16.705Z</time></trkpt><trkpt lat="45.6262717" lon="9.8320033"><ele>188.0</ele><time>2026-05-04T07:40:17.705Z</time></trkpt><trkpt lat="45.6261283" lon="9.8320067"><ele>188.0</ele><time>2026-05-04T07:40:18.705Z</time></trkpt><trkpt lat="45.6259833" lon="9.8320067"><ele>188.0</ele><time>2026-05-04T07:40:19.705Z</time></trkpt><trkpt lat="45.62584" lon="9.832005"><ele>188.0</ele><time>2026-05-04T07:40:20.705Z</time></trkpt><trkpt lat="45.6257067" lon="9.8319983"><ele>188.0</ele><time>2026-05-04T07:40:21.705Z</time></trkpt><trkpt lat="45.6255617" lon="9.831995"><ele>188.0</ele><time>2026-05-04T07:40:22.705Z</time></trkpt><trkpt lat="45.6254217" lon="9.8319917"><ele>188.0</ele><time>2026-05-04T07:40:23.705Z</time></trkpt><trkpt lat="45.6252783" lon="9.8319983"><ele>188.0</ele><time>2026-05-04T07:40:24.705Z</time></trkpt><trkpt lat="45.6251383" lon="9.8319967"><ele>188.0</ele><time>2026-05-04T07:40:25.705Z</time></trkpt><trkpt lat="45.6249967" lon="9.831995"><ele>188.0</ele><time>2026-05-04T07:40:26.705Z</time></trkpt><trkpt lat="45.62486" lon="9.8319917"><ele>188.0</ele><time>2026-05-04T07:40:27.705Z</time></trkpt><trkpt lat="45.6247233" lon="9.8319917"><ele>188.0</ele><time>2026-05-04T07:40:28.704Z</time></trkpt><trkpt lat="45.6245883" lon="9.8319867"><ele>188.0</ele><time>2026-05-04T07:40:29.704Z</time></trkpt><trkpt lat="45.6244517" lon="9.8319833"><ele>188.0</ele><time>2026-05-04T07:40:30.704Z</time></trkpt><trkpt lat="45.6243117" lon="9.831985"><ele>188.0</ele><time>2026-05-04T07:40:31.705Z</time></trkpt><trkpt lat="45.6241767" lon="9.8319833"><ele>187.75</ele><time>2026-05-04T07:40:32.705Z</time></trkpt><trkpt lat="45.6240433" lon="9.83198"><ele>187.5</ele><time>2026-05-04T07:40:33.705Z</time></trkpt><trkpt lat="45.62392" lon="9.8319733"><ele>187.25</ele><time>2026-05-04T07:40:34.705Z</time></trkpt><trkpt lat="45.6238033" lon="9.8319683"><ele>187.0</ele><time>2026-05-04T07:40:35.705Z</time></trkpt><trkpt lat="45.6236983" lon="9.8319667"><ele>186.39999999999998</ele><time>2026-05-04T07:40:36.704Z</time></trkpt><trkpt lat="45.6235933" lon="9.83197"><ele>185.79999999999998</ele><time>2026-05-04T07:40:37.705Z</time></trkpt><trkpt lat="45.6234867" lon="9.8319767"><ele>185.2</ele><time>2026-05-04T07:40:38.705Z</time></trkpt><trkpt lat="45.623395" lon="9.831985"><ele>184.6</ele><time>2026-05-04T07:40:39.705Z</time></trkpt><trkpt lat="45.623305" lon="9.83199"><ele>184.0</ele><time>2026-05-04T07:40:40.705Z</time></trkpt><trkpt lat="45.6232267" lon="9.831985"><ele>184.0</ele><time>2026-05-04T07:40:41.705Z</time></trkpt><trkpt lat="45.623155" lon="9.831965"><ele>184.0</ele><time>2026-05-04T07:40:42.705Z</time></trkpt><trkpt lat="45.623085" lon="9.8319167"><ele>184.0</ele><time>2026-05-04T07:40:43.705Z</time></trkpt><trkpt lat="45.6230233" lon="9.8318367"><ele>184.0</ele><time>2026-05-04T07:40:44.704Z</time></trkpt><trkpt lat="45.6229817" lon="9.8317333"><ele>184.0</ele><time>2026-05-04T07:40:45.705Z</time></trkpt><trkpt lat="45.62296" lon="9.831625"><ele>184.0</ele><time>2026-05-04T07:40:46.705Z</time></trkpt><trkpt lat="45.6229567" lon="9.8315017"><ele>184.2</ele><time>2026-05-04T07:40:47.704Z</time></trkpt><trkpt lat="45.6229733" lon="9.83137"><ele>184.39999999999998</ele><time>2026-05-04T07:40:48.705Z</time></trkpt><trkpt lat="45.6229883" lon="9.8312433"><ele>184.6</ele><time>2026-05-04T07:40:49.705Z</time></trkpt><trkpt lat="45.6229967" lon="9.831105"><ele>184.8</ele><time>2026-05-04T07:40:50.705Z</time></trkpt><trkpt lat="45.6230067" lon="9.830955"><ele>185.0</ele><time>2026-05-04T07:40:51.705Z</time></trkpt><trkpt lat="45.62302" lon="9.8308017"><ele>185.2</ele><time>2026-05-04T07:40:52.705Z</time></trkpt><trkpt lat="45.623035" lon="9.83065"><ele>185.4</ele><time>2026-05-04T07:40:53.705Z</time></trkpt><trkpt lat="45.6230517" lon="9.8304933"><ele>185.60000000000002</ele><time>2026-05-04T07:40:54.704Z</time></trkpt><trkpt lat="45.623065" lon="9.83033"><ele>185.8</ele><time>2026-05-04T07:40:55.705Z</time></trkpt><trkpt lat="45.6230767" lon="9.83017"><ele>186.0</ele><time>2026-05-04T07:40:56.704Z</time></trkpt><trkpt lat="45.6230917" lon="9.830005"><ele>185.75</ele><time>2026-05-04T07:40:57.705Z</time></trkpt><trkpt lat="45.6231083" lon="9.8298367"><ele>185.5</ele><time>2026-05-04T07:40:58.705Z</time></trkpt><trkpt lat="45.6231167" lon="9.8296567"><ele>185.25</ele><time>2026-05-04T07:40:59.705Z</time></trkpt><trkpt lat="45.6231283" lon="9.8294817"><ele>185.0</ele><time>2026-05-04T07:41:00.705Z</time></trkpt><trkpt lat="45.6231417" lon="9.829305"><ele>185.0</ele><time>2026-05-04T07:41:01.705Z</time></trkpt><trkpt lat="45.6231583" lon="9.8291333"><ele>185.0</ele><time>2026-05-04T07:41:02.705Z</time></trkpt><trkpt lat="45.623175" lon="9.8289683"><ele>185.0</ele><time>2026-05-04T07:41:03.705Z</time></trkpt><trkpt lat="45.6231867" lon="9.8288083"><ele>185.0</ele><time>2026-05-04T07:41:04.705Z</time></trkpt><trkpt lat="45.6232" lon="9.828635"><ele>185.0</ele><time>2026-05-04T07:41:05.705Z</time></trkpt><trkpt lat="45.623215" lon="9.8284717"><ele>185.0</ele><time>2026-05-04T07:41:06.705Z</time></trkpt><trkpt lat="45.623225" lon="9.828315"><ele>185.0</ele><time>2026-05-04T07:41:07.705Z</time></trkpt><trkpt lat="45.6232367" lon="9.8281517"><ele>185.0</ele><time>2026-05-04T07:41:08.705Z</time></trkpt><trkpt lat="45.6232483" lon="9.8279933"><ele>185.0</ele><time>2026-05-04T07:41:09.705Z</time></trkpt><trkpt lat="45.6232617" lon="9.8278333"><ele>185.0</ele><time>2026-05-04T07:41:10.705Z</time></trkpt><trkpt lat="45.62327" lon="9.8276783"><ele>185.0</ele><time>2026-05-04T07:41:11.705Z</time></trkpt><trkpt lat="45.6232833" lon="9.82752"><ele>185.0</ele><time>2026-05-04T07:41:12.705Z</time></trkpt><trkpt lat="45.6232983" lon="9.8273683"><ele>185.0</ele><time>2026-05-04T07:41:13.705Z</time></trkpt><trkpt lat="45.62332" lon="9.8272283"><ele>185.0</ele><time>2026-05-04T07:41:14.705Z</time></trkpt><trkpt lat="45.6233417" lon="9.827095"><ele>185.0</ele><time>2026-05-04T07:41:15.705Z</time></trkpt><trkpt lat="45.6233767" lon="9.82697"><ele>185.0</ele><time>2026-05-04T07:41:16.705Z</time></trkpt><trkpt lat="45.6234083" lon="9.82686"><ele>185.0</ele><time>2026-05-04T07:41:17.704Z</time></trkpt><trkpt lat="45.6234467" lon="9.826765"><ele>185.0</ele><time>2026-05-04T07:41:18.705Z</time></trkpt><trkpt lat="45.6234967" lon="9.826675"><ele>185.0</ele><time>2026-05-04T07:41:19.705Z</time></trkpt><trkpt lat="45.6235567" lon="9.8265867"><ele>185.0</ele><time>2026-05-04T07:41:20.704Z</time></trkpt><trkpt lat="45.6236267" lon="9.8265033"><ele>185.0</ele><time>2026-05-04T07:41:21.705Z</time></trkpt><trkpt lat="45.6236983" lon="9.8264267"><ele>185.0</ele><time>2026-05-04T07:41:22.705Z</time></trkpt><trkpt lat="45.6237683" lon="9.8263617"><ele>185.0</ele><time>2026-05-04T07:41:23.705Z</time></trkpt><trkpt lat="45.6238417" lon="9.826295"><ele>185.0</ele><time>2026-05-04T07:41:24.705Z</time></trkpt><trkpt lat="45.62391" lon="9.82623"><ele>185.0</ele><time>2026-05-04T07:41:25.705Z</time></trkpt><trkpt lat="45.6239883" lon="9.8261533"><ele>185.0</ele><time>2026-05-04T07:41:26.705Z</time></trkpt><trkpt lat="45.6240617" lon="9.8260867"><ele>185.0</ele><time>2026-05-04T07:41:27.704Z</time></trkpt><trkpt lat="45.6241333" lon="9.8260183"><ele>185.0</ele><time>2026-05-04T07:41:28.704Z</time></trkpt><trkpt lat="45.624195" lon="9.82594"><ele>185.0</ele><time>2026-05-04T07:41:29.705Z</time></trkpt><trkpt lat="45.624245" lon="9.8258517"><ele>185.0</ele><time>2026-05-04T07:41:30.705Z</time></trkpt><trkpt lat="45.6242833" lon="9.825755"><ele>185.0</ele><time>2026-05-04T07:41:31.705Z</time></trkpt><trkpt lat="45.6243033" lon="9.8256483"><ele>184.83333333333331</ele><time>2026-05-04T07:41:32.705Z</time></trkpt><trkpt lat="45.6243217" lon="9.8255483"><ele>184.66666666666666</ele><time>2026-05-04T07:41:33.705Z</time></trkpt><trkpt lat="45.6243383" lon="9.8254517"><ele>184.5</ele><time>2026-05-04T07:41:34.705Z</time></trkpt><trkpt lat="45.6243567" lon="9.825355"><ele>184.33333333333334</ele><time>2026-05-04T07:41:35.705Z</time></trkpt><trkpt lat="45.6243783" lon="9.8252567"><ele>184.16666666666669</ele><time>2026-05-04T07:41:36.705Z</time></trkpt><trkpt lat="45.6244033" lon="9.825105"><ele>184.0</ele><time>2026-05-04T07:41:38.705Z</time></trkpt><trkpt lat="45.624445" lon="9.824975"><ele>184.33333333333334</ele><time>2026-05-04T07:41:40.705Z</time></trkpt><trkpt lat="45.6244517" lon="9.8248817"><ele>184.66666666666669</ele><time>2026-05-04T07:41:42.704Z</time></trkpt><trkpt lat="45.6243933" lon="9.8248333"><ele>185.0</ele><time>2026-05-04T07:41:46.705Z</time></trkpt><trkpt lat="45.6243267" lon="9.8248167"><ele>185.33333333333334</ele><time>2026-05-04T07:41:49.705Z</time></trkpt><trkpt lat="45.6242517" lon="9.8248"><ele>185.66666666666666</ele><time>2026-05-04T07:41:51.704Z</time></trkpt><trkpt lat="45.62415" lon="9.8248"><ele>186.0</ele><time>2026-05-04T07:41:53.705Z</time></trkpt><trkpt lat="45.6240483" lon="9.82478"><ele>186.0</ele><time>2026-05-04T07:41:55.705Z</time></trkpt><trkpt lat="45.6239383" lon="9.824735"><ele>186.0</ele><time>2026-05-04T07:41:57.705Z</time></trkpt><trkpt lat="45.6238767" lon="9.82471"><ele>186.0</ele><time>2026-05-04T07:41:58.705Z</time></trkpt><trkpt lat="45.6238117" lon="9.8247"><ele>186.0</ele><time>2026-05-04T07:41:59.704Z</time></trkpt><trkpt lat="45.6236867" lon="9.82466"><ele>186.0</ele><time>2026-05-04T07:42:01.705Z</time></trkpt><trkpt lat="45.6236183" lon="9.8246417"><ele>186.0</ele><time>2026-05-04T07:42:02.705Z</time></trkpt><trkpt lat="45.62355" lon="9.824635"><ele>186.00000000000003</ele><time>2026-05-04T07:42:03.705Z</time></trkpt><trkpt lat="45.6234817" lon="9.82463"><ele>186.0</ele><time>2026-05-04T07:42:04.705Z</time></trkpt><trkpt lat="45.6234167" lon="9.8246217"><ele>186.0</ele><time>2026-05-04T07:42:05.705Z</time></trkpt><trkpt lat="45.6233533" lon="9.8246183"><ele>186.0</ele><time>2026-05-04T07:42:06.705Z</time></trkpt><trkpt lat="45.6232833" lon="9.8246183"><ele>186.0</ele><time>2026-05-04T07:42:07.704Z</time></trkpt><trkpt lat="45.6232183" lon="9.8246183"><ele>186.00000000000003</ele><time>2026-05-04T07:42:08.705Z</time></trkpt><trkpt lat="45.623145" lon="9.8246333"><ele>186.0</ele><time>2026-05-04T07:42:09.705Z</time></trkpt><trkpt lat="45.6230717" lon="9.8246367"><ele>186.00000000000003</ele><time>2026-05-04T07:42:10.705Z</time></trkpt><trkpt lat="45.6229967" lon="9.8246283"><ele>186.0</ele><time>2026-05-04T07:42:11.705Z</time></trkpt><trkpt lat="45.6229267" lon="9.8246333"><ele>186.0</ele><time>2026-05-04T07:42:12.705Z</time></trkpt><trkpt lat="45.6228567" lon="9.824635"><ele>186.0</ele><time>2026-05-04T07:42:13.705Z</time></trkpt><trkpt lat="45.6227817" lon="9.8246333"><ele>186.0</ele><time>2026-05-04T07:42:14.705Z</time></trkpt><trkpt lat="45.62271" lon="9.824625"><ele>186.00000000000003</ele><time>2026-05-04T07:42:15.705Z</time></trkpt><trkpt lat="45.6226417" lon="9.8246167"><ele>186.0</ele><time>2026-05-04T07:42:16.705Z</time></trkpt><trkpt lat="45.6225717" lon="9.824615"><ele>186.00000000000003</ele><time>2026-05-04T07:42:17.705Z</time></trkpt><trkpt lat="45.6224967" lon="9.82461"><ele>186.0</ele><time>2026-05-04T07:42:18.705Z</time></trkpt><trkpt lat="45.6224267" lon="9.8246067"><ele>186.0</ele><time>2026-05-04T07:42:19.705Z</time></trkpt><trkpt lat="45.6223567" lon="9.8245967"><ele>186.0</ele><time>2026-05-04T07:42:20.705Z</time></trkpt><trkpt lat="45.6222783" lon="9.8245883"><ele>186.0</ele><time>2026-05-04T07:42:21.705Z</time></trkpt><trkpt lat="45.62221" lon="9.8245733"><ele>186.00000000000003</ele><time>2026-05-04T07:42:22.705Z</time></trkpt><trkpt lat="45.6221383" lon="9.8245667"><ele>186.0</ele><time>2026-05-04T07:42:23.705Z</time></trkpt><trkpt lat="45.6220667" lon="9.8245683"><ele>186.00000000000003</ele><time>2026-05-04T07:42:24.705Z</time></trkpt><trkpt lat="45.6220017" lon="9.82456"><ele>186.0</ele><time>2026-05-04T07:42:25.705Z</time></trkpt><trkpt lat="45.6219367" lon="9.8245483"><ele>186.0</ele><time>2026-05-04T07:42:26.705Z</time></trkpt><trkpt lat="45.6218683" lon="9.8245467"><ele>186.0</ele><time>2026-05-04T07:42:27.705Z</time></trkpt><trkpt lat="45.6218017" lon="9.8245467"><ele>186.0</ele><time>2026-05-04T07:42:28.705Z</time></trkpt><trkpt lat="45.6217367" lon="9.824545"><ele>186.00000000000003</ele><time>2026-05-04T07:42:29.705Z</time></trkpt><trkpt lat="45.6216733" lon="9.8245383"><ele>186.0</ele><time>2026-05-04T07:42:30.705Z</time></trkpt><trkpt lat="45.6215583" lon="9.824525"><ele>185.5</ele><time>2026-05-04T07:42:32.705Z</time></trkpt><trkpt lat="45.6214367" lon="9.8245167"><ele>185.0</ele><time>2026-05-04T07:42:34.705Z</time></trkpt><trkpt lat="45.62132" lon="9.8245133"><ele>184.5</ele><time>2026-05-04T07:42:36.705Z</time></trkpt><trkpt lat="45.6212" lon="9.824495"><ele>184.0</ele><time>2026-05-04T07:42:38.705Z</time></trkpt><trkpt lat="45.6210833" lon="9.8244617"><ele>183.79999999999998</ele><time>2026-05-04T07:42:40.704Z</time></trkpt><trkpt lat="45.6209717" lon="9.8244117"><ele>183.6</ele><time>2026-05-04T07:42:42.705Z</time></trkpt><trkpt lat="45.6209083" lon="9.8243867"><ele>183.4</ele><time>2026-05-04T07:42:43.704Z</time></trkpt><trkpt lat="45.6208467" lon="9.8243667"><ele>183.2</ele><time>2026-05-04T07:42:44.705Z</time></trkpt><trkpt lat="45.6207283" lon="9.8243283"><ele>183.0</ele><time>2026-05-04T07:42:46.705Z</time></trkpt><trkpt lat="45.6205983" lon="9.824305"><ele>183.0</ele><time>2026-05-04T07:42:48.704Z</time></trkpt><trkpt lat="45.6205317" lon="9.8242983"><ele>183.0</ele><time>2026-05-04T07:42:49.705Z</time></trkpt><trkpt lat="45.6204617" lon="9.8242967"><ele>183.0</ele><time>2026-05-04T07:42:50.704Z</time></trkpt><trkpt lat="45.6203383" lon="9.8242983"><ele>183.0</ele><time>2026-05-04T07:42:52.705Z</time></trkpt><trkpt lat="45.620275" lon="9.8242983"><ele>183.0</ele><time>2026-05-04T07:42:53.705Z</time></trkpt><trkpt lat="45.6201517" lon="9.82429"><ele>183.0</ele><time>2026-05-04T07:42:55.705Z</time></trkpt><trkpt lat="45.6200883" lon="9.8242867"><ele>182.75</ele><time>2026-05-04T07:42:56.705Z</time></trkpt><trkpt lat="45.6199683" lon="9.8242783"><ele>182.5</ele><time>2026-05-04T07:42:58.704Z</time></trkpt><trkpt lat="45.619855" lon="9.82427"><ele>182.25</ele><time>2026-05-04T07:43:00.705Z</time></trkpt><trkpt lat="45.619735" lon="9.8242767"><ele>182.0</ele><time>2026-05-04T07:43:02.705Z</time></trkpt><trkpt lat="45.6196267" lon="9.8242917"><ele>182.0</ele><time>2026-05-04T07:43:04.704Z</time></trkpt><trkpt lat="45.6195433" lon="9.824285"><ele>182.0</ele><time>2026-05-04T07:43:06.705Z</time></trkpt><trkpt lat="45.6194783" lon="9.8242433"><ele>182.0</ele><time>2026-05-04T07:43:08.705Z</time></trkpt><trkpt lat="45.619445" lon="9.8241417"><ele>182.0</ele><time>2026-05-04T07:43:10.705Z</time></trkpt><trkpt lat="45.6194533" lon="9.824"><ele>182.0</ele><time>2026-05-04T07:43:12.705Z</time></trkpt><trkpt lat="45.6194667" lon="9.82385"><ele>182.0</ele><time>2026-05-04T07:43:14.705Z</time></trkpt><trkpt lat="45.6194783" lon="9.8236967"><ele>182.0</ele><time>2026-05-04T07:43:16.705Z</time></trkpt><trkpt lat="45.6194783" lon="9.8235417"><ele>182.0</ele><time>2026-05-04T07:43:18.705Z</time></trkpt><trkpt lat="45.619485" lon="9.8233783"><ele>182.0</ele><time>2026-05-04T07:43:20.705Z</time></trkpt><trkpt lat="45.6194917" lon="9.8232167"><ele>182.0</ele><time>2026-05-04T07:43:22.705Z</time></trkpt><trkpt lat="45.6194967" lon="9.82304"><ele>182.0</ele><time>2026-05-04T07:43:24.705Z</time></trkpt><trkpt lat="45.61951" lon="9.82287"><ele>182.0</ele><time>2026-05-04T07:43:26.705Z</time></trkpt><trkpt lat="45.61952" lon="9.822705"><ele>182.0</ele><time>2026-05-04T07:43:28.705Z</time></trkpt><trkpt lat="45.619535" lon="9.8225283"><ele>182.0</ele><time>2026-05-04T07:43:30.705Z</time></trkpt><trkpt lat="45.6195517" lon="9.82238"><ele>182.0</ele><time>2026-05-04T07:43:32.705Z</time></trkpt><trkpt lat="45.6195617" lon="9.8222567"><ele>182.0</ele><time>2026-05-04T07:43:34.705Z</time></trkpt><trkpt lat="45.6195483" lon="9.822165"><ele>182.0</ele><time>2026-05-04T07:43:37.705Z</time></trkpt><trkpt lat="45.619475" lon="9.8221333"><ele>182.0</ele><time>2026-05-04T07:43:40.705Z</time></trkpt><trkpt lat="45.6193917" lon="9.822125"><ele>182.0</ele><time>2026-05-04T07:43:42.705Z</time></trkpt><trkpt lat="45.619285" lon="9.8221283"><ele>182.0</ele><time>2026-05-04T07:43:44.705Z</time></trkpt><trkpt lat="45.6192217" lon="9.8221317"><ele>181.8</ele><time>2026-05-04T07:43:45.705Z</time></trkpt><trkpt lat="45.6191067" lon="9.82213"><ele>181.6</ele><time>2026-05-04T07:43:47.703Z</time></trkpt><trkpt lat="45.6189817" lon="9.8221367"><ele>181.4</ele><time>2026-05-04T07:43:49.704Z</time></trkpt><trkpt lat="45.6189183" lon="9.822135"><ele>181.20000000000002</ele><time>2026-05-04T07:43:50.704Z</time></trkpt><trkpt lat="45.6187917" lon="9.8221417"><ele>181.0</ele><time>2026-05-04T07:43:52.703Z</time></trkpt><trkpt lat="45.618725" lon="9.8221417"><ele>181.0</ele><time>2026-05-04T07:43:53.703Z</time></trkpt><trkpt lat="45.6186617" lon="9.82214"><ele>181.0</ele><time>2026-05-04T07:43:54.703Z</time></trkpt><trkpt lat="45.6185367" lon="9.82215"><ele>181.0</ele><time>2026-05-04T07:43:56.704Z</time></trkpt><trkpt lat="45.618415" lon="9.8221533"><ele>181.0</ele><time>2026-05-04T07:43:58.704Z</time></trkpt><trkpt lat="45.6182933" lon="9.8221583"><ele>181.0</ele><time>2026-05-04T07:44:00.704Z</time></trkpt><trkpt lat="45.6181783" lon="9.8221683"><ele>181.0</ele><time>2026-05-04T07:44:02.704Z</time></trkpt><trkpt lat="45.6180783" lon="9.8221717"><ele>181.0</ele><time>2026-05-04T07:44:04.704Z</time></trkpt><trkpt lat="45.617975" lon="9.8221717"><ele>181.0</ele><time>2026-05-04T07:44:06.703Z</time></trkpt><trkpt lat="45.617885" lon="9.82218"><ele>181.0</ele><time>2026-05-04T07:44:08.704Z</time></trkpt><trkpt lat="45.6177833" lon="9.8221967"><ele>181.0</ele><time>2026-05-04T07:44:10.703Z</time></trkpt><trkpt lat="45.617685" lon="9.8221983"><ele>181.0</ele><time>2026-05-04T07:44:12.704Z</time></trkpt><trkpt lat="45.617605" lon="9.8221717"><ele>181.0</ele><time>2026-05-04T07:44:14.704Z</time></trkpt><trkpt lat="45.61752" lon="9.8221067"><ele>181.0</ele><time>2026-05-04T07:44:16.704Z</time></trkpt><trkpt lat="45.6174667" lon="9.822035"><ele>181.0</ele><time>2026-05-04T07:44:18.704Z</time></trkpt><trkpt lat="45.61739" lon="9.8219567"><ele>181.0</ele><time>2026-05-04T07:44:21.703Z</time></trkpt><trkpt lat="45.6173117" lon="9.8219133"><ele>181.0</ele><time>2026-05-04T07:44:23.703Z</time></trkpt><trkpt lat="45.6172217" lon="9.8218783"><ele>181.0</ele><time>2026-05-04T07:44:25.704Z</time></trkpt><trkpt lat="45.6171083" lon="9.8218483"><ele>181.0</ele><time>2026-05-04T07:44:27.703Z</time></trkpt><trkpt lat="45.6170417" lon="9.8218417"><ele>181.0</ele><time>2026-05-04T07:44:28.703Z</time></trkpt><trkpt lat="45.6169767" lon="9.8218333"><ele>181.0</ele><time>2026-05-04T07:44:29.704Z</time></trkpt><trkpt lat="45.61691" lon="9.821825"><ele>181.0</ele><time>2026-05-04T07:44:30.704Z</time></trkpt><trkpt lat="45.6167833" lon="9.8218117"><ele>181.0</ele><time>2026-05-04T07:44:32.703Z</time></trkpt><trkpt lat="45.6167183" lon="9.8218117"><ele>180.83333333333334</ele><time>2026-05-04T07:44:33.704Z</time></trkpt><trkpt lat="45.6166533" lon="9.821815"><ele>180.66666666666669</ele><time>2026-05-04T07:44:34.704Z</time></trkpt><trkpt lat="45.6165217" lon="9.8218483"><ele>180.5</ele><time>2026-05-04T07:44:36.704Z</time></trkpt><trkpt lat="45.616455" lon="9.8218767"><ele>180.33333333333334</ele><time>2026-05-04T07:44:37.704Z</time></trkpt><trkpt lat="45.6163883" lon="9.821905"><ele>180.16666666666666</ele><time>2026-05-04T07:44:38.704Z</time></trkpt><trkpt lat="45.616325" lon="9.8219283"><ele>180.0</ele><time>2026-05-04T07:44:39.704Z</time></trkpt><trkpt lat="45.6162567" lon="9.821945"><ele>180.0</ele><time>2026-05-04T07:44:40.704Z</time></trkpt><trkpt lat="45.616185" lon="9.8219583"><ele>180.0</ele><time>2026-05-04T07:44:41.704Z</time></trkpt><trkpt lat="45.616115" lon="9.8219767"><ele>180.0</ele><time>2026-05-04T07:44:42.704Z</time></trkpt><trkpt lat="45.6160483" lon="9.8219967"><ele>180.0</ele><time>2026-05-04T07:44:43.704Z</time></trkpt><trkpt lat="45.6159283" lon="9.822025"><ele>180.0</ele><time>2026-05-04T07:44:45.704Z</time></trkpt><trkpt lat="45.61581" lon="9.82205"><ele>179.5</ele><time>2026-05-04T07:44:47.704Z</time></trkpt><trkpt lat="45.6157067" lon="9.8220817"><ele>179.0</ele><time>2026-05-04T07:44:49.704Z</time></trkpt><trkpt lat="45.61559" lon="9.8221483"><ele>178.5</ele><time>2026-05-04T07:44:51.704Z</time></trkpt><trkpt lat="45.61553" lon="9.82219"><ele>178.0</ele><time>2026-05-04T07:44:52.703Z</time></trkpt><trkpt lat="45.61547" lon="9.8222333"><ele>177.5</ele><time>2026-05-04T07:44:53.704Z</time></trkpt><trkpt lat="45.61541" lon="9.82228"><ele>177.0</ele><time>2026-05-04T07:44:54.704Z</time></trkpt><trkpt lat="45.6153467" lon="9.8223183"><ele>176.83333333333334</ele><time>2026-05-04T07:44:55.704Z</time></trkpt><trkpt lat="45.61523" lon="9.82239"><ele>176.66666666666666</ele><time>2026-05-04T07:44:57.703Z</time></trkpt><trkpt lat="45.6151717" lon="9.8224267"><ele>176.5</ele><time>2026-05-04T07:44:58.704Z</time></trkpt><trkpt lat="45.615105" lon="9.8224683"><ele>176.33333333333331</ele><time>2026-05-04T07:44:59.704Z</time></trkpt><trkpt lat="45.6150367" lon="9.8225133"><ele>176.16666666666666</ele><time>2026-05-04T07:45:00.704Z</time></trkpt><trkpt lat="45.6149683" lon="9.8225567"><ele>176.0</ele><time>2026-05-04T07:45:01.704Z</time></trkpt><trkpt lat="45.6149033" lon="9.8226033"><ele>175.83333333333331</ele><time>2026-05-04T07:45:02.704Z</time></trkpt><trkpt lat="45.6148333" lon="9.822655"><ele>175.66666666666666</ele><time>2026-05-04T07:45:03.704Z</time></trkpt><trkpt lat="45.6147667" lon="9.8227067"><ele>175.5</ele><time>2026-05-04T07:45:04.703Z</time></trkpt><trkpt lat="45.614695" lon="9.8227583"><ele>175.33333333333334</ele><time>2026-05-04T07:45:05.703Z</time></trkpt><trkpt lat="45.6146217" lon="9.8228067"><ele>175.16666666666669</ele><time>2026-05-04T07:45:06.704Z</time></trkpt><trkpt lat="45.614545" lon="9.8228567"><ele>175.0</ele><time>2026-05-04T07:45:07.703Z</time></trkpt><trkpt lat="45.6144733" lon="9.8229133"><ele>175.5</ele><time>2026-05-04T07:45:08.704Z</time></trkpt><trkpt lat="45.6143967" lon="9.8229717"><ele>176.0</ele><time>2026-05-04T07:45:09.704Z</time></trkpt><trkpt lat="45.6143183" lon="9.823025"><ele>176.5</ele><time>2026-05-04T07:45:10.704Z</time></trkpt><trkpt lat="45.6142467" lon="9.8230717"><ele>177.0</ele><time>2026-05-04T07:45:11.704Z</time></trkpt><trkpt lat="45.6141717" lon="9.8231183"><ele>177.5</ele><time>2026-05-04T07:45:12.704Z</time></trkpt><trkpt lat="45.6141067" lon="9.8231517"><ele>178.0</ele><time>2026-05-04T07:45:13.704Z</time></trkpt><trkpt lat="45.6140467" lon="9.8231817"><ele>178.0</ele><time>2026-05-04T07:45:14.703Z</time></trkpt><trkpt lat="45.6139833" lon="9.8232183"><ele>178.0</ele><time>2026-05-04T07:45:15.704Z</time></trkpt><trkpt lat="45.6139183" lon="9.8232583"><ele>178.0</ele><time>2026-05-04T07:45:16.704Z</time></trkpt><trkpt lat="45.6138583" lon="9.8232917"><ele>178.0</ele><time>2026-05-04T07:45:17.703Z</time></trkpt><trkpt lat="45.6137583" lon="9.823345"><ele>178.0</ele><time>2026-05-04T07:45:19.704Z</time></trkpt><trkpt lat="45.6136717" lon="9.8233983"><ele>178.0</ele><time>2026-05-04T07:45:21.703Z</time></trkpt><trkpt lat="45.61362" lon="9.8234683"><ele>178.4</ele><time>2026-05-04T07:45:24.704Z</time></trkpt><trkpt lat="45.6135983" lon="9.8235617"><ele>178.8</ele><time>2026-05-04T07:51:08.704Z</time></trkpt><trkpt lat="45.6135783" lon="9.8236933"><ele>179.2</ele><time>2026-05-04T07:51:10.704Z</time></trkpt><trkpt lat="45.6135867" lon="9.82385"><ele>179.6</ele><time>2026-05-04T07:51:12.704Z</time></trkpt><trkpt lat="45.6136083" lon="9.8240083"><ele>180.0</ele><time>2026-05-04T07:51:14.704Z</time></trkpt><trkpt lat="45.613625" lon="9.8241483"><ele>180.0</ele><time>2026-05-04T07:51:16.704Z</time></trkpt><trkpt lat="45.6136033" lon="9.82426"><ele>180.0</ele><time>2026-05-04T07:51:18.704Z</time></trkpt><trkpt lat="45.6135283" lon="9.82432"><ele>180.0</ele><time>2026-05-04T07:51:20.704Z</time></trkpt><trkpt lat="45.6134283" lon="9.824335"><ele>180.0</ele><time>2026-05-04T07:51:22.704Z</time></trkpt><trkpt lat="45.6133017" lon="9.8243267"><ele>180.0</ele><time>2026-05-04T07:51:24.704Z</time></trkpt><trkpt lat="45.613235" lon="9.8243233"><ele>179.83333333333334</ele><time>2026-05-04T07:51:25.704Z</time></trkpt><trkpt lat="45.6131583" lon="9.8243233"><ele>179.66666666666666</ele><time>2026-05-04T07:51:26.704Z</time></trkpt><trkpt lat="45.613075" lon="9.82432"><ele>179.5</ele><time>2026-05-04T07:51:27.703Z</time></trkpt><trkpt lat="45.6129783" lon="9.82433"><ele>179.33333333333331</ele><time>2026-05-04T07:51:28.704Z</time></trkpt><trkpt lat="45.6128867" lon="9.824335"><ele>179.16666666666666</ele><time>2026-05-04T07:51:29.704Z</time></trkpt><trkpt lat="45.6128083" lon="9.8243317"><ele>179.0</ele><time>2026-05-04T07:51:30.704Z</time></trkpt><trkpt lat="45.6127183" lon="9.8243417"><ele>178.66666666666666</ele><time>2026-05-04T07:51:31.704Z</time></trkpt><trkpt lat="45.6126367" lon="9.824345"><ele>178.33333333333331</ele><time>2026-05-04T07:51:32.704Z</time></trkpt><trkpt lat="45.6125567" lon="9.8243483"><ele>178.0</ele><time>2026-05-04T07:51:33.704Z</time></trkpt><trkpt lat="45.6124717" lon="9.8243467"><ele>177.66666666666666</ele><time>2026-05-04T07:51:34.704Z</time></trkpt><trkpt lat="45.61239" lon="9.824345"><ele>177.33333333333334</ele><time>2026-05-04T07:51:35.703Z</time></trkpt><trkpt lat="45.61231" lon="9.8243417"><ele>177.0</ele><time>2026-05-04T07:51:36.704Z</time></trkpt><trkpt lat="45.6122233" lon="9.82434"><ele>177.0</ele><time>2026-05-04T07:51:37.704Z</time></trkpt><trkpt lat="45.6121367" lon="9.8243467"><ele>177.0</ele><time>2026-05-04T07:51:38.704Z</time></trkpt><trkpt lat="45.612045" lon="9.824355"><ele>177.0</ele><time>2026-05-04T07:51:39.704Z</time></trkpt><trkpt lat="45.6119533" lon="9.82436"><ele>177.0</ele><time>2026-05-04T07:51:40.704Z</time></trkpt><trkpt lat="45.6118617" lon="9.82436"><ele>177.0</ele><time>2026-05-04T07:51:41.704Z</time></trkpt><trkpt lat="45.6117667" lon="9.82436"><ele>176.8</ele><time>2026-05-04T07:51:42.704Z</time></trkpt><trkpt lat="45.611675" lon="9.8243633"><ele>176.6</ele><time>2026-05-04T07:51:43.704Z</time></trkpt><trkpt lat="45.611585" lon="9.82437"><ele>176.4</ele><time>2026-05-04T07:51:44.704Z</time></trkpt><trkpt lat="45.611495" lon="9.824375"><ele>176.20000000000002</ele><time>2026-05-04T07:51:45.703Z</time></trkpt><trkpt lat="45.6114067" lon="9.8243817"><ele>176.0</ele><time>2026-05-04T07:51:46.704Z</time></trkpt><trkpt lat="45.6113083" lon="9.82439"><ele>176.0</ele><time>2026-05-04T07:51:47.704Z</time></trkpt><trkpt lat="45.6112" lon="9.8244033"><ele>176.0</ele><time>2026-05-04T07:51:48.704Z</time></trkpt><trkpt lat="45.6110983" lon="9.82441"><ele>176.0</ele><time>2026-05-04T07:51:49.704Z</time></trkpt><trkpt lat="45.6110067" lon="9.824415"><ele>176.0</ele><time>2026-05-04T07:51:50.704Z</time></trkpt><trkpt lat="45.6109167" lon="9.82442"><ele>176.0</ele><time>2026-05-04T07:51:51.704Z</time></trkpt><trkpt lat="45.6108233" lon="9.82442"><ele>175.83333333333331</ele><time>2026-05-04T07:51:52.704Z</time></trkpt><trkpt lat="45.6107317" lon="9.8244167"><ele>175.66666666666666</ele><time>2026-05-04T07:51:53.704Z</time></trkpt><trkpt lat="45.61064" lon="9.82441"><ele>175.5</ele><time>2026-05-04T07:51:54.704Z</time></trkpt><trkpt lat="45.6105567" lon="9.824415"><ele>175.33333333333334</ele><time>2026-05-04T07:51:55.704Z</time></trkpt><trkpt lat="45.6104733" lon="9.8244117"><ele>175.16666666666669</ele><time>2026-05-04T07:51:56.704Z</time></trkpt><trkpt lat="45.6103917" lon="9.8244167"><ele>175.0</ele><time>2026-05-04T07:51:57.703Z</time></trkpt><trkpt lat="45.6103167" lon="9.8244217"><ele>175.0</ele><time>2026-05-04T07:51:58.704Z</time></trkpt><trkpt lat="45.6102433" lon="9.82443"><ele>175.0</ele><time>2026-05-04T07:51:59.704Z</time></trkpt><trkpt lat="45.61017" lon="9.8244367"><ele>175.0</ele><time>2026-05-04T07:52:00.703Z</time></trkpt><trkpt lat="45.6101067" lon="9.8244417"><ele>175.0</ele><time>2026-05-04T07:52:01.704Z</time></trkpt><trkpt lat="45.610005" lon="9.8244433"><ele>175.0</ele><time>2026-05-04T07:52:03.703Z</time></trkpt><trkpt lat="45.6099183" lon="9.8244467"><ele>175.0</ele><time>2026-05-04T07:52:05.704Z</time></trkpt><trkpt lat="45.6098383" lon="9.8244567"><ele>175.0</ele><time>2026-05-04T07:52:07.704Z</time></trkpt><trkpt lat="45.6097617" lon="9.8244817"><ele>175.0</ele><time>2026-05-04T07:52:15.704Z</time></trkpt><trkpt lat="45.60968" lon="9.824545"><ele>175.0</ele><time>2026-05-04T07:52:18.704Z</time></trkpt><trkpt lat="45.60959" lon="9.8245467"><ele>175.0</ele><time>2026-05-04T07:52:20.703Z</time></trkpt><trkpt lat="45.6094983" lon="9.8245267"><ele>175.0</ele><time>2026-05-04T07:52:22.704Z</time></trkpt><trkpt lat="45.6094083" lon="9.8245117"><ele>175.0</ele><time>2026-05-04T07:52:24.703Z</time></trkpt><trkpt lat="45.6093117" lon="9.8245267"><ele>174.4</ele><time>2026-05-04T07:52:26.703Z</time></trkpt><trkpt lat="45.60919" lon="9.82454"><ele>173.8</ele><time>2026-05-04T07:52:28.703Z</time></trkpt><trkpt lat="45.609125" lon="9.8245433"><ele>173.2</ele><time>2026-05-04T07:52:29.704Z</time></trkpt><trkpt lat="45.6090033" lon="9.824565"><ele>172.6</ele><time>2026-05-04T07:52:31.704Z</time></trkpt><trkpt lat="45.60894" lon="9.8245683"><ele>172.0</ele><time>2026-05-04T07:52:32.704Z</time></trkpt><trkpt lat="45.6088133" lon="9.8245733"><ele>172.0</ele><time>2026-05-04T07:52:34.704Z</time></trkpt><trkpt lat="45.6087467" lon="9.8245783"><ele>172.0</ele><time>2026-05-04T07:52:35.704Z</time></trkpt><trkpt lat="45.60862" lon="9.82459"><ele>172.0</ele><time>2026-05-04T07:52:37.704Z</time></trkpt><trkpt lat="45.6085567" lon="9.82459"><ele>172.0</ele><time>2026-05-04T07:52:38.703Z</time></trkpt><trkpt lat="45.6084933" lon="9.8246"><ele>172.0</ele><time>2026-05-04T07:52:39.704Z</time></trkpt><trkpt lat="45.60843" lon="9.8246033"><ele>172.0</ele><time>2026-05-04T07:52:40.703Z</time></trkpt><trkpt lat="45.60832" lon="9.82463"><ele>172.0</ele><time>2026-05-04T07:52:42.704Z</time></trkpt><trkpt lat="45.6082417" lon="9.8247117"><ele>172.0</ele><time>2026-05-04T07:52:44.703Z</time></trkpt><trkpt lat="45.6082" lon="9.8248217"><ele>172.0</ele><time>2026-05-04T07:52:46.703Z</time></trkpt><trkpt lat="45.6082067" lon="9.8249517"><ele>172.0</ele><time>2026-05-04T07:52:48.704Z</time></trkpt><trkpt lat="45.6081933" lon="9.82506"><ele>172.0</ele><time>2026-05-04T07:52:50.703Z</time></trkpt><trkpt lat="45.6081" lon="9.825085"><ele>172.0</ele><time>2026-05-04T07:52:52.704Z</time></trkpt><trkpt lat="45.6080317" lon="9.8250783"><ele>172.00000000000003</ele><time>2026-05-04T07:52:53.704Z</time></trkpt><trkpt lat="45.6079617" lon="9.8250717"><ele>172.0</ele><time>2026-05-04T07:52:54.704Z</time></trkpt><trkpt lat="45.6078933" lon="9.82508"><ele>172.0</ele><time>2026-05-04T07:52:55.704Z</time></trkpt><trkpt lat="45.6078233" lon="9.825085"><ele>172.0</ele><time>2026-05-04T07:52:56.703Z</time></trkpt><trkpt lat="45.6077567" lon="9.82509"><ele>172.0</ele><time>2026-05-04T07:52:57.704Z</time></trkpt><trkpt lat="45.6076917" lon="9.8251033"><ele>172.00000000000003</ele><time>2026-05-04T07:52:58.703Z</time></trkpt><trkpt lat="45.6076267" lon="9.8251067"><ele>172.0</ele><time>2026-05-04T07:52:59.704Z</time></trkpt><trkpt lat="45.6075617" lon="9.8251033"><ele>171.83333333333334</ele><time>2026-05-04T07:53:00.704Z</time></trkpt><trkpt lat="45.60744" lon="9.8250667"><ele>171.66666666666669</ele><time>2026-05-04T07:53:02.704Z</time></trkpt><trkpt lat="45.6073767" lon="9.8250383"><ele>171.5</ele><time>2026-05-04T07:53:03.704Z</time></trkpt><trkpt lat="45.60731" lon="9.82501"><ele>171.33333333333334</ele><time>2026-05-04T07:53:04.704Z</time></trkpt><trkpt lat="45.6072417" lon="9.824975"><ele>171.16666666666666</ele><time>2026-05-04T07:53:05.704Z</time></trkpt><trkpt lat="45.6071683" lon="9.82494"><ele>171.0</ele><time>2026-05-04T07:53:06.704Z</time></trkpt><trkpt lat="45.6070933" lon="9.824905"><ele>171.0</ele><time>2026-05-04T07:53:07.704Z</time></trkpt><trkpt lat="45.607025" lon="9.82488"><ele>171.0</ele><time>2026-05-04T07:53:08.704Z</time></trkpt><trkpt lat="45.6069633" lon="9.8248533"><ele>171.0</ele><time>2026-05-04T07:53:09.704Z</time></trkpt><trkpt lat="45.6068467" lon="9.8248117"><ele>171.0</ele><time>2026-05-04T07:53:11.704Z</time></trkpt><trkpt lat="45.60676" lon="9.8247783"><ele>171.0</ele><time>2026-05-04T07:53:13.704Z</time></trkpt><trkpt lat="45.6067" lon="9.82475"><ele>171.0</ele><time>2026-05-04T07:53:31.704Z</time></trkpt><trkpt lat="45.60672" lon="9.8246067"><ele>170.7142857142857</ele><time>2026-05-04T07:53:40.704Z</time></trkpt><trkpt lat="45.6067683" lon="9.82451"><ele>170.42857142857142</ele><time>2026-05-04T07:53:41.704Z</time></trkpt><trkpt lat="45.60682" lon="9.8244117"><ele>170.14285714285714</ele><time>2026-05-04T07:53:42.703Z</time></trkpt><trkpt lat="45.6068617" lon="9.8243217"><ele>169.85714285714283</ele><time>2026-05-04T07:53:43.704Z</time></trkpt><trkpt lat="45.6068967" lon="9.824245"><ele>169.57142857142856</ele><time>2026-05-04T07:53:44.704Z</time></trkpt><trkpt lat="45.6069333" lon="9.8241717"><ele>169.28571428571428</ele><time>2026-05-04T07:53:45.704Z</time></trkpt><trkpt lat="45.6069733" lon="9.8241017"><ele>169.0</ele><time>2026-05-04T07:53:46.704Z</time></trkpt><trkpt lat="45.6070233" lon="9.8240267"><ele>169.0</ele><time>2026-05-04T07:53:47.704Z</time></trkpt><trkpt lat="45.6070983" lon="9.8238983"><ele>169.0</ele><time>2026-05-04T07:53:49.704Z</time></trkpt><trkpt lat="45.6071533" lon="9.8237767"><ele>169.0</ele><time>2026-05-04T07:53:51.704Z</time></trkpt><trkpt lat="45.6071933" lon="9.823665"><ele>169.0</ele><time>2026-05-04T07:53:53.704Z</time></trkpt><trkpt lat="45.607235" lon="9.8235517"><ele>169.0</ele><time>2026-05-04T07:53:55.704Z</time></trkpt><trkpt lat="45.607285" lon="9.8234517"><ele>169.0</ele><time>2026-05-04T07:53:57.704Z</time></trkpt><trkpt lat="45.60737" lon="9.82342"><ele>169.0</ele><time>2026-05-04T07:54:00.704Z</time></trkpt><trkpt lat="45.607435" lon="9.82347"><ele>169.0</ele><time>2026-05-04T07:54:02.704Z</time></trkpt><trkpt lat="45.607505" lon="9.8235367"><ele>169.0</ele><time>2026-05-04T07:54:04.704Z</time></trkpt><trkpt lat="45.60758" lon="9.8235333"><ele>169.0</ele><time>2026-05-04T07:54:06.704Z</time></trkpt><trkpt lat="45.6076517" lon="9.8234767"><ele>169.0</ele><time>2026-05-04T07:54:08.704Z</time></trkpt><trkpt lat="45.6077217" lon="9.823405"><ele>168.83333333333334</ele><time>2026-05-04T07:54:11.704Z</time></trkpt><trkpt lat="45.6077833" lon="9.82338"><ele>168.66666666666669</ele><time>2026-05-04T07:54:13.704Z</time></trkpt><trkpt lat="45.607845" lon="9.8233333"><ele>168.5</ele><time>2026-05-04T07:54:15.704Z</time></trkpt><trkpt lat="45.6079217" lon="9.82329"><ele>168.33333333333334</ele><time>2026-05-04T07:54:17.704Z</time></trkpt><trkpt lat="45.608015" lon="9.82325"><ele>168.16666666666666</ele><time>2026-05-04T07:54:19.704Z</time></trkpt><trkpt lat="45.6080717" lon="9.82317"><ele>168.0</ele><time>2026-05-04T07:54:22.704Z</time></trkpt><trkpt lat="45.6079883" lon="9.8230833"><ele>168.0</ele><time>2026-05-04T07:54:26.704Z</time></trkpt><trkpt lat="45.6079133" lon="9.823105"><ele>168.0</ele><time>2026-05-04T07:54:28.704Z</time></trkpt><trkpt lat="45.6078367" lon="9.8231267"><ele>168.0</ele><time>2026-05-04T07:54:30.704Z</time></trkpt><trkpt lat="45.6077667" lon="9.823145"><ele>168.0</ele><time>2026-05-04T07:54:32.704Z</time></trkpt><trkpt lat="45.6077017" lon="9.8231583"><ele>168.0</ele><time>2026-05-04T07:54:34.704Z</time></trkpt><trkpt lat="45.6076083" lon="9.8232067"><ele>168.0</ele><time>2026-05-04T07:54:37.704Z</time></trkpt><trkpt lat="45.6075233" lon="9.8232317"><ele>168.0</ele><time>2026-05-04T07:54:39.704Z</time></trkpt><trkpt lat="45.6074333" lon="9.823255"><ele>168.0</ele><time>2026-05-04T07:54:41.704Z</time></trkpt><trkpt lat="45.6073517" lon="9.8232733"><ele>168.0</ele><time>2026-05-04T07:54:43.704Z</time></trkpt><trkpt lat="45.60726" lon="9.8232983"><ele>168.0</ele><time>2026-05-04T07:54:46.704Z</time></trkpt><trkpt lat="45.6071967" lon="9.8233483"><ele>168.0</ele><time>2026-05-04T07:55:12.704Z</time></trkpt><trkpt lat="45.6071917" lon="9.8235017"><ele>168.0</ele><time>2026-05-04T07:55:14.704Z</time></trkpt><trkpt lat="45.60714" lon="9.823625"><ele>168.16666666666666</ele><time>2026-05-04T07:55:16.703Z</time></trkpt><trkpt lat="45.6070833" lon="9.823675"><ele>168.33333333333334</ele><time>2026-05-04T07:55:18.704Z</time></trkpt><trkpt lat="45.607025" lon="9.82376"><ele>168.5</ele><time>2026-05-04T07:55:20.704Z</time></trkpt><trkpt lat="45.606965" lon="9.8238633"><ele>168.66666666666669</ele><time>2026-05-04T07:55:22.704Z</time></trkpt><trkpt lat="45.6069117" lon="9.8239783"><ele>168.83333333333334</ele><time>2026-05-04T07:55:24.703Z</time></trkpt><trkpt lat="45.60686" lon="9.824105"><ele>169.0</ele><time>2026-05-04T07:55:26.704Z</time></trkpt><trkpt lat="45.6068117" lon="9.8242233"><ele>168.79999999999998</ele><time>2026-05-04T07:55:28.704Z</time></trkpt><trkpt lat="45.606755" lon="9.8243133"><ele>168.6</ele><time>2026-05-04T07:55:30.704Z</time></trkpt><trkpt lat="45.6067033" lon="9.824395"><ele>168.4</ele><time>2026-05-04T07:55:32.704Z</time></trkpt><trkpt lat="45.6066367" lon="9.82451"><ele>168.2</ele><time>2026-05-04T07:55:34.704Z</time></trkpt><trkpt lat="45.6065583" lon="9.82459"><ele>168.0</ele><time>2026-05-04T07:55:36.704Z</time></trkpt><trkpt lat="45.60647" lon="9.8246433"><ele>168.0</ele><time>2026-05-04T07:55:38.703Z</time></trkpt><trkpt lat="45.60637" lon="9.8246883"><ele>168.0</ele><time>2026-05-04T07:55:40.704Z</time></trkpt><trkpt lat="45.6062767" lon="9.82471"><ele>168.0</ele><time>2026-05-04T07:55:42.704Z</time></trkpt><trkpt lat="45.6061933" lon="9.82475"><ele>168.0</ele><time>2026-05-04T07:55:44.704Z</time></trkpt><trkpt lat="45.6061183" lon="9.8247983"><ele>168.0</ele><time>2026-05-04T07:55:46.704Z</time></trkpt><trkpt lat="45.6060433" lon="9.82487"><ele>167.83333333333334</ele><time>2026-05-04T07:56:02.704Z</time></trkpt><trkpt lat="45.6059783" lon="9.8249167"><ele>167.66666666666666</ele><time>2026-05-04T07:56:04.704Z</time></trkpt><trkpt lat="45.6059" lon="9.8249983"><ele>167.5</ele><time>2026-05-04T07:56:06.704Z</time></trkpt><trkpt lat="45.60583" lon="9.8250867"><ele>167.33333333333331</ele><time>2026-05-04T07:56:08.704Z</time></trkpt><trkpt lat="45.605765" lon="9.8251633"><ele>167.16666666666666</ele><time>2026-05-04T07:56:10.704Z</time></trkpt><trkpt lat="45.60569" lon="9.8252617"><ele>167.0</ele><time>2026-05-04T07:56:12.704Z</time></trkpt><trkpt lat="45.605615" lon="9.8253283"><ele>166.83333333333331</ele><time>2026-05-04T07:56:14.704Z</time></trkpt><trkpt lat="45.6055267" lon="9.825395"><ele>166.66666666666666</ele><time>2026-05-04T07:56:16.704Z</time></trkpt><trkpt lat="45.6054517" lon="9.82547"><ele>166.5</ele><time>2026-05-04T07:56:18.703Z</time></trkpt><trkpt lat="45.6053817" lon="9.8255367"><ele>166.33333333333334</ele><time>2026-05-04T07:56:20.704Z</time></trkpt><trkpt lat="45.6053167" lon="9.825575"><ele>166.16666666666669</ele><time>2026-05-04T07:56:22.704Z</time></trkpt><trkpt lat="45.6052533" lon="9.8256017"><ele>166.0</ele><time>2026-05-04T08:02:17.704Z</time></trkpt><trkpt lat="45.6052167" lon="9.8256917"><ele>166.0</ele><time>2026-05-04T08:02:19.704Z</time></trkpt><trkpt lat="45.6051467" lon="9.8257917"><ele>166.0</ele><time>2026-05-04T08:02:22.704Z</time></trkpt><trkpt lat="45.6050733" lon="9.8258617"><ele>166.0</ele><time>2026-05-04T08:02:24.703Z</time></trkpt><trkpt lat="45.6049917" lon="9.8259217"><ele>166.0</ele><time>2026-05-04T08:02:26.704Z</time></trkpt><trkpt lat="45.60492" lon="9.8259567"><ele>166.0</ele><time>2026-05-04T08:02:28.704Z</time></trkpt><trkpt lat="45.6048717" lon="9.8260267"><ele>166.0</ele><time>2026-05-04T08:02:31.704Z</time></trkpt><trkpt lat="45.6049317" lon="9.826075"><ele>166.0</ele><time>2026-05-04T08:02:35.704Z</time></trkpt><trkpt lat="45.6049983" lon="9.8260517"><ele>166.0</ele><time>2026-05-04T08:02:37.704Z</time></trkpt><trkpt lat="45.605075" lon="9.8260333"><ele>166.0</ele><time>2026-05-04T08:02:39.704Z</time></trkpt><trkpt lat="45.6051517" lon="9.82602"><ele>166.0</ele><time>2026-05-04T08:02:41.704Z</time></trkpt><trkpt lat="45.605235" lon="9.826"><ele>166.0</ele><time>2026-05-04T08:02:43.703Z</time></trkpt><trkpt lat="45.605315" lon="9.8259883"><ele>166.0</ele><time>2026-05-04T08:02:45.703Z</time></trkpt><trkpt lat="45.6053817" lon="9.8259783"><ele>166.0</ele><time>2026-05-04T08:02:47.704Z</time></trkpt><trkpt lat="45.6054783" lon="9.82597"><ele>166.0</ele><time>2026-05-04T08:02:50.704Z</time></trkpt><trkpt lat="45.605555" lon="9.8259683"><ele>166.0</ele><time>2026-05-04T08:02:52.704Z</time></trkpt><trkpt lat="45.6056383" lon="9.8259467"><ele>166.0</ele><time>2026-05-04T08:02:54.703Z</time></trkpt><trkpt lat="45.6057133" lon="9.8259133"><ele>166.0</ele><time>2026-05-04T08:02:56.704Z</time></trkpt><trkpt lat="45.6057767" lon="9.825855"><ele>166.0</ele><time>2026-05-04T08:02:58.703Z</time></trkpt><trkpt lat="45.60582" lon="9.8257767"><ele>166.0</ele><time>2026-05-04T08:03:11.704Z</time></trkpt><trkpt lat="45.6058583" lon="9.8256983"><ele>166.0</ele><time>2026-05-04T08:03:13.704Z</time></trkpt><trkpt lat="45.605905" lon="9.8255817"><ele>166.0</ele><time>2026-05-04T08:03:15.704Z</time></trkpt><trkpt lat="45.605935" lon="9.8254967"><ele>166.0</ele><time>2026-05-04T08:03:17.704Z</time></trkpt><trkpt lat="45.606005" lon="9.8254467"><ele>166.0</ele><time>2026-05-04T08:03:20.704Z</time></trkpt><trkpt lat="45.6060833" lon="9.82551"><ele>166.0</ele><time>2026-05-04T08:03:23.704Z</time></trkpt><trkpt lat="45.6061217" lon="9.82559"><ele>166.0</ele><time>2026-05-04T08:03:25.704Z</time></trkpt><trkpt lat="45.60619" lon="9.8255683"><ele>166.0</ele><time>2026-05-04T08:03:28.704Z</time></trkpt><trkpt lat="45.6061817" lon="9.8254367"><ele>166.0</ele><time>2026-05-04T08:03:31.704Z</time></trkpt><trkpt lat="45.6061533" lon="9.8253517"><ele>166.0</ele><time>2026-05-04T08:03:33.704Z</time></trkpt><trkpt lat="45.6061183" lon="9.82526"><ele>166.0</ele><time>2026-05-04T08:03:35.704Z</time></trkpt><trkpt lat="45.606065" lon="9.82519"><ele>166.0</ele><time>2026-05-04T08:03:37.704Z</time></trkpt><trkpt lat="45.6060267" lon="9.8251167"><ele>166.0</ele><time>2026-05-04T08:03:39.704Z</time></trkpt><trkpt lat="45.6060767" lon="9.82504"><ele>166.14285714285714</ele><time>2026-05-04T08:03:42.703Z</time></trkpt><trkpt lat="45.6061233" lon="9.825105"><ele>166.2857142857143</ele><time>2026-05-04T08:03:44.704Z</time></trkpt><trkpt lat="45.6061617" lon="9.8252083"><ele>166.42857142857144</ele><time>2026-05-04T08:03:46.704Z</time></trkpt><trkpt lat="45.606205" lon="9.8253033"><ele>166.57142857142856</ele><time>2026-05-04T08:03:48.704Z</time></trkpt><trkpt lat="45.606265" lon="9.8253617"><ele>166.71428571428572</ele><time>2026-05-04T08:03:50.704Z</time></trkpt><trkpt lat="45.606325" lon="9.8253267"><ele>166.85714285714286</ele><time>2026-05-04T08:03:53.704Z</time></trkpt><trkpt lat="45.6062917" lon="9.82523"><ele>167.0</ele><time>2026-05-04T08:03:55.704Z</time></trkpt><trkpt lat="45.6062317" lon="9.8250983"><ele>167.16666666666666</ele><time>2026-05-04T08:03:57.704Z</time></trkpt><trkpt lat="45.60619" lon="9.8249983"><ele>167.33333333333331</ele><time>2026-05-04T08:03:59.704Z</time></trkpt><trkpt lat="45.6061633" lon="9.82491"><ele>167.5</ele><time>2026-05-04T08:04:01.704Z</time></trkpt><trkpt lat="45.6061833" lon="9.8248133"><ele>167.66666666666666</ele><time>2026-05-04T08:04:03.704Z</time></trkpt><trkpt lat="45.606275" lon="9.82476"><ele>167.83333333333334</ele><time>2026-05-04T08:04:05.704Z</time></trkpt><trkpt lat="45.606385" lon="9.8247233"><ele>168.0</ele><time>2026-05-04T08:04:07.704Z</time></trkpt><trkpt lat="45.606475" lon="9.8246933"><ele>168.0</ele><time>2026-05-04T08:04:09.704Z</time></trkpt><trkpt lat="45.6065767" lon="9.824665"><ele>168.0</ele><time>2026-05-04T08:04:11.704Z</time></trkpt><trkpt lat="45.6066633" lon="9.8246317"><ele>168.0</ele><time>2026-05-04T08:04:13.704Z</time></trkpt><trkpt lat="45.6067417" lon="9.8245733"><ele>168.0</ele><time>2026-05-04T08:04:15.704Z</time></trkpt><trkpt lat="45.6068067" lon="9.8244583"><ele>168.0</ele><time>2026-05-04T08:04:17.704Z</time></trkpt><trkpt lat="45.6068733" lon="9.8243217"><ele>168.2</ele><time>2026-05-04T08:04:19.704Z</time></trkpt><trkpt lat="45.6069317" lon="9.8241967"><ele>168.4</ele><time>2026-05-04T08:04:21.704Z</time></trkpt><trkpt lat="45.6069917" lon="9.8240933"><ele>168.6</ele><time>2026-05-04T08:04:23.704Z</time></trkpt><trkpt lat="45.6070567" lon="9.8239917"><ele>168.79999999999998</ele><time>2026-05-04T08:04:25.704Z</time></trkpt><trkpt lat="45.6071167" lon="9.823875"><ele>169.0</ele><time>2026-05-04T08:04:27.704Z</time></trkpt><trkpt lat="45.607175" lon="9.8237333"><ele>169.0</ele><time>2026-05-04T08:04:29.704Z</time></trkpt><trkpt lat="45.6072283" lon="9.8235933"><ele>169.0</ele><time>2026-05-04T08:04:31.704Z</time></trkpt><trkpt lat="45.6072817" lon="9.8234567"><ele>169.0</ele><time>2026-05-04T08:04:33.704Z</time></trkpt><trkpt lat="45.607365" lon="9.8234183"><ele>169.0</ele><time>2026-05-04T08:04:35.704Z</time></trkpt><trkpt lat="45.607445" lon="9.82346"><ele>169.0</ele><time>2026-05-04T08:04:37.704Z</time></trkpt><trkpt lat="45.60751" lon="9.823525"><ele>169.0</ele><time>2026-05-04T08:04:39.703Z</time></trkpt><trkpt lat="45.6075767" lon="9.8235283"><ele>169.0</ele><time>2026-05-04T08:04:41.704Z</time></trkpt><trkpt lat="45.60766" lon="9.8234683"><ele>169.0</ele><time>2026-05-04T08:04:43.704Z</time></trkpt><trkpt lat="45.6077133" lon="9.8234117"><ele>169.0</ele><time>2026-05-04T08:04:45.704Z</time></trkpt><trkpt lat="45.6077817" lon="9.823385"><ele>169.0</ele><time>2026-05-04T08:04:47.704Z</time></trkpt><trkpt lat="45.6078617" lon="9.8233433"><ele>169.0</ele><time>2026-05-04T08:04:49.704Z</time></trkpt><trkpt lat="45.607935" lon="9.823295"><ele>168.83333333333334</ele><time>2026-05-04T08:04:51.704Z</time></trkpt><trkpt lat="45.608005" lon="9.8232667"><ele>168.66666666666669</ele><time>2026-05-04T08:04:53.704Z</time></trkpt><trkpt lat="45.60806" lon="9.82319"><ele>168.5</ele><time>2026-05-04T08:04:55.704Z</time></trkpt><trkpt lat="45.6080433" lon="9.8230883"><ele>168.33333333333334</ele><time>2026-05-04T08:04:57.704Z</time></trkpt><trkpt lat="45.60794" lon="9.82307"><ele>168.16666666666666</ele><time>2026-05-04T08:04:59.704Z</time></trkpt><trkpt lat="45.607875" lon="9.823095"><ele>168.0</ele><time>2026-05-04T08:05:00.704Z</time></trkpt><trkpt lat="45.6077583" lon="9.8231367"><ele>168.0</ele><time>2026-05-04T08:05:02.704Z</time></trkpt><trkpt lat="45.6076767" lon="9.8231683"><ele>168.0</ele><time>2026-05-04T08:05:04.704Z</time></trkpt><trkpt lat="45.6076033" lon="9.8232017"><ele>168.0</ele><time>2026-05-04T08:05:07.704Z</time></trkpt><trkpt lat="45.6075217" lon="9.8232333"><ele>168.0</ele><time>2026-05-04T08:05:10.704Z</time></trkpt><trkpt lat="45.6074633" lon="9.8232683"><ele>168.0</ele><time>2026-05-04T08:05:12.704Z</time></trkpt><trkpt lat="45.6074017" lon="9.8232967"><ele>168.0</ele><time>2026-05-04T08:05:14.704Z</time></trkpt><trkpt lat="45.6073383" lon="9.823385"><ele>168.0</ele><time>2026-05-04T08:05:17.704Z</time></trkpt><trkpt lat="45.607275" lon="9.8234733"><ele>168.0</ele><time>2026-05-04T08:05:19.704Z</time></trkpt><trkpt lat="45.6072267" lon="9.8236133"><ele>168.0</ele><time>2026-05-04T08:05:21.704Z</time></trkpt><trkpt lat="45.6072" lon="9.823695"><ele>168.0</ele><time>2026-05-04T08:05:22.704Z</time></trkpt><trkpt lat="45.6071633" lon="9.8237767"><ele>168.0</ele><time>2026-05-04T08:05:23.704Z</time></trkpt><trkpt lat="45.607115" lon="9.8238767"><ele>168.0</ele><time>2026-05-04T08:05:24.704Z</time></trkpt><trkpt lat="45.6070733" lon="9.823965"><ele>168.0</ele><time>2026-05-04T08:05:25.704Z</time></trkpt><trkpt lat="45.6070217" lon="9.8240517"><ele>168.0</ele><time>2026-05-04T08:05:26.704Z</time></trkpt><trkpt lat="45.6069733" lon="9.8241417"><ele>168.0</ele><time>2026-05-04T08:05:27.704Z</time></trkpt><trkpt lat="45.6069233" lon="9.824235"><ele>168.0</ele><time>2026-05-04T08:05:28.704Z</time></trkpt><trkpt lat="45.60687" lon="9.824335"><ele>168.0</ele><time>2026-05-04T08:05:29.704Z</time></trkpt><trkpt lat="45.6068283" lon="9.8244267"><ele>168.0</ele><time>2026-05-04T08:05:30.703Z</time></trkpt><trkpt lat="45.6067917" lon="9.8245083"><ele>168.0</ele><time>2026-05-04T08:05:31.704Z</time></trkpt><trkpt lat="45.6067167" lon="9.8246183"><ele>168.0</ele><time>2026-05-04T08:05:33.704Z</time></trkpt><trkpt lat="45.6065983" lon="9.824675"><ele>168.0</ele><time>2026-05-04T08:05:35.704Z</time></trkpt><trkpt lat="45.606525" lon="9.8246967"><ele>168.0</ele><time>2026-05-04T08:05:36.703Z</time></trkpt><trkpt lat="45.60645" lon="9.824715"><ele>168.0</ele><time>2026-05-04T08:05:37.704Z</time></trkpt><trkpt lat="45.6063817" lon="9.8247317"><ele>168.0</ele><time>2026-05-04T08:05:38.703Z</time></trkpt><trkpt lat="45.6063167" lon="9.824745"><ele>168.0</ele><time>2026-05-04T08:05:39.703Z</time></trkpt><trkpt lat="45.6062533" lon="9.8247683"><ele>168.0</ele><time>2026-05-04T08:05:40.704Z</time></trkpt><trkpt lat="45.606175" lon="9.8248083"><ele>168.0</ele><time>2026-05-04T08:05:42.704Z</time></trkpt><trkpt lat="45.60616" lon="9.8249183"><ele>168.0</ele><time>2026-05-04T08:05:45.704Z</time></trkpt><trkpt lat="45.6061917" lon="9.825005"><ele>168.0</ele><time>2026-05-04T08:05:47.704Z</time></trkpt><trkpt lat="45.6062467" lon="9.8251233"><ele>168.2</ele><time>2026-05-04T08:05:49.704Z</time></trkpt><trkpt lat="45.6063067" lon="9.825255"><ele>168.4</ele><time>2026-05-04T08:05:51.704Z</time></trkpt><trkpt lat="45.6063417" lon="9.8253417"><ele>168.6</ele><time>2026-05-04T08:05:53.704Z</time></trkpt><trkpt lat="45.6062567" lon="9.82536"><ele>168.79999999999998</ele><time>2026-05-04T08:05:57.704Z</time></trkpt><trkpt lat="45.6061733" lon="9.82524"><ele>169.0</ele><time>2026-05-04T08:05:59.704Z</time></trkpt><trkpt lat="45.60612" lon="9.8251267"><ele>169.0</ele><time>2026-05-04T08:06:01.704Z</time></trkpt><trkpt lat="45.6060667" lon="9.825045"><ele>169.0</ele><time>2026-05-04T08:07:55.704Z</time></trkpt><trkpt lat="45.6060517" lon="9.8251517"><ele>169.0</ele><time>2026-05-04T08:08:12.704Z</time></trkpt><trkpt lat="45.60611" lon="9.8252517"><ele>169.0</ele><time>2026-05-04T08:08:14.704Z</time></trkpt><trkpt lat="45.6061683" lon="9.8253883"><ele>169.0</ele><time>2026-05-04T08:08:16.704Z</time></trkpt><trkpt lat="45.6062167" lon="9.825485"><ele>169.0</ele><time>2026-05-04T08:08:18.704Z</time></trkpt><trkpt lat="45.6061883" lon="9.8255883"><ele>168.5</ele><time>2026-05-04T08:08:21.704Z</time></trkpt><trkpt lat="45.6061117" lon="9.825535"><ele>168.0</ele><time>2026-05-04T08:08:24.704Z</time></trkpt><trkpt lat="45.6060633" lon="9.8253867"><ele>167.5</ele><time>2026-05-04T08:08:26.704Z</time></trkpt><trkpt lat="45.60603" lon="9.8252783"><ele>167.0</ele><time>2026-05-04T08:08:28.704Z</time></trkpt><trkpt lat="45.6059883" lon="9.8251967"><ele>166.5</ele><time>2026-05-04T08:08:30.704Z</time></trkpt><trkpt lat="45.605925" lon="9.8252083"><ele>166.0</ele><time>2026-05-04T08:08:33.704Z</time></trkpt><trkpt lat="45.6059083" lon="9.82532"><ele>166.0</ele><time>2026-05-04T08:08:35.703Z</time></trkpt><trkpt lat="45.60592" lon="9.825455"><ele>166.0</ele><time>2026-05-04T08:08:37.704Z</time></trkpt><trkpt lat="45.6059" lon="9.825585"><ele>166.0</ele><time>2026-05-04T08:08:39.703Z</time></trkpt><trkpt lat="45.60585" lon="9.8257117"><ele>166.0</ele><time>2026-05-04T08:08:41.704Z</time></trkpt><trkpt lat="45.6058133" lon="9.8258017"><ele>166.0</ele><time>2026-05-04T08:08:43.704Z</time></trkpt><trkpt lat="45.605725" lon="9.8258867"><ele>166.0</ele><time>2026-05-04T08:08:45.703Z</time></trkpt><trkpt lat="45.6056533" lon="9.8259217"><ele>166.0</ele><time>2026-05-04T08:08:46.704Z</time></trkpt><trkpt lat="45.6055583" lon="9.825945"><ele>166.0</ele><time>2026-05-04T08:08:47.704Z</time></trkpt><trkpt lat="45.605455" lon="9.82596"><ele>166.0</ele><time>2026-05-04T08:08:48.704Z</time></trkpt><trkpt lat="45.605355" lon="9.8259767"><ele>166.0</ele><time>2026-05-04T08:08:49.704Z</time></trkpt><trkpt lat="45.6052617" lon="9.8259883"><ele>166.0</ele><time>2026-05-04T08:08:50.704Z</time></trkpt><trkpt lat="45.6051717" lon="9.826"><ele>166.0</ele><time>2026-05-04T08:08:51.703Z</time></trkpt><trkpt lat="45.6050917" lon="9.8260183"><ele>166.0</ele><time>2026-05-04T08:08:52.704Z</time></trkpt><trkpt lat="45.6050267" lon="9.8260333"><ele>166.0</ele><time>2026-05-04T08:08:53.703Z</time></trkpt><trkpt lat="45.6049333" lon="9.8260767"><ele>166.0</ele><time>2026-05-04T08:08:55.704Z</time></trkpt><trkpt lat="45.604855" lon="9.82603"><ele>166.0</ele><time>2026-05-04T08:08:58.704Z</time></trkpt><trkpt lat="45.6049033" lon="9.825955"><ele>166.0</ele><time>2026-05-04T08:09:03.704Z</time></trkpt><trkpt lat="45.604975" lon="9.8259367"><ele>166.0</ele><time>2026-05-04T08:09:20.703Z</time></trkpt><trkpt lat="45.60508" lon="9.8258733"><ele>166.0</ele><time>2026-05-04T08:09:22.704Z</time></trkpt><trkpt lat="45.6051667" lon="9.8257983"><ele>166.0</ele><time>2026-05-04T08:09:24.703Z</time></trkpt><trkpt lat="45.605205" lon="9.8257267"><ele>166.0</ele><time>2026-05-04T08:09:26.704Z</time></trkpt><trkpt lat="45.6052417" lon="9.8256433"><ele>166.0</ele><time>2026-05-04T08:09:28.704Z</time></trkpt><trkpt lat="45.6053167" lon="9.8255917"><ele>166.0</ele><time>2026-05-04T08:09:30.704Z</time></trkpt><trkpt lat="45.6054233" lon="9.8255117"><ele>166.0</ele><time>2026-05-04T08:09:32.704Z</time></trkpt><trkpt lat="45.6055233" lon="9.8254017"><ele>166.0</ele><time>2026-05-04T08:09:34.704Z</time></trkpt><trkpt lat="45.6055817" lon="9.825355"><ele>166.0</ele><time>2026-05-04T08:09:35.704Z</time></trkpt><trkpt lat="45.6056383" lon="9.825315"><ele>166.0</ele><time>2026-05-04T08:09:36.704Z</time></trkpt><trkpt lat="45.60574" lon="9.8252317"><ele>166.20000000000002</ele><time>2026-05-04T08:09:38.704Z</time></trkpt><trkpt lat="45.6058" lon="9.825135"><ele>166.4</ele><time>2026-05-04T08:09:40.704Z</time></trkpt><trkpt lat="45.6058717" lon="9.8250483"><ele>166.6</ele><time>2026-05-04T08:09:42.704Z</time></trkpt><trkpt lat="45.60594" lon="9.82497"><ele>166.8</ele><time>2026-05-04T08:09:44.704Z</time></trkpt><trkpt lat="45.6060183" lon="9.824885"><ele>167.0</ele><time>2026-05-04T08:09:46.704Z</time></trkpt><trkpt lat="45.6061067" lon="9.8248217"><ele>167.2</ele><time>2026-05-04T08:09:48.704Z</time></trkpt><trkpt lat="45.6061967" lon="9.8247667"><ele>167.39999999999998</ele><time>2026-05-04T08:09:50.703Z</time></trkpt><trkpt lat="45.606295" lon="9.8247183"><ele>167.60000000000002</ele><time>2026-05-04T08:09:52.704Z</time></trkpt><trkpt lat="45.6064167" lon="9.8246767"><ele>167.8</ele><time>2026-05-04T08:09:54.704Z</time></trkpt><trkpt lat="45.6064783" lon="9.8246467"><ele>168.0</ele><time>2026-05-04T08:09:55.704Z</time></trkpt><trkpt lat="45.606585" lon="9.8245767"><ele>168.0</ele><time>2026-05-04T08:09:57.704Z</time></trkpt><trkpt lat="45.6066717" lon="9.8244733"><ele>168.0</ele><time>2026-05-04T08:09:59.704Z</time></trkpt><trkpt lat="45.6067183" lon="9.8244067"><ele>168.0</ele><time>2026-05-04T08:10:00.704Z</time></trkpt><trkpt lat="45.6067633" lon="9.8243367"><ele>168.0</ele><time>2026-05-04T08:10:01.704Z</time></trkpt><trkpt lat="45.606835" lon="9.824195"><ele>168.0</ele><time>2026-05-04T08:10:03.703Z</time></trkpt><trkpt lat="45.6068917" lon="9.8240483"><ele>168.2</ele><time>2026-05-04T08:10:05.704Z</time></trkpt><trkpt lat="45.606925" lon="9.8239717"><ele>168.4</ele><time>2026-05-04T08:10:06.704Z</time></trkpt><trkpt lat="45.6069967" lon="9.8238317"><ele>168.6</ele><time>2026-05-04T08:10:08.704Z</time></trkpt><trkpt lat="45.60707" lon="9.8237117"><ele>168.79999999999998</ele><time>2026-05-04T08:10:10.704Z</time></trkpt><trkpt lat="45.6071433" lon="9.8236183"><ele>169.0</ele><time>2026-05-04T08:10:12.704Z</time></trkpt><trkpt lat="45.607185" lon="9.8234917"><ele>168.79999999999998</ele><time>2026-05-04T08:10:14.703Z</time></trkpt><trkpt lat="45.6071933" lon="9.82336"><ele>168.6</ele><time>2026-05-04T08:10:16.704Z</time></trkpt><trkpt lat="45.6072733" lon="9.8233017"><ele>168.4</ele><time>2026-05-04T08:10:19.704Z</time></trkpt><trkpt lat="45.60736" lon="9.8232733"><ele>168.2</ele><time>2026-05-04T08:10:32.704Z</time></trkpt><trkpt lat="45.6074767" lon="9.8231967"><ele>168.0</ele><time>2026-05-04T08:10:34.704Z</time></trkpt><trkpt lat="45.6075683" lon="9.8230817"><ele>168.0</ele><time>2026-05-04T08:10:36.704Z</time></trkpt><trkpt lat="45.60765" lon="9.8229683"><ele>168.0</ele><time>2026-05-04T08:10:38.703Z</time></trkpt><trkpt lat="45.6077267" lon="9.82289"><ele>168.0</ele><time>2026-05-04T08:10:40.704Z</time></trkpt><trkpt lat="45.6078017" lon="9.8228433"><ele>168.0</ele><time>2026-05-04T08:10:42.704Z</time></trkpt><trkpt lat="45.6078733" lon="9.822905"><ele>168.0</ele><time>2026-05-04T08:10:45.704Z</time></trkpt><trkpt lat="45.607845" lon="9.8229933"><ele>168.0</ele><time>2026-05-04T08:10:47.704Z</time></trkpt><trkpt lat="45.60776" lon="9.82306"><ele>168.0</ele><time>2026-05-04T08:10:49.704Z</time></trkpt><trkpt lat="45.607685" lon="9.8230983"><ele>168.0</ele><time>2026-05-04T08:10:51.704Z</time></trkpt><trkpt lat="45.6077533" lon="9.8231467"><ele>168.0</ele><time>2026-05-04T08:11:34.703Z</time></trkpt><trkpt lat="45.60784" lon="9.823125"><ele>168.0</ele><time>2026-05-04T08:11:36.704Z</time></trkpt><trkpt lat="45.60794" lon="9.8230833"><ele>168.0</ele><time>2026-05-04T08:11:38.704Z</time></trkpt><trkpt lat="45.6080267" lon="9.8230833"><ele>168.0</ele><time>2026-05-04T08:11:40.704Z</time></trkpt><trkpt lat="45.60808" lon="9.8231717"><ele>168.0</ele><time>2026-05-04T08:11:43.703Z</time></trkpt><trkpt lat="45.6080183" lon="9.8232483"><ele>168.0</ele><time>2026-05-04T08:11:46.704Z</time></trkpt><trkpt lat="45.6079217" lon="9.8232917"><ele>168.0</ele><time>2026-05-04T08:11:48.703Z</time></trkpt><trkpt lat="45.6078433" lon="9.82334"><ele>168.0</ele><time>2026-05-04T08:11:50.704Z</time></trkpt><trkpt lat="45.60778" lon="9.8233633"><ele>168.0</ele><time>2026-05-04T08:11:52.703Z</time></trkpt><trkpt lat="45.607725" lon="9.823415"><ele>168.0</ele><time>2026-05-04T08:11:54.703Z</time></trkpt><trkpt lat="45.6076583" lon="9.8234867"><ele>168.0</ele><time>2026-05-04T08:11:56.703Z</time></trkpt><trkpt lat="45.607575" lon="9.823525"><ele>168.0</ele><time>2026-05-04T08:11:58.704Z</time></trkpt><trkpt lat="45.60751" lon="9.823485"><ele>168.0</ele><time>2026-05-04T08:12:00.703Z</time></trkpt><trkpt lat="45.6074317" lon="9.8234267"><ele>168.0</ele><time>2026-05-04T08:12:02.704Z</time></trkpt><trkpt lat="45.6073433" lon="9.82342"><ele>168.0</ele><time>2026-05-04T08:12:04.703Z</time></trkpt><trkpt lat="45.6072683" lon="9.8235217"><ele>168.0</ele><time>2026-05-04T08:12:06.704Z</time></trkpt><trkpt lat="45.6072133" lon="9.82367"><ele>168.16666666666666</ele><time>2026-05-04T08:12:08.704Z</time></trkpt><trkpt lat="45.6071567" lon="9.8238183"><ele>168.33333333333334</ele><time>2026-05-04T08:12:10.704Z</time></trkpt><trkpt lat="45.6071167" lon="9.8238967"><ele>168.5</ele><time>2026-05-04T08:12:11.704Z</time></trkpt><trkpt lat="45.6070717" lon="9.8239783"><ele>168.66666666666669</ele><time>2026-05-04T08:12:12.704Z</time></trkpt><trkpt lat="45.607015" lon="9.82407"><ele>168.83333333333334</ele><time>2026-05-04T08:12:13.704Z</time></trkpt><trkpt lat="45.6069617" lon="9.82417"><ele>169.0</ele><time>2026-05-04T08:12:14.704Z</time></trkpt><trkpt lat="45.606905" lon="9.82429"><ele>168.83333333333334</ele><time>2026-05-04T08:12:15.704Z</time></trkpt><trkpt lat="45.6068533" lon="9.8243983"><ele>168.66666666666669</ele><time>2026-05-04T08:12:16.703Z</time></trkpt><trkpt lat="45.6068117" lon="9.8244833"><ele>168.5</ele><time>2026-05-04T08:12:17.704Z</time></trkpt><trkpt lat="45.6067433" lon="9.8246"><ele>168.33333333333334</ele><time>2026-05-04T08:12:19.703Z</time></trkpt><trkpt lat="45.6067117" lon="9.8247067"><ele>168.16666666666666</ele><time>2026-05-04T08:12:21.704Z</time></trkpt><trkpt lat="45.6067533" lon="9.82478"><ele>168.0</ele><time>2026-05-04T08:12:23.703Z</time></trkpt><trkpt lat="45.606825" lon="9.8247883"><ele>168.0</ele><time>2026-05-04T08:12:25.704Z</time></trkpt><trkpt lat="45.606915" lon="9.8248167"><ele>168.0</ele><time>2026-05-04T08:12:28.704Z</time></trkpt><trkpt lat="45.6069783" lon="9.8248183"><ele>168.0</ele><time>2026-05-04T08:12:30.704Z</time></trkpt><trkpt lat="45.6068983" lon="9.8248067"><ele>168.0</ele><time>2026-05-04T08:12:38.704Z</time></trkpt><trkpt lat="45.6068167" lon="9.824775"><ele>168.0</ele><time>2026-05-04T08:12:40.704Z</time></trkpt><trkpt lat="45.606725" lon="9.8247483"><ele>168.0</ele><time>2026-05-04T08:12:42.704Z</time></trkpt><trkpt lat="45.6066333" lon="9.8247417"><ele>168.0</ele><time>2026-05-04T08:12:44.704Z</time></trkpt><trkpt lat="45.6065683" lon="9.824775"><ele>168.0</ele><time>2026-05-04T08:12:47.704Z</time></trkpt></trkseg><trkseg><trkpt lat="45.6066233" lon="9.8247517"><ele>168.0</ele><time>2026-05-04T08:23:19.703Z</time></trkpt><trkpt lat="45.6066883" lon="9.8247383"><ele>168.0</ele><time>2026-05-04T08:23:21.703Z</time></trkpt><trkpt lat="45.606745" lon="9.8246533"><ele>168.0</ele><time>2026-05-04T08:23:24.703Z</time></trkpt><trkpt lat="45.606655" lon="9.8246417"><ele>168.0</ele><time>2026-05-04T08:23:31.703Z</time></trkpt><trkpt lat="45.6065517" lon="9.824675"><ele>168.0</ele><time>2026-05-04T08:23:33.703Z</time></trkpt><trkpt lat="45.606445" lon="9.8247033"><ele>168.0</ele><time>2026-05-04T08:23:35.703Z</time></trkpt><trkpt lat="45.606335" lon="9.8247283"><ele>168.0</ele><time>2026-05-04T08:23:37.702Z</time></trkpt><trkpt lat="45.6062267" lon="9.824765"><ele>168.0</ele><time>2026-05-04T08:23:39.703Z</time></trkpt><trkpt lat="45.606165" lon="9.8248433"><ele>168.0</ele><time>2026-05-04T08:23:41.703Z</time></trkpt><trkpt lat="45.6061833" lon="9.8249783"><ele>168.0</ele><time>2026-05-04T08:23:43.703Z</time></trkpt><trkpt lat="45.60622" lon="9.825055"><ele>168.0</ele><time>2026-05-04T08:23:44.703Z</time></trkpt><trkpt lat="45.6062583" lon="9.8251367"><ele>168.0</ele><time>2026-05-04T08:23:45.703Z</time></trkpt><trkpt lat="45.60632" lon="9.8252633"><ele>168.0</ele><time>2026-05-04T08:23:47.703Z</time></trkpt><trkpt lat="45.60634" lon="9.825355"><ele>168.0</ele><time>2026-05-04T08:23:49.703Z</time></trkpt><trkpt lat="45.6062567" lon="9.82534"><ele>168.0</ele><time>2026-05-04T08:23:52.703Z</time></trkpt><trkpt lat="45.60621" lon="9.8252583"><ele>168.0</ele><time>2026-05-04T08:23:53.703Z</time></trkpt><trkpt lat="45.6061667" lon="9.82517"><ele>167.8</ele><time>2026-05-04T08:23:54.703Z</time></trkpt><trkpt lat="45.60613" lon="9.8250933"><ele>167.60000000000002</ele><time>2026-05-04T08:23:55.703Z</time></trkpt><trkpt lat="45.606065" lon="9.82503"><ele>167.39999999999998</ele><time>2026-05-04T08:23:57.703Z</time></trkpt><trkpt lat="45.6060483" lon="9.8251483"><ele>167.2</ele><time>2026-05-04T08:24:00.703Z</time></trkpt><trkpt lat="45.60613" lon="9.8252817"><ele>167.0</ele><time>2026-05-04T08:24:02.703Z</time></trkpt><trkpt lat="45.606175" lon="9.8254367"><ele>166.83333333333331</ele><time>2026-05-04T08:24:04.703Z</time></trkpt><trkpt lat="45.6062067" lon="9.825555"><ele>166.66666666666666</ele><time>2026-05-04T08:24:06.703Z</time></trkpt><trkpt lat="45.606145" lon="9.8256117"><ele>166.5</ele><time>2026-05-04T08:24:09.702Z</time></trkpt><trkpt lat="45.6060833" lon="9.8255117"><ele>166.33333333333334</ele><time>2026-05-04T08:24:11.703Z</time></trkpt><trkpt lat="45.6060217" lon="9.825445"><ele>166.16666666666669</ele><time>2026-05-04T08:24:13.702Z</time></trkpt><trkpt lat="45.6059517" lon="9.8254717"><ele>166.0</ele><time>2026-05-04T08:24:15.703Z</time></trkpt><trkpt lat="45.605915" lon="9.8255667"><ele>166.0</ele><time>2026-05-04T08:24:17.703Z</time></trkpt><trkpt lat="45.60586" lon="9.8256817"><ele>166.0</ele><time>2026-05-04T08:24:20.703Z</time></trkpt><trkpt lat="45.6058067" lon="9.8257817"><ele>166.0</ele><time>2026-05-04T08:24:23.703Z</time></trkpt><trkpt lat="45.60575" lon="9.8258833"><ele>166.0</ele><time>2026-05-04T08:24:25.703Z</time></trkpt><trkpt lat="45.605655" lon="9.82596"><ele>166.0</ele><time>2026-05-04T08:24:27.703Z</time></trkpt><trkpt lat="45.6055133" lon="9.8259683"><ele>166.0</ele><time>2026-05-04T08:24:29.702Z</time></trkpt><trkpt lat="45.605415" lon="9.8259733"><ele>166.0</ele><time>2026-05-04T08:24:30.703Z</time></trkpt><trkpt lat="45.605305" lon="9.8259867"><ele>166.0</ele><time>2026-05-04T08:24:31.703Z</time></trkpt><trkpt lat="45.6051983" lon="9.8260033"><ele>166.0</ele><time>2026-05-04T08:24:32.703Z</time></trkpt><trkpt lat="45.605105" lon="9.8260233"><ele>166.0</ele><time>2026-05-04T08:24:33.703Z</time></trkpt><trkpt lat="45.6050217" lon="9.8260517"><ele>166.0</ele><time>2026-05-04T08:24:34.702Z</time></trkpt><trkpt lat="45.604955" lon="9.82608"><ele>166.0</ele><time>2026-05-04T08:24:35.703Z</time></trkpt><trkpt lat="45.6048833" lon="9.82609"><ele>166.0</ele><time>2026-05-04T08:24:37.703Z</time></trkpt><trkpt lat="45.6048417" lon="9.82601"><ele>166.0</ele><time>2026-05-04T08:24:40.703Z</time></trkpt><trkpt lat="45.6049433" lon="9.8259567"><ele>166.0</ele><time>2026-05-04T08:24:43.703Z</time></trkpt><trkpt lat="45.605045" lon="9.8259"><ele>166.0</ele><time>2026-05-04T08:24:45.703Z</time></trkpt><trkpt lat="45.6051333" lon="9.8258167"><ele>166.0</ele><time>2026-05-04T08:24:47.703Z</time></trkpt><trkpt lat="45.60519" lon="9.8257317"><ele>166.0</ele><time>2026-05-04T08:24:49.703Z</time></trkpt><trkpt lat="45.6052383" lon="9.8256317"><ele>166.0</ele><time>2026-05-04T08:24:51.703Z</time></trkpt><trkpt lat="45.60532" lon="9.8255817"><ele>166.0</ele><time>2026-05-04T08:24:53.703Z</time></trkpt><trkpt lat="45.6054133" lon="9.8254983"><ele>166.0</ele><time>2026-05-04T08:24:55.703Z</time></trkpt><trkpt lat="45.6054667" lon="9.8254467"><ele>166.0</ele><time>2026-05-04T08:24:56.703Z</time></trkpt><trkpt lat="45.6055217" lon="9.8253983"><ele>166.0</ele><time>2026-05-04T08:24:57.703Z</time></trkpt><trkpt lat="45.6056267" lon="9.8253267"><ele>166.0</ele><time>2026-05-04T08:24:59.703Z</time></trkpt><trkpt lat="45.6057233" lon="9.82524"><ele>166.0</ele><time>2026-05-04T08:25:01.703Z</time></trkpt><trkpt lat="45.6057833" lon="9.8251233"><ele>166.0</ele><time>2026-05-04T08:25:03.703Z</time></trkpt><trkpt lat="45.6058483" lon="9.8250283"><ele>166.0</ele><time>2026-05-04T08:25:05.702Z</time></trkpt><trkpt lat="45.60592" lon="9.82494"><ele>166.20000000000002</ele><time>2026-05-04T08:25:07.703Z</time></trkpt><trkpt lat="45.6060067" lon="9.8248583"><ele>166.4</ele><time>2026-05-04T08:25:09.703Z</time></trkpt><trkpt lat="45.606095" lon="9.8247917"><ele>166.6</ele><time>2026-05-04T08:25:11.703Z</time></trkpt><trkpt lat="45.606185" lon="9.82475"><ele>166.8</ele><time>2026-05-04T08:25:13.703Z</time></trkpt><trkpt lat="45.6062933" lon="9.82471"><ele>167.0</ele><time>2026-05-04T08:25:15.702Z</time></trkpt><trkpt lat="45.6063933" lon="9.82466"><ele>167.2</ele><time>2026-05-04T08:25:17.703Z</time></trkpt><trkpt lat="45.6064867" lon="9.8246167"><ele>167.39999999999998</ele><time>2026-05-04T08:25:19.703Z</time></trkpt><trkpt lat="45.6065717" lon="9.8245717"><ele>167.60000000000002</ele><time>2026-05-04T08:25:21.703Z</time></trkpt><trkpt lat="45.606645" lon="9.8244983"><ele>167.8</ele><time>2026-05-04T08:25:23.703Z</time></trkpt><trkpt lat="45.606725" lon="9.824375"><ele>168.0</ele><time>2026-05-04T08:25:25.703Z</time></trkpt><trkpt lat="45.606765" lon="9.824305"><ele>168.16666666666666</ele><time>2026-05-04T08:25:26.703Z</time></trkpt><trkpt lat="45.606805" lon="9.8242317"><ele>168.33333333333334</ele><time>2026-05-04T08:25:27.703Z</time></trkpt><trkpt lat="45.6068417" lon="9.8241533"><ele>168.5</ele><time>2026-05-04T08:25:28.703Z</time></trkpt><trkpt lat="45.6068733" lon="9.824075"><ele>168.66666666666669</ele><time>2026-05-04T08:25:29.703Z</time></trkpt><trkpt lat="45.60693" lon="9.8239367"><ele>168.83333333333334</ele><time>2026-05-04T08:25:31.703Z</time></trkpt><trkpt lat="45.607" lon="9.8237917"><ele>169.0</ele><time>2026-05-04T08:25:33.703Z</time></trkpt><trkpt lat="45.6070417" lon="9.8237217"><ele>169.0</ele><time>2026-05-04T08:25:34.703Z</time></trkpt><trkpt lat="45.6071183" lon="9.8236267"><ele>169.0</ele><time>2026-05-04T08:25:36.703Z</time></trkpt><trkpt lat="45.6071617" lon="9.8235183"><ele>169.0</ele><time>2026-05-04T08:25:38.702Z</time></trkpt><trkpt lat="45.6071733" lon="9.8233733"><ele>169.0</ele><time>2026-05-04T08:25:40.703Z</time></trkpt><trkpt lat="45.607205" lon="9.8232933"><ele>169.0</ele><time>2026-05-04T08:25:42.703Z</time></trkpt><trkpt lat="45.6073067" lon="9.823285"><ele>168.79999999999998</ele><time>2026-05-04T08:25:44.703Z</time></trkpt><trkpt lat="45.607375" lon="9.82326"><ele>168.6</ele><time>2026-05-04T08:25:45.703Z</time></trkpt><trkpt lat="45.60749" lon="9.8231917"><ele>168.4</ele><time>2026-05-04T08:25:47.703Z</time></trkpt><trkpt lat="45.6075933" lon="9.82307"><ele>168.2</ele><time>2026-05-04T08:25:49.702Z</time></trkpt><trkpt lat="45.6076467" lon="9.823"><ele>168.0</ele><time>2026-05-04T08:25:50.703Z</time></trkpt><trkpt lat="45.6076983" lon="9.8229367"><ele>168.0</ele><time>2026-05-04T08:25:51.703Z</time></trkpt><trkpt lat="45.6077817" lon="9.8228683"><ele>168.0</ele><time>2026-05-04T08:25:53.703Z</time></trkpt><trkpt lat="45.6078633" lon="9.822865"><ele>168.0</ele><time>2026-05-04T08:25:55.702Z</time></trkpt><trkpt lat="45.6079517" lon="9.8228867"><ele>168.0</ele><time>2026-05-04T08:25:57.703Z</time></trkpt><trkpt lat="45.6080317" lon="9.822915"><ele>168.0</ele><time>2026-05-04T08:25:59.703Z</time></trkpt><trkpt lat="45.608115" lon="9.8229733"><ele>168.0</ele><time>2026-05-04T08:26:01.703Z</time></trkpt><trkpt lat="45.608185" lon="9.823"><ele>168.0</ele><time>2026-05-04T08:26:03.703Z</time></trkpt><trkpt lat="45.60825" lon="9.8229917"><ele>168.0</ele><time>2026-05-04T08:26:05.703Z</time></trkpt><trkpt lat="45.608325" lon="9.8229867"><ele>168.0</ele><time>2026-05-04T08:26:07.703Z</time></trkpt><trkpt lat="45.6084033" lon="9.822975"><ele>168.0</ele><time>2026-05-04T08:26:09.703Z</time></trkpt><trkpt lat="45.60848" lon="9.8229667"><ele>168.0</ele><time>2026-05-04T08:26:11.703Z</time></trkpt><trkpt lat="45.6085483" lon="9.822955"><ele>168.0</ele><time>2026-05-04T08:26:13.703Z</time></trkpt><trkpt lat="45.6086233" lon="9.82295"><ele>168.0</ele><time>2026-05-04T08:26:15.703Z</time></trkpt><trkpt lat="45.6086883" lon="9.822945"><ele>168.66666666666666</ele><time>2026-05-04T08:26:17.703Z</time></trkpt><trkpt lat="45.6087633" lon="9.8229367"><ele>169.33333333333334</ele><time>2026-05-04T08:26:19.703Z</time></trkpt><trkpt lat="45.608855" lon="9.8229267"><ele>170.0</ele><time>2026-05-04T08:26:21.703Z</time></trkpt><trkpt lat="45.6089433" lon="9.8229083"><ele>170.66666666666669</ele><time>2026-05-04T08:26:23.703Z</time></trkpt><trkpt lat="45.6090383" lon="9.8228967"><ele>171.33333333333334</ele><time>2026-05-04T08:26:25.703Z</time></trkpt><trkpt lat="45.6091217" lon="9.8229"><ele>172.0</ele><time>2026-05-04T08:26:27.703Z</time></trkpt><trkpt lat="45.609195" lon="9.8228933"><ele>172.0</ele><time>2026-05-04T08:26:29.703Z</time></trkpt><trkpt lat="45.6092767" lon="9.8228667"><ele>172.0</ele><time>2026-05-04T08:26:31.703Z</time></trkpt><trkpt lat="45.60935" lon="9.8228117"><ele>172.0</ele><time>2026-05-04T08:26:33.703Z</time></trkpt><trkpt lat="45.6094133" lon="9.8227633"><ele>172.0</ele><time>2026-05-04T08:26:35.703Z</time></trkpt><trkpt lat="45.6094817" lon="9.8227433"><ele>172.0</ele><time>2026-05-04T08:26:37.703Z</time></trkpt><trkpt lat="45.6095617" lon="9.8227167"><ele>172.0</ele><time>2026-05-04T08:26:39.703Z</time></trkpt><trkpt lat="45.6096483" lon="9.822695"><ele>172.42857142857144</ele><time>2026-05-04T08:26:41.702Z</time></trkpt><trkpt lat="45.6097267" lon="9.8226667"><ele>172.85714285714286</ele><time>2026-05-04T08:26:43.703Z</time></trkpt><trkpt lat="45.60979" lon="9.8226483"><ele>173.28571428571428</ele><time>2026-05-04T08:26:45.703Z</time></trkpt><trkpt lat="45.6098717" lon="9.82265"><ele>173.71428571428572</ele><time>2026-05-04T08:26:47.703Z</time></trkpt><trkpt lat="45.6099383" lon="9.8226733"><ele>174.14285714285714</ele><time>2026-05-04T08:26:49.702Z</time></trkpt><trkpt lat="45.6099967" lon="9.8227217"><ele>174.57142857142858</ele><time>2026-05-04T08:26:51.703Z</time></trkpt><trkpt lat="45.6100483" lon="9.8227733"><ele>175.0</ele><time>2026-05-04T08:26:53.702Z</time></trkpt><trkpt lat="45.61011" lon="9.8228067"><ele>175.0</ele><time>2026-05-04T08:26:55.703Z</time></trkpt><trkpt lat="45.61018" lon="9.822805"><ele>175.0</ele><time>2026-05-04T08:26:57.702Z</time></trkpt><trkpt lat="45.6102567" lon="9.8227383"><ele>175.0</ele><time>2026-05-04T08:26:59.703Z</time></trkpt><trkpt lat="45.6103233" lon="9.82269"><ele>175.0</ele><time>2026-05-04T08:27:01.703Z</time></trkpt><trkpt lat="45.610385" lon="9.82266"><ele>175.0</ele><time>2026-05-04T08:27:03.703Z</time></trkpt><trkpt lat="45.610465" lon="9.822685"><ele>175.0</ele><time>2026-05-04T08:27:06.703Z</time></trkpt><trkpt lat="45.6105217" lon="9.82273"><ele>175.0</ele><time>2026-05-04T08:27:08.703Z</time></trkpt><trkpt lat="45.610595" lon="9.8227617"><ele>174.83333333333334</ele><time>2026-05-04T08:27:11.703Z</time></trkpt><trkpt lat="45.6106867" lon="9.82275"><ele>174.66666666666669</ele><time>2026-05-04T08:27:14.703Z</time></trkpt><trkpt lat="45.6107783" lon="9.82271"><ele>174.5</ele><time>2026-05-04T08:27:17.703Z</time></trkpt><trkpt lat="45.6108633" lon="9.8226783"><ele>174.33333333333334</ele><time>2026-05-04T08:27:20.703Z</time></trkpt><trkpt lat="45.6109383" lon="9.8226867"><ele>174.16666666666666</ele><time>2026-05-04T08:27:22.703Z</time></trkpt><trkpt lat="45.611005" lon="9.8227017"><ele>174.0</ele><time>2026-05-04T08:27:24.703Z</time></trkpt><trkpt lat="45.6110967" lon="9.8227"><ele>174.0</ele><time>2026-05-04T08:27:27.703Z</time></trkpt><trkpt lat="45.61117" lon="9.8226783"><ele>174.0</ele><time>2026-05-04T08:27:29.703Z</time></trkpt><trkpt lat="45.611235" lon="9.8226517"><ele>174.0</ele><time>2026-05-04T08:27:31.702Z</time></trkpt><trkpt lat="45.611295" lon="9.8226233"><ele>174.0</ele><time>2026-05-04T08:27:33.703Z</time></trkpt><trkpt lat="45.6113633" lon="9.8225333"><ele>174.0</ele><time>2026-05-04T08:27:36.703Z</time></trkpt><trkpt lat="45.611415" lon="9.8224383"><ele>174.0</ele><time>2026-05-04T08:27:39.703Z</time></trkpt><trkpt lat="45.61147" lon="9.82236"><ele>173.5</ele><time>2026-05-04T08:27:42.703Z</time></trkpt><trkpt lat="45.6115483" lon="9.8222933"><ele>173.0</ele><time>2026-05-04T08:27:45.702Z</time></trkpt><trkpt lat="45.61163" lon="9.82227"><ele>172.5</ele><time>2026-05-04T08:27:48.703Z</time></trkpt><trkpt lat="45.611695" lon="9.8222183"><ele>172.0</ele><time>2026-05-04T08:27:51.703Z</time></trkpt><trkpt lat="45.6117717" lon="9.8222433"><ele>171.5</ele><time>2026-05-04T08:27:54.703Z</time></trkpt><trkpt lat="45.6118367" lon="9.822275"><ele>171.0</ele><time>2026-05-04T08:27:56.703Z</time></trkpt><trkpt lat="45.6119167" lon="9.8223167"><ele>171.5</ele><time>2026-05-04T08:27:58.703Z</time></trkpt><trkpt lat="45.611995" lon="9.8223317"><ele>172.0</ele><time>2026-05-04T08:28:00.703Z</time></trkpt><trkpt lat="45.6120467" lon="9.8222633"><ele>172.5</ele><time>2026-05-04T08:28:02.702Z</time></trkpt><trkpt lat="45.6120833" lon="9.8221667"><ele>173.0</ele><time>2026-05-04T08:28:04.703Z</time></trkpt><trkpt lat="45.61212" lon="9.8220617"><ele>173.5</ele><time>2026-05-04T08:28:06.703Z</time></trkpt><trkpt lat="45.6121667" lon="9.82197"><ele>174.0</ele><time>2026-05-04T08:28:08.702Z</time></trkpt><trkpt lat="45.6122267" lon="9.8219267"><ele>174.0</ele><time>2026-05-04T08:28:10.702Z</time></trkpt><trkpt lat="45.6122917" lon="9.821985"><ele>174.0</ele><time>2026-05-04T08:28:13.703Z</time></trkpt><trkpt lat="45.612365" lon="9.8220467"><ele>174.0</ele><time>2026-05-04T08:28:16.703Z</time></trkpt><trkpt lat="45.6124317" lon="9.8220683"><ele>174.0</ele><time>2026-05-04T08:28:20.703Z</time></trkpt><trkpt lat="45.6124267" lon="9.8219617"><ele>174.0</ele><time>2026-05-04T08:36:03.703Z</time></trkpt><trkpt lat="45.612365" lon="9.8220367"><ele>174.0</ele><time>2026-05-04T08:36:06.703Z</time></trkpt><trkpt lat="45.612315" lon="9.82212"><ele>174.0</ele><time>2026-05-04T08:36:09.703Z</time></trkpt><trkpt lat="45.612255" lon="9.8221533"><ele>174.0</ele><time>2026-05-04T08:36:11.703Z</time></trkpt><trkpt lat="45.612165" lon="9.8222117"><ele>174.0</ele><time>2026-05-04T08:36:14.703Z</time></trkpt><trkpt lat="45.6121" lon="9.8222567"><ele>174.0</ele><time>2026-05-04T08:36:16.703Z</time></trkpt><trkpt lat="45.6120433" lon="9.82231"><ele>174.0</ele><time>2026-05-04T08:36:18.703Z</time></trkpt><trkpt lat="45.6119783" lon="9.8223517"><ele>174.0</ele><time>2026-05-04T08:36:20.703Z</time></trkpt><trkpt lat="45.6119117" lon="9.8223217"><ele>174.0</ele><time>2026-05-04T08:36:22.702Z</time></trkpt><trkpt lat="45.6118383" lon="9.822265"><ele>173.5</ele><time>2026-05-04T08:36:24.703Z</time></trkpt><trkpt lat="45.6117683" lon="9.8222117"><ele>173.0</ele><time>2026-05-04T08:36:26.703Z</time></trkpt><trkpt lat="45.6116883" lon="9.822205"><ele>172.5</ele><time>2026-05-04T08:36:28.703Z</time></trkpt><trkpt lat="45.6116383" lon="9.82228"><ele>172.0</ele><time>2026-05-04T08:36:30.703Z</time></trkpt><trkpt lat="45.6116033" lon="9.8223967"><ele>171.5</ele><time>2026-05-04T08:36:32.703Z</time></trkpt><trkpt lat="45.61156" lon="9.82249"><ele>171.0</ele><time>2026-05-04T08:36:34.702Z</time></trkpt><trkpt lat="45.6114983" lon="9.82258"><ele>171.5</ele><time>2026-05-04T08:36:36.703Z</time></trkpt><trkpt lat="45.6114167" lon="9.8226583"><ele>172.0</ele><time>2026-05-04T08:36:38.703Z</time></trkpt><trkpt lat="45.6113417" lon="9.8227283"><ele>172.5</ele><time>2026-05-04T08:36:40.703Z</time></trkpt><trkpt lat="45.6112667" lon="9.8227783"><ele>173.0</ele><time>2026-05-04T08:36:42.703Z</time></trkpt><trkpt lat="45.6111867" lon="9.8228017"><ele>173.5</ele><time>2026-05-04T08:36:44.703Z</time></trkpt><trkpt lat="45.6111083" lon="9.8228017"><ele>174.0</ele><time>2026-05-04T08:36:46.703Z</time></trkpt><trkpt lat="45.6110267" lon="9.8228083"><ele>174.0</ele><time>2026-05-04T08:36:48.703Z</time></trkpt><trkpt lat="45.6109467" lon="9.8228233"><ele>174.0</ele><time>2026-05-04T08:36:50.703Z</time></trkpt><trkpt lat="45.61087" lon="9.8228183"><ele>174.0</ele><time>2026-05-04T08:36:52.703Z</time></trkpt><trkpt lat="45.6107933" lon="9.8227967"><ele>174.0</ele><time>2026-05-04T08:36:54.702Z</time></trkpt><trkpt lat="45.61072" lon="9.8227883"><ele>174.0</ele><time>2026-05-04T08:36:56.703Z</time></trkpt><trkpt lat="45.6106233" lon="9.8227933"><ele>174.0</ele><time>2026-05-04T08:36:59.703Z</time></trkpt><trkpt lat="45.610555" lon="9.8227817"><ele>174.0</ele><time>2026-05-04T08:37:01.702Z</time></trkpt><trkpt lat="45.6104633" lon="9.8227633"><ele>174.0</ele><time>2026-05-04T08:37:03.703Z</time></trkpt><trkpt lat="45.610365" lon="9.8227733"><ele>174.0</ele><time>2026-05-04T08:37:05.703Z</time></trkpt><trkpt lat="45.61028" lon="9.822775"><ele>174.0</ele><time>2026-05-04T08:37:07.703Z</time></trkpt><trkpt lat="45.6102133" lon="9.8227567"><ele>174.0</ele><time>2026-05-04T08:37:09.703Z</time></trkpt><trkpt lat="45.6101467" lon="9.8227417"><ele>174.0</ele><time>2026-05-04T08:37:11.703Z</time></trkpt><trkpt lat="45.6100783" lon="9.822665"><ele>174.2</ele><time>2026-05-04T08:37:14.702Z</time></trkpt><trkpt lat="45.610035" lon="9.8225817"><ele>174.39999999999998</ele><time>2026-05-04T08:37:16.703Z</time></trkpt><trkpt lat="45.6099883" lon="9.8225083"><ele>174.6</ele><time>2026-05-04T08:37:19.703Z</time></trkpt><trkpt lat="45.609905" lon="9.8225167"><ele>174.8</ele><time>2026-05-04T08:37:49.703Z</time></trkpt><trkpt lat="45.609795" lon="9.8226133"><ele>175.0</ele><time>2026-05-04T08:37:51.703Z</time></trkpt><trkpt lat="45.6096817" lon="9.8226883"><ele>175.0</ele><time>2026-05-04T08:37:53.703Z</time></trkpt><trkpt lat="45.6095717" lon="9.8227233"><ele>175.0</ele><time>2026-05-04T08:37:55.703Z</time></trkpt><trkpt lat="45.6094567" lon="9.8227467"><ele>175.0</ele><time>2026-05-04T08:37:57.702Z</time></trkpt><trkpt lat="45.60936" lon="9.8227983"><ele>175.0</ele><time>2026-05-04T08:37:59.703Z</time></trkpt><trkpt lat="45.6093067" lon="9.82286"><ele>175.0</ele><time>2026-05-04T08:38:01.702Z</time></trkpt><trkpt lat="45.60924" lon="9.8228833"><ele>174.4</ele><time>2026-05-04T08:38:38.703Z</time></trkpt><trkpt lat="45.6091283" lon="9.82288"><ele>173.8</ele><time>2026-05-04T08:38:56.702Z</time></trkpt><trkpt lat="45.6090517" lon="9.8228833"><ele>173.2</ele><time>2026-05-04T08:38:57.703Z</time></trkpt><trkpt lat="45.6089867" lon="9.8228967"><ele>172.6</ele><time>2026-05-04T08:38:58.703Z</time></trkpt><trkpt lat="45.6088767" lon="9.822895"><ele>172.0</ele><time>2026-05-04T08:39:00.703Z</time></trkpt><trkpt lat="45.6087683" lon="9.8229"><ele>171.0</ele><time>2026-05-04T08:39:02.703Z</time></trkpt><trkpt lat="45.6086533" lon="9.8229033"><ele>170.0</ele><time>2026-05-04T08:39:04.703Z</time></trkpt><trkpt lat="45.60854" lon="9.8229133"><ele>169.0</ele><time>2026-05-04T08:39:06.703Z</time></trkpt><trkpt lat="45.6084267" lon="9.8229517"><ele>168.0</ele><time>2026-05-04T08:39:08.703Z</time></trkpt><trkpt lat="45.6083167" lon="9.82298"><ele>168.0</ele><time>2026-05-04T08:39:10.703Z</time></trkpt><trkpt lat="45.6082083" lon="9.8229817"><ele>168.0</ele><time>2026-05-04T08:39:12.702Z</time></trkpt><trkpt lat="45.60812" lon="9.8230183"><ele>168.0</ele><time>2026-05-04T08:39:14.703Z</time></trkpt><trkpt lat="45.6080467" lon="9.8230717"><ele>168.0</ele><time>2026-05-04T08:39:16.702Z</time></trkpt><trkpt lat="45.60797" lon="9.8230917"><ele>168.0</ele><time>2026-05-04T08:39:18.703Z</time></trkpt><trkpt lat="45.6078733" lon="9.8231167"><ele>168.0</ele><time>2026-05-04T08:39:20.703Z</time></trkpt><trkpt lat="45.6077733" lon="9.823145"><ele>168.0</ele><time>2026-05-04T08:39:22.703Z</time></trkpt><trkpt lat="45.607675" lon="9.8231767"><ele>168.0</ele><time>2026-05-04T08:39:24.703Z</time></trkpt><trkpt lat="45.6076" lon="9.8232133"><ele>168.0</ele><time>2026-05-04T08:39:26.703Z</time></trkpt><trkpt lat="45.60752" lon="9.8232467"><ele>168.0</ele><time>2026-05-04T08:39:28.703Z</time></trkpt><trkpt lat="45.6074383" lon="9.8232733"><ele>168.0</ele><time>2026-05-04T08:39:30.703Z</time></trkpt><trkpt lat="45.60737" lon="9.8233417"><ele>168.0</ele><time>2026-05-04T08:39:32.703Z</time></trkpt><trkpt lat="45.6072983" lon="9.8234367"><ele>168.0</ele><time>2026-05-04T08:39:34.703Z</time></trkpt><trkpt lat="45.607235" lon="9.8235567"><ele>168.0</ele><time>2026-05-04T08:39:36.703Z</time></trkpt><trkpt lat="45.6071683" lon="9.8236417"><ele>168.0</ele><time>2026-05-04T08:39:38.702Z</time></trkpt><trkpt lat="45.6070967" lon="9.8237617"><ele>168.0</ele><time>2026-05-04T08:39:40.703Z</time></trkpt><trkpt lat="45.6070267" lon="9.8238933"><ele>168.0</ele><time>2026-05-04T08:39:42.703Z</time></trkpt><trkpt lat="45.6069483" lon="9.8240333"><ele>168.0</ele><time>2026-05-04T08:39:44.703Z</time></trkpt><trkpt lat="45.6069083" lon="9.8241033"><ele>168.0</ele><time>2026-05-04T08:39:45.703Z</time></trkpt><trkpt lat="45.6068383" lon="9.8242467"><ele>168.0</ele><time>2026-05-04T08:39:47.703Z</time></trkpt><trkpt lat="45.6067883" lon="9.8243817"><ele>168.0</ele><time>2026-05-04T08:39:49.703Z</time></trkpt><trkpt lat="45.6067383" lon="9.8244833"><ele>168.0</ele><time>2026-05-04T08:39:51.702Z</time></trkpt><trkpt lat="45.6067083" lon="9.824565"><ele>168.0</ele><time>2026-05-04T08:40:26.703Z</time></trkpt><trkpt lat="45.6066633" lon="9.8246317"><ele>168.0</ele><time>2026-05-04T08:40:28.703Z</time></trkpt><trkpt lat="45.606555" lon="9.824675"><ele>168.0</ele><time>2026-05-04T08:40:30.703Z</time></trkpt><trkpt lat="45.6064917" lon="9.8246967"><ele>168.0</ele><time>2026-05-04T08:40:31.703Z</time></trkpt><trkpt lat="45.6063683" lon="9.8247317"><ele>168.0</ele><time>2026-05-04T08:40:33.703Z</time></trkpt><trkpt lat="45.6063033" lon="9.8247433"><ele>168.0</ele><time>2026-05-04T08:40:34.703Z</time></trkpt><trkpt lat="45.6062083" lon="9.8247817"><ele>168.0</ele><time>2026-05-04T08:40:36.702Z</time></trkpt><trkpt lat="45.6061567" lon="9.8248717"><ele>168.0</ele><time>2026-05-04T08:40:38.702Z</time></trkpt><trkpt lat="45.6061733" lon="9.8249783"><ele>168.0</ele><time>2026-05-04T08:40:40.703Z</time></trkpt><trkpt lat="45.6062367" lon="9.82513"><ele>168.0</ele><time>2026-05-04T08:40:42.702Z</time></trkpt><trkpt lat="45.6062883" lon="9.8252533"><ele>168.2</ele><time>2026-05-04T08:40:44.703Z</time></trkpt><trkpt lat="45.6063133" lon="9.8253567"><ele>168.4</ele><time>2026-05-04T08:40:47.703Z</time></trkpt><trkpt lat="45.6062483" lon="9.8253667"><ele>168.6</ele><time>2026-05-04T08:40:49.702Z</time></trkpt><trkpt lat="45.6061667" lon="9.825245"><ele>168.79999999999998</ele><time>2026-05-04T08:40:51.703Z</time></trkpt><trkpt lat="45.6061033" lon="9.8251033"><ele>169.0</ele><time>2026-05-04T08:40:53.703Z</time></trkpt><trkpt lat="45.6060417" lon="9.8250367"><ele>169.0</ele><time>2026-05-04T08:40:55.703Z</time></trkpt><trkpt lat="45.6060133" lon="9.82512"><ele>169.0</ele><time>2026-05-04T08:40:57.703Z</time></trkpt><trkpt lat="45.6060867" lon="9.8252317"><ele>169.0</ele><time>2026-05-04T08:40:59.703Z</time></trkpt><trkpt lat="45.60615" lon="9.8253717"><ele>169.0</ele><time>2026-05-04T08:41:01.703Z</time></trkpt><trkpt lat="45.606195" lon="9.825505"><ele>169.0</ele><time>2026-05-04T08:41:03.703Z</time></trkpt><trkpt lat="45.606175" lon="9.825595"><ele>168.5</ele><time>2026-05-04T08:41:05.702Z</time></trkpt><trkpt lat="45.6061017" lon="9.8255967"><ele>168.0</ele><time>2026-05-04T08:41:07.703Z</time></trkpt><trkpt lat="45.6060467" lon="9.8255017"><ele>167.5</ele><time>2026-05-04T08:41:09.703Z</time></trkpt><trkpt lat="45.605965" lon="9.825475"><ele>167.0</ele><time>2026-05-04T08:41:11.703Z</time></trkpt><trkpt lat="45.6059083" lon="9.82556"><ele>166.5</ele><time>2026-05-04T08:41:13.703Z</time></trkpt><trkpt lat="45.605875" lon="9.8256367"><ele>166.0</ele><time>2026-05-04T08:41:15.703Z</time></trkpt><trkpt lat="45.6058267" lon="9.8257383"><ele>166.0</ele><time>2026-05-04T08:42:19.703Z</time></trkpt><trkpt lat="45.6057567" lon="9.825875"><ele>166.0</ele><time>2026-05-04T08:42:21.703Z</time></trkpt><trkpt lat="45.605695" lon="9.8259267"><ele>166.0</ele><time>2026-05-04T08:42:22.703Z</time></trkpt><trkpt lat="45.6056017" lon="9.8259533"><ele>166.0</ele><time>2026-05-04T08:42:23.703Z</time></trkpt><trkpt lat="45.6054867" lon="9.8259683"><ele>166.0</ele><time>2026-05-04T08:42:24.703Z</time></trkpt><trkpt lat="45.6053617" lon="9.825985"><ele>166.0</ele><time>2026-05-04T08:42:25.703Z</time></trkpt><trkpt lat="45.60524" lon="9.8260083"><ele>166.0</ele><time>2026-05-04T08:42:26.703Z</time></trkpt><trkpt lat="45.60513" lon="9.82603"><ele>166.0</ele><time>2026-05-04T08:42:27.703Z</time></trkpt><trkpt lat="45.60504" lon="9.8260583"><ele>166.0</ele><time>2026-05-04T08:42:28.703Z</time></trkpt><trkpt lat="45.604975" lon="9.82608"><ele>166.0</ele><time>2026-05-04T08:42:29.702Z</time></trkpt><trkpt lat="45.6048817" lon="9.8261133"><ele>166.0</ele><time>2026-05-04T08:42:31.703Z</time></trkpt><trkpt lat="45.6048733" lon="9.8260033"><ele>166.0</ele><time>2026-05-04T08:42:35.703Z</time></trkpt><trkpt lat="45.6049783" lon="9.8259283"><ele>166.0</ele><time>2026-05-04T08:42:37.702Z</time></trkpt><trkpt lat="45.6050417" lon="9.8258883"><ele>166.0</ele><time>2026-05-04T08:42:38.703Z</time></trkpt><trkpt lat="45.6051433" lon="9.825805"><ele>166.0</ele><time>2026-05-04T08:42:40.703Z</time></trkpt><trkpt lat="45.6052133" lon="9.8257317"><ele>166.0</ele><time>2026-05-04T08:42:42.703Z</time></trkpt><trkpt lat="45.6052433" lon="9.8256417"><ele>166.0</ele><time>2026-05-04T08:42:44.703Z</time></trkpt><trkpt lat="45.60531" lon="9.8255883"><ele>166.0</ele><time>2026-05-04T08:42:46.703Z</time></trkpt><trkpt lat="45.6054067" lon="9.8255183"><ele>166.0</ele><time>2026-05-04T08:42:48.703Z</time></trkpt><trkpt lat="45.6054583" lon="9.8254667"><ele>166.0</ele><time>2026-05-04T08:42:49.702Z</time></trkpt><trkpt lat="45.6055133" lon="9.8254117"><ele>166.0</ele><time>2026-05-04T08:42:50.702Z</time></trkpt><trkpt lat="45.6056233" lon="9.8253283"><ele>166.0</ele><time>2026-05-04T08:42:52.703Z</time></trkpt><trkpt lat="45.6056783" lon="9.8252817"><ele>166.0</ele><time>2026-05-04T08:42:53.703Z</time></trkpt><trkpt lat="45.6057617" lon="9.8251833"><ele>166.0</ele><time>2026-05-04T08:42:55.703Z</time></trkpt><trkpt lat="45.6058317" lon="9.825065"><ele>166.0</ele><time>2026-05-04T08:42:57.703Z</time></trkpt><trkpt lat="45.6059183" lon="9.82495"><ele>166.0</ele><time>2026-05-04T08:42:59.703Z</time></trkpt><trkpt lat="45.6060081" lon="9.8248479"><ele>166.20000000000002</ele><time>2026-05-04T08:43:01.703Z</time></trkpt><trkpt lat="45.6060893" lon="9.8247883"><ele>166.4</ele><time>2026-05-04T08:43:03.703Z</time></trkpt><trkpt lat="45.6061739" lon="9.8247556"><ele>166.6</ele><time>2026-05-04T08:43:05.703Z</time></trkpt><trkpt lat="45.6062778" lon="9.8247075"><ele>166.8</ele><time>2026-05-04T08:43:07.702Z</time></trkpt><trkpt lat="45.6063836" lon="9.8246667"><ele>167.0</ele><time>2026-05-04T08:43:09.703Z</time></trkpt><trkpt lat="45.6064972" lon="9.8246182"><ele>167.16666666666666</ele><time>2026-05-04T08:43:11.703Z</time></trkpt><trkpt lat="45.60658" lon="9.8245825"><ele>167.33333333333331</ele><time>2026-05-04T08:43:13.703Z</time></trkpt><trkpt lat="45.6065932" lon="9.8244916"><ele>167.5</ele><time>2026-05-04T08:43:15.703Z</time></trkpt><trkpt lat="45.6065173" lon="9.8244809"><ele>167.66666666666666</ele><time>2026-05-04T08:43:18.702Z</time></trkpt><trkpt lat="45.6064505" lon="9.8244736"><ele>167.83333333333334</ele><time>2026-05-04T08:43:20.703Z</time></trkpt><trkpt lat="45.606497" lon="9.8243888"><ele>168.0</ele><time>2026-05-04T08:43:23.703Z</time></trkpt><trkpt lat="45.6066009" lon="9.8243455"><ele>167.60000000000002</ele><time>2026-05-04T08:43:25.703Z</time></trkpt><trkpt lat="45.606708" lon="9.8242902"><ele>167.20000000000002</ele><time>2026-05-04T08:43:27.703Z</time></trkpt><trkpt lat="45.6067685" lon="9.8242461"><ele>166.8</ele><time>2026-05-04T08:43:28.703Z</time></trkpt><trkpt lat="45.606823" lon="9.8241946"><ele>166.4</ele><time>2026-05-04T08:43:29.703Z</time></trkpt><trkpt lat="45.6068923" lon="9.8240727"><ele>166.0</ele><time>2026-05-04T08:43:31.703Z</time></trkpt><trkpt lat="45.606935" lon="9.823945"><ele>166.0</ele><time>2026-05-04T08:43:33.703Z</time></trkpt><trkpt lat="45.6069933" lon="9.82381"><ele>166.0</ele><time>2026-05-04T08:43:35.703Z</time></trkpt><trkpt lat="45.607085" lon="9.82368"><ele>166.0</ele><time>2026-05-04T08:43:37.703Z</time></trkpt><trkpt lat="45.6071617" lon="9.8235733"><ele>166.0</ele><time>2026-05-04T08:43:39.703Z</time></trkpt><trkpt lat="45.6071867" lon="9.8234233"><ele>166.4</ele><time>2026-05-04T08:43:41.703Z</time></trkpt><trkpt lat="45.6072" lon="9.8233183"><ele>166.8</ele><time>2026-05-04T08:43:43.703Z</time></trkpt><trkpt lat="45.6072717" lon="9.8232883"><ele>167.20000000000002</ele><time>2026-05-04T08:43:46.703Z</time></trkpt><trkpt lat="45.6073667" lon="9.823265"><ele>167.60000000000002</ele><time>2026-05-04T08:43:48.702Z</time></trkpt><trkpt lat="45.60746" lon="9.823205"><ele>168.0</ele><time>2026-05-04T08:43:50.703Z</time></trkpt><trkpt lat="45.607565" lon="9.8230967"><ele>168.0</ele><time>2026-05-04T08:43:52.703Z</time></trkpt><trkpt lat="45.6076183" lon="9.8230333"><ele>168.0</ele><time>2026-05-04T08:43:53.703Z</time></trkpt><trkpt lat="45.60771" lon="9.8229217"><ele>168.0</ele><time>2026-05-04T08:43:55.703Z</time></trkpt><trkpt lat="45.6077967" lon="9.8228667"><ele>168.0</ele><time>2026-05-04T08:43:57.703Z</time></trkpt><trkpt lat="45.607865" lon="9.82291"><ele>168.0</ele><time>2026-05-04T08:45:35.703Z</time></trkpt><trkpt lat="45.6078317" lon="9.8230083"><ele>168.0</ele><time>2026-05-04T08:53:51.702Z</time></trkpt><trkpt lat="45.6077633" lon="9.8230567"><ele>168.0</ele><time>2026-05-04T08:54:19.701Z</time></trkpt><trkpt lat="45.60769" lon="9.8230867"><ele>168.0</ele><time>2026-05-04T08:54:21.701Z</time></trkpt><trkpt lat="45.6077617" lon="9.8231517"><ele>168.0</ele><time>2026-05-04T08:54:55.702Z</time></trkpt><trkpt lat="45.6078467" lon="9.8231233"><ele>168.0</ele><time>2026-05-04T08:54:57.702Z</time></trkpt><trkpt lat="45.60793" lon="9.8230883"><ele>168.0</ele><time>2026-05-04T08:54:59.702Z</time></trkpt><trkpt lat="45.607995" lon="9.8230783"><ele>168.0</ele><time>2026-05-04T08:55:01.701Z</time></trkpt><trkpt lat="45.6080667" lon="9.8231483"><ele>168.0</ele><time>2026-05-04T08:55:04.702Z</time></trkpt><trkpt lat="45.6080367" lon="9.82323"><ele>168.0</ele><time>2026-05-04T08:55:07.702Z</time></trkpt><trkpt lat="45.6079683" lon="9.8232667"><ele>168.0</ele><time>2026-05-04T08:55:09.702Z</time></trkpt><trkpt lat="45.60789" lon="9.8233183"><ele>168.0</ele><time>2026-05-04T08:55:11.702Z</time></trkpt><trkpt lat="45.607805" lon="9.8233783"><ele>168.0</ele><time>2026-05-04T08:55:14.702Z</time></trkpt><trkpt lat="45.6077333" lon="9.82341"><ele>168.0</ele><time>2026-05-04T08:55:16.701Z</time></trkpt><trkpt lat="45.60768" lon="9.8234683"><ele>168.0</ele><time>2026-05-04T08:55:18.702Z</time></trkpt><trkpt lat="45.607615" lon="9.8235333"><ele>168.0</ele><time>2026-05-04T08:55:20.701Z</time></trkpt><trkpt lat="45.6075483" lon="9.82355"><ele>168.0</ele><time>2026-05-04T08:55:22.702Z</time></trkpt><trkpt lat="45.6074933" lon="9.8234983"><ele>168.0</ele><time>2026-05-04T08:55:24.702Z</time></trkpt><trkpt lat="45.6074283" lon="9.823435"><ele>168.0</ele><time>2026-05-04T08:55:26.702Z</time></trkpt><trkpt lat="45.607345" lon="9.823435"><ele>168.0</ele><time>2026-05-04T08:55:28.702Z</time></trkpt><trkpt lat="45.607285" lon="9.8235117"><ele>168.2</ele><time>2026-05-04T08:55:30.702Z</time></trkpt><trkpt lat="45.6072333" lon="9.8236383"><ele>168.4</ele><time>2026-05-04T08:55:32.702Z</time></trkpt><trkpt lat="45.6071633" lon="9.8237917"><ele>168.6</ele><time>2026-05-04T08:55:34.702Z</time></trkpt><trkpt lat="45.60712" lon="9.8238783"><ele>168.79999999999998</ele><time>2026-05-04T08:55:35.702Z</time></trkpt><trkpt lat="45.6070667" lon="9.82397"><ele>169.0</ele><time>2026-05-04T08:55:36.702Z</time></trkpt><trkpt lat="45.6070117" lon="9.8240583"><ele>168.83333333333334</ele><time>2026-05-04T08:55:37.702Z</time></trkpt><trkpt lat="45.6069617" lon="9.8241417"><ele>168.66666666666669</ele><time>2026-05-04T08:55:38.702Z</time></trkpt><trkpt lat="45.606915" lon="9.8242233"><ele>168.5</ele><time>2026-05-04T08:55:39.702Z</time></trkpt><trkpt lat="45.6068683" lon="9.824315"><ele>168.33333333333334</ele><time>2026-05-04T08:55:40.701Z</time></trkpt><trkpt lat="45.6068283" lon="9.8244"><ele>168.16666666666666</ele><time>2026-05-04T08:55:41.702Z</time></trkpt><trkpt lat="45.6067617" lon="9.8245367"><ele>168.0</ele><time>2026-05-04T08:55:43.702Z</time></trkpt><trkpt lat="45.6066667" lon="9.8246383"><ele>168.0</ele><time>2026-05-04T08:55:45.702Z</time></trkpt><trkpt lat="45.6066067" lon="9.8246667"><ele>168.0</ele><time>2026-05-04T08:55:46.702Z</time></trkpt><trkpt lat="45.6065283" lon="9.8246917"><ele>168.0</ele><time>2026-05-04T08:55:47.702Z</time></trkpt><trkpt lat="45.60645" lon="9.824705"><ele>168.0</ele><time>2026-05-04T08:55:48.701Z</time></trkpt><trkpt lat="45.60638" lon="9.8247267"><ele>168.0</ele><time>2026-05-04T08:55:49.702Z</time></trkpt><trkpt lat="45.6062817" lon="9.824755"><ele>168.0</ele><time>2026-05-04T08:55:51.702Z</time></trkpt><trkpt lat="45.6061917" lon="9.8247933"><ele>168.0</ele><time>2026-05-04T08:55:53.702Z</time></trkpt><trkpt lat="45.60615" lon="9.8249083"><ele>168.0</ele><time>2026-05-04T08:55:55.702Z</time></trkpt><trkpt lat="45.606195" lon="9.8250333"><ele>168.0</ele><time>2026-05-04T08:55:57.702Z</time></trkpt><trkpt lat="45.6062317" lon="9.825115"><ele>168.0</ele><time>2026-05-04T08:55:58.702Z</time></trkpt><trkpt lat="45.6063" lon="9.82526"><ele>168.0</ele><time>2026-05-04T08:56:00.702Z</time></trkpt><trkpt lat="45.6063283" lon="9.8253617"><ele>168.2</ele><time>2026-05-04T08:56:02.702Z</time></trkpt><trkpt lat="45.6062433" lon="9.8253467"><ele>168.4</ele><time>2026-05-04T08:56:05.702Z</time></trkpt><trkpt lat="45.60617" lon="9.8251983"><ele>168.6</ele><time>2026-05-04T08:56:07.701Z</time></trkpt><trkpt lat="45.606115" lon="9.8250717"><ele>168.79999999999998</ele><time>2026-05-04T08:56:09.701Z</time></trkpt><trkpt lat="45.6060483" lon="9.825055"><ele>169.0</ele><time>2026-05-04T08:56:11.702Z</time></trkpt><trkpt lat="45.60609" lon="9.8252017"><ele>169.0</ele><time>2026-05-04T08:56:14.702Z</time></trkpt><trkpt lat="45.60615" lon="9.8253333"><ele>169.0</ele><time>2026-05-04T08:56:16.702Z</time></trkpt><trkpt lat="45.6062033" lon="9.8254667"><ele>169.0</ele><time>2026-05-04T08:56:18.702Z</time></trkpt><trkpt lat="45.6061933" lon="9.8255717"><ele>169.0</ele><time>2026-05-04T08:56:20.702Z</time></trkpt><trkpt lat="45.6061217" lon="9.8256133"><ele>169.0</ele><time>2026-05-04T08:56:22.702Z</time></trkpt><trkpt lat="45.6060633" lon="9.82551"><ele>168.39999999999998</ele><time>2026-05-04T08:56:24.702Z</time></trkpt><trkpt lat="45.6060333" lon="9.825355"><ele>167.8</ele><time>2026-05-04T08:56:26.702Z</time></trkpt><trkpt lat="45.6059967" lon="9.8252317"><ele>167.2</ele><time>2026-05-04T08:56:28.702Z</time></trkpt><trkpt lat="45.6059183" lon="9.8252583"><ele>166.60000000000002</ele><time>2026-05-04T08:56:31.702Z</time></trkpt><trkpt lat="45.605905" lon="9.8254"><ele>166.0</ele><time>2026-05-04T08:56:33.702Z</time></trkpt><trkpt lat="45.6058983" lon="9.8255483"><ele>166.0</ele><time>2026-05-04T08:56:35.702Z</time></trkpt><trkpt lat="45.6058367" lon="9.8256967"><ele>166.0</ele><time>2026-05-04T08:56:37.701Z</time></trkpt><trkpt lat="45.60577" lon="9.8258333"><ele>166.0</ele><time>2026-05-04T08:56:39.702Z</time></trkpt><trkpt lat="45.6056833" lon="9.8259433"><ele>166.0</ele><time>2026-05-04T08:56:41.701Z</time></trkpt><trkpt lat="45.6056183" lon="9.8259633"><ele>166.0</ele><time>2026-05-04T08:56:42.702Z</time></trkpt><trkpt lat="45.6055417" lon="9.8259717"><ele>166.0</ele><time>2026-05-04T08:56:43.702Z</time></trkpt><trkpt lat="45.6054617" lon="9.8259717"><ele>166.0</ele><time>2026-05-04T08:56:44.702Z</time></trkpt><trkpt lat="45.60538" lon="9.8259817"><ele>166.0</ele><time>2026-05-04T08:56:45.702Z</time></trkpt><trkpt lat="45.605295" lon="9.825995"><ele>166.0</ele><time>2026-05-04T08:56:46.702Z</time></trkpt><trkpt lat="45.605205" lon="9.8260083"><ele>166.0</ele><time>2026-05-04T08:56:47.702Z</time></trkpt><trkpt lat="45.60512" lon="9.8260267"><ele>166.0</ele><time>2026-05-04T08:56:48.702Z</time></trkpt><trkpt lat="45.60504" lon="9.8260483"><ele>166.0</ele><time>2026-05-04T08:56:49.701Z</time></trkpt><trkpt lat="45.604975" lon="9.8260683"><ele>166.0</ele><time>2026-05-04T08:56:50.702Z</time></trkpt><trkpt lat="45.6048817" lon="9.8261017"><ele>166.0</ele><time>2026-05-04T08:56:52.701Z</time></trkpt><trkpt lat="45.6048467" lon="9.82602"><ele>166.0</ele><time>2026-05-04T08:56:55.702Z</time></trkpt><trkpt lat="45.6049167" lon="9.8259683"><ele>166.0</ele><time>2026-05-04T08:56:57.702Z</time></trkpt><trkpt lat="45.6049933" lon="9.825925"><ele>166.0</ele><time>2026-05-04T08:56:59.702Z</time></trkpt><trkpt lat="45.6050683" lon="9.8258683"><ele>166.0</ele><time>2026-05-04T08:57:01.702Z</time></trkpt><trkpt lat="45.605155" lon="9.8257917"><ele>166.0</ele><time>2026-05-04T08:57:03.702Z</time></trkpt><trkpt lat="45.6052033" lon="9.8257033"><ele>166.0</ele><time>2026-05-04T08:57:05.702Z</time></trkpt><trkpt lat="45.60525" lon="9.8256133"><ele>166.0</ele><time>2026-05-04T08:57:07.702Z</time></trkpt><trkpt lat="45.605345" lon="9.8255717"><ele>166.0</ele><time>2026-05-04T08:57:31.702Z</time></trkpt><trkpt lat="45.6054317" lon="9.8254917"><ele>166.0</ele><time>2026-05-04T08:57:33.702Z</time></trkpt><trkpt lat="45.60551" lon="9.8254133"><ele>166.0</ele><time>2026-05-04T08:57:35.702Z</time></trkpt><trkpt lat="45.605595" lon="9.825345"><ele>166.0</ele><time>2026-05-04T08:57:37.702Z</time></trkpt><trkpt lat="45.6056783" lon="9.8252917"><ele>166.0</ele><time>2026-05-04T08:57:39.701Z</time></trkpt><trkpt lat="45.6057483" lon="9.825215"><ele>166.0</ele><time>2026-05-04T08:57:41.702Z</time></trkpt><trkpt lat="45.6057833" lon="9.8251317"><ele>166.0</ele><time>2026-05-04T08:57:43.702Z</time></trkpt><trkpt lat="45.6058317" lon="9.8250533"><ele>166.16666666666669</ele><time>2026-05-04T08:57:45.702Z</time></trkpt><trkpt lat="45.6058967" lon="9.8249733"><ele>166.33333333333334</ele><time>2026-05-04T08:57:47.702Z</time></trkpt><trkpt lat="45.60595" lon="9.8249167"><ele>166.5</ele><time>2026-05-04T08:57:49.702Z</time></trkpt><trkpt lat="45.6060133" lon="9.82484"><ele>166.66666666666666</ele><time>2026-05-04T08:57:52.702Z</time></trkpt><trkpt lat="45.6061033" lon="9.8247967"><ele>166.83333333333331</ele><time>2026-05-04T08:57:55.702Z</time></trkpt><trkpt lat="45.6061783" lon="9.8247433"><ele>167.0</ele><time>2026-05-04T08:57:57.702Z</time></trkpt><trkpt lat="45.60626" lon="9.8247083"><ele>167.14285714285714</ele><time>2026-05-04T08:57:59.702Z</time></trkpt><trkpt lat="45.6063267" lon="9.8246817"><ele>167.28571428571428</ele><time>2026-05-04T08:58:01.702Z</time></trkpt><trkpt lat="45.6064067" lon="9.8246483"><ele>167.42857142857144</ele><time>2026-05-04T08:58:03.702Z</time></trkpt><trkpt lat="45.60647" lon="9.82462"><ele>167.57142857142856</ele><time>2026-05-04T08:58:05.702Z</time></trkpt><trkpt lat="45.6065417" lon="9.82459"><ele>167.71428571428572</ele><time>2026-05-04T08:58:07.702Z</time></trkpt><trkpt lat="45.60662" lon="9.8245267"><ele>167.85714285714286</ele><time>2026-05-04T08:58:16.702Z</time></trkpt><trkpt lat="45.6066683" lon="9.824465"><ele>168.0</ele><time>2026-05-04T08:58:17.702Z</time></trkpt><trkpt lat="45.6067167" lon="9.82439"><ele>167.60000000000002</ele><time>2026-05-04T08:58:18.702Z</time></trkpt><trkpt lat="45.606765" lon="9.8243033"><ele>167.20000000000002</ele><time>2026-05-04T08:58:19.702Z</time></trkpt><trkpt lat="45.6068083" lon="9.8242267"><ele>166.8</ele><time>2026-05-04T08:58:20.702Z</time></trkpt><trkpt lat="45.60686" lon="9.8240917"><ele>166.4</ele><time>2026-05-04T08:58:22.702Z</time></trkpt><trkpt lat="45.6069067" lon="9.823965"><ele>166.0</ele><time>2026-05-04T08:58:24.702Z</time></trkpt><trkpt lat="45.6069833" lon="9.8238283"><ele>166.33333333333334</ele><time>2026-05-04T08:58:26.702Z</time></trkpt><trkpt lat="45.60705" lon="9.8237183"><ele>166.66666666666669</ele><time>2026-05-04T08:58:28.702Z</time></trkpt><trkpt lat="45.6071167" lon="9.82364"><ele>167.0</ele><time>2026-05-04T08:58:30.701Z</time></trkpt><trkpt lat="45.6071517" lon="9.8235617"><ele>167.33333333333334</ele><time>2026-05-04T08:58:32.702Z</time></trkpt><trkpt lat="45.6071633" lon="9.8234617"><ele>167.66666666666666</ele><time>2026-05-04T08:58:34.701Z</time></trkpt><trkpt lat="45.6071967" lon="9.82336"><ele>168.0</ele><time>2026-05-04T08:59:01.701Z</time></trkpt><trkpt lat="45.60733" lon="9.82331"><ele>168.0</ele><time>2026-05-04T09:03:41.702Z</time></trkpt><trkpt lat="45.6074317" lon="9.8232567"><ele>168.0</ele><time>2026-05-04T09:03:43.702Z</time></trkpt><trkpt lat="45.6075183" lon="9.8231583"><ele>168.0</ele><time>2026-05-04T09:03:45.702Z</time></trkpt><trkpt lat="45.60761" lon="9.82305"><ele>168.0</ele><time>2026-05-04T09:03:47.702Z</time></trkpt><trkpt lat="45.607695" lon="9.82295"><ele>168.0</ele><time>2026-05-04T09:03:49.702Z</time></trkpt><trkpt lat="45.607765" lon="9.8228817"><ele>168.0</ele><time>2026-05-04T09:03:51.702Z</time></trkpt><trkpt lat="45.6078333" lon="9.8229083"><ele>168.0</ele><time>2026-05-04T09:03:54.702Z</time></trkpt><trkpt lat="45.6078067" lon="9.823"><ele>168.0</ele><time>2026-05-04T09:03:56.702Z</time></trkpt><trkpt lat="45.6077117" lon="9.8230717"><ele>168.0</ele><time>2026-05-04T09:03:58.702Z</time></trkpt><trkpt lat="45.607645" lon="9.8231483"><ele>168.0</ele><time>2026-05-04T09:04:00.702Z</time></trkpt><trkpt lat="45.6075833" lon="9.8232183"><ele>168.0</ele><time>2026-05-04T09:04:03.702Z</time></trkpt><trkpt lat="45.6075067" lon="9.8232467"><ele>168.0</ele><time>2026-05-04T09:04:05.702Z</time></trkpt><trkpt lat="45.6074233" lon="9.8232767"><ele>168.0</ele><time>2026-05-04T09:04:07.702Z</time></trkpt><trkpt lat="45.607355" lon="9.8233467"><ele>168.0</ele><time>2026-05-04T09:04:09.702Z</time></trkpt><trkpt lat="45.6072883" lon="9.8234333"><ele>168.0</ele><time>2026-05-04T09:04:11.702Z</time></trkpt><trkpt lat="45.60724" lon="9.8235383"><ele>168.0</ele><time>2026-05-04T09:04:13.702Z</time></trkpt><trkpt lat="45.6071983" lon="9.8236633"><ele>168.0</ele><time>2026-05-04T09:04:15.702Z</time></trkpt><trkpt lat="45.6071567" lon="9.8237733"><ele>168.2</ele><time>2026-05-04T09:04:17.701Z</time></trkpt><trkpt lat="45.6071083" lon="9.8238883"><ele>168.4</ele><time>2026-05-04T09:04:19.702Z</time></trkpt><trkpt lat="45.6070517" lon="9.82399"><ele>168.6</ele><time>2026-05-04T09:04:21.702Z</time></trkpt><trkpt lat="45.60699" lon="9.8241"><ele>168.79999999999998</ele><time>2026-05-04T09:04:23.701Z</time></trkpt><trkpt lat="45.6069267" lon="9.8242033"><ele>169.0</ele><time>2026-05-04T09:04:25.702Z</time></trkpt><trkpt lat="45.60687" lon="9.8243083"><ele>168.79999999999998</ele><time>2026-05-04T09:04:27.702Z</time></trkpt><trkpt lat="45.6068167" lon="9.8244233"><ele>168.6</ele><time>2026-05-04T09:04:29.702Z</time></trkpt><trkpt lat="45.606765" lon="9.8245233"><ele>168.4</ele><time>2026-05-04T09:04:31.702Z</time></trkpt><trkpt lat="45.6067267" lon="9.8246117"><ele>168.2</ele><time>2026-05-04T09:04:43.702Z</time></trkpt><trkpt lat="45.606725" lon="9.8247217"><ele>168.0</ele><time>2026-05-04T09:04:45.702Z</time></trkpt><trkpt lat="45.606825" lon="9.824815"><ele>168.0</ele><time>2026-05-04T09:04:47.702Z</time></trkpt><trkpt lat="45.6069083" lon="9.8248483"><ele>168.0</ele><time>2026-05-04T09:04:48.702Z</time></trkpt><trkpt lat="45.6069917" lon="9.82488"><ele>168.0</ele><time>2026-05-04T09:04:49.702Z</time></trkpt><trkpt lat="45.6070717" lon="9.82492"><ele>168.0</ele><time>2026-05-04T09:04:50.701Z</time></trkpt><trkpt lat="45.60715" lon="9.82495"><ele>168.0</ele><time>2026-05-04T09:04:51.702Z</time></trkpt><trkpt lat="45.6072233" lon="9.8249833"><ele>168.0</ele><time>2026-05-04T09:04:52.702Z</time></trkpt><trkpt lat="45.6072967" lon="9.825015"><ele>168.42857142857142</ele><time>2026-05-04T09:04:53.702Z</time></trkpt><trkpt lat="45.6073683" lon="9.82504"><ele>168.85714285714286</ele><time>2026-05-04T09:04:54.702Z</time></trkpt><trkpt lat="45.6074367" lon="9.8250633"><ele>169.28571428571428</ele><time>2026-05-04T09:04:55.702Z</time></trkpt><trkpt lat="45.607505" lon="9.825085"><ele>169.71428571428572</ele><time>2026-05-04T09:04:56.702Z</time></trkpt><trkpt lat="45.6075733" lon="9.8250983"><ele>170.14285714285714</ele><time>2026-05-04T09:04:57.701Z</time></trkpt><trkpt lat="45.6076467" lon="9.8251033"><ele>170.57142857142856</ele><time>2026-05-04T09:04:58.702Z</time></trkpt><trkpt lat="45.60772" lon="9.825095"><ele>171.0</ele><time>2026-05-04T09:04:59.702Z</time></trkpt><trkpt lat="45.60779" lon="9.8250917"><ele>171.20000000000002</ele><time>2026-05-04T09:05:00.702Z</time></trkpt><trkpt lat="45.60786" lon="9.8250867"><ele>171.4</ele><time>2026-05-04T09:05:01.702Z</time></trkpt><trkpt lat="45.6079233" lon="9.8250883"><ele>171.6</ele><time>2026-05-04T09:05:02.702Z</time></trkpt><trkpt lat="45.6080517" lon="9.82508"><ele>171.8</ele><time>2026-05-04T09:05:04.702Z</time></trkpt><trkpt lat="45.6081633" lon="9.8250833"><ele>172.0</ele><time>2026-05-04T09:05:06.702Z</time></trkpt><trkpt lat="45.6082233" lon="9.824995"><ele>172.0</ele><time>2026-05-04T09:05:08.702Z</time></trkpt><trkpt lat="45.6082217" lon="9.8248217"><ele>172.0</ele><time>2026-05-04T09:05:10.702Z</time></trkpt><trkpt lat="45.6082817" lon="9.8246667"><ele>172.0</ele><time>2026-05-04T09:05:12.702Z</time></trkpt><trkpt lat="45.608355" lon="9.824615"><ele>172.0</ele><time>2026-05-04T09:05:13.702Z</time></trkpt><trkpt lat="45.60845" lon="9.824595"><ele>172.0</ele><time>2026-05-04T09:05:14.701Z</time></trkpt><trkpt lat="45.6085667" lon="9.82459"><ele>172.0</ele><time>2026-05-04T09:05:15.702Z</time></trkpt><trkpt lat="45.6086833" lon="9.8245817"><ele>172.0</ele><time>2026-05-04T09:05:16.702Z</time></trkpt><trkpt lat="45.6087883" lon="9.8245767"><ele>172.0</ele><time>2026-05-04T09:05:17.702Z</time></trkpt><trkpt lat="45.608885" lon="9.824575"><ele>172.0</ele><time>2026-05-04T09:05:18.702Z</time></trkpt><trkpt lat="45.6089683" lon="9.82457"><ele>172.0</ele><time>2026-05-04T09:05:19.702Z</time></trkpt><trkpt lat="45.6090433" lon="9.82456"><ele>172.0</ele><time>2026-05-04T09:05:20.702Z</time></trkpt><trkpt lat="45.6091283" lon="9.82455"><ele>172.0</ele><time>2026-05-04T09:05:21.702Z</time></trkpt><trkpt lat="45.6092067" lon="9.824535"><ele>172.0</ele><time>2026-05-04T09:05:22.702Z</time></trkpt><trkpt lat="45.6092867" lon="9.8245317"><ele>172.0</ele><time>2026-05-04T09:05:23.702Z</time></trkpt><trkpt lat="45.60936" lon="9.8245217"><ele>172.0</ele><time>2026-05-04T09:05:24.702Z</time></trkpt><trkpt lat="45.6094317" lon="9.8245133"><ele>172.0</ele><time>2026-05-04T09:05:25.702Z</time></trkpt><trkpt lat="45.6095317" lon="9.82452"><ele>172.33333333333334</ele><time>2026-05-04T09:05:27.702Z</time></trkpt><trkpt lat="45.6096133" lon="9.824605"><ele>172.66666666666669</ele><time>2026-05-04T09:05:29.701Z</time></trkpt><trkpt lat="45.6096583" lon="9.8247267"><ele>173.0</ele><time>2026-05-04T09:05:31.702Z</time></trkpt><trkpt lat="45.60966" lon="9.8248167"><ele>173.33333333333334</ele><time>2026-05-04T09:05:32.702Z</time></trkpt><trkpt lat="45.6096467" lon="9.82494"><ele>173.66666666666666</ele><time>2026-05-04T09:05:33.702Z</time></trkpt><trkpt lat="45.6096333" lon="9.8250817"><ele>174.0</ele><time>2026-05-04T09:05:34.702Z</time></trkpt><trkpt lat="45.60962" lon="9.8252367"><ele>174.0</ele><time>2026-05-04T09:05:35.702Z</time></trkpt><trkpt lat="45.6096033" lon="9.8253933"><ele>174.0</ele><time>2026-05-04T09:05:36.702Z</time></trkpt><trkpt lat="45.60959" lon="9.8255533"><ele>174.0</ele><time>2026-05-04T09:05:37.702Z</time></trkpt><trkpt lat="45.60958" lon="9.8257133"><ele>174.0</ele><time>2026-05-04T09:05:38.702Z</time></trkpt><trkpt lat="45.6095683" lon="9.8258733"><ele>174.0</ele><time>2026-05-04T09:05:39.702Z</time></trkpt><trkpt lat="45.6095583" lon="9.82603"><ele>174.2</ele><time>2026-05-04T09:05:40.701Z</time></trkpt><trkpt lat="45.6095483" lon="9.826175"><ele>174.39999999999998</ele><time>2026-05-04T09:05:41.702Z</time></trkpt><trkpt lat="45.6095433" lon="9.8263267"><ele>174.6</ele><time>2026-05-04T09:05:42.702Z</time></trkpt><trkpt lat="45.6095383" lon="9.8264717"><ele>174.8</ele><time>2026-05-04T09:05:43.702Z</time></trkpt><trkpt lat="45.6095317" lon="9.826615"><ele>175.0</ele><time>2026-05-04T09:05:44.702Z</time></trkpt><trkpt lat="45.6095233" lon="9.826755"><ele>174.6</ele><time>2026-05-04T09:05:45.702Z</time></trkpt><trkpt lat="45.6095183" lon="9.8268833"><ele>174.2</ele><time>2026-05-04T09:05:46.702Z</time></trkpt><trkpt lat="45.6095133" lon="9.827035"><ele>173.8</ele><time>2026-05-04T09:05:47.702Z</time></trkpt><trkpt lat="45.6095033" lon="9.82718"><ele>173.4</ele><time>2026-05-04T09:05:48.702Z</time></trkpt><trkpt lat="45.6095" lon="9.8273117"><ele>173.0</ele><time>2026-05-04T09:05:49.702Z</time></trkpt><trkpt lat="45.6094933" lon="9.8274517"><ele>173.0</ele><time>2026-05-04T09:05:50.702Z</time></trkpt><trkpt lat="45.6094883" lon="9.82759"><ele>173.0</ele><time>2026-05-04T09:05:51.702Z</time></trkpt><trkpt lat="45.60949" lon="9.827735"><ele>173.0</ele><time>2026-05-04T09:05:52.702Z</time></trkpt><trkpt lat="45.6094967" lon="9.8278833"><ele>173.0</ele><time>2026-05-04T09:05:53.702Z</time></trkpt><trkpt lat="45.6094967" lon="9.82804"><ele>173.0</ele><time>2026-05-04T09:05:54.702Z</time></trkpt><trkpt lat="45.609495" lon="9.8281967"><ele>172.8</ele><time>2026-05-04T09:05:55.702Z</time></trkpt><trkpt lat="45.6094833" lon="9.8283417"><ele>172.60000000000002</ele><time>2026-05-04T09:05:56.702Z</time></trkpt><trkpt lat="45.6094717" lon="9.82851"><ele>172.39999999999998</ele><time>2026-05-04T09:05:57.701Z</time></trkpt><trkpt lat="45.6094633" lon="9.8286783"><ele>172.2</ele><time>2026-05-04T09:05:58.701Z</time></trkpt><trkpt lat="45.6094533" lon="9.8288317"><ele>172.0</ele><time>2026-05-04T09:05:59.702Z</time></trkpt><trkpt lat="45.609445" lon="9.8289867"><ele>172.0</ele><time>2026-05-04T09:06:00.702Z</time></trkpt><trkpt lat="45.6094367" lon="9.8291417"><ele>172.0</ele><time>2026-05-04T09:06:01.701Z</time></trkpt><trkpt lat="45.6094283" lon="9.8292983"><ele>172.0</ele><time>2026-05-04T09:06:02.702Z</time></trkpt><trkpt lat="45.6094267" lon="9.829445"><ele>172.0</ele><time>2026-05-04T09:06:03.702Z</time></trkpt><trkpt lat="45.6094233" lon="9.8295967"><ele>172.0</ele><time>2026-05-04T09:06:04.702Z</time></trkpt><trkpt lat="45.6094133" lon="9.8297417"><ele>172.0</ele><time>2026-05-04T09:06:05.701Z</time></trkpt><trkpt lat="45.6094" lon="9.8298867"><ele>172.0</ele><time>2026-05-04T09:06:06.701Z</time></trkpt><trkpt lat="45.609395" lon="9.8300283"><ele>172.0</ele><time>2026-05-04T09:06:07.702Z</time></trkpt><trkpt lat="45.6093933" lon="9.8301617"><ele>172.0</ele><time>2026-05-04T09:06:08.702Z</time></trkpt><trkpt lat="45.6093983" lon="9.8302967"><ele>172.0</ele><time>2026-05-04T09:06:09.702Z</time></trkpt><trkpt lat="45.6094" lon="9.830435"><ele>172.2</ele><time>2026-05-04T09:06:10.702Z</time></trkpt><trkpt lat="45.6094033" lon="9.830575"><ele>172.39999999999998</ele><time>2026-05-04T09:06:11.702Z</time></trkpt><trkpt lat="45.609405" lon="9.83072"><ele>172.60000000000002</ele><time>2026-05-04T09:06:12.702Z</time></trkpt><trkpt lat="45.6094017" lon="9.8308633"><ele>172.8</ele><time>2026-05-04T09:06:13.702Z</time></trkpt><trkpt lat="45.6093917" lon="9.8310083"><ele>173.0</ele><time>2026-05-04T09:06:14.701Z</time></trkpt><trkpt lat="45.6093867" lon="9.8311517"><ele>173.0</ele><time>2026-05-04T09:06:15.702Z</time></trkpt><trkpt lat="45.609375" lon="9.831295"><ele>173.0</ele><time>2026-05-04T09:06:16.702Z</time></trkpt><trkpt lat="45.609365" lon="9.8314233"><ele>173.0</ele><time>2026-05-04T09:06:17.702Z</time></trkpt><trkpt lat="45.609355" lon="9.8315317"><ele>173.0</ele><time>2026-05-04T09:06:18.702Z</time></trkpt><trkpt lat="45.6093433" lon="9.8316883"><ele>173.0</ele><time>2026-05-04T09:06:20.702Z</time></trkpt><trkpt lat="45.6093383" lon="9.83178"><ele>173.0</ele><time>2026-05-04T09:06:22.702Z</time></trkpt><trkpt lat="45.60933" lon="9.83189"><ele>172.60000000000002</ele><time>2026-05-04T09:06:26.702Z</time></trkpt><trkpt lat="45.6093183" lon="9.8319883"><ele>172.20000000000002</ele><time>2026-05-04T09:06:29.702Z</time></trkpt><trkpt lat="45.6093667" lon="9.8321217"><ele>171.8</ele><time>2026-05-04T09:06:32.702Z</time></trkpt><trkpt lat="45.609485" lon="9.8321667"><ele>171.4</ele><time>2026-05-04T09:06:34.701Z</time></trkpt><trkpt lat="45.6095633" lon="9.8321633"><ele>171.0</ele><time>2026-05-04T09:06:35.702Z</time></trkpt><trkpt lat="45.6096483" lon="9.8321533"><ele>171.0</ele><time>2026-05-04T09:06:36.702Z</time></trkpt><trkpt lat="45.6097367" lon="9.832145"><ele>171.0</ele><time>2026-05-04T09:06:37.701Z</time></trkpt><trkpt lat="45.60983" lon="9.8321483"><ele>171.0</ele><time>2026-05-04T09:06:38.702Z</time></trkpt><trkpt lat="45.6099317" lon="9.83215"><ele>171.0</ele><time>2026-05-04T09:06:39.702Z</time></trkpt><trkpt lat="45.6100417" lon="9.8321567"><ele>171.0</ele><time>2026-05-04T09:06:40.702Z</time></trkpt><trkpt lat="45.6101517" lon="9.8321617"><ele>171.0</ele><time>2026-05-04T09:06:41.702Z</time></trkpt><trkpt lat="45.6102633" lon="9.8321617"><ele>171.0</ele><time>2026-05-04T09:06:42.702Z</time></trkpt><trkpt lat="45.610375" lon="9.83216"><ele>171.0</ele><time>2026-05-04T09:06:43.701Z</time></trkpt><trkpt lat="45.610495" lon="9.8321633"><ele>171.0</ele><time>2026-05-04T09:06:44.702Z</time></trkpt><trkpt lat="45.6106233" lon="9.8321667"><ele>171.5</ele><time>2026-05-04T09:06:45.702Z</time></trkpt><trkpt lat="45.6107417" lon="9.832175"><ele>172.0</ele><time>2026-05-04T09:06:46.702Z</time></trkpt><trkpt lat="45.6108683" lon="9.83218"><ele>172.5</ele><time>2026-05-04T09:06:47.702Z</time></trkpt><trkpt lat="45.6109983" lon="9.8321817"><ele>173.0</ele><time>2026-05-04T09:06:48.702Z</time></trkpt><trkpt lat="45.61113" lon="9.8321833"><ele>173.25</ele><time>2026-05-04T09:06:49.702Z</time></trkpt><trkpt lat="45.61126" lon="9.83219"><ele>173.5</ele><time>2026-05-04T09:06:50.702Z</time></trkpt><trkpt lat="45.6113917" lon="9.832195"><ele>173.75</ele><time>2026-05-04T09:06:51.701Z</time></trkpt><trkpt lat="45.6115233" lon="9.832195"><ele>174.0</ele><time>2026-05-04T09:06:52.702Z</time></trkpt><trkpt lat="45.6116533" lon="9.8322017"><ele>174.0</ele><time>2026-05-04T09:06:53.702Z</time></trkpt><trkpt lat="45.6117883" lon="9.8322083"><ele>174.0</ele><time>2026-05-04T09:06:54.702Z</time></trkpt><trkpt lat="45.6119167" lon="9.83222"><ele>174.0</ele><time>2026-05-04T09:06:55.702Z</time></trkpt><trkpt lat="45.612045" lon="9.8322383"><ele>174.0</ele><time>2026-05-04T09:06:56.702Z</time></trkpt><trkpt lat="45.612175" lon="9.83226"><ele>173.75</ele><time>2026-05-04T09:06:57.702Z</time></trkpt><trkpt lat="45.6123083" lon="9.832275"><ele>173.5</ele><time>2026-05-04T09:06:58.702Z</time></trkpt><trkpt lat="45.612445" lon="9.8322933"><ele>173.25</ele><time>2026-05-04T09:06:59.702Z</time></trkpt><trkpt lat="45.612575" lon="9.8323117"><ele>173.0</ele><time>2026-05-04T09:07:00.702Z</time></trkpt><trkpt lat="45.61271" lon="9.8323383"><ele>173.75</ele><time>2026-05-04T09:07:01.701Z</time></trkpt><trkpt lat="45.6128417" lon="9.83236"><ele>174.5</ele><time>2026-05-04T09:07:02.702Z</time></trkpt><trkpt lat="45.6129733" lon="9.832385"><ele>175.25</ele><time>2026-05-04T09:07:03.702Z</time></trkpt><trkpt lat="45.6131" lon="9.8324083"><ele>176.0</ele><time>2026-05-04T09:07:04.701Z</time></trkpt><trkpt lat="45.6132283" lon="9.8324333"><ele>176.0</ele><time>2026-05-04T09:07:05.702Z</time></trkpt><trkpt lat="45.6133533" lon="9.8324617"><ele>176.0</ele><time>2026-05-04T09:07:06.702Z</time></trkpt><trkpt lat="45.6134783" lon="9.8324867"><ele>176.0</ele><time>2026-05-04T09:07:07.702Z</time></trkpt><trkpt lat="45.6136083" lon="9.8325133"><ele>176.0</ele><time>2026-05-04T09:07:08.702Z</time></trkpt><trkpt lat="45.61374" lon="9.8325383"><ele>176.25</ele><time>2026-05-04T09:07:09.701Z</time></trkpt><trkpt lat="45.6138733" lon="9.8325617"><ele>176.5</ele><time>2026-05-04T09:07:10.702Z</time></trkpt><trkpt lat="45.6140017" lon="9.832585"><ele>176.75</ele><time>2026-05-04T09:07:11.702Z</time></trkpt><trkpt lat="45.6141333" lon="9.832605"><ele>177.0</ele><time>2026-05-04T09:07:12.702Z</time></trkpt><trkpt lat="45.61427" lon="9.8326233"><ele>176.75</ele><time>2026-05-04T09:07:13.702Z</time></trkpt><trkpt lat="45.6144083" lon="9.8326483"><ele>176.5</ele><time>2026-05-04T09:07:14.702Z</time></trkpt><trkpt lat="45.6145467" lon="9.8326783"><ele>176.25</ele><time>2026-05-04T09:07:15.702Z</time></trkpt><trkpt lat="45.6146783" lon="9.832705"><ele>176.0</ele><time>2026-05-04T09:07:16.702Z</time></trkpt><trkpt lat="45.6148167" lon="9.832725"><ele>176.25</ele><time>2026-05-04T09:07:17.702Z</time></trkpt><trkpt lat="45.6149517" lon="9.83275"><ele>176.5</ele><time>2026-05-04T09:07:18.702Z</time></trkpt><trkpt lat="45.615085" lon="9.8327733"><ele>176.75</ele><time>2026-05-04T09:07:19.702Z</time></trkpt><trkpt lat="45.6152183" lon="9.832795"><ele>177.0</ele><time>2026-05-04T09:07:20.701Z</time></trkpt><trkpt lat="45.6153467" lon="9.832825"><ele>177.0</ele><time>2026-05-04T09:07:21.701Z</time></trkpt><trkpt lat="45.61548" lon="9.83285"><ele>177.0</ele><time>2026-05-04T09:07:22.702Z</time></trkpt><trkpt lat="45.61562" lon="9.83287"><ele>177.0</ele><time>2026-05-04T09:07:23.702Z</time></trkpt><trkpt lat="45.615755" lon="9.83289"><ele>177.0</ele><time>2026-05-04T09:07:24.702Z</time></trkpt><trkpt lat="45.6158917" lon="9.83291"><ele>177.0</ele><time>2026-05-04T09:07:25.701Z</time></trkpt><trkpt lat="45.6160317" lon="9.83291"><ele>177.0</ele><time>2026-05-04T09:07:26.702Z</time></trkpt><trkpt lat="45.6161783" lon="9.832895"><ele>177.0</ele><time>2026-05-04T09:07:27.701Z</time></trkpt><trkpt lat="45.6163267" lon="9.8328617"><ele>177.0</ele><time>2026-05-04T09:07:28.702Z</time></trkpt><trkpt lat="45.6164783" lon="9.832805"><ele>177.0</ele><time>2026-05-04T09:07:29.701Z</time></trkpt><trkpt lat="45.6166267" lon="9.832735"><ele>177.0</ele><time>2026-05-04T09:07:30.702Z</time></trkpt><trkpt lat="45.616775" lon="9.8326567"><ele>177.0</ele><time>2026-05-04T09:07:31.702Z</time></trkpt><trkpt lat="45.61692" lon="9.8325767"><ele>177.66666666666666</ele><time>2026-05-04T09:07:32.702Z</time></trkpt><trkpt lat="45.6170617" lon="9.8324967"><ele>178.33333333333331</ele><time>2026-05-04T09:07:33.702Z</time></trkpt><trkpt lat="45.6172033" lon="9.8324167"><ele>179.0</ele><time>2026-05-04T09:07:34.702Z</time></trkpt><trkpt lat="45.6173467" lon="9.8323417"><ele>179.0</ele><time>2026-05-04T09:07:35.702Z</time></trkpt><trkpt lat="45.6174933" lon="9.83227"><ele>179.0</ele><time>2026-05-04T09:07:36.701Z</time></trkpt><trkpt lat="45.6176417" lon="9.8321983"><ele>179.0</ele><time>2026-05-04T09:07:37.702Z</time></trkpt><trkpt lat="45.6177983" lon="9.83213"><ele>178.66666666666666</ele><time>2026-05-04T09:07:38.702Z</time></trkpt><trkpt lat="45.6179633" lon="9.8320667"><ele>178.33333333333334</ele><time>2026-05-04T09:07:39.701Z</time></trkpt><trkpt lat="45.61812" lon="9.8320217"><ele>178.0</ele><time>2026-05-04T09:07:40.702Z</time></trkpt><trkpt lat="45.6182767" lon="9.83199"><ele>178.0</ele><time>2026-05-04T09:07:41.702Z</time></trkpt><trkpt lat="45.618435" lon="9.8319683"><ele>178.0</ele><time>2026-05-04T09:07:42.702Z</time></trkpt><trkpt lat="45.6186" lon="9.8319517"><ele>178.0</ele><time>2026-05-04T09:07:43.702Z</time></trkpt><trkpt lat="45.6187667" lon="9.8319483"><ele>179.0</ele><time>2026-05-04T09:07:44.701Z</time></trkpt><trkpt lat="45.61893" lon="9.83196"><ele>180.0</ele><time>2026-05-04T09:07:45.702Z</time></trkpt><trkpt lat="45.619095" lon="9.8319683"><ele>181.0</ele><time>2026-05-04T09:07:46.702Z</time></trkpt><trkpt lat="45.619255" lon="9.8319733"><ele>181.0</ele><time>2026-05-04T09:07:47.702Z</time></trkpt><trkpt lat="45.61942" lon="9.8319783"><ele>181.0</ele><time>2026-05-04T09:07:48.701Z</time></trkpt><trkpt lat="45.6195883" lon="9.8319833"><ele>181.0</ele><time>2026-05-04T09:07:49.702Z</time></trkpt><trkpt lat="45.6197533" lon="9.83199"><ele>180.33333333333334</ele><time>2026-05-04T09:07:50.701Z</time></trkpt><trkpt lat="45.619925" lon="9.8319917"><ele>179.66666666666666</ele><time>2026-05-04T09:07:51.702Z</time></trkpt><trkpt lat="45.6200883" lon="9.8319917"><ele>179.0</ele><time>2026-05-04T09:07:52.702Z</time></trkpt><trkpt lat="45.62025" lon="9.831995"><ele>180.0</ele><time>2026-05-04T09:07:53.702Z</time></trkpt><trkpt lat="45.6204133" lon="9.832005"><ele>181.0</ele><time>2026-05-04T09:07:54.701Z</time></trkpt><trkpt lat="45.620575" lon="9.8320117"><ele>182.0</ele><time>2026-05-04T09:07:55.693Z</time></trkpt><trkpt lat="45.6207383" lon="9.8320183"><ele>182.0</ele><time>2026-05-04T09:07:56.702Z</time></trkpt><trkpt lat="45.6209017" lon="9.8320283"><ele>182.0</ele><time>2026-05-04T09:07:57.702Z</time></trkpt><trkpt lat="45.621375" lon="9.8320533"><ele>181.66666666666666</ele><time>2026-05-04T09:08:00.702Z</time></trkpt><trkpt lat="45.6215317" lon="9.8320567"><ele>181.33333333333334</ele><time>2026-05-04T09:08:01.702Z</time></trkpt><trkpt lat="45.6216817" lon="9.8320583"><ele>181.0</ele><time>2026-05-04T09:08:02.702Z</time></trkpt><trkpt lat="45.6218283" lon="9.8320583"><ele>181.0</ele><time>2026-05-04T09:08:03.702Z</time></trkpt><trkpt lat="45.621965" lon="9.832065"><ele>181.0</ele><time>2026-05-04T09:08:04.701Z</time></trkpt><trkpt lat="45.6221017" lon="9.8320633"><ele>181.0</ele><time>2026-05-04T09:08:05.702Z</time></trkpt><trkpt lat="45.6222267" lon="9.8320683"><ele>181.0</ele><time>2026-05-04T09:08:06.702Z</time></trkpt><trkpt lat="45.622335" lon="9.83207"><ele>181.20000000000002</ele><time>2026-05-04T09:08:07.702Z</time></trkpt><trkpt lat="45.6224483" lon="9.83207"><ele>181.4</ele><time>2026-05-04T09:08:08.702Z</time></trkpt><trkpt lat="45.62255" lon="9.8320733"><ele>181.6</ele><time>2026-05-04T09:08:09.702Z</time></trkpt><trkpt lat="45.6226433" lon="9.8321033"><ele>181.8</ele><time>2026-05-04T09:08:10.702Z</time></trkpt><trkpt lat="45.622735" lon="9.832165"><ele>182.0</ele><time>2026-05-04T09:08:11.702Z</time></trkpt><trkpt lat="45.6228233" lon="9.8322333"><ele>182.39999999999998</ele><time>2026-05-04T09:08:12.701Z</time></trkpt><trkpt lat="45.6229217" lon="9.83227"><ele>182.79999999999998</ele><time>2026-05-04T09:08:13.702Z</time></trkpt><trkpt lat="45.6230117" lon="9.83225"><ele>183.2</ele><time>2026-05-04T09:08:14.702Z</time></trkpt><trkpt lat="45.6230983" lon="9.8321767"><ele>183.6</ele><time>2026-05-04T09:08:15.702Z</time></trkpt><trkpt lat="45.623195" lon="9.83209"><ele>184.0</ele><time>2026-05-04T09:08:16.702Z</time></trkpt><trkpt lat="45.6233083" lon="9.8320433"><ele>184.0</ele><time>2026-05-04T09:08:17.702Z</time></trkpt><trkpt lat="45.623425" lon="9.83203"><ele>184.0</ele><time>2026-05-04T09:08:18.702Z</time></trkpt><trkpt lat="45.6235517" lon="9.8320267"><ele>184.0</ele><time>2026-05-04T09:08:19.702Z</time></trkpt><trkpt lat="45.6236833" lon="9.8320283"><ele>184.0</ele><time>2026-05-04T09:08:20.702Z</time></trkpt><trkpt lat="45.62382" lon="9.83203"><ele>184.75</ele><time>2026-05-04T09:08:21.702Z</time></trkpt><trkpt lat="45.6239583" lon="9.8320283"><ele>185.5</ele><time>2026-05-04T09:08:22.702Z</time></trkpt><trkpt lat="45.624095" lon="9.8320333"><ele>186.25</ele><time>2026-05-04T09:08:23.702Z</time></trkpt><trkpt lat="45.6242383" lon="9.8320417"><ele>187.0</ele><time>2026-05-04T09:08:24.701Z</time></trkpt><trkpt lat="45.6243833" lon="9.8320467"><ele>187.25</ele><time>2026-05-04T09:08:25.702Z</time></trkpt><trkpt lat="45.6245283" lon="9.83205"><ele>187.5</ele><time>2026-05-04T09:08:26.701Z</time></trkpt><trkpt lat="45.6246783" lon="9.832055"><ele>187.75</ele><time>2026-05-04T09:08:27.702Z</time></trkpt><trkpt lat="45.6248283" lon="9.8320483"><ele>188.0</ele><time>2026-05-04T09:08:28.702Z</time></trkpt><trkpt lat="45.6249783" lon="9.832045"><ele>188.0</ele><time>2026-05-04T09:08:29.702Z</time></trkpt><trkpt lat="45.6251333" lon="9.83205"><ele>188.0</ele><time>2026-05-04T09:08:30.702Z</time></trkpt><trkpt lat="45.62529" lon="9.8320467"><ele>188.0</ele><time>2026-05-04T09:08:31.702Z</time></trkpt><trkpt lat="45.625445" lon="9.83205"><ele>187.66666666666666</ele><time>2026-05-04T09:08:32.702Z</time></trkpt><trkpt lat="45.6256" lon="9.8320483"><ele>187.33333333333334</ele><time>2026-05-04T09:08:33.702Z</time></trkpt><trkpt lat="45.6257567" lon="9.8320483"><ele>187.0</ele><time>2026-05-04T09:08:34.702Z</time></trkpt><trkpt lat="45.625915" lon="9.8320533"><ele>187.0</ele><time>2026-05-04T09:08:35.702Z</time></trkpt><trkpt lat="45.62607" lon="9.8320567"><ele>187.0</ele><time>2026-05-04T09:08:36.702Z</time></trkpt><trkpt lat="45.626225" lon="9.83206"><ele>187.0</ele><time>2026-05-04T09:08:37.702Z</time></trkpt><trkpt lat="45.626385" lon="9.8320567"><ele>187.33333333333334</ele><time>2026-05-04T09:08:38.701Z</time></trkpt><trkpt lat="45.626545" lon="9.8320567"><ele>187.66666666666666</ele><time>2026-05-04T09:08:39.702Z</time></trkpt><trkpt lat="45.6267067" lon="9.83206"><ele>188.0</ele><time>2026-05-04T09:08:40.702Z</time></trkpt><trkpt lat="45.6268633" lon="9.83207"><ele>187.33333333333331</ele><time>2026-05-04T09:08:41.702Z</time></trkpt><trkpt lat="45.6270233" lon="9.832075"><ele>186.66666666666666</ele><time>2026-05-04T09:08:42.702Z</time></trkpt><trkpt lat="45.6271783" lon="9.8320783"><ele>186.0</ele><time>2026-05-04T09:08:43.702Z</time></trkpt><trkpt lat="45.62733" lon="9.8320767"><ele>186.0</ele><time>2026-05-04T09:08:44.702Z</time></trkpt><trkpt lat="45.627485" lon="9.832085"><ele>186.0</ele><time>2026-05-04T09:08:45.701Z</time></trkpt><trkpt lat="45.627645" lon="9.8320767"><ele>186.0</ele><time>2026-05-04T09:08:46.702Z</time></trkpt><trkpt lat="45.627795" lon="9.8320683"><ele>187.0</ele><time>2026-05-04T09:08:47.702Z</time></trkpt><trkpt lat="45.6279483" lon="9.8320467"><ele>188.0</ele><time>2026-05-04T09:08:48.701Z</time></trkpt><trkpt lat="45.6281017" lon="9.83202"><ele>189.0</ele><time>2026-05-04T09:08:49.702Z</time></trkpt><trkpt lat="45.6282483" lon="9.83199"><ele>189.0</ele><time>2026-05-04T09:08:50.701Z</time></trkpt><trkpt lat="45.6284017" lon="9.8319517"><ele>189.0</ele><time>2026-05-04T09:08:51.701Z</time></trkpt><trkpt lat="45.6285533" lon="9.8319117"><ele>189.0</ele><time>2026-05-04T09:08:52.702Z</time></trkpt><trkpt lat="45.6287033" lon="9.8318633"><ele>190.0</ele><time>2026-05-04T09:08:53.701Z</time></trkpt><trkpt lat="45.628855" lon="9.8318017"><ele>191.0</ele><time>2026-05-04T09:08:54.702Z</time></trkpt><trkpt lat="45.6290033" lon="9.83174"><ele>192.0</ele><time>2026-05-04T09:08:55.702Z</time></trkpt><trkpt lat="45.6291517" lon="9.8316783"><ele>192.0</ele><time>2026-05-04T09:08:56.702Z</time></trkpt><trkpt lat="45.6292983" lon="9.8315983"><ele>192.0</ele><time>2026-05-04T09:08:57.701Z</time></trkpt><trkpt lat="45.6294433" lon="9.8315233"><ele>192.0</ele><time>2026-05-04T09:08:58.702Z</time></trkpt><trkpt lat="45.6295817" lon="9.83144"><ele>191.0</ele><time>2026-05-04T09:08:59.702Z</time></trkpt><trkpt lat="45.629725" lon="9.8313483"><ele>190.0</ele><time>2026-05-04T09:09:00.702Z</time></trkpt><trkpt lat="45.629865" lon="9.8312583"><ele>189.0</ele><time>2026-05-04T09:09:01.702Z</time></trkpt><trkpt lat="45.6300017" lon="9.8311633"><ele>189.0</ele><time>2026-05-04T09:09:02.701Z</time></trkpt><trkpt lat="45.630135" lon="9.83107"><ele>189.0</ele><time>2026-05-04T09:09:03.702Z</time></trkpt><trkpt lat="45.630265" lon="9.8309867"><ele>189.0</ele><time>2026-05-04T09:09:04.702Z</time></trkpt><trkpt lat="45.630405" lon="9.8309033"><ele>189.0</ele><time>2026-05-04T09:09:05.702Z</time></trkpt><trkpt lat="45.6305517" lon="9.8308233"><ele>190.0</ele><time>2026-05-04T09:09:06.702Z</time></trkpt><trkpt lat="45.630695" lon="9.8307667"><ele>191.0</ele><time>2026-05-04T09:09:07.702Z</time></trkpt><trkpt lat="45.63084" lon="9.8307333"><ele>192.0</ele><time>2026-05-04T09:09:08.702Z</time></trkpt><trkpt lat="45.63099" lon="9.8307283"><ele>193.0</ele><time>2026-05-04T09:09:09.701Z</time></trkpt><trkpt lat="45.6311533" lon="9.8307383"><ele>193.66666666666666</ele><time>2026-05-04T09:09:10.702Z</time></trkpt><trkpt lat="45.6313133" lon="9.8307617"><ele>194.33333333333331</ele><time>2026-05-04T09:09:11.702Z</time></trkpt><trkpt lat="45.6314683" lon="9.8307867"><ele>195.0</ele><time>2026-05-04T09:09:12.701Z</time></trkpt><trkpt lat="45.6316117" lon="9.8308083"><ele>195.0</ele><time>2026-05-04T09:09:13.702Z</time></trkpt><trkpt lat="45.63175" lon="9.8308317"><ele>195.0</ele><time>2026-05-04T09:09:14.701Z</time></trkpt><trkpt lat="45.6318767" lon="9.8308433"><ele>195.0</ele><time>2026-05-04T09:09:15.702Z</time></trkpt><trkpt lat="45.6319983" lon="9.830855"><ele>195.0</ele><time>2026-05-04T09:09:16.702Z</time></trkpt><trkpt lat="45.6321167" lon="9.83085"><ele>194.66666666666666</ele><time>2026-05-04T09:09:17.702Z</time></trkpt><trkpt lat="45.632215" lon="9.8308367"><ele>194.33333333333331</ele><time>2026-05-04T09:09:18.701Z</time></trkpt><trkpt lat="45.63229" lon="9.8308217"><ele>194.0</ele><time>2026-05-04T09:09:19.702Z</time></trkpt><trkpt lat="45.6323883" lon="9.8308133"><ele>193.66666666666666</ele><time>2026-05-04T09:09:21.702Z</time></trkpt><trkpt lat="45.632455" lon="9.8308383"><ele>193.33333333333331</ele><time>2026-05-04T09:09:24.702Z</time></trkpt><trkpt lat="45.6325517" lon="9.8308917"><ele>193.0</ele><time>2026-05-04T09:09:26.701Z</time></trkpt><trkpt lat="45.6326783" lon="9.8309433"><ele>193.0</ele><time>2026-05-04T09:09:28.702Z</time></trkpt><trkpt lat="45.6327633" lon="9.8309317"><ele>193.0</ele><time>2026-05-04T09:09:29.702Z</time></trkpt><trkpt lat="45.6328467" lon="9.8309217"><ele>193.0</ele><time>2026-05-04T09:09:30.702Z</time></trkpt><trkpt lat="45.63294" lon="9.8309333"><ele>193.0</ele><time>2026-05-04T09:09:31.702Z</time></trkpt><trkpt lat="45.6330317" lon="9.8309933"><ele>193.0</ele><time>2026-05-04T09:09:32.702Z</time></trkpt><trkpt lat="45.6331167" lon="9.83108"><ele>193.5</ele><time>2026-05-04T09:09:33.702Z</time></trkpt><trkpt lat="45.6332" lon="9.831195"><ele>194.0</ele><time>2026-05-04T09:09:34.702Z</time></trkpt><trkpt lat="45.633285" lon="9.8313133"><ele>194.5</ele><time>2026-05-04T09:09:35.701Z</time></trkpt><trkpt lat="45.6333633" lon="9.8314467"><ele>195.0</ele><time>2026-05-04T09:09:36.701Z</time></trkpt><trkpt lat="45.63344" lon="9.8315883"><ele>195.0</ele><time>2026-05-04T09:09:37.702Z</time></trkpt><trkpt lat="45.633515" lon="9.8317333"><ele>195.0</ele><time>2026-05-04T09:09:38.702Z</time></trkpt><trkpt lat="45.63359" lon="9.8318867"><ele>195.0</ele><time>2026-05-04T09:09:39.702Z</time></trkpt><trkpt lat="45.6336667" lon="9.83206"><ele>195.0</ele><time>2026-05-04T09:09:40.702Z</time></trkpt><trkpt lat="45.63374" lon="9.832245"><ele>194.66666666666669</ele><time>2026-05-04T09:09:41.702Z</time></trkpt><trkpt lat="45.6338067" lon="9.8324467"><ele>194.33333333333334</ele><time>2026-05-04T09:09:42.702Z</time></trkpt><trkpt lat="45.6338617" lon="9.832655"><ele>194.0</ele><time>2026-05-04T09:09:43.702Z</time></trkpt><trkpt lat="45.633905" lon="9.8328733"><ele>194.0</ele><time>2026-05-04T09:09:44.702Z</time></trkpt><trkpt lat="45.6339317" lon="9.83311"><ele>194.0</ele><time>2026-05-04T09:09:45.702Z</time></trkpt><trkpt lat="45.6339483" lon="9.8333517"><ele>194.0</ele><time>2026-05-04T09:09:46.702Z</time></trkpt><trkpt lat="45.6339517" lon="9.8336017"><ele>194.33333333333334</ele><time>2026-05-04T09:09:47.698Z</time></trkpt><trkpt lat="45.633945" lon="9.8338617"><ele>194.66666666666669</ele><time>2026-05-04T09:09:48.701Z</time></trkpt><trkpt lat="45.6339267" lon="9.8341217"><ele>195.0</ele><time>2026-05-04T09:09:49.702Z</time></trkpt><trkpt lat="45.6338917" lon="9.8343867"><ele>195.33333333333331</ele><time>2026-05-04T09:09:50.702Z</time></trkpt><trkpt lat="45.633865" lon="9.8346483"><ele>195.66666666666666</ele><time>2026-05-04T09:09:51.702Z</time></trkpt><trkpt lat="45.6338217" lon="9.834905"><ele>196.0</ele><time>2026-05-04T09:09:52.702Z</time></trkpt><trkpt lat="45.6337767" lon="9.8351667"><ele>195.0</ele><time>2026-05-04T09:09:53.702Z</time></trkpt><trkpt lat="45.633735" lon="9.8354333"><ele>194.0</ele><time>2026-05-04T09:09:54.7Z</time></trkpt><trkpt lat="45.6336917" lon="9.8357017"><ele>193.0</ele><time>2026-05-04T09:09:55.702Z</time></trkpt><trkpt lat="45.6336533" lon="9.8359683"><ele>193.0</ele><time>2026-05-04T09:09:56.702Z</time></trkpt><trkpt lat="45.6336167" lon="9.8362367"><ele>193.0</ele><time>2026-05-04T09:09:57.702Z</time></trkpt><trkpt lat="45.6335883" lon="9.8365067"><ele>193.0</ele><time>2026-05-04T09:09:58.702Z</time></trkpt><trkpt lat="45.633565" lon="9.8367783"><ele>193.33333333333331</ele><time>2026-05-04T09:09:59.702Z</time></trkpt><trkpt lat="45.633555" lon="9.8370383"><ele>193.66666666666669</ele><time>2026-05-04T09:10:00.702Z</time></trkpt><trkpt lat="45.6335467" lon="9.837295"><ele>194.0</ele><time>2026-05-04T09:10:01.702Z</time></trkpt><trkpt lat="45.6335283" lon="9.8375567"><ele>194.0</ele><time>2026-05-04T09:10:02.702Z</time></trkpt><trkpt lat="45.6335133" lon="9.83782"><ele>194.0</ele><time>2026-05-04T09:10:03.702Z</time></trkpt><trkpt lat="45.6334917" lon="9.8380867"><ele>194.0</ele><time>2026-05-04T09:10:04.699Z</time></trkpt><trkpt lat="45.6334683" lon="9.8383533"><ele>193.66666666666669</ele><time>2026-05-04T09:10:05.701Z</time></trkpt><trkpt lat="45.6334433" lon="9.8386183"><ele>193.33333333333331</ele><time>2026-05-04T09:10:06.702Z</time></trkpt><trkpt lat="45.6334233" lon="9.8388783"><ele>193.0</ele><time>2026-05-04T09:10:07.702Z</time></trkpt><trkpt lat="45.6334033" lon="9.839135"><ele>193.33333333333331</ele><time>2026-05-04T09:10:08.702Z</time></trkpt><trkpt lat="45.6333817" lon="9.8393933"><ele>193.66666666666669</ele><time>2026-05-04T09:10:09.702Z</time></trkpt><trkpt lat="45.6333517" lon="9.8396517"><ele>194.0</ele><time>2026-05-04T09:10:10.702Z</time></trkpt><trkpt lat="45.6333267" lon="9.8399"><ele>194.0</ele><time>2026-05-04T09:10:11.701Z</time></trkpt><trkpt lat="45.6332983" lon="9.8401517"><ele>194.0</ele><time>2026-05-04T09:10:12.702Z</time></trkpt><trkpt lat="45.6332667" lon="9.8403967"><ele>194.0</ele><time>2026-05-04T09:10:13.702Z</time></trkpt><trkpt lat="45.6332417" lon="9.8406433"><ele>194.0</ele><time>2026-05-04T09:10:14.702Z</time></trkpt><trkpt lat="45.6332133" lon="9.840895"><ele>194.0</ele><time>2026-05-04T09:10:15.702Z</time></trkpt><trkpt lat="45.6331883" lon="9.8411417"><ele>194.0</ele><time>2026-05-04T09:10:16.702Z</time></trkpt><trkpt lat="45.63316" lon="9.841385"><ele>193.66666666666669</ele><time>2026-05-04T09:10:17.702Z</time></trkpt><trkpt lat="45.633135" lon="9.84163"><ele>193.33333333333331</ele><time>2026-05-04T09:10:18.702Z</time></trkpt><trkpt lat="45.6331117" lon="9.841865"><ele>193.0</ele><time>2026-05-04T09:10:19.702Z</time></trkpt><trkpt lat="45.6330833" lon="9.8421133"><ele>193.66666666666666</ele><time>2026-05-04T09:10:20.702Z</time></trkpt><trkpt lat="45.63305" lon="9.8423583"><ele>194.33333333333331</ele><time>2026-05-04T09:10:21.701Z</time></trkpt><trkpt lat="45.6330267" lon="9.84259"><ele>195.0</ele><time>2026-05-04T09:10:22.702Z</time></trkpt><trkpt lat="45.6329967" lon="9.8428267"><ele>195.0</ele><time>2026-05-04T09:10:23.702Z</time></trkpt><trkpt lat="45.63297" lon="9.843055"><ele>195.0</ele><time>2026-05-04T09:10:24.702Z</time></trkpt><trkpt lat="45.6329417" lon="9.843285"><ele>195.0</ele><time>2026-05-04T09:10:25.701Z</time></trkpt><trkpt lat="45.6329117" lon="9.8435217"><ele>195.33333333333331</ele><time>2026-05-04T09:10:26.702Z</time></trkpt><trkpt lat="45.632885" lon="9.8437517"><ele>195.66666666666666</ele><time>2026-05-04T09:10:27.702Z</time></trkpt><trkpt lat="45.6328567" lon="9.8439867"><ele>196.0</ele><time>2026-05-04T09:10:28.701Z</time></trkpt><trkpt lat="45.6328283" lon="9.8442267"><ele>194.66666666666666</ele><time>2026-05-04T09:10:29.702Z</time></trkpt><trkpt lat="45.6327983" lon="9.8444617"><ele>193.33333333333331</ele><time>2026-05-04T09:10:30.702Z</time></trkpt><trkpt lat="45.6327717" lon="9.8446933"><ele>192.0</ele><time>2026-05-04T09:10:31.702Z</time></trkpt><trkpt lat="45.632745" lon="9.8449267"><ele>191.66666666666666</ele><time>2026-05-04T09:10:32.702Z</time></trkpt><trkpt lat="45.6327183" lon="9.8451617"><ele>191.33333333333331</ele><time>2026-05-04T09:10:33.702Z</time></trkpt><trkpt lat="45.6326917" lon="9.8454083"><ele>191.0</ele><time>2026-05-04T09:10:34.702Z</time></trkpt><trkpt lat="45.6326633" lon="9.84565"><ele>191.0</ele><time>2026-05-04T09:10:35.702Z</time></trkpt><trkpt lat="45.6326333" lon="9.8458917"><ele>191.0</ele><time>2026-05-04T09:10:36.702Z</time></trkpt><trkpt lat="45.63261" lon="9.846125"><ele>191.0</ele><time>2026-05-04T09:10:37.702Z</time></trkpt><trkpt lat="45.632585" lon="9.8463617"><ele>190.33333333333331</ele><time>2026-05-04T09:10:38.702Z</time></trkpt><trkpt lat="45.6325583" lon="9.8465967"><ele>189.66666666666666</ele><time>2026-05-04T09:10:39.702Z</time></trkpt><trkpt lat="45.6325467" lon="9.8468167"><ele>189.0</ele><time>2026-05-04T09:10:40.702Z</time></trkpt><trkpt lat="45.6325233" lon="9.8470183"><ele>189.0</ele><time>2026-05-04T09:10:41.702Z</time></trkpt><trkpt lat="45.632505" lon="9.8472117"><ele>189.0</ele><time>2026-05-04T09:10:42.701Z</time></trkpt><trkpt lat="45.6324867" lon="9.8473967"><ele>189.0</ele><time>2026-05-04T09:10:43.702Z</time></trkpt><trkpt lat="45.6324717" lon="9.8475717"><ele>189.0</ele><time>2026-05-04T09:10:44.701Z</time></trkpt><trkpt lat="45.6324617" lon="9.8477383"><ele>189.2</ele><time>2026-05-04T09:10:45.701Z</time></trkpt><trkpt lat="45.6324467" lon="9.8478933"><ele>189.39999999999998</ele><time>2026-05-04T09:10:46.702Z</time></trkpt><trkpt lat="45.63243" lon="9.8480383"><ele>189.6</ele><time>2026-05-04T09:10:47.702Z</time></trkpt><trkpt lat="45.63241" lon="9.8481933"><ele>189.8</ele><time>2026-05-04T09:10:48.701Z</time></trkpt><trkpt lat="45.632375" lon="9.84836"><ele>190.0</ele><time>2026-05-04T09:10:49.702Z</time></trkpt><trkpt lat="45.63234" lon="9.8485"><ele>191.0</ele><time>2026-05-04T09:10:50.702Z</time></trkpt><trkpt lat="45.6323133" lon="9.8486467"><ele>192.0</ele><time>2026-05-04T09:10:51.702Z</time></trkpt><trkpt lat="45.632305" lon="9.8488117"><ele>193.0</ele><time>2026-05-04T09:10:52.701Z</time></trkpt><trkpt lat="45.63232" lon="9.84899"><ele>194.0</ele><time>2026-05-04T09:10:53.702Z</time></trkpt><trkpt lat="45.632355" lon="9.8491683"><ele>193.5</ele><time>2026-05-04T09:10:54.701Z</time></trkpt><trkpt lat="45.6323917" lon="9.8493433"><ele>193.0</ele><time>2026-05-04T09:10:55.702Z</time></trkpt><trkpt lat="45.63242" lon="9.8495117"><ele>192.5</ele><time>2026-05-04T09:10:56.701Z</time></trkpt><trkpt lat="45.6324467" lon="9.8496733"><ele>192.0</ele><time>2026-05-04T09:10:57.701Z</time></trkpt><trkpt lat="45.6324733" lon="9.849835"><ele>192.0</ele><time>2026-05-04T09:10:58.702Z</time></trkpt><trkpt lat="45.632495" lon="9.8500017"><ele>192.0</ele><time>2026-05-04T09:10:59.702Z</time></trkpt><trkpt lat="45.632515" lon="9.85017"><ele>192.0</ele><time>2026-05-04T09:11:00.701Z</time></trkpt><trkpt lat="45.6325333" lon="9.8503517"><ele>192.0</ele><time>2026-05-04T09:11:01.702Z</time></trkpt><trkpt lat="45.6325417" lon="9.8505417"><ele>191.5</ele><time>2026-05-04T09:11:02.701Z</time></trkpt><trkpt lat="45.6325483" lon="9.8507367"><ele>191.0</ele><time>2026-05-04T09:11:03.702Z</time></trkpt><trkpt lat="45.6325533" lon="9.8509317"><ele>190.5</ele><time>2026-05-04T09:11:04.702Z</time></trkpt><trkpt lat="45.632545" lon="9.8511283"><ele>190.0</ele><time>2026-05-04T09:11:05.702Z</time></trkpt><trkpt lat="45.6325333" lon="9.85133"><ele>190.0</ele><time>2026-05-04T09:11:06.702Z</time></trkpt><trkpt lat="45.6325217" lon="9.8515283"><ele>190.0</ele><time>2026-05-04T09:11:07.701Z</time></trkpt><trkpt lat="45.632495" lon="9.85173"><ele>190.0</ele><time>2026-05-04T09:11:08.702Z</time></trkpt><trkpt lat="45.6324583" lon="9.851935"><ele>190.0</ele><time>2026-05-04T09:11:09.702Z</time></trkpt><trkpt lat="45.63241" lon="9.8521383"><ele>190.25</ele><time>2026-05-04T09:11:10.702Z</time></trkpt><trkpt lat="45.6323633" lon="9.8523267"><ele>190.5</ele><time>2026-05-04T09:11:11.702Z</time></trkpt><trkpt lat="45.63231" lon="9.8525067"><ele>190.75</ele><time>2026-05-04T09:11:12.702Z</time></trkpt><trkpt lat="45.63226" lon="9.8526783"><ele>191.0</ele><time>2026-05-04T09:11:13.702Z</time></trkpt><trkpt lat="45.6321983" lon="9.852855"><ele>191.0</ele><time>2026-05-04T09:11:14.702Z</time></trkpt><trkpt lat="45.6321383" lon="9.8530267"><ele>191.0</ele><time>2026-05-04T09:11:15.702Z</time></trkpt><trkpt lat="45.6320867" lon="9.85319"><ele>191.0</ele><time>2026-05-04T09:11:16.702Z</time></trkpt><trkpt lat="45.632035" lon="9.853345"><ele>191.0</ele><time>2026-05-04T09:11:17.702Z</time></trkpt><trkpt lat="45.631985" lon="9.8534933"><ele>191.4</ele><time>2026-05-04T09:11:18.702Z</time></trkpt><trkpt lat="45.631935" lon="9.8536383"><ele>191.8</ele><time>2026-05-04T09:11:19.702Z</time></trkpt><trkpt lat="45.6318883" lon="9.8537817"><ele>192.20000000000002</ele><time>2026-05-04T09:11:20.702Z</time></trkpt><trkpt lat="45.6318467" lon="9.853925"><ele>192.60000000000002</ele><time>2026-05-04T09:11:21.702Z</time></trkpt><trkpt lat="45.6317983" lon="9.8540717"><ele>193.0</ele><time>2026-05-04T09:11:22.702Z</time></trkpt><trkpt lat="45.63175" lon="9.8542167"><ele>193.25</ele><time>2026-05-04T09:11:23.702Z</time></trkpt><trkpt lat="45.6317" lon="9.8543733"><ele>193.5</ele><time>2026-05-04T09:11:24.702Z</time></trkpt><trkpt lat="45.63165" lon="9.8545233"><ele>193.75</ele><time>2026-05-04T09:11:25.702Z</time></trkpt><trkpt lat="45.6315983" lon="9.8546733"><ele>194.0</ele><time>2026-05-04T09:11:26.702Z</time></trkpt><trkpt lat="45.6315483" lon="9.854825"><ele>194.0</ele><time>2026-05-04T09:11:27.702Z</time></trkpt><trkpt lat="45.6314967" lon="9.8549717"><ele>194.0</ele><time>2026-05-04T09:11:28.702Z</time></trkpt><trkpt lat="45.631445" lon="9.8551183"><ele>194.0</ele><time>2026-05-04T09:11:29.701Z</time></trkpt><trkpt lat="45.6314017" lon="9.8552567"><ele>194.0</ele><time>2026-05-04T09:11:30.701Z</time></trkpt><trkpt lat="45.63136" lon="9.8553967"><ele>194.0</ele><time>2026-05-04T09:11:31.702Z</time></trkpt><trkpt lat="45.631315" lon="9.855545"><ele>194.25</ele><time>2026-05-04T09:11:32.702Z</time></trkpt><trkpt lat="45.631275" lon="9.8556867"><ele>194.5</ele><time>2026-05-04T09:11:33.702Z</time></trkpt><trkpt lat="45.631235" lon="9.8558367"><ele>194.75</ele><time>2026-05-04T09:11:34.702Z</time></trkpt><trkpt lat="45.631195" lon="9.8559933"><ele>195.0</ele><time>2026-05-04T09:11:35.702Z</time></trkpt><trkpt lat="45.6311567" lon="9.8561483"><ele>194.8</ele><time>2026-05-04T09:11:36.702Z</time></trkpt><trkpt lat="45.63112" lon="9.85629"><ele>194.6</ele><time>2026-05-04T09:11:37.702Z</time></trkpt><trkpt lat="45.6310867" lon="9.85643"><ele>194.39999999999998</ele><time>2026-05-04T09:11:38.702Z</time></trkpt><trkpt lat="45.6310533" lon="9.8565733"><ele>194.2</ele><time>2026-05-04T09:11:39.702Z</time></trkpt><trkpt lat="45.631025" lon="9.8567167"><ele>194.0</ele><time>2026-05-04T09:11:40.701Z</time></trkpt><trkpt lat="45.63099" lon="9.8568583"><ele>194.0</ele><time>2026-05-04T09:11:41.702Z</time></trkpt><trkpt lat="45.6309667" lon="9.8570033"><ele>194.0</ele><time>2026-05-04T09:11:42.702Z</time></trkpt><trkpt lat="45.6309417" lon="9.8571417"><ele>194.0</ele><time>2026-05-04T09:11:43.702Z</time></trkpt><trkpt lat="45.6309133" lon="9.857285"><ele>194.0</ele><time>2026-05-04T09:11:44.701Z</time></trkpt><trkpt lat="45.6308817" lon="9.8574133"><ele>194.0</ele><time>2026-05-04T09:11:45.701Z</time></trkpt><trkpt lat="45.6308517" lon="9.8575317"><ele>194.00000000000003</ele><time>2026-05-04T09:11:46.702Z</time></trkpt><trkpt lat="45.6308233" lon="9.8576417"><ele>194.0</ele><time>2026-05-04T09:11:47.702Z</time></trkpt><trkpt lat="45.6308067" lon="9.857735"><ele>194.0</ele><time>2026-05-04T09:11:48.702Z</time></trkpt><trkpt lat="45.630785" lon="9.8578583"><ele>194.0</ele><time>2026-05-04T09:11:50.702Z</time></trkpt><trkpt lat="45.6307733" lon="9.8579883"><ele>194.00000000000003</ele><time>2026-05-04T09:11:52.702Z</time></trkpt><trkpt lat="45.63076" lon="9.8580967"><ele>194.0</ele><time>2026-05-04T09:11:53.701Z</time></trkpt><trkpt lat="45.630745" lon="9.858215"><ele>194.0</ele><time>2026-05-04T09:11:54.702Z</time></trkpt><trkpt lat="45.6307367" lon="9.8583383"><ele>194.0</ele><time>2026-05-04T09:11:55.702Z</time></trkpt><trkpt lat="45.630745" lon="9.85847"><ele>194.0</ele><time>2026-05-04T09:11:56.701Z</time></trkpt><trkpt lat="45.6307683" lon="9.8586167"><ele>194.0</ele><time>2026-05-04T09:11:57.702Z</time></trkpt><trkpt lat="45.6307983" lon="9.8587717"><ele>194.0</ele><time>2026-05-04T09:11:58.702Z</time></trkpt><trkpt lat="45.630815" lon="9.8589383"><ele>194.5</ele><time>2026-05-04T09:11:59.701Z</time></trkpt><trkpt lat="45.6308167" lon="9.8591067"><ele>195.0</ele><time>2026-05-04T09:12:00.702Z</time></trkpt><trkpt lat="45.63082" lon="9.8592833"><ele>195.5</ele><time>2026-05-04T09:12:01.702Z</time></trkpt><trkpt lat="45.6308233" lon="9.85947"><ele>196.0</ele><time>2026-05-04T09:12:02.702Z</time></trkpt><trkpt lat="45.6308367" lon="9.85965"><ele>196.25</ele><time>2026-05-04T09:12:03.702Z</time></trkpt><trkpt lat="45.6308583" lon="9.859825"><ele>196.5</ele><time>2026-05-04T09:12:04.702Z</time></trkpt><trkpt lat="45.6308883" lon="9.8599967"><ele>196.75</ele><time>2026-05-04T09:12:05.702Z</time></trkpt><trkpt lat="45.6309133" lon="9.8601733"><ele>197.0</ele><time>2026-05-04T09:12:06.702Z</time></trkpt><trkpt lat="45.6309367" lon="9.860345"><ele>197.0</ele><time>2026-05-04T09:12:07.702Z</time></trkpt><trkpt lat="45.6309567" lon="9.86053"><ele>197.0</ele><time>2026-05-04T09:12:08.702Z</time></trkpt><trkpt lat="45.6309883" lon="9.86071"><ele>197.0</ele><time>2026-05-04T09:12:09.701Z</time></trkpt><trkpt lat="45.6310317" lon="9.86089"><ele>197.0</ele><time>2026-05-04T09:12:10.701Z</time></trkpt><trkpt lat="45.6310917" lon="9.861065"><ele>197.25</ele><time>2026-05-04T09:12:11.701Z</time></trkpt><trkpt lat="45.63118" lon="9.8612233"><ele>197.5</ele><time>2026-05-04T09:12:12.702Z</time></trkpt><trkpt lat="45.63128" lon="9.861365"><ele>197.75</ele><time>2026-05-04T09:12:13.701Z</time></trkpt><trkpt lat="45.63139" lon="9.861465"><ele>198.0</ele><time>2026-05-04T09:12:14.702Z</time></trkpt><trkpt lat="45.6314967" lon="9.8615433"><ele>198.0</ele><time>2026-05-04T09:12:15.702Z</time></trkpt><trkpt lat="45.631595" lon="9.861605"><ele>198.0</ele><time>2026-05-04T09:12:16.701Z</time></trkpt><trkpt lat="45.6316867" lon="9.86167"><ele>198.0</ele><time>2026-05-04T09:12:17.702Z</time></trkpt><trkpt lat="45.6317733" lon="9.8617267"><ele>198.0</ele><time>2026-05-04T09:12:18.702Z</time></trkpt><trkpt lat="45.631855" lon="9.86177"><ele>198.0</ele><time>2026-05-04T09:12:19.701Z</time></trkpt><trkpt lat="45.6319467" lon="9.8617867"><ele>198.0</ele><time>2026-05-04T09:12:20.702Z</time></trkpt><trkpt lat="45.632015" lon="9.8618233"><ele>198.0</ele><time>2026-05-04T09:12:21.695Z</time></trkpt><trkpt lat="45.632115" lon="9.8618867"><ele>198.0</ele><time>2026-05-04T09:12:23.702Z</time></trkpt><trkpt lat="45.6321683" lon="9.861945"><ele>198.0</ele><time>2026-05-04T09:12:26.701Z</time></trkpt><trkpt lat="45.632235" lon="9.8620383"><ele>198.0</ele><time>2026-05-04T09:12:29.701Z</time></trkpt><trkpt lat="45.63232" lon="9.862185"><ele>198.0</ele><time>2026-05-04T09:12:31.701Z</time></trkpt><trkpt lat="45.632385" lon="9.8622683"><ele>198.0</ele><time>2026-05-04T09:12:32.701Z</time></trkpt><trkpt lat="45.6324767" lon="9.8623217"><ele>198.0</ele><time>2026-05-04T09:12:33.701Z</time></trkpt><trkpt lat="45.6325883" lon="9.8623267"><ele>198.0</ele><time>2026-05-04T09:12:34.702Z</time></trkpt><trkpt lat="45.63271" lon="9.8622883"><ele>198.0</ele><time>2026-05-04T09:12:35.702Z</time></trkpt><trkpt lat="45.6328467" lon="9.8622383"><ele>198.0</ele><time>2026-05-04T09:12:36.702Z</time></trkpt><trkpt lat="45.6329833" lon="9.86223"><ele>198.0</ele><time>2026-05-04T09:12:37.702Z</time></trkpt><trkpt lat="45.6331183" lon="9.8622517"><ele>198.0</ele><time>2026-05-04T09:12:38.702Z</time></trkpt><trkpt lat="45.63324" lon="9.86229"><ele>198.0</ele><time>2026-05-04T09:12:39.702Z</time></trkpt><trkpt lat="45.6333533" lon="9.8623217"><ele>198.0</ele><time>2026-05-04T09:12:40.702Z</time></trkpt><trkpt lat="45.6334533" lon="9.8623567"><ele>198.0</ele><time>2026-05-04T09:12:41.702Z</time></trkpt><trkpt lat="45.6335517" lon="9.8624133"><ele>198.0</ele><time>2026-05-04T09:12:42.702Z</time></trkpt><trkpt lat="45.6336317" lon="9.8624917"><ele>198.0</ele><time>2026-05-04T09:12:43.702Z</time></trkpt><trkpt lat="45.6336883" lon="9.8625967"><ele>198.0</ele><time>2026-05-04T09:12:44.701Z</time></trkpt><trkpt lat="45.6337317" lon="9.8627133"><ele>199.25</ele><time>2026-05-04T09:12:45.702Z</time></trkpt><trkpt lat="45.63375" lon="9.862855"><ele>200.5</ele><time>2026-05-04T09:12:46.702Z</time></trkpt><trkpt lat="45.633755" lon="9.8630367"><ele>201.75</ele><time>2026-05-04T09:12:47.702Z</time></trkpt><trkpt lat="45.6337517" lon="9.8632317"><ele>203.0</ele><time>2026-05-04T09:12:48.701Z</time></trkpt><trkpt lat="45.6337383" lon="9.8634483"><ele>203.25</ele><time>2026-05-04T09:12:49.702Z</time></trkpt><trkpt lat="45.633735" lon="9.8636317"><ele>203.5</ele><time>2026-05-04T09:12:50.702Z</time></trkpt><trkpt lat="45.6337233" lon="9.863805"><ele>203.75</ele><time>2026-05-04T09:12:51.702Z</time></trkpt><trkpt lat="45.6337317" lon="9.86396"><ele>204.0</ele><time>2026-05-04T09:12:52.702Z</time></trkpt><trkpt lat="45.633765" lon="9.86411"><ele>204.0</ele><time>2026-05-04T09:12:53.702Z</time></trkpt><trkpt lat="45.6338317" lon="9.86425"><ele>204.0</ele><time>2026-05-04T09:12:54.702Z</time></trkpt><trkpt lat="45.6338917" lon="9.8644017"><ele>204.0</ele><time>2026-05-04T09:12:55.702Z</time></trkpt><trkpt lat="45.6339583" lon="9.8645383"><ele>204.0</ele><time>2026-05-04T09:12:56.701Z</time></trkpt><trkpt lat="45.6340217" lon="9.8647017"><ele>204.0</ele><time>2026-05-04T09:12:57.702Z</time></trkpt><trkpt lat="45.6340933" lon="9.86486"><ele>204.0</ele><time>2026-05-04T09:12:58.702Z</time></trkpt><trkpt lat="45.6341617" lon="9.8650217"><ele>204.0</ele><time>2026-05-04T09:12:59.702Z</time></trkpt><trkpt lat="45.6342417" lon="9.8651817"><ele>204.0</ele><time>2026-05-04T09:13:00.702Z</time></trkpt><trkpt lat="45.6343067" lon="9.8653367"><ele>204.0</ele><time>2026-05-04T09:13:01.701Z</time></trkpt><trkpt lat="45.6343767" lon="9.8655017"><ele>204.0</ele><time>2026-05-04T09:13:02.702Z</time></trkpt><trkpt lat="45.6344583" lon="9.8656717"><ele>204.0</ele><time>2026-05-04T09:13:03.702Z</time></trkpt><trkpt lat="45.6345367" lon="9.8658333"><ele>204.0</ele><time>2026-05-04T09:13:04.701Z</time></trkpt><trkpt lat="45.6346133" lon="9.8660017"><ele>204.5</ele><time>2026-05-04T09:13:05.702Z</time></trkpt><trkpt lat="45.634685" lon="9.8661583"><ele>205.0</ele><time>2026-05-04T09:13:06.702Z</time></trkpt><trkpt lat="45.6347567" lon="9.8663183"><ele>205.5</ele><time>2026-05-04T09:13:07.701Z</time></trkpt><trkpt lat="45.6348283" lon="9.866485"><ele>206.0</ele><time>2026-05-04T09:13:08.702Z</time></trkpt><trkpt lat="45.6349" lon="9.8666567"><ele>206.0</ele><time>2026-05-04T09:13:09.702Z</time></trkpt><trkpt lat="45.6349817" lon="9.86682"><ele>206.0</ele><time>2026-05-04T09:13:10.702Z</time></trkpt><trkpt lat="45.63506" lon="9.8670033"><ele>206.0</ele><time>2026-05-04T09:13:11.702Z</time></trkpt><trkpt lat="45.6351383" lon="9.86719"><ele>206.0</ele><time>2026-05-04T09:13:12.702Z</time></trkpt><trkpt lat="45.6352167" lon="9.8673683"><ele>206.0</ele><time>2026-05-04T09:13:13.701Z</time></trkpt><trkpt lat="45.635295" lon="9.8675233"><ele>206.0</ele><time>2026-05-04T09:13:14.702Z</time></trkpt><trkpt lat="45.6353733" lon="9.8676767"><ele>206.0</ele><time>2026-05-04T09:13:15.702Z</time></trkpt><trkpt lat="45.6354467" lon="9.8678333"><ele>206.0</ele><time>2026-05-04T09:13:16.702Z</time></trkpt><trkpt lat="45.635515" lon="9.8679867"><ele>206.20000000000002</ele><time>2026-05-04T09:13:17.702Z</time></trkpt><trkpt lat="45.63558" lon="9.8681283"><ele>206.4</ele><time>2026-05-04T09:13:18.702Z</time></trkpt><trkpt lat="45.63563" lon="9.8682617"><ele>206.6</ele><time>2026-05-04T09:13:19.702Z</time></trkpt><trkpt lat="45.635675" lon="9.8683867"><ele>206.8</ele><time>2026-05-04T09:13:20.702Z</time></trkpt><trkpt lat="45.6357217" lon="9.8685083"><ele>207.0</ele><time>2026-05-04T09:13:21.702Z</time></trkpt><trkpt lat="45.635775" lon="9.868625"><ele>207.16666666666666</ele><time>2026-05-04T09:13:22.702Z</time></trkpt><trkpt lat="45.635825" lon="9.8687217"><ele>207.33333333333331</ele><time>2026-05-04T09:13:23.702Z</time></trkpt><trkpt lat="45.6358767" lon="9.8688067"><ele>207.5</ele><time>2026-05-04T09:13:24.702Z</time></trkpt><trkpt lat="45.63593" lon="9.8688833"><ele>207.66666666666666</ele><time>2026-05-04T09:13:25.702Z</time></trkpt><trkpt lat="45.6359883" lon="9.8689583"><ele>207.83333333333331</ele><time>2026-05-04T09:13:26.7Z</time></trkpt><trkpt lat="45.6360417" lon="9.8690317"><ele>208.0</ele><time>2026-05-04T09:13:27.702Z</time></trkpt><trkpt lat="45.6360967" lon="9.86911"><ele>209.60000000000002</ele><time>2026-05-04T09:13:28.702Z</time></trkpt><trkpt lat="45.6361717" lon="9.86918"><ele>211.20000000000002</ele><time>2026-05-04T09:13:29.702Z</time></trkpt><trkpt lat="45.6362517" lon="9.86922"><ele>212.8</ele><time>2026-05-04T09:13:30.702Z</time></trkpt><trkpt lat="45.63634" lon="9.8692567"><ele>214.4</ele><time>2026-05-04T09:13:31.702Z</time></trkpt><trkpt lat="45.636435" lon="9.8693133"><ele>216.0</ele><time>2026-05-04T09:13:32.702Z</time></trkpt><trkpt lat="45.6365267" lon="9.8693833"><ele>216.5</ele><time>2026-05-04T09:13:33.702Z</time></trkpt><trkpt lat="45.6366367" lon="9.869455"><ele>217.0</ele><time>2026-05-04T09:13:34.701Z</time></trkpt><trkpt lat="45.6367417" lon="9.8695417"><ele>217.5</ele><time>2026-05-04T09:13:35.702Z</time></trkpt><trkpt lat="45.63685" lon="9.8695983"><ele>218.0</ele><time>2026-05-04T09:13:36.702Z</time></trkpt><trkpt lat="45.6369667" lon="9.8696267"><ele>220.0</ele><time>2026-05-04T09:13:37.701Z</time></trkpt><trkpt lat="45.6370883" lon="9.8696483"><ele>222.0</ele><time>2026-05-04T09:13:38.702Z</time></trkpt><trkpt lat="45.6372117" lon="9.8696683"><ele>224.0</ele><time>2026-05-04T09:13:39.692Z</time></trkpt><trkpt lat="45.6373333" lon="9.8696833"><ele>226.0</ele><time>2026-05-04T09:13:40.702Z</time></trkpt><trkpt lat="45.6374467" lon="9.8696967"><ele>226.0</ele><time>2026-05-04T09:13:41.702Z</time></trkpt><trkpt lat="45.637575" lon="9.8697033"><ele>226.0</ele><time>2026-05-04T09:13:42.702Z</time></trkpt><trkpt lat="45.63769" lon="9.8697133"><ele>226.0</ele><time>2026-05-04T09:13:43.702Z</time></trkpt><trkpt lat="45.6378" lon="9.8697217"><ele>226.0</ele><time>2026-05-04T09:13:44.702Z</time></trkpt><trkpt lat="45.637915" lon="9.8697133"><ele>225.8</ele><time>2026-05-04T09:13:45.702Z</time></trkpt><trkpt lat="45.6380233" lon="9.86969"><ele>225.60000000000002</ele><time>2026-05-04T09:13:46.702Z</time></trkpt><trkpt lat="45.6381283" lon="9.869655"><ele>225.4</ele><time>2026-05-04T09:13:47.701Z</time></trkpt><trkpt lat="45.638225" lon="9.8696217"><ele>225.2</ele><time>2026-05-04T09:13:48.702Z</time></trkpt><trkpt lat="45.6383217" lon="9.869585"><ele>225.0</ele><time>2026-05-04T09:13:49.702Z</time></trkpt><trkpt lat="45.6384167" lon="9.86955"><ele>225.0</ele><time>2026-05-04T09:13:50.702Z</time></trkpt><trkpt lat="45.6385117" lon="9.8695383"><ele>225.0</ele><time>2026-05-04T09:13:51.701Z</time></trkpt><trkpt lat="45.6386033" lon="9.8695183"><ele>225.0</ele><time>2026-05-04T09:13:52.702Z</time></trkpt><trkpt lat="45.63869" lon="9.8695083"><ele>225.0</ele><time>2026-05-04T09:13:53.702Z</time></trkpt><trkpt lat="45.6387833" lon="9.8695"><ele>225.0</ele><time>2026-05-04T09:13:54.701Z</time></trkpt><trkpt lat="45.638875" lon="9.86949"><ele>224.6</ele><time>2026-05-04T09:13:55.702Z</time></trkpt><trkpt lat="45.6389667" lon="9.8694983"><ele>224.2</ele><time>2026-05-04T09:13:56.702Z</time></trkpt><trkpt lat="45.6390617" lon="9.8695083"><ele>223.8</ele><time>2026-05-04T09:13:57.702Z</time></trkpt><trkpt lat="45.6391617" lon="9.8695267"><ele>223.4</ele><time>2026-05-04T09:13:58.702Z</time></trkpt><trkpt lat="45.6392717" lon="9.8695383"><ele>223.0</ele><time>2026-05-04T09:13:59.701Z</time></trkpt><trkpt lat="45.63938" lon="9.8695583"><ele>224.0</ele><time>2026-05-04T09:14:00.702Z</time></trkpt><trkpt lat="45.6395017" lon="9.8695667"><ele>225.0</ele><time>2026-05-04T09:14:01.702Z</time></trkpt><trkpt lat="45.6396167" lon="9.8695867"><ele>226.0</ele><time>2026-05-04T09:14:02.702Z</time></trkpt><trkpt lat="45.63974" lon="9.8695883"><ele>227.0</ele><time>2026-05-04T09:14:03.702Z</time></trkpt><trkpt lat="45.6398617" lon="9.86958"><ele>227.0</ele><time>2026-05-04T09:14:04.702Z</time></trkpt><trkpt lat="45.6399833" lon="9.8695717"><ele>227.0</ele><time>2026-05-04T09:14:05.702Z</time></trkpt><trkpt lat="45.640095" lon="9.8695633"><ele>227.0</ele><time>2026-05-04T09:14:06.701Z</time></trkpt><trkpt lat="45.6402033" lon="9.8695367"><ele>227.0</ele><time>2026-05-04T09:14:07.702Z</time></trkpt><trkpt lat="45.6403133" lon="9.869495"><ele>227.0</ele><time>2026-05-04T09:14:08.702Z</time></trkpt><trkpt lat="45.64042" lon="9.8694533"><ele>227.0</ele><time>2026-05-04T09:14:09.702Z</time></trkpt><trkpt lat="45.6405167" lon="9.8693933"><ele>227.0</ele><time>2026-05-04T09:14:10.702Z</time></trkpt><trkpt lat="45.6406083" lon="9.8693417"><ele>227.0</ele><time>2026-05-04T09:14:11.702Z</time></trkpt><trkpt lat="45.6406967" lon="9.8692883"><ele>227.0</ele><time>2026-05-04T09:14:12.702Z</time></trkpt><trkpt lat="45.6407717" lon="9.869235"><ele>228.50000000000003</ele><time>2026-05-04T09:14:13.691Z</time></trkpt><trkpt lat="45.640845" lon="9.869195"><ele>230.0</ele><time>2026-05-04T09:14:14.702Z</time></trkpt><trkpt lat="45.640905" lon="9.8691567"><ele>231.5</ele><time>2026-05-04T09:14:15.702Z</time></trkpt><trkpt lat="45.6409917" lon="9.869105"><ele>233.0</ele><time>2026-05-04T09:14:17.702Z</time></trkpt><trkpt lat="45.641075" lon="9.8690917"><ele>234.50000000000003</ele><time>2026-05-04T09:14:19.701Z</time></trkpt><trkpt lat="45.6411567" lon="9.8691467"><ele>236.0</ele><time>2026-05-04T09:14:21.701Z</time></trkpt><trkpt lat="45.6412433" lon="9.8691083"><ele>236.00000000000003</ele><time>2026-05-04T09:14:23.702Z</time></trkpt><trkpt lat="45.641315" lon="9.868955"><ele>236.0</ele><time>2026-05-04T09:14:25.702Z</time></trkpt><trkpt lat="45.6413717" lon="9.8688883"><ele>236.0</ele><time>2026-05-04T09:14:26.702Z</time></trkpt><trkpt lat="45.6414383" lon="9.868845"><ele>236.0</ele><time>2026-05-04T09:14:27.702Z</time></trkpt><trkpt lat="45.64152" lon="9.8688133"><ele>236.00000000000003</ele><time>2026-05-04T09:14:28.702Z</time></trkpt><trkpt lat="45.6416017" lon="9.8687833"><ele>236.0</ele><time>2026-05-04T09:14:29.702Z</time></trkpt><trkpt lat="45.641685" lon="9.868765"><ele>236.0</ele><time>2026-05-04T09:14:30.702Z</time></trkpt><trkpt lat="45.64177" lon="9.868745"><ele>236.00000000000003</ele><time>2026-05-04T09:14:31.702Z</time></trkpt><trkpt lat="45.64186" lon="9.8687367"><ele>236.00000000000003</ele><time>2026-05-04T09:14:32.701Z</time></trkpt><trkpt lat="45.6419533" lon="9.8687267"><ele>236.0</ele><time>2026-05-04T09:14:33.702Z</time></trkpt><trkpt lat="45.6420467" lon="9.8687117"><ele>236.0</ele><time>2026-05-04T09:14:34.702Z</time></trkpt><trkpt lat="45.6421383" lon="9.8686883"><ele>237.0</ele><time>2026-05-04T09:14:35.702Z</time></trkpt><trkpt lat="45.6422283" lon="9.8686667"><ele>238.00000000000003</ele><time>2026-05-04T09:14:36.701Z</time></trkpt><trkpt lat="45.64232" lon="9.8686267"><ele>239.00000000000003</ele><time>2026-05-04T09:14:37.702Z</time></trkpt><trkpt lat="45.6424167" lon="9.8685783"><ele>240.0</ele><time>2026-05-04T09:14:38.702Z</time></trkpt><trkpt lat="45.6425067" lon="9.8685183"><ele>241.0</ele><time>2026-05-04T09:14:39.702Z</time></trkpt><trkpt lat="45.6425967" lon="9.8684533"><ele>244.4</ele><time>2026-05-04T09:14:40.702Z</time></trkpt><trkpt lat="45.642685" lon="9.8683783"><ele>247.8</ele><time>2026-05-04T09:14:41.701Z</time></trkpt><trkpt lat="45.6427783" lon="9.868305"><ele>251.20000000000002</ele><time>2026-05-04T09:14:42.702Z</time></trkpt><trkpt lat="45.6428667" lon="9.8682317"><ele>254.60000000000002</ele><time>2026-05-04T09:14:43.702Z</time></trkpt><trkpt lat="45.64295" lon="9.8681533"><ele>258.0</ele><time>2026-05-04T09:14:44.702Z</time></trkpt><trkpt lat="45.6430283" lon="9.8680583"><ele>258.4</ele><time>2026-05-04T09:14:45.702Z</time></trkpt><trkpt lat="45.6431017" lon="9.86795"><ele>258.8</ele><time>2026-05-04T09:14:46.702Z</time></trkpt><trkpt lat="45.6431617" lon="9.8678317"><ele>259.2</ele><time>2026-05-04T09:14:47.701Z</time></trkpt><trkpt lat="45.643215" lon="9.86771"><ele>259.6</ele><time>2026-05-04T09:14:48.702Z</time></trkpt><trkpt lat="45.643275" lon="9.867595"><ele>260.0</ele><time>2026-05-04T09:14:49.701Z</time></trkpt><trkpt lat="45.64335" lon="9.8674883"><ele>261.6</ele><time>2026-05-04T09:14:50.702Z</time></trkpt><trkpt lat="45.643435" lon="9.8674067"><ele>263.2</ele><time>2026-05-04T09:14:51.702Z</time></trkpt><trkpt lat="45.6435317" lon="9.8673533"><ele>264.8</ele><time>2026-05-04T09:14:52.702Z</time></trkpt><trkpt lat="45.6436417" lon="9.86732"><ele>266.4</ele><time>2026-05-04T09:14:53.702Z</time></trkpt><trkpt lat="45.6437517" lon="9.8673"><ele>268.0</ele><time>2026-05-04T09:14:54.702Z</time></trkpt><trkpt lat="45.6438617" lon="9.8672983"><ele>270.4</ele><time>2026-05-04T09:14:55.702Z</time></trkpt><trkpt lat="45.6439633" lon="9.8672967"><ele>272.8</ele><time>2026-05-04T09:14:56.702Z</time></trkpt><trkpt lat="45.64406" lon="9.8673183"><ele>275.2</ele><time>2026-05-04T09:14:57.702Z</time></trkpt><trkpt lat="45.6441517" lon="9.867365"><ele>277.6</ele><time>2026-05-04T09:14:58.702Z</time></trkpt><trkpt lat="45.64424" lon="9.8674367"><ele>280.0</ele><time>2026-05-04T09:14:59.702Z</time></trkpt><trkpt lat="45.6443283" lon="9.86751"><ele>280.0</ele><time>2026-05-04T09:15:00.702Z</time></trkpt><trkpt lat="45.6444283" lon="9.8675767"><ele>280.0</ele><time>2026-05-04T09:15:01.702Z</time></trkpt><trkpt lat="45.644525" lon="9.86762"><ele>280.0</ele><time>2026-05-04T09:15:02.702Z</time></trkpt><trkpt lat="45.6446183" lon="9.867665"><ele>280.0</ele><time>2026-05-04T09:15:03.702Z</time></trkpt><trkpt lat="45.6447117" lon="9.8677133"><ele>280.0</ele><time>2026-05-04T09:15:04.701Z</time></trkpt><trkpt lat="45.64481" lon="9.8677567"><ele>280.0</ele><time>2026-05-04T09:15:05.702Z</time></trkpt><trkpt lat="45.6449083" lon="9.86781"><ele>280.0</ele><time>2026-05-04T09:15:06.702Z</time></trkpt><trkpt lat="45.6450117" lon="9.8678617"><ele>280.0</ele><time>2026-05-04T09:15:07.702Z</time></trkpt><trkpt lat="45.6451067" lon="9.8679133"><ele>280.0</ele><time>2026-05-04T09:15:08.701Z</time></trkpt><trkpt lat="45.6452117" lon="9.867965"><ele>280.0</ele><time>2026-05-04T09:15:09.702Z</time></trkpt><trkpt lat="45.645305" lon="9.8680283"><ele>283.4</ele><time>2026-05-04T09:15:10.702Z</time></trkpt><trkpt lat="45.6454" lon="9.8680883"><ele>286.8</ele><time>2026-05-04T09:15:11.701Z</time></trkpt><trkpt lat="45.645485" lon="9.86815"><ele>290.2</ele><time>2026-05-04T09:15:12.702Z</time></trkpt><trkpt lat="45.6455733" lon="9.8682233"><ele>293.6</ele><time>2026-05-04T09:15:13.702Z</time></trkpt><trkpt lat="45.6456433" lon="9.86831"><ele>297.0</ele><time>2026-05-04T09:15:14.702Z</time></trkpt><trkpt lat="45.6457" lon="9.8684183"><ele>295.6</ele><time>2026-05-04T09:15:15.702Z</time></trkpt><trkpt lat="45.6457467" lon="9.8685267"><ele>294.2</ele><time>2026-05-04T09:15:16.702Z</time></trkpt><trkpt lat="45.645805" lon="9.8686383"><ele>292.8</ele><time>2026-05-04T09:15:17.702Z</time></trkpt><trkpt lat="45.6458583" lon="9.8687367"><ele>291.4</ele><time>2026-05-04T09:15:18.702Z</time></trkpt><trkpt lat="45.64592" lon="9.8688217"><ele>290.0</ele><time>2026-05-04T09:15:19.702Z</time></trkpt><trkpt lat="45.646" lon="9.8688933"><ele>290.0</ele><time>2026-05-04T09:15:20.701Z</time></trkpt><trkpt lat="45.6460967" lon="9.8689283"><ele>290.0</ele><time>2026-05-04T09:15:21.701Z</time></trkpt><trkpt lat="45.6462017" lon="9.8689433"><ele>290.0</ele><time>2026-05-04T09:15:22.702Z</time></trkpt><trkpt lat="45.6463067" lon="9.868955"><ele>290.0</ele><time>2026-05-04T09:15:23.702Z</time></trkpt><trkpt lat="45.6464067" lon="9.8689667"><ele>290.0</ele><time>2026-05-04T09:15:24.702Z</time></trkpt><trkpt lat="45.6464917" lon="9.8689817"><ele>292.1666666666667</ele><time>2026-05-04T09:15:25.701Z</time></trkpt><trkpt lat="45.6465583" lon="9.86898"><ele>294.33333333333337</ele><time>2026-05-04T09:15:26.702Z</time></trkpt><trkpt lat="45.6466117" lon="9.8689233"><ele>296.5</ele><time>2026-05-04T09:15:27.7Z</time></trkpt><trkpt lat="45.64664" lon="9.8688267"><ele>298.6666666666667</ele><time>2026-05-04T09:15:28.702Z</time></trkpt><trkpt lat="45.64664" lon="9.8687133"><ele>300.8333333333333</ele><time>2026-05-04T09:15:29.702Z</time></trkpt><trkpt lat="45.6466167" lon="9.86861"><ele>303.0</ele><time>2026-05-04T09:15:30.702Z</time></trkpt><trkpt lat="45.6465333" lon="9.8685517"><ele>303.0</ele><time>2026-05-04T09:15:31.702Z</time></trkpt><trkpt lat="45.64645" lon="9.8684917"><ele>303.0</ele><time>2026-05-04T09:15:32.701Z</time></trkpt><trkpt lat="45.6463983" lon="9.8684283"><ele>303.0</ele><time>2026-05-04T09:15:33.702Z</time></trkpt><trkpt lat="45.646435" lon="9.86827"><ele>303.0</ele><time>2026-05-04T09:15:35.702Z</time></trkpt><trkpt lat="45.6465117" lon="9.8682017"><ele>303.0</ele><time>2026-05-04T09:15:36.702Z</time></trkpt><trkpt lat="45.6465983" lon="9.8681317"><ele>304.8333333333333</ele><time>2026-05-04T09:15:37.702Z</time></trkpt><trkpt lat="45.64668" lon="9.86806"><ele>306.6666666666667</ele><time>2026-05-04T09:15:38.702Z</time></trkpt><trkpt lat="45.6467533" lon="9.8679933"><ele>308.5</ele><time>2026-05-04T09:15:39.702Z</time></trkpt><trkpt lat="45.646825" lon="9.8679567"><ele>310.33333333333337</ele><time>2026-05-04T09:15:40.702Z</time></trkpt><trkpt lat="45.6469017" lon="9.8679567"><ele>312.1666666666667</ele><time>2026-05-04T09:15:41.702Z</time></trkpt><trkpt lat="45.6469867" lon="9.868005"><ele>314.0</ele><time>2026-05-04T09:15:42.702Z</time></trkpt><trkpt lat="45.64708" lon="9.8680867"><ele>314.4</ele><time>2026-05-04T09:15:43.702Z</time></trkpt><trkpt lat="45.6471717" lon="9.8681983"><ele>314.79999999999995</ele><time>2026-05-04T09:15:44.701Z</time></trkpt><trkpt lat="45.6472617" lon="9.8683083"><ele>315.20000000000005</ele><time>2026-05-04T09:15:45.702Z</time></trkpt><trkpt lat="45.64734" lon="9.8684233"><ele>315.6</ele><time>2026-05-04T09:15:46.702Z</time></trkpt><trkpt lat="45.6474" lon="9.86853"><ele>316.0</ele><time>2026-05-04T09:15:47.702Z</time></trkpt><trkpt lat="45.6474567" lon="9.8686333"><ele>316.0</ele><time>2026-05-04T09:15:48.702Z</time></trkpt><trkpt lat="45.64751" lon="9.8687233"><ele>316.0</ele><time>2026-05-04T09:15:49.702Z</time></trkpt><trkpt lat="45.64757" lon="9.86882"><ele>316.0</ele><time>2026-05-04T09:15:50.702Z</time></trkpt><trkpt lat="45.6476333" lon="9.8689283"><ele>316.0</ele><time>2026-05-04T09:15:51.702Z</time></trkpt><trkpt lat="45.64771" lon="9.8690383"><ele>316.0</ele><time>2026-05-04T09:15:52.702Z</time></trkpt><trkpt lat="45.6477783" lon="9.86915"><ele>317.20000000000005</ele><time>2026-05-04T09:15:53.702Z</time></trkpt><trkpt lat="45.6478467" lon="9.8692617"><ele>318.40000000000003</ele><time>2026-05-04T09:15:54.697Z</time></trkpt><trkpt lat="45.6479133" lon="9.8693733"><ele>319.6</ele><time>2026-05-04T09:15:55.702Z</time></trkpt><trkpt lat="45.64798" lon="9.86947"><ele>320.8</ele><time>2026-05-04T09:15:56.702Z</time></trkpt><trkpt lat="45.6480383" lon="9.8695667"><ele>322.0</ele><time>2026-05-04T09:15:57.701Z</time></trkpt><trkpt lat="45.648095" lon="9.86965"><ele>322.0</ele><time>2026-05-04T09:15:58.702Z</time></trkpt><trkpt lat="45.64814" lon="9.8697383"><ele>322.0</ele><time>2026-05-04T09:15:59.701Z</time></trkpt><trkpt lat="45.64818" lon="9.8698317"><ele>322.0</ele><time>2026-05-04T09:16:00.702Z</time></trkpt><trkpt lat="45.6482167" lon="9.8699383"><ele>322.0</ele><time>2026-05-04T09:16:01.702Z</time></trkpt><trkpt lat="45.6482533" lon="9.8700433"><ele>322.0</ele><time>2026-05-04T09:16:02.702Z</time></trkpt><trkpt lat="45.6482983" lon="9.8701533"><ele>322.0</ele><time>2026-05-04T09:16:03.702Z</time></trkpt><trkpt lat="45.6483467" lon="9.87027"><ele>320.6</ele><time>2026-05-04T09:16:04.702Z</time></trkpt><trkpt lat="45.6483983" lon="9.8703867"><ele>319.20000000000005</ele><time>2026-05-04T09:16:05.702Z</time></trkpt><trkpt lat="45.6484683" lon="9.8704883"><ele>317.8</ele><time>2026-05-04T09:16:06.701Z</time></trkpt><trkpt lat="45.64856" lon="9.8705833"><ele>316.4</ele><time>2026-05-04T09:16:07.702Z</time></trkpt><trkpt lat="45.6486533" lon="9.87067"><ele>315.0</ele><time>2026-05-04T09:16:08.702Z</time></trkpt><trkpt lat="45.6487283" lon="9.87076"><ele>315.0</ele><time>2026-05-04T09:16:09.702Z</time></trkpt><trkpt lat="45.6488117" lon="9.8708467"><ele>315.0</ele><time>2026-05-04T09:16:10.702Z</time></trkpt><trkpt lat="45.648895" lon="9.870925"><ele>315.0</ele><time>2026-05-04T09:16:11.696Z</time></trkpt><trkpt lat="45.6489767" lon="9.87099"><ele>315.0</ele><time>2026-05-04T09:16:12.702Z</time></trkpt><trkpt lat="45.6490517" lon="9.8710567"><ele>315.0</ele><time>2026-05-04T09:16:13.702Z</time></trkpt><trkpt lat="45.649125" lon="9.871105"><ele>314.5</ele><time>2026-05-04T09:16:14.701Z</time></trkpt><trkpt lat="45.6491933" lon="9.87116"><ele>314.0</ele><time>2026-05-04T09:16:15.702Z</time></trkpt><trkpt lat="45.649265" lon="9.8712117"><ele>313.5</ele><time>2026-05-04T09:16:16.701Z</time></trkpt><trkpt lat="45.64934" lon="9.87127"><ele>313.0</ele><time>2026-05-04T09:16:17.702Z</time></trkpt><trkpt lat="45.6494117" lon="9.871315"><ele>312.5</ele><time>2026-05-04T09:16:18.702Z</time></trkpt><trkpt lat="45.6494833" lon="9.871365"><ele>312.0</ele><time>2026-05-04T09:16:19.702Z</time></trkpt><trkpt lat="45.64955" lon="9.87141"><ele>312.0</ele><time>2026-05-04T09:16:20.702Z</time></trkpt><trkpt lat="45.6496217" lon="9.87146"><ele>312.0</ele><time>2026-05-04T09:16:21.702Z</time></trkpt><trkpt lat="45.6496917" lon="9.871515"><ele>312.0</ele><time>2026-05-04T09:16:22.702Z</time></trkpt><trkpt lat="45.6497517" lon="9.871585"><ele>312.0</ele><time>2026-05-04T09:16:23.702Z</time></trkpt><trkpt lat="45.6498033" lon="9.87168"><ele>312.0</ele><time>2026-05-04T09:16:24.702Z</time></trkpt><trkpt lat="45.64985" lon="9.871775"><ele>312.0</ele><time>2026-05-04T09:16:25.702Z</time></trkpt><trkpt lat="45.6499067" lon="9.8718683"><ele>312.0</ele><time>2026-05-04T09:16:26.702Z</time></trkpt><trkpt lat="45.6499667" lon="9.8719517"><ele>312.0</ele><time>2026-05-04T09:16:27.702Z</time></trkpt><trkpt lat="45.6500217" lon="9.8720317"><ele>312.0</ele><time>2026-05-04T09:16:28.702Z</time></trkpt><trkpt lat="45.6500817" lon="9.8721067"><ele>312.0</ele><time>2026-05-04T09:16:29.702Z</time></trkpt><trkpt lat="45.6501317" lon="9.8721733"><ele>312.0</ele><time>2026-05-04T09:16:30.702Z</time></trkpt><trkpt lat="45.6501817" lon="9.8722283"><ele>312.0</ele><time>2026-05-04T09:16:31.702Z</time></trkpt><trkpt lat="45.6502517" lon="9.8723417"><ele>312.6</ele><time>2026-05-04T09:16:33.702Z</time></trkpt><trkpt lat="45.6503233" lon="9.87245"><ele>313.2</ele><time>2026-05-04T09:16:35.702Z</time></trkpt><trkpt lat="45.650395" lon="9.8725633"><ele>313.8</ele><time>2026-05-04T09:16:37.702Z</time></trkpt><trkpt lat="45.6504733" lon="9.8726933"><ele>314.4</ele><time>2026-05-04T09:16:39.702Z</time></trkpt><trkpt lat="45.6505233" lon="9.8727617"><ele>315.0</ele><time>2026-05-04T09:16:40.702Z</time></trkpt><trkpt lat="45.650585" lon="9.8728283"><ele>316.1666666666667</ele><time>2026-05-04T09:16:41.702Z</time></trkpt><trkpt lat="45.650645" lon="9.8728983"><ele>317.3333333333333</ele><time>2026-05-04T09:16:42.702Z</time></trkpt><trkpt lat="45.6507017" lon="9.8729833"><ele>318.5</ele><time>2026-05-04T09:16:43.702Z</time></trkpt><trkpt lat="45.65076" lon="9.87307"><ele>319.66666666666663</ele><time>2026-05-04T09:16:44.701Z</time></trkpt><trkpt lat="45.65081" lon="9.87316"><ele>320.8333333333333</ele><time>2026-05-04T09:16:45.702Z</time></trkpt><trkpt lat="45.65086" lon="9.8732567"><ele>322.0</ele><time>2026-05-04T09:16:46.702Z</time></trkpt><trkpt lat="45.6509117" lon="9.8733633"><ele>322.40000000000003</ele><time>2026-05-04T09:16:47.701Z</time></trkpt><trkpt lat="45.650965" lon="9.8734767"><ele>322.8</ele><time>2026-05-04T09:16:48.702Z</time></trkpt><trkpt lat="45.65101" lon="9.8735917"><ele>323.2</ele><time>2026-05-04T09:16:49.702Z</time></trkpt><trkpt lat="45.65105" lon="9.8737367"><ele>323.6</ele><time>2026-05-04T09:16:50.702Z</time></trkpt><trkpt lat="45.6510833" lon="9.873895"><ele>324.0</ele><time>2026-05-04T09:16:51.702Z</time></trkpt><trkpt lat="45.6511133" lon="9.874075"><ele>329.5</ele><time>2026-05-04T09:16:52.702Z</time></trkpt><trkpt lat="45.651135" lon="9.87427"><ele>335.0</ele><time>2026-05-04T09:16:53.701Z</time></trkpt><trkpt lat="45.6511433" lon="9.87447"><ele>340.5</ele><time>2026-05-04T09:16:54.702Z</time></trkpt><trkpt lat="45.651165" lon="9.8746833"><ele>346.0</ele><time>2026-05-04T09:16:55.702Z</time></trkpt><trkpt lat="45.6512167" lon="9.8748933"><ele>348.0</ele><time>2026-05-04T09:16:56.702Z</time></trkpt><trkpt lat="45.6512933" lon="9.875105"><ele>350.0</ele><time>2026-05-04T09:16:57.702Z</time></trkpt><trkpt lat="45.65139" lon="9.8752967"><ele>352.0</ele><time>2026-05-04T09:16:58.702Z</time></trkpt><trkpt lat="45.6514717" lon="9.8754933"><ele>352.0</ele><time>2026-05-04T09:16:59.701Z</time></trkpt><trkpt lat="45.651535" lon="9.875675"><ele>352.0</ele><time>2026-05-04T09:17:00.702Z</time></trkpt><trkpt lat="45.6515533" lon="9.8758783"><ele>352.0</ele><time>2026-05-04T09:17:01.702Z</time></trkpt><trkpt lat="45.651535" lon="9.8761017"><ele>352.0</ele><time>2026-05-04T09:17:02.702Z</time></trkpt><trkpt lat="45.6515033" lon="9.8763333"><ele>354.0</ele><time>2026-05-04T09:17:03.701Z</time></trkpt><trkpt lat="45.65146" lon="9.8765833"><ele>356.0</ele><time>2026-05-04T09:17:04.702Z</time></trkpt><trkpt lat="45.6514233" lon="9.87685"><ele>358.0</ele><time>2026-05-04T09:17:05.702Z</time></trkpt><trkpt lat="45.6513933" lon="9.8770733"><ele>358.25</ele><time>2026-05-04T09:17:06.702Z</time></trkpt><trkpt lat="45.6513667" lon="9.8772767"><ele>358.5</ele><time>2026-05-04T09:17:07.702Z</time></trkpt><trkpt lat="45.651355" lon="9.8774867"><ele>358.75</ele><time>2026-05-04T09:17:08.702Z</time></trkpt><trkpt lat="45.6513717" lon="9.8776967"><ele>359.0</ele><time>2026-05-04T09:17:09.702Z</time></trkpt><trkpt lat="45.6514267" lon="9.87791"><ele>357.33333333333337</ele><time>2026-05-04T09:17:10.702Z</time></trkpt><trkpt lat="45.651515" lon="9.878125"><ele>355.6666666666667</ele><time>2026-05-04T09:17:11.702Z</time></trkpt><trkpt lat="45.6516" lon="9.8783283"><ele>354.0</ele><time>2026-05-04T09:17:12.702Z</time></trkpt><trkpt lat="45.651685" lon="9.8785417"><ele>352.3333333333333</ele><time>2026-05-04T09:17:13.701Z</time></trkpt><trkpt lat="45.6517717" lon="9.8787633"><ele>350.66666666666663</ele><time>2026-05-04T09:17:14.702Z</time></trkpt><trkpt lat="45.651865" lon="9.87898"><ele>349.0</ele><time>2026-05-04T09:17:15.702Z</time></trkpt><trkpt lat="45.651955" lon="9.8791883"><ele>357.3333333333333</ele><time>2026-05-04T09:17:16.702Z</time></trkpt><trkpt lat="45.6520367" lon="9.8793983"><ele>365.6666666666667</ele><time>2026-05-04T09:17:17.702Z</time></trkpt><trkpt lat="45.652095" lon="9.879615"><ele>374.0</ele><time>2026-05-04T09:17:18.702Z</time></trkpt><trkpt lat="45.65212" lon="9.8798383"><ele>374.0</ele><time>2026-05-04T09:17:19.702Z</time></trkpt><trkpt lat="45.65211" lon="9.8800667"><ele>374.0</ele><time>2026-05-04T09:17:20.696Z</time></trkpt><trkpt lat="45.6520867" lon="9.8802983"><ele>374.0</ele><time>2026-05-04T09:17:21.701Z</time></trkpt><trkpt lat="45.65208" lon="9.8805367"><ele>375.0</ele><time>2026-05-04T09:17:22.702Z</time></trkpt><trkpt lat="45.6520933" lon="9.8807683"><ele>376.0</ele><time>2026-05-04T09:17:23.702Z</time></trkpt><trkpt lat="45.6521283" lon="9.880985"><ele>377.0</ele><time>2026-05-04T09:17:24.702Z</time></trkpt><trkpt lat="45.652175" lon="9.8811733"><ele>377.25</ele><time>2026-05-04T09:17:25.702Z</time></trkpt><trkpt lat="45.65223" lon="9.88135"><ele>377.5</ele><time>2026-05-04T09:17:26.702Z</time></trkpt><trkpt lat="45.6523067" lon="9.8814933"><ele>377.75</ele><time>2026-05-04T09:17:27.702Z</time></trkpt><trkpt lat="45.6523883" lon="9.881615"><ele>378.0</ele><time>2026-05-04T09:17:28.702Z</time></trkpt><trkpt lat="45.6524567" lon="9.881735"><ele>379.59999999999997</ele><time>2026-05-04T09:17:29.702Z</time></trkpt><trkpt lat="45.6524817" lon="9.881875"><ele>381.2</ele><time>2026-05-04T09:17:30.702Z</time></trkpt><trkpt lat="45.65247" lon="9.8820267"><ele>382.8</ele><time>2026-05-04T09:17:31.702Z</time></trkpt><trkpt lat="45.6524233" lon="9.8821733"><ele>384.4</ele><time>2026-05-04T09:17:32.702Z</time></trkpt><trkpt lat="45.65236" lon="9.8823033"><ele>386.0</ele><time>2026-05-04T09:17:33.702Z</time></trkpt><trkpt lat="45.6523083" lon="9.8824517"><ele>387.5</ele><time>2026-05-04T09:17:34.701Z</time></trkpt><trkpt lat="45.6522867" lon="9.8826283"><ele>389.0</ele><time>2026-05-04T09:17:35.702Z</time></trkpt><trkpt lat="45.6522883" lon="9.8828217"><ele>390.5</ele><time>2026-05-04T09:17:36.702Z</time></trkpt><trkpt lat="45.6523067" lon="9.8830217"><ele>392.0</ele><time>2026-05-04T09:17:37.701Z</time></trkpt><trkpt lat="45.6523217" lon="9.883225"><ele>394.0</ele><time>2026-05-04T09:17:38.701Z</time></trkpt><trkpt lat="45.6523333" lon="9.88344"><ele>396.0</ele><time>2026-05-04T09:17:39.702Z</time></trkpt><trkpt lat="45.65233" lon="9.883665"><ele>398.0</ele><time>2026-05-04T09:17:40.701Z</time></trkpt><trkpt lat="45.6523133" lon="9.883875"><ele>398.0</ele><time>2026-05-04T09:17:41.702Z</time></trkpt><trkpt lat="45.65229" lon="9.8840883"><ele>398.0</ele><time>2026-05-04T09:17:42.702Z</time></trkpt><trkpt lat="45.6522517" lon="9.8843033"><ele>398.0</ele><time>2026-05-04T09:17:43.702Z</time></trkpt><trkpt lat="45.6522133" lon="9.8845383"><ele>401.66666666666663</ele><time>2026-05-04T09:17:44.702Z</time></trkpt><trkpt lat="45.6521817" lon="9.88476"><ele>405.33333333333337</ele><time>2026-05-04T09:17:45.691Z</time></trkpt><trkpt lat="45.65215" lon="9.8849783"><ele>409.0</ele><time>2026-05-04T09:17:46.702Z</time></trkpt><trkpt lat="45.6521267" lon="9.88518"><ele>410.0</ele><time>2026-05-04T09:17:47.701Z</time></trkpt><trkpt lat="45.6521133" lon="9.8853767"><ele>411.0</ele><time>2026-05-04T09:17:48.702Z</time></trkpt><trkpt lat="45.6521317" lon="9.8855583"><ele>412.0</ele><time>2026-05-04T09:17:49.702Z</time></trkpt><trkpt lat="45.65219" lon="9.8857383"><ele>413.0</ele><time>2026-05-04T09:17:50.702Z</time></trkpt><trkpt lat="45.652275" lon="9.8858967"><ele>414.25</ele><time>2026-05-04T09:17:51.702Z</time></trkpt><trkpt lat="45.6523567" lon="9.8860417"><ele>415.5</ele><time>2026-05-04T09:17:52.702Z</time></trkpt><trkpt lat="45.6524083" lon="9.8861917"><ele>416.75</ele><time>2026-05-04T09:17:53.702Z</time></trkpt><trkpt lat="45.6524283" lon="9.8863517"><ele>418.0</ele><time>2026-05-04T09:17:54.702Z</time></trkpt><trkpt lat="45.65241" lon="9.8865317"><ele>418.0</ele><time>2026-05-04T09:17:55.701Z</time></trkpt><trkpt lat="45.6523917" lon="9.8867267"><ele>418.0</ele><time>2026-05-04T09:17:56.702Z</time></trkpt><trkpt lat="45.652375" lon="9.8869217"><ele>418.0</ele><time>2026-05-04T09:17:57.701Z</time></trkpt><trkpt lat="45.65237" lon="9.88712"><ele>418.0</ele><time>2026-05-04T09:17:58.702Z</time></trkpt><trkpt lat="45.6523667" lon="9.887305"><ele>421.5</ele><time>2026-05-04T09:17:59.702Z</time></trkpt><trkpt lat="45.6523533" lon="9.88749"><ele>425.0</ele><time>2026-05-04T09:18:00.7Z</time></trkpt><trkpt lat="45.6523233" lon="9.8876533"><ele>428.5</ele><time>2026-05-04T09:18:01.702Z</time></trkpt><trkpt lat="45.6522667" lon="9.8878117"><ele>432.0</ele><time>2026-05-04T09:18:02.702Z</time></trkpt><trkpt lat="45.6521917" lon="9.88794"><ele>431.25</ele><time>2026-05-04T09:18:03.702Z</time></trkpt><trkpt lat="45.652085" lon="9.888045"><ele>430.5</ele><time>2026-05-04T09:18:04.702Z</time></trkpt><trkpt lat="45.6519533" lon="9.888145"><ele>429.75</ele><time>2026-05-04T09:18:05.702Z</time></trkpt><trkpt lat="45.6518167" lon="9.8882383"><ele>429.0</ele><time>2026-05-04T09:18:06.702Z</time></trkpt><trkpt lat="45.65167" lon="9.8883233"><ele>429.0</ele><time>2026-05-04T09:18:07.701Z</time></trkpt><trkpt lat="45.6515133" lon="9.8883833"><ele>429.0</ele><time>2026-05-04T09:18:08.702Z</time></trkpt><trkpt lat="45.65135" lon="9.8884117"><ele>429.0</ele><time>2026-05-04T09:18:09.702Z</time></trkpt><trkpt lat="45.6512" lon="9.8884267"><ele>429.0</ele><time>2026-05-04T09:18:10.697Z</time></trkpt><trkpt lat="45.6510533" lon="9.8884467"><ele>429.0</ele><time>2026-05-04T09:18:11.702Z</time></trkpt><trkpt lat="45.650925" lon="9.8884683"><ele>429.0</ele><time>2026-05-04T09:18:12.701Z</time></trkpt><trkpt lat="45.6508117" lon="9.8885083"><ele>429.0</ele><time>2026-05-04T09:18:13.702Z</time></trkpt><trkpt lat="45.65073" lon="9.8885867"><ele>429.0</ele><time>2026-05-04T09:18:14.702Z</time></trkpt><trkpt lat="45.6506867" lon="9.888685"><ele>429.0</ele><time>2026-05-04T09:18:15.702Z</time></trkpt><trkpt lat="45.650685" lon="9.8888017"><ele>429.0</ele><time>2026-05-04T09:18:16.698Z</time></trkpt><trkpt lat="45.6507183" lon="9.8889167"><ele>429.0</ele><time>2026-05-04T09:18:17.702Z</time></trkpt><trkpt lat="45.65079" lon="9.8890117"><ele>429.0</ele><time>2026-05-04T09:18:18.702Z</time></trkpt><trkpt lat="45.6509383" lon="9.889095"><ele>429.0</ele><time>2026-05-04T09:18:19.699Z</time></trkpt><trkpt lat="45.6510617" lon="9.8891917"><ele>429.0</ele><time>2026-05-04T09:18:20.702Z</time></trkpt><trkpt lat="45.65117" lon="9.8893083"><ele>429.0</ele><time>2026-05-04T09:18:21.702Z</time></trkpt><trkpt lat="45.6512733" lon="9.8894317"><ele>429.0</ele><time>2026-05-04T09:18:22.701Z</time></trkpt><trkpt lat="45.6513767" lon="9.88956"><ele>431.75</ele><time>2026-05-04T09:18:23.701Z</time></trkpt><trkpt lat="45.6514867" lon="9.8896933"><ele>434.5</ele><time>2026-05-04T09:18:24.702Z</time></trkpt><trkpt lat="45.651595" lon="9.8898367"><ele>437.25</ele><time>2026-05-04T09:18:25.702Z</time></trkpt><trkpt lat="45.651695" lon="9.8899933"><ele>440.0</ele><time>2026-05-04T09:18:26.702Z</time></trkpt><trkpt lat="45.6518" lon="9.8901433"><ele>440.0</ele><time>2026-05-04T09:18:27.701Z</time></trkpt><trkpt lat="45.651895" lon="9.8903"><ele>440.0</ele><time>2026-05-04T09:18:28.702Z</time></trkpt><trkpt lat="45.6519883" lon="9.8904583"><ele>440.0</ele><time>2026-05-04T09:18:29.702Z</time></trkpt><trkpt lat="45.6520817" lon="9.8906183"><ele>440.0</ele><time>2026-05-04T09:18:30.702Z</time></trkpt><trkpt lat="45.6521633" lon="9.8907933"><ele>445.0</ele><time>2026-05-04T09:18:31.687Z</time></trkpt><trkpt lat="45.6522517" lon="9.8909667"><ele>450.0</ele><time>2026-05-04T09:18:32.698Z</time></trkpt><trkpt lat="45.652325" lon="9.8911517"><ele>455.0</ele><time>2026-05-04T09:18:33.701Z</time></trkpt><trkpt lat="45.652395" lon="9.8913367"><ele>460.0</ele><time>2026-05-04T09:18:34.701Z</time></trkpt><trkpt lat="45.6524617" lon="9.8915217"><ele>460.0</ele><time>2026-05-04T09:18:35.702Z</time></trkpt><trkpt lat="45.6525267" lon="9.8917083"><ele>460.0</ele><time>2026-05-04T09:18:36.702Z</time></trkpt><trkpt lat="45.652595" lon="9.891905"><ele>460.0</ele><time>2026-05-04T09:18:37.702Z</time></trkpt><trkpt lat="45.6526617" lon="9.892105"><ele>459.25</ele><time>2026-05-04T09:18:38.702Z</time></trkpt><trkpt lat="45.6527283" lon="9.8922983"><ele>458.5</ele><time>2026-05-04T09:18:39.702Z</time></trkpt><trkpt lat="45.652795" lon="9.8924867"><ele>457.75</ele><time>2026-05-04T09:18:40.702Z</time></trkpt><trkpt lat="45.6528517" lon="9.8926783"><ele>457.0</ele><time>2026-05-04T09:18:41.702Z</time></trkpt><trkpt lat="45.6529183" lon="9.89287"><ele>459.5</ele><time>2026-05-04T09:18:42.702Z</time></trkpt><trkpt lat="45.6529833" lon="9.89306"><ele>462.0</ele><time>2026-05-04T09:18:43.702Z</time></trkpt><trkpt lat="45.653045" lon="9.893245"><ele>464.5</ele><time>2026-05-04T09:18:44.702Z</time></trkpt><trkpt lat="45.6531067" lon="9.8934267"><ele>467.0</ele><time>2026-05-04T09:18:45.702Z</time></trkpt><trkpt lat="45.65316" lon="9.8936083"><ele>467.0</ele><time>2026-05-04T09:18:46.702Z</time></trkpt><trkpt lat="45.6532217" lon="9.8937883"><ele>467.0</ele><time>2026-05-04T09:18:47.702Z</time></trkpt><trkpt lat="45.6532917" lon="9.8939433"><ele>467.0</ele><time>2026-05-04T09:18:48.701Z</time></trkpt><trkpt lat="45.6533767" lon="9.8940733"><ele>467.0</ele><time>2026-05-04T09:18:49.702Z</time></trkpt><trkpt lat="45.653465" lon="9.8941733"><ele>466.40000000000003</ele><time>2026-05-04T09:18:50.702Z</time></trkpt><trkpt lat="45.653545" lon="9.894265"><ele>465.80000000000007</ele><time>2026-05-04T09:18:51.702Z</time></trkpt><trkpt lat="45.6536133" lon="9.8943417"><ele>465.2</ele><time>2026-05-04T09:18:52.702Z</time></trkpt><trkpt lat="45.6536633" lon="9.8944333"><ele>464.6</ele><time>2026-05-04T09:18:53.701Z</time></trkpt><trkpt lat="45.6537017" lon="9.8945633"><ele>464.0</ele><time>2026-05-04T09:18:54.702Z</time></trkpt><trkpt lat="45.6537167" lon="9.8947067"><ele>464.0</ele><time>2026-05-04T09:18:55.691Z</time></trkpt><trkpt lat="45.6537233" lon="9.894855"><ele>464.0</ele><time>2026-05-04T09:18:56.702Z</time></trkpt><trkpt lat="45.6537367" lon="9.8949967"><ele>464.0</ele><time>2026-05-04T09:18:57.702Z</time></trkpt><trkpt lat="45.65375" lon="9.895125"><ele>464.0</ele><time>2026-05-04T09:18:58.702Z</time></trkpt><trkpt lat="45.6537617" lon="9.895245"><ele>464.0</ele><time>2026-05-04T09:18:59.702Z</time></trkpt><trkpt lat="45.6537717" lon="9.8953667"><ele>464.16666666666663</ele><time>2026-05-04T09:19:00.702Z</time></trkpt><trkpt lat="45.65379" lon="9.89548"><ele>464.3333333333333</ele><time>2026-05-04T09:19:01.702Z</time></trkpt><trkpt lat="45.653805" lon="9.895595"><ele>464.5</ele><time>2026-05-04T09:19:02.702Z</time></trkpt><trkpt lat="45.6538217" lon="9.8956967"><ele>464.66666666666663</ele><time>2026-05-04T09:19:03.702Z</time></trkpt><trkpt lat="45.6538483" lon="9.8957867"><ele>464.8333333333333</ele><time>2026-05-04T09:19:04.701Z</time></trkpt><trkpt lat="45.65389" lon="9.895855"><ele>465.0</ele><time>2026-05-04T09:19:05.702Z</time></trkpt><trkpt lat="45.6539883" lon="9.8958567"><ele>465.0</ele><time>2026-05-04T09:19:07.702Z</time></trkpt><trkpt lat="45.6540483" lon="9.8956617"><ele>465.0</ele><time>2026-05-04T09:19:09.702Z</time></trkpt><trkpt lat="45.6540583" lon="9.8955017"><ele>465.0</ele><time>2026-05-04T09:19:10.702Z</time></trkpt><trkpt lat="45.6540833" lon="9.8953333"><ele>465.0</ele><time>2026-05-04T09:19:11.702Z</time></trkpt><trkpt lat="45.654115" lon="9.895165"><ele>464.75</ele><time>2026-05-04T09:19:12.702Z</time></trkpt><trkpt lat="45.6541483" lon="9.8950017"><ele>464.5</ele><time>2026-05-04T09:19:13.702Z</time></trkpt><trkpt lat="45.6542117" lon="9.8948433"><ele>464.25</ele><time>2026-05-04T09:19:14.702Z</time></trkpt><trkpt lat="45.6542917" lon="9.8947017"><ele>464.0</ele><time>2026-05-04T09:19:15.702Z</time></trkpt><trkpt lat="45.6543883" lon="9.8945783"><ele>459.0</ele><time>2026-05-04T09:19:16.702Z</time></trkpt><trkpt lat="45.6545017" lon="9.8944783"><ele>454.0</ele><time>2026-05-04T09:19:17.702Z</time></trkpt><trkpt lat="45.6546233" lon="9.894395"><ele>449.0</ele><time>2026-05-04T09:19:18.702Z</time></trkpt><trkpt lat="45.65475" lon="9.8943383"><ele>444.0</ele><time>2026-05-04T09:19:19.702Z</time></trkpt><trkpt lat="45.6548867" lon="9.89431"><ele>444.0</ele><time>2026-05-04T09:19:20.702Z</time></trkpt><trkpt lat="45.655025" lon="9.8943033"><ele>444.0</ele><time>2026-05-04T09:19:21.702Z</time></trkpt><trkpt lat="45.6551617" lon="9.8943"><ele>444.0</ele><time>2026-05-04T09:19:22.702Z</time></trkpt><trkpt lat="45.6552883" lon="9.8942867"><ele>444.0</ele><time>2026-05-04T09:19:23.702Z</time></trkpt><trkpt lat="45.655415" lon="9.89429"><ele>442.25</ele><time>2026-05-04T09:19:24.7Z</time></trkpt><trkpt lat="45.6555417" lon="9.8942867"><ele>440.5</ele><time>2026-05-04T09:19:25.702Z</time></trkpt><trkpt lat="45.6556633" lon="9.89429"><ele>438.75</ele><time>2026-05-04T09:19:26.699Z</time></trkpt><trkpt lat="45.6557833" lon="9.89429"><ele>437.0</ele><time>2026-05-04T09:19:27.701Z</time></trkpt><trkpt lat="45.655905" lon="9.8942817"><ele>437.0</ele><time>2026-05-04T09:19:28.701Z</time></trkpt><trkpt lat="45.6560233" lon="9.8942683"><ele>437.0</ele><time>2026-05-04T09:19:29.702Z</time></trkpt><trkpt lat="45.6561467" lon="9.8942283"><ele>437.0</ele><time>2026-05-04T09:19:30.701Z</time></trkpt><trkpt lat="45.6562617" lon="9.8941767"><ele>437.0</ele><time>2026-05-04T09:19:31.702Z</time></trkpt><trkpt lat="45.6563683" lon="9.894105"><ele>433.75</ele><time>2026-05-04T09:19:32.702Z</time></trkpt><trkpt lat="45.6564683" lon="9.89403"><ele>430.5</ele><time>2026-05-04T09:19:33.698Z</time></trkpt><trkpt lat="45.65657" lon="9.8939467"><ele>427.25</ele><time>2026-05-04T09:19:34.702Z</time></trkpt><trkpt lat="45.6566617" lon="9.8938567"><ele>424.0</ele><time>2026-05-04T09:19:35.702Z</time></trkpt><trkpt lat="45.65676" lon="9.8937683"><ele>424.0</ele><time>2026-05-04T09:19:36.702Z</time></trkpt><trkpt lat="45.6568717" lon="9.8937133"><ele>424.0</ele><time>2026-05-04T09:19:37.701Z</time></trkpt><trkpt lat="45.65698" lon="9.8937117"><ele>424.0</ele><time>2026-05-04T09:19:38.702Z</time></trkpt><trkpt lat="45.6570867" lon="9.89376"><ele>424.0</ele><time>2026-05-04T09:19:39.702Z</time></trkpt><trkpt lat="45.6571867" lon="9.893835"><ele>422.0</ele><time>2026-05-04T09:19:40.702Z</time></trkpt><trkpt lat="45.6572883" lon="9.8939017"><ele>420.0</ele><time>2026-05-04T09:19:41.702Z</time></trkpt><trkpt lat="45.6573933" lon="9.8939417"><ele>418.0</ele><time>2026-05-04T09:19:42.702Z</time></trkpt><trkpt lat="45.6574967" lon="9.8939517"><ele>416.0</ele><time>2026-05-04T09:19:43.702Z</time></trkpt><trkpt lat="45.657605" lon="9.893915"><ele>414.0</ele><time>2026-05-04T09:19:44.702Z</time></trkpt><trkpt lat="45.657715" lon="9.8938333"><ele>413.25</ele><time>2026-05-04T09:19:45.702Z</time></trkpt><trkpt lat="45.6578167" lon="9.893725"><ele>412.5</ele><time>2026-05-04T09:19:46.702Z</time></trkpt><trkpt lat="45.6579017" lon="9.8936033"><ele>411.75</ele><time>2026-05-04T09:19:47.702Z</time></trkpt><trkpt lat="45.6579833" lon="9.8934867"><ele>411.0</ele><time>2026-05-04T09:19:48.697Z</time></trkpt><trkpt lat="45.65808" lon="9.8933917"><ele>411.0</ele><time>2026-05-04T09:19:49.702Z</time></trkpt><trkpt lat="45.6581967" lon="9.8933283"><ele>411.0</ele><time>2026-05-04T09:19:50.702Z</time></trkpt><trkpt lat="45.658325" lon="9.8932917"><ele>411.0</ele><time>2026-05-04T09:19:51.702Z</time></trkpt><trkpt lat="45.65845" lon="9.8932583"><ele>411.0</ele><time>2026-05-04T09:19:52.699Z</time></trkpt><trkpt lat="45.6585717" lon="9.893225"><ele>406.25</ele><time>2026-05-04T09:19:53.699Z</time></trkpt><trkpt lat="45.6586867" lon="9.8931817"><ele>401.5</ele><time>2026-05-04T09:19:54.702Z</time></trkpt><trkpt lat="45.65879" lon="9.8931117"><ele>396.75</ele><time>2026-05-04T09:19:55.702Z</time></trkpt><trkpt lat="45.6588917" lon="9.8930233"><ele>392.0</ele><time>2026-05-04T09:19:56.701Z</time></trkpt><trkpt lat="45.6589817" lon="9.89292"><ele>392.0</ele><time>2026-05-04T09:19:57.702Z</time></trkpt><trkpt lat="45.6590517" lon="9.8928033"><ele>392.0</ele><time>2026-05-04T09:19:58.701Z</time></trkpt><trkpt lat="45.659115" lon="9.8926717"><ele>392.0</ele><time>2026-05-04T09:19:59.702Z</time></trkpt><trkpt lat="45.6591767" lon="9.892545"><ele>392.0</ele><time>2026-05-04T09:20:00.702Z</time></trkpt><trkpt lat="45.6592633" lon="9.892435"><ele>392.0</ele><time>2026-05-04T09:20:01.702Z</time></trkpt><trkpt lat="45.6593617" lon="9.892375"><ele>390.25</ele><time>2026-05-04T09:20:02.696Z</time></trkpt><trkpt lat="45.65947" lon="9.8923517"><ele>388.5</ele><time>2026-05-04T09:20:03.702Z</time></trkpt><trkpt lat="45.65958" lon="9.8923167"><ele>386.75</ele><time>2026-05-04T09:20:04.692Z</time></trkpt><trkpt lat="45.6596833" lon="9.8922317"><ele>385.0</ele><time>2026-05-04T09:20:05.701Z</time></trkpt><trkpt lat="45.6597633" lon="9.892115"><ele>385.0</ele><time>2026-05-04T09:20:06.702Z</time></trkpt><trkpt lat="45.6598333" lon="9.8919733"><ele>385.0</ele><time>2026-05-04T09:20:07.702Z</time></trkpt><trkpt lat="45.6598983" lon="9.8918417"><ele>385.0</ele><time>2026-05-04T09:20:08.702Z</time></trkpt><trkpt lat="45.6599833" lon="9.8917433"><ele>385.0</ele><time>2026-05-04T09:20:09.702Z</time></trkpt><trkpt lat="45.6600933" lon="9.891685"><ele>385.5</ele><time>2026-05-04T09:20:10.701Z</time></trkpt><trkpt lat="45.660215" lon="9.8916533"><ele>386.0</ele><time>2026-05-04T09:20:11.702Z</time></trkpt><trkpt lat="45.6603233" lon="9.8916083"><ele>386.5</ele><time>2026-05-04T09:20:12.702Z</time></trkpt><trkpt lat="45.6604267" lon="9.8915433"><ele>387.0</ele><time>2026-05-04T09:20:13.7Z</time></trkpt><trkpt lat="45.6605333" lon="9.8915067"><ele>387.0</ele><time>2026-05-04T09:20:14.701Z</time></trkpt><trkpt lat="45.6606417" lon="9.8915167"><ele>387.0</ele><time>2026-05-04T09:20:15.702Z</time></trkpt><trkpt lat="45.6607467" lon="9.8915617"><ele>387.0</ele><time>2026-05-04T09:20:16.702Z</time></trkpt><trkpt lat="45.660855" lon="9.8916033"><ele>387.0</ele><time>2026-05-04T09:20:17.702Z</time></trkpt><trkpt lat="45.660965" lon="9.8916133"><ele>387.0</ele><time>2026-05-04T09:20:18.702Z</time></trkpt><trkpt lat="45.6610633" lon="9.8915867"><ele>384.25</ele><time>2026-05-04T09:20:19.702Z</time></trkpt><trkpt lat="45.6611617" lon="9.8915083"><ele>381.5</ele><time>2026-05-04T09:20:20.702Z</time></trkpt><trkpt lat="45.66125" lon="9.8914"><ele>378.75</ele><time>2026-05-04T09:20:21.687Z</time></trkpt><trkpt lat="45.6613567" lon="9.89132"><ele>376.0</ele><time>2026-05-04T09:20:22.702Z</time></trkpt><trkpt lat="45.661465" lon="9.8912767"><ele>376.0</ele><time>2026-05-04T09:20:23.702Z</time></trkpt><trkpt lat="45.661575" lon="9.8912283"><ele>376.0</ele><time>2026-05-04T09:20:24.702Z</time></trkpt><trkpt lat="45.66168" lon="9.89116"><ele>376.0</ele><time>2026-05-04T09:20:25.702Z</time></trkpt><trkpt lat="45.6617733" lon="9.891095"><ele>376.0</ele><time>2026-05-04T09:20:26.702Z</time></trkpt><trkpt lat="45.6618583" lon="9.89103"><ele>376.0</ele><time>2026-05-04T09:20:27.702Z</time></trkpt><trkpt lat="45.6619467" lon="9.8909633"><ele>375.4</ele><time>2026-05-04T09:20:28.702Z</time></trkpt><trkpt lat="45.66204" lon="9.8909017"><ele>374.8</ele><time>2026-05-04T09:20:29.702Z</time></trkpt><trkpt lat="45.66213" lon="9.8908167"><ele>374.2</ele><time>2026-05-04T09:20:30.702Z</time></trkpt><trkpt lat="45.6622083" lon="9.8907083"><ele>373.59999999999997</ele><time>2026-05-04T09:20:31.702Z</time></trkpt><trkpt lat="45.6622783" lon="9.8905817"><ele>373.0</ele><time>2026-05-04T09:20:32.702Z</time></trkpt><trkpt lat="45.6623467" lon="9.890465"><ele>373.0</ele><time>2026-05-04T09:20:33.702Z</time></trkpt><trkpt lat="45.6624217" lon="9.890365"><ele>373.0</ele><time>2026-05-04T09:20:34.702Z</time></trkpt><trkpt lat="45.6625133" lon="9.8902933"><ele>373.0</ele><time>2026-05-04T09:20:35.702Z</time></trkpt><trkpt lat="45.6626233" lon="9.89025"><ele>373.0</ele><time>2026-05-04T09:20:36.702Z</time></trkpt><trkpt lat="45.6627167" lon="9.8902383"><ele>373.0</ele><time>2026-05-04T09:20:37.702Z</time></trkpt><trkpt lat="45.6628233" lon="9.8902533"><ele>370.5</ele><time>2026-05-04T09:20:38.701Z</time></trkpt><trkpt lat="45.6629383" lon="9.8902767"><ele>368.0</ele><time>2026-05-04T09:20:39.693Z</time></trkpt><trkpt lat="45.66305" lon="9.8903017"><ele>365.5</ele><time>2026-05-04T09:20:40.697Z</time></trkpt><trkpt lat="45.6631667" lon="9.8902933"><ele>363.0</ele><time>2026-05-04T09:20:41.702Z</time></trkpt><trkpt lat="45.6632733" lon="9.8902883"><ele>363.0</ele><time>2026-05-04T09:20:42.702Z</time></trkpt><trkpt lat="45.6633783" lon="9.8902983"><ele>363.0</ele><time>2026-05-04T09:20:43.702Z</time></trkpt><trkpt lat="45.6634933" lon="9.8903333"><ele>363.0</ele><time>2026-05-04T09:20:44.702Z</time></trkpt><trkpt lat="45.6635967" lon="9.8903883"><ele>363.0</ele><time>2026-05-04T09:20:45.701Z</time></trkpt><trkpt lat="45.6637033" lon="9.89047"><ele>362.0</ele><time>2026-05-04T09:20:46.702Z</time></trkpt><trkpt lat="45.6638033" lon="9.890555"><ele>361.0</ele><time>2026-05-04T09:20:47.702Z</time></trkpt><trkpt lat="45.66391" lon="9.8906383"><ele>360.0</ele><time>2026-05-04T09:20:48.702Z</time></trkpt><trkpt lat="45.664015" lon="9.8907117"><ele>359.0</ele><time>2026-05-04T09:20:49.702Z</time></trkpt><trkpt lat="45.6641217" lon="9.8908017"><ele>359.0</ele><time>2026-05-04T09:20:50.694Z</time></trkpt><trkpt lat="45.6642167" lon="9.8909067"><ele>359.0</ele><time>2026-05-04T09:20:51.698Z</time></trkpt><trkpt lat="45.66431" lon="9.89102"><ele>359.0</ele><time>2026-05-04T09:20:52.698Z</time></trkpt><trkpt lat="45.6643783" lon="9.8911467"><ele>359.0</ele><time>2026-05-04T09:20:53.702Z</time></trkpt><trkpt lat="45.66445" lon="9.8912867"><ele>356.25</ele><time>2026-05-04T09:20:54.702Z</time></trkpt><trkpt lat="45.6645167" lon="9.8914217"><ele>353.5</ele><time>2026-05-04T09:20:55.702Z</time></trkpt><trkpt lat="45.664565" lon="9.8915667"><ele>350.75</ele><time>2026-05-04T09:20:56.702Z</time></trkpt><trkpt lat="45.6646017" lon="9.8917233"><ele>348.0</ele><time>2026-05-04T09:20:57.701Z</time></trkpt><trkpt lat="45.6646517" lon="9.8918767"><ele>344.75</ele><time>2026-05-04T09:20:58.702Z</time></trkpt><trkpt lat="45.6647067" lon="9.8920167"><ele>341.5</ele><time>2026-05-04T09:20:59.702Z</time></trkpt><trkpt lat="45.6647717" lon="9.8921533"><ele>338.25</ele><time>2026-05-04T09:21:00.702Z</time></trkpt><trkpt lat="45.6648233" lon="9.8922983"><ele>335.0</ele><time>2026-05-04T09:21:01.702Z</time></trkpt><trkpt lat="45.664845" lon="9.8924617"><ele>332.25</ele><time>2026-05-04T09:21:02.702Z</time></trkpt><trkpt lat="45.6648483" lon="9.89264"><ele>329.5</ele><time>2026-05-04T09:21:03.692Z</time></trkpt><trkpt lat="45.664825" lon="9.8928317"><ele>326.75</ele><time>2026-05-04T09:21:04.702Z</time></trkpt><trkpt lat="45.6647883" lon="9.8930383"><ele>324.0</ele><time>2026-05-04T09:21:05.702Z</time></trkpt><trkpt lat="45.664745" lon="9.8932433"><ele>321.25</ele><time>2026-05-04T09:21:06.702Z</time></trkpt><trkpt lat="45.6647117" lon="9.8934517"><ele>318.5</ele><time>2026-05-04T09:21:07.702Z</time></trkpt><trkpt lat="45.6646767" lon="9.8936633"><ele>315.75</ele><time>2026-05-04T09:21:08.702Z</time></trkpt><trkpt lat="45.66464" lon="9.8938533"><ele>313.0</ele><time>2026-05-04T09:21:09.702Z</time></trkpt><trkpt lat="45.6646017" lon="9.8940433"><ele>313.0</ele><time>2026-05-04T09:21:10.702Z</time></trkpt><trkpt lat="45.6645767" lon="9.8942267"><ele>313.0</ele><time>2026-05-04T09:21:11.701Z</time></trkpt><trkpt lat="45.664575" lon="9.89442"><ele>313.0</ele><time>2026-05-04T09:21:12.697Z</time></trkpt><trkpt lat="45.6645867" lon="9.8945983"><ele>313.0</ele><time>2026-05-04T09:21:13.702Z</time></trkpt><trkpt lat="45.6646067" lon="9.8947933"><ele>311.75</ele><time>2026-05-04T09:21:14.702Z</time></trkpt><trkpt lat="45.6646233" lon="9.89498"><ele>310.5</ele><time>2026-05-04T09:21:15.702Z</time></trkpt><trkpt lat="45.6646283" lon="9.8951583"><ele>309.25</ele><time>2026-05-04T09:21:16.701Z</time></trkpt><trkpt lat="45.66463" lon="9.8953267"><ele>308.0</ele><time>2026-05-04T09:21:17.701Z</time></trkpt><trkpt lat="45.664625" lon="9.8954983"><ele>306.5</ele><time>2026-05-04T09:21:18.697Z</time></trkpt><trkpt lat="45.66461" lon="9.8956683"><ele>305.0</ele><time>2026-05-04T09:21:19.702Z</time></trkpt><trkpt lat="45.66459" lon="9.8958417"><ele>303.5</ele><time>2026-05-04T09:21:20.702Z</time></trkpt><trkpt lat="45.6645867" lon="9.8960133"><ele>302.0</ele><time>2026-05-04T09:21:21.702Z</time></trkpt><trkpt lat="45.6645967" lon="9.8961933"><ele>300.0</ele><time>2026-05-04T09:21:22.701Z</time></trkpt><trkpt lat="45.6646183" lon="9.896375"><ele>298.0</ele><time>2026-05-04T09:21:23.702Z</time></trkpt><trkpt lat="45.66464" lon="9.89656"><ele>296.0</ele><time>2026-05-04T09:21:24.695Z</time></trkpt><trkpt lat="45.66467" lon="9.8967467"><ele>294.0</ele><time>2026-05-04T09:21:25.702Z</time></trkpt><trkpt lat="45.6646967" lon="9.89693"><ele>291.5</ele><time>2026-05-04T09:21:26.702Z</time></trkpt><trkpt lat="45.6647217" lon="9.89712"><ele>289.0</ele><time>2026-05-04T09:21:27.701Z</time></trkpt><trkpt lat="45.664725" lon="9.8973183"><ele>286.5</ele><time>2026-05-04T09:21:28.701Z</time></trkpt><trkpt lat="45.664715" lon="9.8975117"><ele>284.0</ele><time>2026-05-04T09:21:29.702Z</time></trkpt><trkpt lat="45.66468" lon="9.8977083"><ele>281.75</ele><time>2026-05-04T09:21:30.701Z</time></trkpt><trkpt lat="45.6646283" lon="9.897895"><ele>279.5</ele><time>2026-05-04T09:21:31.702Z</time></trkpt><trkpt lat="45.6645717" lon="9.8980617"><ele>277.25</ele><time>2026-05-04T09:21:32.702Z</time></trkpt><trkpt lat="45.6645083" lon="9.89821"><ele>275.0</ele><time>2026-05-04T09:21:33.702Z</time></trkpt><trkpt lat="45.6644567" lon="9.89835"><ele>274.0</ele><time>2026-05-04T09:21:34.699Z</time></trkpt><trkpt lat="45.6644317" lon="9.898495"><ele>273.0</ele><time>2026-05-04T09:21:35.702Z</time></trkpt><trkpt lat="45.6644433" lon="9.89864"><ele>272.0</ele><time>2026-05-04T09:21:36.701Z</time></trkpt><trkpt lat="45.6644783" lon="9.8987933"><ele>271.0</ele><time>2026-05-04T09:21:37.702Z</time></trkpt><trkpt lat="45.6645133" lon="9.898955"><ele>270.0</ele><time>2026-05-04T09:21:38.702Z</time></trkpt><trkpt lat="45.6645333" lon="9.899135"><ele>267.75</ele><time>2026-05-04T09:21:39.698Z</time></trkpt><trkpt lat="45.664545" lon="9.8993283"><ele>265.5</ele><time>2026-05-04T09:21:40.7Z</time></trkpt><trkpt lat="45.6645567" lon="9.8995217"><ele>263.25</ele><time>2026-05-04T09:21:41.702Z</time></trkpt><trkpt lat="45.6645617" lon="9.8997133"><ele>261.0</ele><time>2026-05-04T09:21:42.702Z</time></trkpt><trkpt lat="45.6645683" lon="9.8999033"><ele>260.5</ele><time>2026-05-04T09:21:43.702Z</time></trkpt><trkpt lat="45.6645733" lon="9.9000883"><ele>260.0</ele><time>2026-05-04T09:21:44.702Z</time></trkpt><trkpt lat="45.6645833" lon="9.9002733"><ele>259.5</ele><time>2026-05-04T09:21:45.702Z</time></trkpt><trkpt lat="45.6645883" lon="9.9004533"><ele>259.0</ele><time>2026-05-04T09:21:46.702Z</time></trkpt><trkpt lat="45.6646017" lon="9.90062"><ele>259.0</ele><time>2026-05-04T09:21:47.702Z</time></trkpt><trkpt lat="45.66462" lon="9.9007933"><ele>259.0</ele><time>2026-05-04T09:21:48.701Z</time></trkpt><trkpt lat="45.6646367" lon="9.9009733"><ele>259.0</ele><time>2026-05-04T09:21:49.701Z</time></trkpt><trkpt lat="45.6646467" lon="9.9011567"><ele>259.0</ele><time>2026-05-04T09:21:50.701Z</time></trkpt><trkpt lat="45.66465" lon="9.901345"><ele>258.75</ele><time>2026-05-04T09:21:51.702Z</time></trkpt><trkpt lat="45.6646533" lon="9.9015417"><ele>258.5</ele><time>2026-05-04T09:21:52.697Z</time></trkpt><trkpt lat="45.6646583" lon="9.9017383"><ele>258.25</ele><time>2026-05-04T09:21:53.699Z</time></trkpt><trkpt lat="45.6646683" lon="9.901935"><ele>258.0</ele><time>2026-05-04T09:21:54.702Z</time></trkpt><trkpt lat="45.66468" lon="9.902125"><ele>256.75</ele><time>2026-05-04T09:21:55.702Z</time></trkpt><trkpt lat="45.6646867" lon="9.902325"><ele>255.5</ele><time>2026-05-04T09:21:56.7Z</time></trkpt><trkpt lat="45.6647067" lon="9.90253"><ele>254.25</ele><time>2026-05-04T09:21:57.702Z</time></trkpt><trkpt lat="45.6647333" lon="9.902735"><ele>253.0</ele><time>2026-05-04T09:21:58.702Z</time></trkpt><trkpt lat="45.6647717" lon="9.90294"><ele>252.25</ele><time>2026-05-04T09:21:59.702Z</time></trkpt><trkpt lat="45.66481" lon="9.9031367"><ele>251.5</ele><time>2026-05-04T09:22:00.702Z</time></trkpt><trkpt lat="45.6648367" lon="9.90335"><ele>250.75</ele><time>2026-05-04T09:22:01.702Z</time></trkpt><trkpt lat="45.6648583" lon="9.9035617"><ele>250.0</ele><time>2026-05-04T09:22:02.702Z</time></trkpt><trkpt lat="45.6648667" lon="9.9037817"><ele>249.66666666666666</ele><time>2026-05-04T09:22:03.699Z</time></trkpt><trkpt lat="45.6648733" lon="9.9040033"><ele>249.33333333333331</ele><time>2026-05-04T09:22:04.686Z</time></trkpt><trkpt lat="45.664875" lon="9.9042283"><ele>249.0</ele><time>2026-05-04T09:22:05.702Z</time></trkpt><trkpt lat="45.6648717" lon="9.9044483"><ele>249.0</ele><time>2026-05-04T09:22:06.7Z</time></trkpt><trkpt lat="45.6648667" lon="9.9046717"><ele>249.0</ele><time>2026-05-04T09:22:07.701Z</time></trkpt><trkpt lat="45.6648467" lon="9.9048833"><ele>249.0</ele><time>2026-05-04T09:22:08.701Z</time></trkpt><trkpt lat="45.664825" lon="9.905095"><ele>248.5</ele><time>2026-05-04T09:22:09.695Z</time></trkpt><trkpt lat="45.6648067" lon="9.9052917"><ele>248.0</ele><time>2026-05-04T09:22:10.701Z</time></trkpt><trkpt lat="45.6647983" lon="9.905475"><ele>247.5</ele><time>2026-05-04T09:22:11.702Z</time></trkpt><trkpt lat="45.6647983" lon="9.9056567"><ele>247.0</ele><time>2026-05-04T09:22:12.702Z</time></trkpt><trkpt lat="45.6648267" lon="9.9058433"><ele>247.0</ele><time>2026-05-04T09:22:13.701Z</time></trkpt><trkpt lat="45.6648717" lon="9.9060317"><ele>247.0</ele><time>2026-05-04T09:22:14.7Z</time></trkpt><trkpt lat="45.6649117" lon="9.90622"><ele>247.0</ele><time>2026-05-04T09:22:15.701Z</time></trkpt><trkpt lat="45.6649367" lon="9.90642"><ele>247.0</ele><time>2026-05-04T09:22:16.702Z</time></trkpt><trkpt lat="45.66497" lon="9.9066067"><ele>247.0</ele><time>2026-05-04T09:22:17.7Z</time></trkpt><trkpt lat="45.6650133" lon="9.9067917"><ele>247.0</ele><time>2026-05-04T09:22:18.702Z</time></trkpt><trkpt lat="45.6650533" lon="9.9069767"><ele>247.0</ele><time>2026-05-04T09:22:19.699Z</time></trkpt><trkpt lat="45.6650967" lon="9.9071417"><ele>247.0</ele><time>2026-05-04T09:22:20.702Z</time></trkpt><trkpt lat="45.6651317" lon="9.9073183"><ele>247.0</ele><time>2026-05-04T09:22:21.702Z</time></trkpt><trkpt lat="45.6651683" lon="9.907475"><ele>247.0</ele><time>2026-05-04T09:22:22.702Z</time></trkpt><trkpt lat="45.6652067" lon="9.9076233"><ele>247.0</ele><time>2026-05-04T09:22:23.702Z</time></trkpt><trkpt lat="45.66524" lon="9.9077733"><ele>247.0</ele><time>2026-05-04T09:22:24.701Z</time></trkpt><trkpt lat="45.66527" lon="9.9079233"><ele>247.0</ele><time>2026-05-04T09:22:25.702Z</time></trkpt><trkpt lat="45.6653017" lon="9.908065"><ele>246.8</ele><time>2026-05-04T09:22:26.701Z</time></trkpt><trkpt lat="45.6653433" lon="9.9082017"><ele>246.6</ele><time>2026-05-04T09:22:27.701Z</time></trkpt><trkpt lat="45.66539" lon="9.9083183"><ele>246.40000000000003</ele><time>2026-05-04T09:22:28.702Z</time></trkpt><trkpt lat="45.6654417" lon="9.90843"><ele>246.20000000000002</ele><time>2026-05-04T09:22:29.702Z</time></trkpt><trkpt lat="45.665495" lon="9.9085283"><ele>246.0</ele><time>2026-05-04T09:22:30.692Z</time></trkpt><trkpt lat="45.6655433" lon="9.9086167"><ele>245.5</ele><time>2026-05-04T09:22:31.702Z</time></trkpt><trkpt lat="45.6655917" lon="9.9087083"><ele>245.0</ele><time>2026-05-04T09:22:32.702Z</time></trkpt><trkpt lat="45.6656417" lon="9.9088"><ele>244.5</ele><time>2026-05-04T09:22:33.696Z</time></trkpt><trkpt lat="45.6656917" lon="9.9088917"><ele>244.0</ele><time>2026-05-04T09:22:34.7Z</time></trkpt><trkpt lat="45.6657383" lon="9.90898"><ele>243.5</ele><time>2026-05-04T09:22:35.702Z</time></trkpt><trkpt lat="45.6657917" lon="9.9090717"><ele>243.0</ele><time>2026-05-04T09:22:36.702Z</time></trkpt><trkpt lat="45.6658433" lon="9.9091683"><ele>243.0</ele><time>2026-05-04T09:22:37.702Z</time></trkpt><trkpt lat="45.665895" lon="9.9092617"><ele>243.0</ele><time>2026-05-04T09:22:38.702Z</time></trkpt><trkpt lat="45.66595" lon="9.9093567"><ele>243.0</ele><time>2026-05-04T09:22:39.702Z</time></trkpt><trkpt lat="45.666005" lon="9.909455"><ele>243.0</ele><time>2026-05-04T09:22:40.702Z</time></trkpt><trkpt lat="45.6660567" lon="9.909555"><ele>243.0</ele><time>2026-05-04T09:22:41.702Z</time></trkpt><trkpt lat="45.66611" lon="9.9096533"><ele>243.0</ele><time>2026-05-04T09:22:42.702Z</time></trkpt><trkpt lat="45.6661667" lon="9.9097567"><ele>243.8</ele><time>2026-05-04T09:22:43.701Z</time></trkpt><trkpt lat="45.6662233" lon="9.90986"><ele>244.60000000000002</ele><time>2026-05-04T09:22:44.702Z</time></trkpt><trkpt lat="45.6662817" lon="9.9099633"><ele>245.39999999999998</ele><time>2026-05-04T09:22:45.701Z</time></trkpt><trkpt lat="45.6663367" lon="9.9100767"><ele>246.2</ele><time>2026-05-04T09:22:46.702Z</time></trkpt><trkpt lat="45.6663933" lon="9.9102"><ele>247.0</ele><time>2026-05-04T09:22:47.698Z</time></trkpt><trkpt lat="45.6664467" lon="9.91033"><ele>247.39999999999998</ele><time>2026-05-04T09:22:48.7Z</time></trkpt><trkpt lat="45.6665017" lon="9.910455"><ele>247.79999999999998</ele><time>2026-05-04T09:22:49.702Z</time></trkpt><trkpt lat="45.6665533" lon="9.9105767"><ele>248.2</ele><time>2026-05-04T09:22:50.702Z</time></trkpt><trkpt lat="45.6666033" lon="9.9107"><ele>248.6</ele><time>2026-05-04T09:22:51.702Z</time></trkpt><trkpt lat="45.6666533" lon="9.9108167"><ele>249.0</ele><time>2026-05-04T09:22:52.702Z</time></trkpt><trkpt lat="45.6666983" lon="9.9109367"><ele>249.66666666666666</ele><time>2026-05-04T09:22:53.702Z</time></trkpt><trkpt lat="45.6667433" lon="9.9110483"><ele>250.33333333333331</ele><time>2026-05-04T09:22:54.701Z</time></trkpt><trkpt lat="45.6667767" lon="9.9111633"><ele>251.0</ele><time>2026-05-04T09:22:55.702Z</time></trkpt><trkpt lat="45.66681" lon="9.9112817"><ele>251.66666666666666</ele><time>2026-05-04T09:22:56.702Z</time></trkpt><trkpt lat="45.6668283" lon="9.91139"><ele>252.33333333333331</ele><time>2026-05-04T09:22:57.702Z</time></trkpt><trkpt lat="45.6668433" lon="9.91149"><ele>253.0</ele><time>2026-05-04T09:22:58.7Z</time></trkpt><trkpt lat="45.6668533" lon="9.9115867"><ele>253.00000000000003</ele><time>2026-05-04T09:22:59.701Z</time></trkpt><trkpt lat="45.6668667" lon="9.91168"><ele>253.0</ele><time>2026-05-04T09:23:00.701Z</time></trkpt><trkpt lat="45.6668833" lon="9.9117717"><ele>253.00000000000003</ele><time>2026-05-04T09:23:01.702Z</time></trkpt><trkpt lat="45.6669" lon="9.91187"><ele>253.00000000000003</ele><time>2026-05-04T09:23:02.702Z</time></trkpt><trkpt lat="45.6669133" lon="9.9119633"><ele>253.0</ele><time>2026-05-04T09:23:03.702Z</time></trkpt><trkpt lat="45.666935" lon="9.9120517"><ele>253.00000000000003</ele><time>2026-05-04T09:23:04.698Z</time></trkpt><trkpt lat="45.66695" lon="9.9121533"><ele>253.00000000000003</ele><time>2026-05-04T09:23:05.702Z</time></trkpt><trkpt lat="45.6669617" lon="9.912275"><ele>252.99999999999997</ele><time>2026-05-04T09:23:06.702Z</time></trkpt><trkpt lat="45.6669717" lon="9.912405"><ele>253.0</ele><time>2026-05-04T09:23:07.702Z</time></trkpt><trkpt lat="45.666975" lon="9.91253"><ele>253.0</ele><time>2026-05-04T09:23:08.702Z</time></trkpt><trkpt lat="45.6669517" lon="9.9126617"><ele>253.0</ele><time>2026-05-04T09:23:09.701Z</time></trkpt><trkpt lat="45.666935" lon="9.9127917"><ele>252.99999999999997</ele><time>2026-05-04T09:23:10.702Z</time></trkpt><trkpt lat="45.6669317" lon="9.9129067"><ele>253.0</ele><time>2026-05-04T09:23:11.702Z</time></trkpt><trkpt lat="45.66693" lon="9.9130217"><ele>253.0</ele><time>2026-05-04T09:23:12.702Z</time></trkpt><trkpt lat="45.6669333" lon="9.9131467"><ele>253.0</ele><time>2026-05-04T09:23:13.702Z</time></trkpt><trkpt lat="45.66694" lon="9.913275"><ele>253.0</ele><time>2026-05-04T09:23:14.702Z</time></trkpt><trkpt lat="45.6669467" lon="9.9134033"><ele>253.0</ele><time>2026-05-04T09:23:15.7Z</time></trkpt><trkpt lat="45.666955" lon="9.9135383"><ele>253.0</ele><time>2026-05-04T09:23:16.701Z</time></trkpt><trkpt lat="45.666965" lon="9.9136767"><ele>252.60000000000002</ele><time>2026-05-04T09:23:17.702Z</time></trkpt><trkpt lat="45.6669733" lon="9.913815"><ele>252.20000000000002</ele><time>2026-05-04T09:23:18.702Z</time></trkpt><trkpt lat="45.666985" lon="9.9139533"><ele>251.8</ele><time>2026-05-04T09:23:19.702Z</time></trkpt><trkpt lat="45.6669933" lon="9.91408"><ele>251.4</ele><time>2026-05-04T09:23:20.702Z</time></trkpt><trkpt lat="45.6670017" lon="9.9142"><ele>251.0</ele><time>2026-05-04T09:23:21.701Z</time></trkpt><trkpt lat="45.6670083" lon="9.9143183"><ele>250.28571428571425</ele><time>2026-05-04T09:23:22.702Z</time></trkpt><trkpt lat="45.6670183" lon="9.9144267"><ele>249.57142857142856</ele><time>2026-05-04T09:23:23.701Z</time></trkpt><trkpt lat="45.667025" lon="9.914535"><ele>248.85714285714286</ele><time>2026-05-04T09:23:24.7Z</time></trkpt><trkpt lat="45.6670333" lon="9.914635"><ele>248.14285714285714</ele><time>2026-05-04T09:23:25.696Z</time></trkpt><trkpt lat="45.6670467" lon="9.9147317"><ele>247.42857142857144</ele><time>2026-05-04T09:23:26.694Z</time></trkpt><trkpt lat="45.66707" lon="9.91483"><ele>246.71428571428575</ele><time>2026-05-04T09:23:27.702Z</time></trkpt><trkpt lat="45.667085" lon="9.91494"><ele>246.00000000000003</ele><time>2026-05-04T09:23:28.702Z</time></trkpt><trkpt lat="45.667085" lon="9.915065"><ele>245.16666666666666</ele><time>2026-05-04T09:23:29.698Z</time></trkpt><trkpt lat="45.6670783" lon="9.9151883"><ele>244.33333333333331</ele><time>2026-05-04T09:23:30.702Z</time></trkpt><trkpt lat="45.6670517" lon="9.9153067"><ele>243.5</ele><time>2026-05-04T09:23:31.702Z</time></trkpt><trkpt lat="45.6670033" lon="9.915415"><ele>242.66666666666666</ele><time>2026-05-04T09:23:32.702Z</time></trkpt><trkpt lat="45.66696" lon="9.9155183"><ele>241.83333333333331</ele><time>2026-05-04T09:23:33.702Z</time></trkpt><trkpt lat="45.6669183" lon="9.915625"><ele>241.0</ele><time>2026-05-04T09:23:34.698Z</time></trkpt><trkpt lat="45.6668833" lon="9.9157333"><ele>240.8</ele><time>2026-05-04T09:23:35.702Z</time></trkpt><trkpt lat="45.6668583" lon="9.9158517"><ele>240.60000000000002</ele><time>2026-05-04T09:23:36.702Z</time></trkpt><trkpt lat="45.6668467" lon="9.9159817"><ele>240.4</ele><time>2026-05-04T09:23:37.702Z</time></trkpt><trkpt lat="45.6668467" lon="9.9161133"><ele>240.2</ele><time>2026-05-04T09:23:38.695Z</time></trkpt><trkpt lat="45.666855" lon="9.9162483"><ele>240.0</ele><time>2026-05-04T09:23:39.701Z</time></trkpt><trkpt lat="45.66687" lon="9.9163833"><ele>239.8</ele><time>2026-05-04T09:23:40.691Z</time></trkpt><trkpt lat="45.6668933" lon="9.9165217"><ele>239.6</ele><time>2026-05-04T09:23:41.702Z</time></trkpt><trkpt lat="45.6669183" lon="9.91665"><ele>239.39999999999998</ele><time>2026-05-04T09:23:42.691Z</time></trkpt><trkpt lat="45.6669483" lon="9.91677"><ele>239.2</ele><time>2026-05-04T09:23:43.702Z</time></trkpt><trkpt lat="45.6669767" lon="9.9168883"><ele>239.0</ele><time>2026-05-04T09:23:44.702Z</time></trkpt><trkpt lat="45.667" lon="9.9170033"><ele>238.66666666666669</ele><time>2026-05-04T09:23:45.695Z</time></trkpt><trkpt lat="45.6670267" lon="9.9171117"><ele>238.33333333333334</ele><time>2026-05-04T09:23:46.688Z</time></trkpt><trkpt lat="45.6670533" lon="9.9172267"><ele>238.0</ele><time>2026-05-04T09:23:47.694Z</time></trkpt><trkpt lat="45.6670817" lon="9.9173467"><ele>237.66666666666669</ele><time>2026-05-04T09:23:48.702Z</time></trkpt><trkpt lat="45.6671083" lon="9.91747"><ele>237.33333333333334</ele><time>2026-05-04T09:23:49.702Z</time></trkpt><trkpt lat="45.6671333" lon="9.9175967"><ele>237.0</ele><time>2026-05-04T09:23:50.702Z</time></trkpt><trkpt lat="45.6671483" lon="9.917735"><ele>236.66666666666666</ele><time>2026-05-04T09:23:51.702Z</time></trkpt><trkpt lat="45.66716" lon="9.9178633"><ele>236.33333333333331</ele><time>2026-05-04T09:23:52.702Z</time></trkpt><trkpt lat="45.6671633" lon="9.9179733"><ele>236.0</ele><time>2026-05-04T09:23:53.702Z</time></trkpt><trkpt lat="45.6671517" lon="9.9180783"><ele>235.66666666666666</ele><time>2026-05-04T09:23:54.696Z</time></trkpt><trkpt lat="45.6671367" lon="9.9181783"><ele>235.33333333333331</ele><time>2026-05-04T09:23:55.701Z</time></trkpt><trkpt lat="45.66714" lon="9.9182817"><ele>235.0</ele><time>2026-05-04T09:23:56.702Z</time></trkpt><trkpt lat="45.6671717" lon="9.91837"><ele>234.6</ele><time>2026-05-04T09:23:57.701Z</time></trkpt><trkpt lat="45.667235" lon="9.9184383"><ele>234.2</ele><time>2026-05-04T09:23:58.701Z</time></trkpt><trkpt lat="45.6673267" lon="9.918495"><ele>233.8</ele><time>2026-05-04T09:23:59.701Z</time></trkpt><trkpt lat="45.6674183" lon="9.9185617"><ele>233.4</ele><time>2026-05-04T09:24:00.697Z</time></trkpt><trkpt lat="45.6675067" lon="9.9186267"><ele>233.0</ele><time>2026-05-04T09:24:01.702Z</time></trkpt><trkpt lat="45.667605" lon="9.9187"><ele>233.0</ele><time>2026-05-04T09:24:02.702Z</time></trkpt><trkpt lat="45.6677067" lon="9.918775"><ele>233.0</ele><time>2026-05-04T09:24:03.702Z</time></trkpt><trkpt lat="45.66781" lon="9.9188517"><ele>233.0</ele><time>2026-05-04T09:24:04.699Z</time></trkpt><trkpt lat="45.6679183" lon="9.91892"><ele>233.0</ele><time>2026-05-04T09:24:05.702Z</time></trkpt><trkpt lat="45.6680283" lon="9.91899"><ele>233.0</ele><time>2026-05-04T09:24:06.701Z</time></trkpt><trkpt lat="45.6681433" lon="9.9190583"><ele>233.0</ele><time>2026-05-04T09:24:07.695Z</time></trkpt><trkpt lat="45.6682533" lon="9.9191367"><ele>233.0</ele><time>2026-05-04T09:24:08.702Z</time></trkpt><trkpt lat="45.6683617" lon="9.9192117"><ele>233.0</ele><time>2026-05-04T09:24:09.702Z</time></trkpt><trkpt lat="45.6684633" lon="9.91928"><ele>233.00000000000003</ele><time>2026-05-04T09:24:10.701Z</time></trkpt><trkpt lat="45.6685583" lon="9.9193333"><ele>233.0</ele><time>2026-05-04T09:24:11.692Z</time></trkpt><trkpt lat="45.6686417" lon="9.9193717"><ele>233.0</ele><time>2026-05-04T09:24:12.702Z</time></trkpt><trkpt lat="45.6687167" lon="9.9194117"><ele>233.0</ele><time>2026-05-04T09:24:13.702Z</time></trkpt><trkpt lat="45.6687917" lon="9.9194483"><ele>233.00000000000003</ele><time>2026-05-04T09:24:14.701Z</time></trkpt><trkpt lat="45.6688517" lon="9.9194783"><ele>233.0</ele><time>2026-05-04T09:24:15.695Z</time></trkpt><trkpt lat="45.66892" lon="9.91951"><ele>233.60000000000002</ele><time>2026-05-04T09:24:17.702Z</time></trkpt><trkpt lat="45.66898" lon="9.9194583"><ele>234.20000000000002</ele><time>2026-05-04T09:24:22.702Z</time></trkpt><trkpt lat="45.669015" lon="9.9193217"><ele>234.8</ele><time>2026-05-04T09:24:24.702Z</time></trkpt><trkpt lat="45.66907" lon="9.9191617"><ele>235.4</ele><time>2026-05-04T09:24:26.702Z</time></trkpt><trkpt lat="45.6691833" lon="9.919105"><ele>236.0</ele><time>2026-05-04T09:24:28.702Z</time></trkpt><trkpt lat="45.6692633" lon="9.9191317"><ele>236.00000000000003</ele><time>2026-05-04T09:24:29.702Z</time></trkpt><trkpt lat="45.6693467" lon="9.9191683"><ele>236.0</ele><time>2026-05-04T09:24:30.698Z</time></trkpt><trkpt lat="45.6694383" lon="9.9191983"><ele>236.0</ele><time>2026-05-04T09:24:31.702Z</time></trkpt><trkpt lat="45.6695267" lon="9.9192333"><ele>236.0</ele><time>2026-05-04T09:24:32.701Z</time></trkpt><trkpt lat="45.669615" lon="9.9192617"><ele>236.00000000000003</ele><time>2026-05-04T09:24:33.701Z</time></trkpt><trkpt lat="45.6696883" lon="9.9193033"><ele>236.0</ele><time>2026-05-04T09:24:34.696Z</time></trkpt><trkpt lat="45.6697583" lon="9.9193717"><ele>236.60000000000002</ele><time>2026-05-04T09:24:35.702Z</time></trkpt><trkpt lat="45.6698083" lon="9.9194633"><ele>237.20000000000002</ele><time>2026-05-04T09:24:36.698Z</time></trkpt><trkpt lat="45.66986" lon="9.9195667"><ele>237.79999999999998</ele><time>2026-05-04T09:24:37.7Z</time></trkpt><trkpt lat="45.6699067" lon="9.9196867"><ele>238.39999999999998</ele><time>2026-05-04T09:24:38.692Z</time></trkpt><trkpt lat="45.66996" lon="9.9198133"><ele>239.0</ele><time>2026-05-04T09:24:39.701Z</time></trkpt><trkpt lat="45.6700183" lon="9.9199417"><ele>239.0</ele><time>2026-05-04T09:24:40.702Z</time></trkpt><trkpt lat="45.6700717" lon="9.920065"><ele>238.99999999999997</ele><time>2026-05-04T09:24:41.702Z</time></trkpt><trkpt lat="45.6701283" lon="9.920185"><ele>238.99999999999997</ele><time>2026-05-04T09:24:42.701Z</time></trkpt><trkpt lat="45.6701783" lon="9.9203083"><ele>239.0</ele><time>2026-05-04T09:24:43.702Z</time></trkpt><trkpt lat="45.670215" lon="9.9204383"><ele>239.0</ele><time>2026-05-04T09:24:44.697Z</time></trkpt><trkpt lat="45.6702433" lon="9.9205817"><ele>238.2</ele><time>2026-05-04T09:24:45.701Z</time></trkpt><trkpt lat="45.670255" lon="9.9207483"><ele>237.39999999999998</ele><time>2026-05-04T09:24:46.701Z</time></trkpt><trkpt lat="45.6702533" lon="9.9209083"><ele>236.6</ele><time>2026-05-04T09:24:47.699Z</time></trkpt><trkpt lat="45.67023" lon="9.921055"><ele>235.8</ele><time>2026-05-04T09:24:48.7Z</time></trkpt><trkpt lat="45.6701983" lon="9.9211917"><ele>235.0</ele><time>2026-05-04T09:24:49.702Z</time></trkpt><trkpt lat="45.6701483" lon="9.9213133"><ele>234.8</ele><time>2026-05-04T09:24:50.702Z</time></trkpt><trkpt lat="45.6700917" lon="9.92141"><ele>234.6</ele><time>2026-05-04T09:24:51.7Z</time></trkpt><trkpt lat="45.670045" lon="9.9215217"><ele>234.39999999999998</ele><time>2026-05-04T09:24:52.691Z</time></trkpt><trkpt lat="45.670025" lon="9.9216533"><ele>234.2</ele><time>2026-05-04T09:24:53.702Z</time></trkpt><trkpt lat="45.6700433" lon="9.9217967"><ele>234.0</ele><time>2026-05-04T09:24:54.702Z</time></trkpt><trkpt lat="45.67008" lon="9.9219517"><ele>233.75</ele><time>2026-05-04T09:24:55.7Z</time></trkpt><trkpt lat="45.67014" lon="9.9221"><ele>233.5</ele><time>2026-05-04T09:24:56.701Z</time></trkpt><trkpt lat="45.6702033" lon="9.9222333"><ele>233.25</ele><time>2026-05-04T09:24:57.701Z</time></trkpt><trkpt lat="45.670275" lon="9.922355"><ele>233.0</ele><time>2026-05-04T09:24:58.701Z</time></trkpt><trkpt lat="45.6703617" lon="9.922465"><ele>233.0</ele><time>2026-05-04T09:24:59.701Z</time></trkpt><trkpt lat="45.67046" lon="9.9225617"><ele>233.0</ele><time>2026-05-04T09:25:00.691Z</time></trkpt><trkpt lat="45.6705467" lon="9.9226633"><ele>233.0</ele><time>2026-05-04T09:25:01.7Z</time></trkpt><trkpt lat="45.6706267" lon="9.92277"><ele>233.0</ele><time>2026-05-04T09:25:02.7Z</time></trkpt><trkpt lat="45.6706867" lon="9.9228983"><ele>233.0</ele><time>2026-05-04T09:25:03.693Z</time></trkpt><trkpt lat="45.6707367" lon="9.9230233"><ele>233.0</ele><time>2026-05-04T09:25:04.699Z</time></trkpt><trkpt lat="45.670765" lon="9.9231667"><ele>233.0</ele><time>2026-05-04T09:25:05.701Z</time></trkpt><trkpt lat="45.6707833" lon="9.92332"><ele>233.0</ele><time>2026-05-04T09:25:06.701Z</time></trkpt><trkpt lat="45.670805" lon="9.923475"><ele>233.0</ele><time>2026-05-04T09:25:07.7Z</time></trkpt><trkpt lat="45.6708267" lon="9.9236317"><ele>233.0</ele><time>2026-05-04T09:25:08.701Z</time></trkpt><trkpt lat="45.67085" lon="9.9237717"><ele>233.2</ele><time>2026-05-04T09:25:09.687Z</time></trkpt><trkpt lat="45.6708733" lon="9.92389"><ele>233.4</ele><time>2026-05-04T09:25:10.701Z</time></trkpt><trkpt lat="45.6708933" lon="9.92399"><ele>233.59999999999997</ele><time>2026-05-04T09:25:11.701Z</time></trkpt><trkpt lat="45.6709033" lon="9.9241217"><ele>233.79999999999998</ele><time>2026-05-04T09:25:13.701Z</time></trkpt><trkpt lat="45.6709783" lon="9.92419"><ele>234.0</ele><time>2026-05-04T09:25:16.696Z</time></trkpt><trkpt lat="45.67108" lon="9.9242667"><ele>234.2</ele><time>2026-05-04T09:25:18.701Z</time></trkpt><trkpt lat="45.6711217" lon="9.92434"><ele>234.39999999999998</ele><time>2026-05-04T09:25:19.701Z</time></trkpt><trkpt lat="45.6711583" lon="9.9244467"><ele>234.6</ele><time>2026-05-04T09:25:20.695Z</time></trkpt><trkpt lat="45.6711933" lon="9.9245833"><ele>234.8</ele><time>2026-05-04T09:25:21.701Z</time></trkpt><trkpt lat="45.671215" lon="9.92474"><ele>235.0</ele><time>2026-05-04T09:25:22.699Z</time></trkpt><trkpt lat="45.6712467" lon="9.9248917"><ele>235.0</ele><time>2026-05-04T09:25:23.699Z</time></trkpt><trkpt lat="45.67127" lon="9.9250467"><ele>235.0</ele><time>2026-05-04T09:25:24.701Z</time></trkpt><trkpt lat="45.6713033" lon="9.9252"><ele>235.0</ele><time>2026-05-04T09:25:25.701Z</time></trkpt><trkpt lat="45.6713417" lon="9.9253533"><ele>235.0</ele><time>2026-05-04T09:25:26.696Z</time></trkpt><trkpt lat="45.671365" lon="9.9254833"><ele>235.0</ele><time>2026-05-04T09:25:27.701Z</time></trkpt><trkpt lat="45.6713917" lon="9.9256083"><ele>234.99999999999997</ele><time>2026-05-04T09:25:28.695Z</time></trkpt><trkpt lat="45.67142" lon="9.925725"><ele>235.0</ele><time>2026-05-04T09:25:29.701Z</time></trkpt><trkpt lat="45.6714533" lon="9.92583"><ele>235.0</ele><time>2026-05-04T09:25:30.701Z</time></trkpt><trkpt lat="45.6714817" lon="9.9259533"><ele>235.0</ele><time>2026-05-04T09:25:31.7Z</time></trkpt><trkpt lat="45.6715083" lon="9.9260817"><ele>234.99999999999997</ele><time>2026-05-04T09:25:32.7Z</time></trkpt><trkpt lat="45.6715283" lon="9.9262133"><ele>235.0</ele><time>2026-05-04T09:25:33.699Z</time></trkpt><trkpt lat="45.6715333" lon="9.9263517"><ele>235.33333333333331</ele><time>2026-05-04T09:25:34.698Z</time></trkpt><trkpt lat="45.671525" lon="9.9264983"><ele>235.66666666666666</ele><time>2026-05-04T09:25:35.697Z</time></trkpt><trkpt lat="45.671505" lon="9.9266267"><ele>236.0</ele><time>2026-05-04T09:25:36.701Z</time></trkpt><trkpt lat="45.6714817" lon="9.9267467"><ele>236.33333333333331</ele><time>2026-05-04T09:25:37.701Z</time></trkpt><trkpt lat="45.6714683" lon="9.9268517"><ele>236.66666666666666</ele><time>2026-05-04T09:25:38.701Z</time></trkpt><trkpt lat="45.6714567" lon="9.9269517"><ele>237.0</ele><time>2026-05-04T09:25:39.701Z</time></trkpt><trkpt lat="45.6714517" lon="9.9271017"><ele>237.0</ele><time>2026-05-04T09:25:41.701Z</time></trkpt><trkpt lat="45.6714633" lon="9.9272"><ele>237.0</ele><time>2026-05-04T09:25:43.701Z</time></trkpt><trkpt lat="45.67148" lon="9.927325"><ele>237.0</ele><time>2026-05-04T09:25:45.701Z</time></trkpt><trkpt lat="45.6715017" lon="9.9274733"><ele>237.0</ele><time>2026-05-04T09:25:47.701Z</time></trkpt><trkpt lat="45.6715167" lon="9.9276267"><ele>237.0</ele><time>2026-05-04T09:25:49.701Z</time></trkpt><trkpt lat="45.6715433" lon="9.92777"><ele>236.83333333333334</ele><time>2026-05-04T09:25:51.701Z</time></trkpt><trkpt lat="45.6715767" lon="9.9279067"><ele>236.66666666666669</ele><time>2026-05-04T09:25:53.701Z</time></trkpt><trkpt lat="45.671595" lon="9.92802"><ele>236.5</ele><time>2026-05-04T09:25:55.701Z</time></trkpt><trkpt lat="45.671625" lon="9.9281067"><ele>236.33333333333334</ele><time>2026-05-04T09:25:57.7Z</time></trkpt><trkpt lat="45.6717033" lon="9.928135"><ele>236.16666666666669</ele><time>2026-05-04T09:26:00.699Z</time></trkpt><trkpt lat="45.671775" lon="9.9281383"><ele>236.0</ele><time>2026-05-04T09:26:02.7Z</time></trkpt><trkpt lat="45.67185" lon="9.928115"><ele>236.33333333333334</ele><time>2026-05-04T09:26:04.7Z</time></trkpt><trkpt lat="45.6719417" lon="9.9281217"><ele>236.66666666666669</ele><time>2026-05-04T09:26:06.7Z</time></trkpt><trkpt lat="45.6720317" lon="9.9281183"><ele>237.0</ele><time>2026-05-04T09:26:08.692Z</time></trkpt><trkpt lat="45.6721067" lon="9.92815"><ele>237.33333333333331</ele><time>2026-05-04T09:26:10.7Z</time></trkpt><trkpt lat="45.6721667" lon="9.928215"><ele>237.66666666666666</ele><time>2026-05-04T09:26:12.701Z</time></trkpt><trkpt lat="45.672205" lon="9.9282933"><ele>238.0</ele><time>2026-05-04T09:26:14.701Z</time></trkpt><trkpt lat="45.6722633" lon="9.928405"><ele>238.0</ele><time>2026-05-04T09:26:41.701Z</time></trkpt><trkpt lat="45.6722933" lon="9.92851"><ele>238.0</ele><time>2026-05-04T09:26:43.688Z</time></trkpt><trkpt lat="45.67231" lon="9.92866"><ele>238.0</ele><time>2026-05-04T09:26:45.694Z</time></trkpt><trkpt lat="45.6723133" lon="9.928825"><ele>238.0</ele><time>2026-05-04T09:26:47.701Z</time></trkpt><trkpt lat="45.6723317" lon="9.928935"><ele>238.0</ele><time>2026-05-04T09:26:48.701Z</time></trkpt><trkpt lat="45.6723483" lon="9.9290533"><ele>238.0</ele><time>2026-05-04T09:26:49.686Z</time></trkpt><trkpt lat="45.6723633" lon="9.9291817"><ele>238.0</ele><time>2026-05-04T09:26:50.701Z</time></trkpt><trkpt lat="45.6723783" lon="9.9293067"><ele>238.0</ele><time>2026-05-04T09:26:51.699Z</time></trkpt><trkpt lat="45.6723767" lon="9.9294433"><ele>238.0</ele><time>2026-05-04T09:26:52.701Z</time></trkpt><trkpt lat="45.67238" lon="9.9295767"><ele>238.0</ele><time>2026-05-04T09:26:53.7Z</time></trkpt><trkpt lat="45.6723883" lon="9.9297083"><ele>238.2</ele><time>2026-05-04T09:26:54.689Z</time></trkpt><trkpt lat="45.672395" lon="9.9298533"><ele>238.4</ele><time>2026-05-04T09:26:55.701Z</time></trkpt><trkpt lat="45.6724083" lon="9.93"><ele>238.59999999999997</ele><time>2026-05-04T09:26:56.696Z</time></trkpt><trkpt lat="45.6724167" lon="9.9301567"><ele>238.79999999999998</ele><time>2026-05-04T09:26:57.701Z</time></trkpt><trkpt lat="45.6724167" lon="9.9303133"><ele>239.0</ele><time>2026-05-04T09:26:58.701Z</time></trkpt><trkpt lat="45.672435" lon="9.9304667"><ele>239.0</ele><time>2026-05-04T09:26:59.692Z</time></trkpt><trkpt lat="45.6724517" lon="9.9306117"><ele>238.99999999999997</ele><time>2026-05-04T09:27:00.689Z</time></trkpt><trkpt lat="45.6724617" lon="9.930755"><ele>238.99999999999997</ele><time>2026-05-04T09:27:01.698Z</time></trkpt><trkpt lat="45.6724767" lon="9.93089"><ele>239.0</ele><time>2026-05-04T09:27:02.691Z</time></trkpt><trkpt lat="45.6724867" lon="9.9310167"><ele>239.0</ele><time>2026-05-04T09:27:03.7Z</time></trkpt><trkpt lat="45.672505" lon="9.9311367"><ele>238.39999999999998</ele><time>2026-05-04T09:27:04.699Z</time></trkpt><trkpt lat="45.672525" lon="9.9312633"><ele>237.79999999999998</ele><time>2026-05-04T09:27:05.701Z</time></trkpt><trkpt lat="45.6725467" lon="9.9314017"><ele>237.20000000000002</ele><time>2026-05-04T09:27:06.701Z</time></trkpt><trkpt lat="45.6725733" lon="9.9315417"><ele>236.60000000000002</ele><time>2026-05-04T09:27:07.701Z</time></trkpt><trkpt lat="45.6726067" lon="9.9316833"><ele>236.0</ele><time>2026-05-04T09:27:08.701Z</time></trkpt><trkpt lat="45.6726367" lon="9.93183"><ele>235.5</ele><time>2026-05-04T09:27:09.701Z</time></trkpt><trkpt lat="45.672655" lon="9.93199"><ele>235.0</ele><time>2026-05-04T09:27:10.701Z</time></trkpt><trkpt lat="45.6726783" lon="9.93216"><ele>234.5</ele><time>2026-05-04T09:27:11.7Z</time></trkpt><trkpt lat="45.6727083" lon="9.9323233"><ele>234.0</ele><time>2026-05-04T09:27:12.7Z</time></trkpt><trkpt lat="45.672735" lon="9.9324917"><ele>233.25</ele><time>2026-05-04T09:27:13.7Z</time></trkpt><trkpt lat="45.6727617" lon="9.93266"><ele>232.5</ele><time>2026-05-04T09:27:14.693Z</time></trkpt><trkpt lat="45.6727817" lon="9.932845"><ele>231.75</ele><time>2026-05-04T09:27:15.7Z</time></trkpt><trkpt lat="45.6728017" lon="9.933035"><ele>231.0</ele><time>2026-05-04T09:27:16.7Z</time></trkpt><trkpt lat="45.6728167" lon="9.9332167"><ele>232.75</ele><time>2026-05-04T09:27:17.699Z</time></trkpt><trkpt lat="45.6728433" lon="9.933385"><ele>234.5</ele><time>2026-05-04T09:27:18.691Z</time></trkpt><trkpt lat="45.6728567" lon="9.9335617"><ele>236.25</ele><time>2026-05-04T09:27:19.701Z</time></trkpt><trkpt lat="45.6728733" lon="9.9337333"><ele>238.0</ele><time>2026-05-04T09:27:20.701Z</time></trkpt><trkpt lat="45.6728917" lon="9.9339167"><ele>238.0</ele><time>2026-05-04T09:27:21.691Z</time></trkpt><trkpt lat="45.6729117" lon="9.9340917"><ele>238.0</ele><time>2026-05-04T09:27:22.688Z</time></trkpt><trkpt lat="45.6729267" lon="9.9342767"><ele>238.0</ele><time>2026-05-04T09:27:23.701Z</time></trkpt><trkpt lat="45.6729383" lon="9.9344517"><ele>238.0</ele><time>2026-05-04T09:27:24.7Z</time></trkpt><trkpt lat="45.6729533" lon="9.9346217"><ele>238.0</ele><time>2026-05-04T09:27:25.697Z</time></trkpt><trkpt lat="45.6729817" lon="9.93479"><ele>238.0</ele><time>2026-05-04T09:27:26.701Z</time></trkpt><trkpt lat="45.67304" lon="9.9349433"><ele>238.0</ele><time>2026-05-04T09:27:27.699Z</time></trkpt><trkpt lat="45.6730983" lon="9.935085"><ele>238.0</ele><time>2026-05-04T09:27:28.701Z</time></trkpt><trkpt lat="45.67315" lon="9.9352217"><ele>237.66666666666666</ele><time>2026-05-04T09:27:29.699Z</time></trkpt><trkpt lat="45.673205" lon="9.935345"><ele>237.33333333333331</ele><time>2026-05-04T09:27:30.701Z</time></trkpt><trkpt lat="45.6732483" lon="9.9354517"><ele>237.0</ele><time>2026-05-04T09:27:31.701Z</time></trkpt><trkpt lat="45.6732833" lon="9.9355383"><ele>236.66666666666669</ele><time>2026-05-04T09:27:32.701Z</time></trkpt><trkpt lat="45.6733167" lon="9.9356183"><ele>236.33333333333334</ele><time>2026-05-04T09:27:33.7Z</time></trkpt><trkpt lat="45.673365" lon="9.9357633"><ele>236.0</ele><time>2026-05-04T09:27:35.7Z</time></trkpt><trkpt lat="45.6734033" lon="9.9359217"><ele>235.50000000000003</ele><time>2026-05-04T09:27:37.701Z</time></trkpt><trkpt lat="45.6734167" lon="9.9360133"><ele>235.0</ele><time>2026-05-04T09:27:38.701Z</time></trkpt><trkpt lat="45.673435" lon="9.9361233"><ele>234.5</ele><time>2026-05-04T09:27:39.7Z</time></trkpt><trkpt lat="45.6734467" lon="9.936235"><ele>234.0</ele><time>2026-05-04T09:27:40.692Z</time></trkpt><trkpt lat="45.673455" lon="9.9363483"><ele>233.50000000000003</ele><time>2026-05-04T09:27:41.701Z</time></trkpt><trkpt lat="45.6734667" lon="9.9364617"><ele>233.0</ele><time>2026-05-04T09:27:42.701Z</time></trkpt><trkpt lat="45.6734817" lon="9.9365617"><ele>233.0</ele><time>2026-05-04T09:27:43.694Z</time></trkpt><trkpt lat="45.6734933" lon="9.936715"><ele>233.0</ele><time>2026-05-04T09:27:45.699Z</time></trkpt><trkpt lat="45.6735183" lon="9.93685"><ele>233.0</ele><time>2026-05-04T09:27:47.701Z</time></trkpt><trkpt lat="45.6735417" lon="9.937005"><ele>233.0</ele><time>2026-05-04T09:27:49.701Z</time></trkpt><trkpt lat="45.6735617" lon="9.9371917"><ele>233.0</ele><time>2026-05-04T09:27:51.699Z</time></trkpt><trkpt lat="45.6735783" lon="9.937295"><ele>236.66666666666669</ele><time>2026-05-04T09:27:52.699Z</time></trkpt><trkpt lat="45.6736083" lon="9.9374017"><ele>240.33333333333334</ele><time>2026-05-04T09:27:53.696Z</time></trkpt><trkpt lat="45.673635" lon="9.9375167"><ele>244.0</ele><time>2026-05-04T09:27:54.701Z</time></trkpt><trkpt lat="45.6736633" lon="9.9376367"><ele>247.66666666666669</ele><time>2026-05-04T09:27:55.698Z</time></trkpt><trkpt lat="45.6736817" lon="9.937745"><ele>251.33333333333334</ele><time>2026-05-04T09:27:56.7Z</time></trkpt><trkpt lat="45.673695" lon="9.9378333"><ele>255.0</ele><time>2026-05-04T09:27:57.691Z</time></trkpt><trkpt lat="45.6737133" lon="9.9379867"><ele>255.0</ele><time>2026-05-04T09:27:59.695Z</time></trkpt><trkpt lat="45.6737133" lon="9.9381067"><ele>255.0</ele><time>2026-05-04T09:28:01.684Z</time></trkpt><trkpt lat="45.6737217" lon="9.9382017"><ele>255.0</ele><time>2026-05-04T09:28:03.694Z</time></trkpt><trkpt lat="45.673755" lon="9.9383517"><ele>255.0</ele><time>2026-05-04T09:28:06.701Z</time></trkpt><trkpt lat="45.673765" lon="9.9384433"><ele>255.0</ele><time>2026-05-04T09:28:07.701Z</time></trkpt><trkpt lat="45.6737783" lon="9.938535"><ele>255.0</ele><time>2026-05-04T09:28:08.701Z</time></trkpt><trkpt lat="45.6737867" lon="9.938625"><ele>254.33333333333334</ele><time>2026-05-04T09:28:09.701Z</time></trkpt><trkpt lat="45.6738" lon="9.9387283"><ele>253.66666666666669</ele><time>2026-05-04T09:28:10.689Z</time></trkpt><trkpt lat="45.67381" lon="9.9388183"><ele>253.0</ele><time>2026-05-04T09:28:11.701Z</time></trkpt><trkpt lat="45.673815" lon="9.9389083"><ele>252.33333333333334</ele><time>2026-05-04T09:28:12.688Z</time></trkpt><trkpt lat="45.6738333" lon="9.9390517"><ele>251.66666666666669</ele><time>2026-05-04T09:28:14.693Z</time></trkpt><trkpt lat="45.6738383" lon="9.9391633"><ele>251.0</ele><time>2026-05-04T09:28:16.688Z</time></trkpt><trkpt lat="45.67385" lon="9.93929"><ele>249.60000000000002</ele><time>2026-05-04T09:28:18.693Z</time></trkpt><trkpt lat="45.6738567" lon="9.9394333"><ele>248.20000000000002</ele><time>2026-05-04T09:28:20.685Z</time></trkpt><trkpt lat="45.6738683" lon="9.9396"><ele>246.79999999999998</ele><time>2026-05-04T09:28:22.7Z</time></trkpt><trkpt lat="45.6738783" lon="9.9397667"><ele>245.39999999999998</ele><time>2026-05-04T09:28:24.701Z</time></trkpt><trkpt lat="45.673895" lon="9.9398583"><ele>244.0</ele><time>2026-05-04T09:28:25.701Z</time></trkpt><trkpt lat="45.6739267" lon="9.9399383"><ele>242.6</ele><time>2026-05-04T09:28:26.697Z</time></trkpt><trkpt lat="45.6739867" lon="9.940055"><ele>241.2</ele><time>2026-05-04T09:28:28.696Z</time></trkpt><trkpt lat="45.674" lon="9.9401733"><ele>239.79999999999998</ele><time>2026-05-04T09:28:30.701Z</time></trkpt><trkpt lat="45.6739417" lon="9.94023"><ele>238.39999999999998</ele><time>2026-05-04T09:28:32.696Z</time></trkpt><trkpt lat="45.67382" lon="9.9402467"><ele>237.0</ele><time>2026-05-04T09:28:34.7Z</time></trkpt><trkpt lat="45.67374" lon="9.9402533"><ele>237.0</ele><time>2026-05-04T09:28:35.701Z</time></trkpt><trkpt lat="45.6736617" lon="9.9402583"><ele>237.0</ele><time>2026-05-04T09:28:36.7Z</time></trkpt><trkpt lat="45.6735883" lon="9.94026"><ele>237.0</ele><time>2026-05-04T09:28:37.7Z</time></trkpt><trkpt lat="45.6735167" lon="9.94026"><ele>237.0</ele><time>2026-05-04T09:28:38.701Z</time></trkpt><trkpt lat="45.6734283" lon="9.9402617"><ele>237.0</ele><time>2026-05-04T09:28:39.7Z</time></trkpt><trkpt lat="45.6733483" lon="9.940265"><ele>237.0</ele><time>2026-05-04T09:28:40.69Z</time></trkpt><trkpt lat="45.6732733" lon="9.9402667"><ele>236.66666666666666</ele><time>2026-05-04T09:28:41.701Z</time></trkpt><trkpt lat="45.6732017" lon="9.9402617"><ele>236.33333333333331</ele><time>2026-05-04T09:28:42.685Z</time></trkpt><trkpt lat="45.6731317" lon="9.9402417"><ele>236.0</ele><time>2026-05-04T09:28:43.701Z</time></trkpt><trkpt lat="45.6730633" lon="9.9402283"><ele>235.66666666666666</ele><time>2026-05-04T09:28:44.701Z</time></trkpt><trkpt lat="45.6729583" lon="9.94024"><ele>235.33333333333331</ele><time>2026-05-04T09:28:46.698Z</time></trkpt><trkpt lat="45.6729" lon="9.9403133"><ele>235.0</ele><time>2026-05-04T09:28:48.688Z</time></trkpt><trkpt lat="45.6729283" lon="9.940455"><ele>235.0</ele><time>2026-05-04T09:28:59.69Z</time></trkpt><trkpt lat="45.6729883" lon="9.9405133"><ele>235.0</ele><time>2026-05-04T09:29:00.701Z</time></trkpt><trkpt lat="45.6730767" lon="9.940565"><ele>235.0</ele><time>2026-05-04T09:29:01.701Z</time></trkpt><trkpt lat="45.6731733" lon="9.9406217"><ele>235.0</ele><time>2026-05-04T09:29:02.701Z</time></trkpt><trkpt lat="45.67328" lon="9.9406767"><ele>235.0</ele><time>2026-05-04T09:29:03.698Z</time></trkpt><trkpt lat="45.6733883" lon="9.940735"><ele>235.0</ele><time>2026-05-04T09:29:04.688Z</time></trkpt><trkpt lat="45.6734967" lon="9.9407917"><ele>235.0</ele><time>2026-05-04T09:29:05.701Z</time></trkpt><trkpt lat="45.67361" lon="9.94085"><ele>235.0</ele><time>2026-05-04T09:29:06.701Z</time></trkpt><trkpt lat="45.6737167" lon="9.9409"><ele>235.0</ele><time>2026-05-04T09:29:07.701Z</time></trkpt><trkpt lat="45.6738333" lon="9.9409517"><ele>234.5</ele><time>2026-05-04T09:29:08.701Z</time></trkpt><trkpt lat="45.67395" lon="9.9410133"><ele>234.0</ele><time>2026-05-04T09:29:09.701Z</time></trkpt><trkpt lat="45.6740717" lon="9.94107"><ele>233.5</ele><time>2026-05-04T09:29:10.701Z</time></trkpt><trkpt lat="45.6741933" lon="9.9411217"><ele>233.0</ele><time>2026-05-04T09:29:11.701Z</time></trkpt><trkpt lat="45.6743167" lon="9.9411667"><ele>231.75</ele><time>2026-05-04T09:29:12.7Z</time></trkpt><trkpt lat="45.6744533" lon="9.9411967"><ele>230.5</ele><time>2026-05-04T09:29:13.701Z</time></trkpt><trkpt lat="45.674595" lon="9.9412267"><ele>229.25</ele><time>2026-05-04T09:29:14.701Z</time></trkpt><trkpt lat="45.674735" lon="9.9412567"><ele>228.0</ele><time>2026-05-04T09:29:15.7Z</time></trkpt><trkpt lat="45.6748883" lon="9.9412883"><ele>228.0</ele><time>2026-05-04T09:29:16.701Z</time></trkpt><trkpt lat="45.6750383" lon="9.941315"><ele>228.0</ele><time>2026-05-04T09:29:17.701Z</time></trkpt><trkpt lat="45.6751933" lon="9.9413383"><ele>228.0</ele><time>2026-05-04T09:29:18.699Z</time></trkpt><trkpt lat="45.6753467" lon="9.9413667"><ele>227.5</ele><time>2026-05-04T09:29:19.699Z</time></trkpt><trkpt lat="45.6754967" lon="9.941395"><ele>227.0</ele><time>2026-05-04T09:29:20.701Z</time></trkpt><trkpt lat="45.6756367" lon="9.9414317"><ele>226.5</ele><time>2026-05-04T09:29:21.701Z</time></trkpt><trkpt lat="45.6757667" lon="9.9414683"><ele>226.0</ele><time>2026-05-04T09:29:22.7Z</time></trkpt><trkpt lat="45.67591" lon="9.9415417"><ele>226.0</ele><time>2026-05-04T09:29:23.677Z</time></trkpt><trkpt lat="45.67605" lon="9.9416483"><ele>226.0</ele><time>2026-05-04T09:29:24.701Z</time></trkpt><trkpt lat="45.67617" lon="9.94178"><ele>226.0</ele><time>2026-05-04T09:29:25.701Z</time></trkpt><trkpt lat="45.67629" lon="9.941915"><ele>225.75</ele><time>2026-05-04T09:29:26.692Z</time></trkpt><trkpt lat="45.6764167" lon="9.9420383"><ele>225.5</ele><time>2026-05-04T09:29:27.701Z</time></trkpt><trkpt lat="45.6765417" lon="9.9421583"><ele>225.25</ele><time>2026-05-04T09:29:28.701Z</time></trkpt><trkpt lat="45.6766567" lon="9.942285"><ele>225.0</ele><time>2026-05-04T09:29:29.701Z</time></trkpt><trkpt lat="45.6767767" lon="9.9423967"><ele>225.0</ele><time>2026-05-04T09:29:30.697Z</time></trkpt><trkpt lat="45.6768883" lon="9.942515"><ele>225.0</ele><time>2026-05-04T09:29:31.7Z</time></trkpt><trkpt lat="45.677" lon="9.94263"><ele>225.0</ele><time>2026-05-04T09:29:32.688Z</time></trkpt><trkpt lat="45.677115" lon="9.9427383"><ele>225.0</ele><time>2026-05-04T09:29:33.701Z</time></trkpt><trkpt lat="45.677235" lon="9.9428483"><ele>226.0</ele><time>2026-05-04T09:29:34.686Z</time></trkpt><trkpt lat="45.677355" lon="9.942965"><ele>227.0</ele><time>2026-05-04T09:29:35.701Z</time></trkpt><trkpt lat="45.6774633" lon="9.9431017"><ele>228.0</ele><time>2026-05-04T09:29:36.701Z</time></trkpt><trkpt lat="45.677565" lon="9.9432583"><ele>229.0</ele><time>2026-05-04T09:29:37.7Z</time></trkpt><trkpt lat="45.6776567" lon="9.9434283"><ele>229.0</ele><time>2026-05-04T09:29:38.687Z</time></trkpt><trkpt lat="45.6777467" lon="9.9436033"><ele>229.0</ele><time>2026-05-04T09:29:39.7Z</time></trkpt><trkpt lat="45.6778367" lon="9.9437767"><ele>229.0</ele><time>2026-05-04T09:29:40.688Z</time></trkpt><trkpt lat="45.6779217" lon="9.9439567"><ele>230.33333333333331</ele><time>2026-05-04T09:29:41.698Z</time></trkpt><trkpt lat="45.678015" lon="9.9441317"><ele>231.66666666666669</ele><time>2026-05-04T09:29:42.689Z</time></trkpt><trkpt lat="45.6781017" lon="9.9443117"><ele>233.0</ele><time>2026-05-04T09:29:43.701Z</time></trkpt><trkpt lat="45.6782017" lon="9.9444817"><ele>230.33333333333334</ele><time>2026-05-04T09:29:44.701Z</time></trkpt><trkpt lat="45.6783117" lon="9.9446333"><ele>227.66666666666669</ele><time>2026-05-04T09:29:45.701Z</time></trkpt><trkpt lat="45.678425" lon="9.9447683"><ele>225.0</ele><time>2026-05-04T09:29:46.701Z</time></trkpt><trkpt lat="45.6785483" lon="9.9448983"><ele>225.33333333333331</ele><time>2026-05-04T09:29:47.701Z</time></trkpt><trkpt lat="45.6786683" lon="9.9450317"><ele>225.66666666666666</ele><time>2026-05-04T09:29:48.687Z</time></trkpt><trkpt lat="45.6787883" lon="9.9451717"><ele>226.0</ele><time>2026-05-04T09:29:49.699Z</time></trkpt><trkpt lat="45.6789083" lon="9.9453117"><ele>226.0</ele><time>2026-05-04T09:29:50.696Z</time></trkpt><trkpt lat="45.67903" lon="9.9454533"><ele>226.0</ele><time>2026-05-04T09:29:51.701Z</time></trkpt><trkpt lat="45.6791567" lon="9.945585"><ele>226.0</ele><time>2026-05-04T09:29:52.699Z</time></trkpt><trkpt lat="45.6792817" lon="9.94572"><ele>226.0</ele><time>2026-05-04T09:29:53.7Z</time></trkpt><trkpt lat="45.6794033" lon="9.9458583"><ele>226.0</ele><time>2026-05-04T09:29:54.701Z</time></trkpt><trkpt lat="45.6795267" lon="9.946"><ele>226.0</ele><time>2026-05-04T09:29:55.701Z</time></trkpt><trkpt lat="45.67965" lon="9.9461333"><ele>226.33333333333331</ele><time>2026-05-04T09:29:56.701Z</time></trkpt><trkpt lat="45.679775" lon="9.9462683"><ele>226.66666666666669</ele><time>2026-05-04T09:29:57.701Z</time></trkpt><trkpt lat="45.6798933" lon="9.9464017"><ele>227.0</ele><time>2026-05-04T09:29:58.701Z</time></trkpt><trkpt lat="45.680015" lon="9.94653"><ele>227.0</ele><time>2026-05-04T09:29:59.701Z</time></trkpt><trkpt lat="45.6801383" lon="9.946655"><ele>227.0</ele><time>2026-05-04T09:30:00.701Z</time></trkpt><trkpt lat="45.680265" lon="9.94676"><ele>227.0</ele><time>2026-05-04T09:30:01.701Z</time></trkpt><trkpt lat="45.680395" lon="9.9468533"><ele>227.0</ele><time>2026-05-04T09:30:02.7Z</time></trkpt><trkpt lat="45.6805367" lon="9.9469483"><ele>227.33333333333334</ele><time>2026-05-04T09:30:03.701Z</time></trkpt><trkpt lat="45.680675" lon="9.9470583"><ele>227.66666666666669</ele><time>2026-05-04T09:30:04.701Z</time></trkpt><trkpt lat="45.6807967" lon="9.9471933"><ele>228.0</ele><time>2026-05-04T09:30:05.701Z</time></trkpt><trkpt lat="45.680915" lon="9.9473283"><ele>228.0</ele><time>2026-05-04T09:30:06.698Z</time></trkpt><trkpt lat="45.68103" lon="9.9474567"><ele>228.0</ele><time>2026-05-04T09:30:07.701Z</time></trkpt><trkpt lat="45.6811433" lon="9.94757"><ele>228.0</ele><time>2026-05-04T09:30:08.694Z</time></trkpt><trkpt lat="45.681245" lon="9.947675"><ele>228.0</ele><time>2026-05-04T09:30:09.701Z</time></trkpt><trkpt lat="45.6813383" lon="9.94777"><ele>228.66666666666666</ele><time>2026-05-04T09:30:10.699Z</time></trkpt><trkpt lat="45.681425" lon="9.9478583"><ele>229.33333333333331</ele><time>2026-05-04T09:30:11.7Z</time></trkpt><trkpt lat="45.6815133" lon="9.947925"><ele>230.0</ele><time>2026-05-04T09:30:12.699Z</time></trkpt><trkpt lat="45.681585" lon="9.9479917"><ele>230.66666666666666</ele><time>2026-05-04T09:30:13.701Z</time></trkpt><trkpt lat="45.6816333" lon="9.948065"><ele>231.33333333333331</ele><time>2026-05-04T09:30:14.698Z</time></trkpt><trkpt lat="45.681655" lon="9.9481567"><ele>232.0</ele><time>2026-05-04T09:30:15.697Z</time></trkpt><trkpt lat="45.6816517" lon="9.94826"><ele>232.0</ele><time>2026-05-04T09:30:16.698Z</time></trkpt><trkpt lat="45.6816" lon="9.948355"><ele>232.0</ele><time>2026-05-04T09:30:17.696Z</time></trkpt><trkpt lat="45.6815267" lon="9.9484483"><ele>232.0</ele><time>2026-05-04T09:30:18.695Z</time></trkpt><trkpt lat="45.68145" lon="9.9485733"><ele>232.0</ele><time>2026-05-04T09:30:19.687Z</time></trkpt><trkpt lat="45.6814017" lon="9.9487217"><ele>232.0</ele><time>2026-05-04T09:30:20.7Z</time></trkpt><trkpt lat="45.681395" lon="9.9488767"><ele>233.0</ele><time>2026-05-04T09:30:21.692Z</time></trkpt><trkpt lat="45.6814217" lon="9.9490233"><ele>234.0</ele><time>2026-05-04T09:30:22.701Z</time></trkpt><trkpt lat="45.6814883" lon="9.9491583"><ele>235.0</ele><time>2026-05-04T09:30:23.686Z</time></trkpt><trkpt lat="45.6815617" lon="9.9492833"><ele>236.0</ele><time>2026-05-04T09:30:24.693Z</time></trkpt><trkpt lat="45.6816317" lon="9.9494183"><ele>238.25</ele><time>2026-05-04T09:30:25.691Z</time></trkpt><trkpt lat="45.681685" lon="9.949565"><ele>240.5</ele><time>2026-05-04T09:30:26.701Z</time></trkpt><trkpt lat="45.681715" lon="9.94973"><ele>242.75</ele><time>2026-05-04T09:30:27.689Z</time></trkpt><trkpt lat="45.6817417" lon="9.9499067"><ele>245.0</ele><time>2026-05-04T09:30:28.701Z</time></trkpt><trkpt lat="45.681775" lon="9.9500883"><ele>244.5</ele><time>2026-05-04T09:30:29.7Z</time></trkpt><trkpt lat="45.6818367" lon="9.9502467"><ele>244.0</ele><time>2026-05-04T09:30:30.693Z</time></trkpt><trkpt lat="45.6819133" lon="9.9504"><ele>243.5</ele><time>2026-05-04T09:30:31.695Z</time></trkpt><trkpt lat="45.6819883" lon="9.9505683"><ele>243.0</ele><time>2026-05-04T09:30:32.692Z</time></trkpt><trkpt lat="45.68204" lon="9.9507433"><ele>244.75</ele><time>2026-05-04T09:30:33.698Z</time></trkpt><trkpt lat="45.682075" lon="9.9509217"><ele>246.5</ele><time>2026-05-04T09:30:34.699Z</time></trkpt><trkpt lat="45.682095" lon="9.9511117"><ele>248.25</ele><time>2026-05-04T09:30:35.701Z</time></trkpt><trkpt lat="45.6821167" lon="9.9512967"><ele>250.0</ele><time>2026-05-04T09:30:36.701Z</time></trkpt><trkpt lat="45.6821467" lon="9.95148"><ele>250.0</ele><time>2026-05-04T09:30:37.699Z</time></trkpt><trkpt lat="45.6821933" lon="9.95166"><ele>250.0</ele><time>2026-05-04T09:30:38.701Z</time></trkpt><trkpt lat="45.6822633" lon="9.9518283"><ele>250.0</ele><time>2026-05-04T09:30:39.693Z</time></trkpt><trkpt lat="45.6823233" lon="9.9520017"><ele>250.0</ele><time>2026-05-04T09:30:40.698Z</time></trkpt><trkpt lat="45.6823833" lon="9.9521667"><ele>252.25</ele><time>2026-05-04T09:30:41.696Z</time></trkpt><trkpt lat="45.68241" lon="9.95234"><ele>254.5</ele><time>2026-05-04T09:30:42.701Z</time></trkpt><trkpt lat="45.6824133" lon="9.9525133"><ele>256.75</ele><time>2026-05-04T09:30:43.692Z</time></trkpt><trkpt lat="45.6823933" lon="9.95268"><ele>259.0</ele><time>2026-05-04T09:30:44.701Z</time></trkpt><trkpt lat="45.68236" lon="9.9528383"><ele>259.5</ele><time>2026-05-04T09:30:45.698Z</time></trkpt><trkpt lat="45.6823133" lon="9.9529983"><ele>260.0</ele><time>2026-05-04T09:30:46.7Z</time></trkpt><trkpt lat="45.68226" lon="9.953155"><ele>260.5</ele><time>2026-05-04T09:30:47.701Z</time></trkpt><trkpt lat="45.682195" lon="9.9533033"><ele>261.0</ele><time>2026-05-04T09:30:48.699Z</time></trkpt><trkpt lat="45.6821283" lon="9.95345"><ele>262.2</ele><time>2026-05-04T09:30:49.701Z</time></trkpt><trkpt lat="45.682055" lon="9.95358"><ele>263.40000000000003</ele><time>2026-05-04T09:30:50.7Z</time></trkpt><trkpt lat="45.6819783" lon="9.953695"><ele>264.6</ele><time>2026-05-04T09:30:51.701Z</time></trkpt><trkpt lat="45.6819333" lon="9.95383"><ele>265.8</ele><time>2026-05-04T09:30:52.701Z</time></trkpt><trkpt lat="45.6819317" lon="9.9539733"><ele>267.0</ele><time>2026-05-04T09:30:53.697Z</time></trkpt><trkpt lat="45.681965" lon="9.954125"><ele>268.5</ele><time>2026-05-04T09:30:54.701Z</time></trkpt><trkpt lat="45.682015" lon="9.9542733"><ele>270.0</ele><time>2026-05-04T09:30:55.7Z</time></trkpt><trkpt lat="45.6820367" lon="9.954425"><ele>271.5</ele><time>2026-05-04T09:30:56.686Z</time></trkpt><trkpt lat="45.6820367" lon="9.9545883"><ele>273.0</ele><time>2026-05-04T09:30:57.701Z</time></trkpt><trkpt lat="45.6820167" lon="9.9547467"><ele>273.0</ele><time>2026-05-04T09:30:58.698Z</time></trkpt><trkpt lat="45.681995" lon="9.95491"><ele>273.0</ele><time>2026-05-04T09:30:59.701Z</time></trkpt><trkpt lat="45.68198" lon="9.9550667"><ele>273.0</ele><time>2026-05-04T09:31:00.699Z</time></trkpt><trkpt lat="45.68198" lon="9.9551967"><ele>273.0</ele><time>2026-05-04T09:31:01.696Z</time></trkpt><trkpt lat="45.6819817" lon="9.955315"><ele>273.0</ele><time>2026-05-04T09:31:02.7Z</time></trkpt><trkpt lat="45.682005" lon="9.9554583"><ele>274.4</ele><time>2026-05-04T09:31:04.701Z</time></trkpt><trkpt lat="45.68194" lon="9.9555317"><ele>275.8</ele><time>2026-05-04T09:31:07.689Z</time></trkpt><trkpt lat="45.68184" lon="9.95549"><ele>277.2</ele><time>2026-05-04T09:31:09.7Z</time></trkpt><trkpt lat="45.681765" lon="9.955465"><ele>278.6</ele><time>2026-05-04T09:31:10.701Z</time></trkpt><trkpt lat="45.681675" lon="9.9554367"><ele>280.0</ele><time>2026-05-04T09:31:11.694Z</time></trkpt><trkpt lat="45.6815733" lon="9.9554117"><ele>280.2</ele><time>2026-05-04T09:31:12.701Z</time></trkpt><trkpt lat="45.6814683" lon="9.955375"><ele>280.4</ele><time>2026-05-04T09:31:13.701Z</time></trkpt><trkpt lat="45.681365" lon="9.955335"><ele>280.6</ele><time>2026-05-04T09:31:14.696Z</time></trkpt><trkpt lat="45.6812583" lon="9.9552983"><ele>280.8</ele><time>2026-05-04T09:31:15.69Z</time></trkpt><trkpt lat="45.68116" lon="9.95526"><ele>281.0</ele><time>2026-05-04T09:31:16.701Z</time></trkpt><trkpt lat="45.681065" lon="9.955225"><ele>281.0</ele><time>2026-05-04T09:31:17.694Z</time></trkpt><trkpt lat="45.6809733" lon="9.9551917"><ele>281.0</ele><time>2026-05-04T09:31:18.701Z</time></trkpt><trkpt lat="45.6808933" lon="9.95516"><ele>281.0</ele><time>2026-05-04T09:31:19.701Z</time></trkpt><trkpt lat="45.68081" lon="9.9551333"><ele>281.0</ele><time>2026-05-04T09:31:20.701Z</time></trkpt><trkpt lat="45.6807317" lon="9.9551083"><ele>281.0</ele><time>2026-05-04T09:31:21.698Z</time></trkpt><trkpt lat="45.680665" lon="9.955085"><ele>281.0</ele><time>2026-05-04T09:31:22.7Z</time></trkpt><trkpt lat="45.680595" lon="9.9550633"><ele>281.0</ele><time>2026-05-04T09:31:23.699Z</time></trkpt><trkpt lat="45.6805333" lon="9.9550383"><ele>281.0</ele><time>2026-05-04T09:31:24.696Z</time></trkpt><trkpt lat="45.6804383" lon="9.9549617"><ele>281.0</ele><time>2026-05-04T09:31:26.689Z</time></trkpt><trkpt lat="45.680425" lon="9.9547867"><ele>281.0</ele><time>2026-05-04T09:31:28.69Z</time></trkpt><trkpt lat="45.68045" lon="9.954675"><ele>281.0</ele><time>2026-05-04T09:31:29.69Z</time></trkpt><trkpt lat="45.680465" lon="9.9545467"><ele>281.0</ele><time>2026-05-04T09:31:30.695Z</time></trkpt><trkpt lat="45.680475" lon="9.9544283"><ele>281.0</ele><time>2026-05-04T09:31:31.701Z</time></trkpt><trkpt lat="45.680505" lon="9.95433"><ele>281.0</ele><time>2026-05-04T09:31:32.698Z</time></trkpt><trkpt lat="45.6805333" lon="9.954185"><ele>281.0</ele><time>2026-05-04T09:31:34.694Z</time></trkpt><trkpt lat="45.680455" lon="9.9541367"><ele>281.0</ele><time>2026-05-04T09:31:36.701Z</time></trkpt><trkpt lat="45.6803667" lon="9.95431"><ele>280.40000000000003</ele><time>2026-05-04T09:31:38.701Z</time></trkpt><trkpt lat="45.6803267" lon="9.9544483"><ele>279.8</ele><time>2026-05-04T09:31:39.7Z</time></trkpt><trkpt lat="45.6802883" lon="9.9545717"><ele>279.20000000000005</ele><time>2026-05-04T09:31:40.696Z</time></trkpt><trkpt lat="45.6802483" lon="9.95468"><ele>278.6</ele><time>2026-05-04T09:31:41.701Z</time></trkpt><trkpt lat="45.6802033" lon="9.9547983"><ele>278.0</ele><time>2026-05-04T09:31:42.701Z</time></trkpt><trkpt lat="45.6801533" lon="9.9549033"><ele>280.33333333333337</ele><time>2026-05-04T09:31:43.7Z</time></trkpt><trkpt lat="45.6800967" lon="9.9549833"><ele>282.6666666666667</ele><time>2026-05-04T09:31:44.69Z</time></trkpt><trkpt lat="45.68002" lon="9.9550233"><ele>285.0</ele><time>2026-05-04T09:31:45.701Z</time></trkpt><trkpt lat="45.679935" lon="9.9550217"><ele>287.3333333333333</ele><time>2026-05-04T09:31:46.695Z</time></trkpt><trkpt lat="45.6798633" lon="9.9549833"><ele>289.66666666666663</ele><time>2026-05-04T09:31:47.701Z</time></trkpt><trkpt lat="45.6798067" lon="9.9548517"><ele>292.0</ele><time>2026-05-04T09:31:49.701Z</time></trkpt><trkpt lat="45.6798367" lon="9.954675"><ele>292.0</ele><time>2026-05-04T09:31:51.701Z</time></trkpt><trkpt lat="45.6798533" lon="9.9545667"><ele>292.0</ele><time>2026-05-04T09:31:52.683Z</time></trkpt><trkpt lat="45.6798683" lon="9.9544417"><ele>292.0</ele><time>2026-05-04T09:31:53.701Z</time></trkpt><trkpt lat="45.6798883" lon="9.9542983"><ele>292.0</ele><time>2026-05-04T09:31:54.694Z</time></trkpt><trkpt lat="45.679905" lon="9.954155"><ele>292.0</ele><time>2026-05-04T09:31:55.701Z</time></trkpt><trkpt lat="45.67992" lon="9.954025"><ele>292.8333333333333</ele><time>2026-05-04T09:31:56.701Z</time></trkpt><trkpt lat="45.67993" lon="9.953905"><ele>293.66666666666663</ele><time>2026-05-04T09:31:57.701Z</time></trkpt><trkpt lat="45.6799533" lon="9.9537983"><ele>294.5</ele><time>2026-05-04T09:31:58.697Z</time></trkpt><trkpt lat="45.6799733" lon="9.9537117"><ele>295.3333333333333</ele><time>2026-05-04T09:31:59.701Z</time></trkpt><trkpt lat="45.6799817" lon="9.9535917"><ele>296.1666666666667</ele><time>2026-05-04T09:32:01.701Z</time></trkpt><trkpt lat="45.6799033" lon="9.9536083"><ele>297.0</ele><time>2026-05-04T09:32:04.695Z</time></trkpt><trkpt lat="45.6798717" lon="9.9536933"><ele>297.0</ele><time>2026-05-04T09:32:05.688Z</time></trkpt><trkpt lat="45.679845" lon="9.95379"><ele>297.0</ele><time>2026-05-04T09:32:06.687Z</time></trkpt><trkpt lat="45.679815" lon="9.9538933"><ele>297.0</ele><time>2026-05-04T09:32:07.699Z</time></trkpt><trkpt lat="45.679785" lon="9.954"><ele>297.0</ele><time>2026-05-04T09:32:08.698Z</time></trkpt><trkpt lat="45.6797533" lon="9.954105"><ele>297.0</ele><time>2026-05-04T09:32:09.68Z</time></trkpt><trkpt lat="45.6797267" lon="9.9541883"><ele>297.0</ele><time>2026-05-04T09:32:10.699Z</time></trkpt><trkpt lat="45.6796933" lon="9.9543167"><ele>292.0</ele><time>2026-05-04T09:32:12.697Z</time></trkpt><trkpt lat="45.6796783" lon="9.95441"><ele>292.0</ele><time>2026-05-04T09:32:14.701Z</time></trkpt><trkpt lat="45.6796333" lon="9.9544733"><ele>292.0</ele><time>2026-05-04T09:32:18.691Z</time></trkpt><trkpt lat="45.6796333" lon="9.9544733"><ele>292.0</ele><time>2026-05-04T09:32:18.691Z</time></trkpt><trkpt lat="45.6796333" lon="9.9544733"><ele>292.0</ele><time>2026-05-04T09:32:18.691Z</time></trkpt><trkpt lat="45.6796333" lon="9.9544733"><ele>292.0</ele><time>2026-05-04T09:32:18.691Z</time></trkpt><trkpt lat="45.6796333" lon="9.9544733"><ele>292.0</ele><time>2026-05-04T09:32:18.691Z</time></trkpt><trkpt lat="45.6796333" lon="9.9544733"><ele>292.0</ele><time>2026-05-04T09:32:18.691Z</time></trkpt><trkpt lat="45.6796333" lon="9.9544733"><ele>292.0</ele><time>2026-05-04T09:32:18.691Z</time></trkpt><trkpt lat="45.6796333" lon="9.9544733"><ele>292.0</ele><time>2026-05-04T09:32:18.691Z</time></trkpt><trkpt lat="45.6796333" lon="9.9544733"><ele>292.0</ele><time>2026-05-04T09:32:18.691Z</time></trkpt><trkpt lat="45.6796333" lon="9.9544733"><ele>292.0</ele><time>2026-05-04T09:32:18.691Z</time></trkpt></trkseg></trk></gpx>